<?xml version='1.0' encoding='UTF-8'?><gpx version="1.1" creator="JPX - https://github.com/jenetics/jpx" xmlns="http://www.topografix.com/GPX/1/1"><trk><trkseg><trkpt lat="41.076653673088146" lon="14.542081558033074"><ele>271.6</ele><time>2026-03-28T12:52:42.999Z</time></trkpt><trkpt lat="41.07671566155337" lon="14.541935048228565"><ele>272.20000000000005</ele><time>2026-03-28T12:53:17.998Z</time></trkpt><trkpt lat="41.07671737515018" lon="14.541851397482834"><ele>272.79999999999995</ele><time>2026-03-28T12:53:18.998Z</time></trkpt><trkpt lat="41.076739550231764" lon="14.541690819339005"><ele>273.4</ele><time>2026-03-28T12:53:20.998Z</time></trkpt><trkpt lat="41.07677699028695" lon="14.541608276935122"><ele>274.0</ele><time>2026-03-28T12:53:21.998Z</time></trkpt><trkpt lat="41.07679443847436" lon="14.541515497218231"><ele>274.0</ele><time>2026-03-28T12:53:22.998Z</time></trkpt><trkpt lat="41.07679757722796" lon="14.541408030073894"><ele>274.0</ele><time>2026-03-28T12:53:23.998Z</time></trkpt><trkpt lat="41.076831670228984" lon="14.54131706985756"><ele>274.0</ele><time>2026-03-28T12:53:24.998Z</time></trkpt><trkpt lat="41.076840478590526" lon="14.541212060858932"><ele>274.0</ele><time>2026-03-28T12:53:25.998Z</time></trkpt><trkpt lat="41.07686768156517" lon="14.541067384013674"><ele>274.0</ele><time>2026-03-28T12:53:27.998Z</time></trkpt><trkpt lat="41.0769620949687" lon="14.541024828160912"><ele>274.0</ele><time>2026-03-28T12:53:35.998Z</time></trkpt><trkpt lat="41.07702168746637" lon="14.541057448555446"><ele>273.8333333333333</ele><time>2026-03-28T12:53:36.998Z</time></trkpt><trkpt lat="41.077083426471816" lon="14.541084754324954"><ele>273.66666666666663</ele><time>2026-03-28T12:53:37.998Z</time></trkpt><trkpt lat="41.07714336453412" lon="14.541110343805983"><ele>273.5</ele><time>2026-03-28T12:53:38.998Z</time></trkpt><trkpt lat="41.07721899275285" lon="14.541130643080917"><ele>273.3333333333333</ele><time>2026-03-28T12:53:39.998Z</time></trkpt><trkpt lat="41.077296277658874" lon="14.541169582954325"><ele>273.1666666666667</ele><time>2026-03-28T12:53:40.998Z</time></trkpt><trkpt lat="41.07738000049907" lon="14.541207481606612"><ele>273.0</ele><time>2026-03-28T12:53:41.998Z</time></trkpt><trkpt lat="41.0774561999869" lon="14.541254627643548"><ele>273.0</ele><time>2026-03-28T12:53:42.998Z</time></trkpt><trkpt lat="41.07753524460513" lon="14.541297075072324"><ele>273.0</ele><time>2026-03-28T12:53:43.998Z</time></trkpt><trkpt lat="41.07760241554624" lon="14.54136236305326"><ele>273.0</ele><time>2026-03-28T12:53:44.998Z</time></trkpt><trkpt lat="41.07770431167121" lon="14.541435599373601"><ele>273.0</ele><time>2026-03-28T12:53:46.998Z</time></trkpt><trkpt lat="41.077787395290805" lon="14.541509575498525"><ele>273.0</ele><time>2026-03-28T12:53:48.998Z</time></trkpt><trkpt lat="41.07784495914152" lon="14.541570049519988"><ele>273.0</ele><time>2026-03-28T12:53:50.997Z</time></trkpt><trkpt lat="41.07777005971878" lon="14.541701309756634"><ele>273.0</ele><time>2026-03-28T12:53:52.997Z</time></trkpt><trkpt lat="41.07773532929353" lon="14.541789956236425"><ele>273.0</ele><time>2026-03-28T12:53:53.997Z</time></trkpt><trkpt lat="41.07770095641354" lon="14.541877443235848"><ele>273.0</ele><time>2026-03-28T12:53:54.997Z</time></trkpt><trkpt lat="41.07765987112112" lon="14.54197842391355"><ele>273.0</ele><time>2026-03-28T12:53:55.997Z</time></trkpt><trkpt lat="41.07761280704126" lon="14.542077253122772"><ele>273.0</ele><time>2026-03-28T12:53:56.997Z</time></trkpt><trkpt lat="41.0775652673831" lon="14.542207004119003"><ele>272.8333333333333</ele><time>2026-03-28T12:53:57.997Z</time></trkpt><trkpt lat="41.07748961530011" lon="14.542300204845798"><ele>272.6666666666667</ele><time>2026-03-28T12:53:59Z</time></trkpt><trkpt lat="41.07742625049074" lon="14.542387745483977"><ele>272.5</ele><time>2026-03-28T12:54:00Z</time></trkpt><trkpt lat="41.077358985560586" lon="14.542465165697674"><ele>272.33333333333337</ele><time>2026-03-28T12:54:01Z</time></trkpt><trkpt lat="41.077300702644045" lon="14.54252619376291"><ele>272.1666666666667</ele><time>2026-03-28T12:54:02Z</time></trkpt><trkpt lat="41.077248688106025" lon="14.542581409202896"><ele>272.0</ele><time>2026-03-28T12:54:03Z</time></trkpt><trkpt lat="41.07716210070489" lon="14.542673203742181"><ele>271.83333333333337</ele><time>2026-03-28T12:54:05Z</time></trkpt><trkpt lat="41.07711365636156" lon="14.542769949278862"><ele>271.6666666666667</ele><time>2026-03-28T12:54:07Z</time></trkpt><trkpt lat="41.077054460127925" lon="14.542917590154888"><ele>271.5</ele><time>2026-03-28T12:54:10Z</time></trkpt><trkpt lat="41.07703644519042" lon="14.542998327995582"><ele>271.3333333333333</ele><time>2026-03-28T12:54:11Z</time></trkpt><trkpt lat="41.07701222330847" lon="14.543094695301292"><ele>271.16666666666663</ele><time>2026-03-28T12:54:12Z</time></trkpt><trkpt lat="41.07698254884953" lon="14.543193928506131"><ele>271.0</ele><time>2026-03-28T12:54:13Z</time></trkpt><trkpt lat="41.076948824780374" lon="14.543296192257642"><ele>270.8333333333333</ele><time>2026-03-28T12:54:14Z</time></trkpt><trkpt lat="41.0769139509892" lon="14.543408587870696"><ele>270.66666666666663</ele><time>2026-03-28T12:54:15Z</time></trkpt><trkpt lat="41.07688347018098" lon="14.543517708783437"><ele>270.5</ele><time>2026-03-28T12:54:16Z</time></trkpt><trkpt lat="41.07685652572206" lon="14.543615227619922"><ele>270.3333333333333</ele><time>2026-03-28T12:54:17Z</time></trkpt><trkpt lat="41.07682447044068" lon="14.543721719365642"><ele>270.1666666666667</ele><time>2026-03-28T12:54:18Z</time></trkpt><trkpt lat="41.07679173719665" lon="14.543824772816127"><ele>270.0</ele><time>2026-03-28T12:54:19Z</time></trkpt><trkpt lat="41.07675423839984" lon="14.543951635790656"><ele>269.8</ele><time>2026-03-28T12:54:20Z</time></trkpt><trkpt lat="41.076707812566724" lon="14.544042752913537"><ele>269.6</ele><time>2026-03-28T12:54:21Z</time></trkpt><trkpt lat="41.07667112314397" lon="14.544159413915597"><ele>269.4</ele><time>2026-03-28T12:54:22Z</time></trkpt><trkpt lat="41.07663434173851" lon="14.544276367410339"><ele>269.2</ele><time>2026-03-28T12:54:23Z</time></trkpt><trkpt lat="41.07659361239347" lon="14.544408491273387"><ele>269.0</ele><time>2026-03-28T12:54:24Z</time></trkpt><trkpt lat="41.07655598548087" lon="14.544532347507198"><ele>268.6666666666667</ele><time>2026-03-28T12:54:25Z</time></trkpt><trkpt lat="41.07651930702787" lon="14.544653081721323"><ele>268.33333333333337</ele><time>2026-03-28T12:54:26Z</time></trkpt><trkpt lat="41.07648582655205" lon="14.544763289162473"><ele>268.0</ele><time>2026-03-28T12:54:27Z</time></trkpt><trkpt lat="41.076452734001066" lon="14.544873669514766"><ele>267.6666666666667</ele><time>2026-03-28T12:54:28Z</time></trkpt><trkpt lat="41.076423255528" lon="14.544977341859946"><ele>267.3333333333333</ele><time>2026-03-28T12:54:29Z</time></trkpt><trkpt lat="41.07639601223739" lon="14.545080861904019"><ele>267.0</ele><time>2026-03-28T12:54:30Z</time></trkpt><trkpt lat="41.076385052403474" lon="14.545183237897428"><ele>267.0</ele><time>2026-03-28T12:54:31Z</time></trkpt><trkpt lat="41.0763413941578" lon="14.545283689784286"><ele>267.0</ele><time>2026-03-28T12:54:31.999Z</time></trkpt><trkpt lat="41.0762960601915" lon="14.545372413849417"><ele>267.0</ele><time>2026-03-28T12:54:32.999Z</time></trkpt><trkpt lat="41.07623426223498" lon="14.545454612801077"><ele>267.0</ele><time>2026-03-28T12:54:33.999Z</time></trkpt><trkpt lat="41.076163837039374" lon="14.545524214690158"><ele>267.0</ele><time>2026-03-28T12:54:34.999Z</time></trkpt><trkpt lat="41.076098473404045" lon="14.54559572612614"><ele>267.0</ele><time>2026-03-28T12:54:35.999Z</time></trkpt><trkpt lat="41.07603185663537" lon="14.54567529004229"><ele>267.0</ele><time>2026-03-28T12:54:36.999Z</time></trkpt><trkpt lat="41.07595038998321" lon="14.545760494686046"><ele>267.0</ele><time>2026-03-28T12:54:37.999Z</time></trkpt><trkpt lat="41.07586574988857" lon="14.545838161283623"><ele>267.0</ele><time>2026-03-28T12:54:38.999Z</time></trkpt><trkpt lat="41.075787429030974" lon="14.545903187315673"><ele>267.0</ele><time>2026-03-28T12:54:39.999Z</time></trkpt><trkpt lat="41.07570578372662" lon="14.545982221615981"><ele>267.0</ele><time>2026-03-28T12:54:40.999Z</time></trkpt><trkpt lat="41.075626087987345" lon="14.546053132146024"><ele>267.0</ele><time>2026-03-28T12:54:41.999Z</time></trkpt><trkpt lat="41.07553440216229" lon="14.546129725779558"><ele>267.0</ele><time>2026-03-28T12:54:42.999Z</time></trkpt><trkpt lat="41.07543963316385" lon="14.546203843868824"><ele>267.0</ele><time>2026-03-28T12:54:43.999Z</time></trkpt><trkpt lat="41.075352027706366" lon="14.546264037185267"><ele>267.0</ele><time>2026-03-28T12:54:44.999Z</time></trkpt><trkpt lat="41.07525861202145" lon="14.54633104301525"><ele>267.0</ele><time>2026-03-28T12:54:45.999Z</time></trkpt><trkpt lat="41.07515263175436" lon="14.54641230627184"><ele>266.75</ele><time>2026-03-28T12:54:46.999Z</time></trkpt><trkpt lat="41.075058665296794" lon="14.546490145860167"><ele>266.5</ele><time>2026-03-28T12:54:47.999Z</time></trkpt><trkpt lat="41.07496524993697" lon="14.546566002851769"><ele>266.25</ele><time>2026-03-28T12:54:48.999Z</time></trkpt><trkpt lat="41.07486707980688" lon="14.546650924357841"><ele>266.0</ele><time>2026-03-28T12:54:49.999Z</time></trkpt><trkpt lat="41.074762486875095" lon="14.54674256389126"><ele>266.0</ele><time>2026-03-28T12:54:50.999Z</time></trkpt><trkpt lat="41.07466387792831" lon="14.54683164018723"><ele>266.0</ele><time>2026-03-28T12:54:51.999Z</time></trkpt><trkpt lat="41.07457310199626" lon="14.546908335721138"><ele>266.0</ele><time>2026-03-28T12:54:52.999Z</time></trkpt><trkpt lat="41.07445931666514" lon="14.54698436006683"><ele>266.0</ele><time>2026-03-28T12:54:53.999Z</time></trkpt><trkpt lat="41.07437590685158" lon="14.547050662900682"><ele>266.0</ele><time>2026-03-28T12:54:54.999Z</time></trkpt><trkpt lat="41.074259755507036" lon="14.547140956396158"><ele>266.0</ele><time>2026-03-28T12:54:55.999Z</time></trkpt><trkpt lat="41.074166105039374" lon="14.547214010075411"><ele>266.0</ele><time>2026-03-28T12:54:56.999Z</time></trkpt><trkpt lat="41.07408427665134" lon="14.547280547881888"><ele>266.0</ele><time>2026-03-28T12:54:57.999Z</time></trkpt><trkpt lat="41.073992450049246" lon="14.547344851287853"><ele>266.0</ele><time>2026-03-28T12:54:58.999Z</time></trkpt><trkpt lat="41.07390509132959" lon="14.547369283059133"><ele>266.1666666666667</ele><time>2026-03-28T12:54:59.999Z</time></trkpt><trkpt lat="41.07383361056482" lon="14.547369203911565"><ele>266.33333333333337</ele><time>2026-03-28T12:55:00.999Z</time></trkpt><trkpt lat="41.073767222407604" lon="14.547347073531121"><ele>266.5</ele><time>2026-03-28T12:55:01.999Z</time></trkpt><trkpt lat="41.073669340701" lon="14.547351296009591"><ele>266.6666666666667</ele><time>2026-03-28T12:55:03.999Z</time></trkpt><trkpt lat="41.073607905959136" lon="14.547463379521338"><ele>266.8333333333333</ele><time>2026-03-28T12:55:05.999Z</time></trkpt><trkpt lat="41.07360863402194" lon="14.547565379252134"><ele>267.0</ele><time>2026-03-28T12:55:06.999Z</time></trkpt><trkpt lat="41.07353824797969" lon="14.54770803151113"><ele>267.0</ele><time>2026-03-28T12:55:08.999Z</time></trkpt><trkpt lat="41.0734875264365" lon="14.547769540524282"><ele>267.0</ele><time>2026-03-28T12:55:09.999Z</time></trkpt><trkpt lat="41.07343503608367" lon="14.547834931975453"><ele>267.0</ele><time>2026-03-28T12:55:10.999Z</time></trkpt><trkpt lat="41.07337553480233" lon="14.547915575582955"><ele>267.0</ele><time>2026-03-28T12:55:11.998Z</time></trkpt><trkpt lat="41.0733108580646" lon="14.547982180013221"><ele>267.0</ele><time>2026-03-28T12:55:12.998Z</time></trkpt><trkpt lat="41.07325205256456" lon="14.548079237860215"><ele>267.0</ele><time>2026-03-28T12:55:13.998Z</time></trkpt><trkpt lat="41.07319983729265" lon="14.548173244868686"><ele>267.0</ele><time>2026-03-28T12:55:14.998Z</time></trkpt><trkpt lat="41.07314254979802" lon="14.548278610584955"><ele>267.0</ele><time>2026-03-28T12:55:15.998Z</time></trkpt><trkpt lat="41.07308753127682" lon="14.548386158806485"><ele>267.0</ele><time>2026-03-28T12:55:16.998Z</time></trkpt><trkpt lat="41.07302892205852" lon="14.54850143459495"><ele>267.0</ele><time>2026-03-28T12:55:17.998Z</time></trkpt><trkpt lat="41.072970869124966" lon="14.548615616220568"><ele>267.0</ele><time>2026-03-28T12:55:18.998Z</time></trkpt><trkpt lat="41.072933317741395" lon="14.548717328224514"><ele>266.6</ele><time>2026-03-28T12:55:19.998Z</time></trkpt><trkpt lat="41.072878208456714" lon="14.548803659442335"><ele>266.2</ele><time>2026-03-28T12:55:20.998Z</time></trkpt><trkpt lat="41.07284432505475" lon="14.548890069313531"><ele>265.8</ele><time>2026-03-28T12:55:21.998Z</time></trkpt><trkpt lat="41.07279252913795" lon="14.548987453238936"><ele>265.4</ele><time>2026-03-28T12:55:22.998Z</time></trkpt><trkpt lat="41.072732154072156" lon="14.549089697821591"><ele>265.0</ele><time>2026-03-28T12:55:23.998Z</time></trkpt><trkpt lat="41.07267087439851" lon="14.549200719878598"><ele>265.0</ele><time>2026-03-28T12:55:24.998Z</time></trkpt><trkpt lat="41.07260815274944" lon="14.549316701496023"><ele>265.0</ele><time>2026-03-28T12:55:25.998Z</time></trkpt><trkpt lat="41.07254873850313" lon="14.549432735084736"><ele>265.0</ele><time>2026-03-28T12:55:26.998Z</time></trkpt><trkpt lat="41.07248777420645" lon="14.549551362461175"><ele>265.0</ele><time>2026-03-28T12:55:27.998Z</time></trkpt><trkpt lat="41.072418678486315" lon="14.549685577207136"><ele>265.0</ele><time>2026-03-28T12:55:28.998Z</time></trkpt><trkpt lat="41.07235203739728" lon="14.549815971826638"><ele>265.25</ele><time>2026-03-28T12:55:29.998Z</time></trkpt><trkpt lat="41.07227591070321" lon="14.549963516940263"><ele>265.5</ele><time>2026-03-28T12:55:30.998Z</time></trkpt><trkpt lat="41.0722149815334" lon="14.550081653108467"><ele>265.75</ele><time>2026-03-28T12:55:31.998Z</time></trkpt><trkpt lat="41.07213480157967" lon="14.55026915324968"><ele>266.0</ele><time>2026-03-28T12:55:32.998Z</time></trkpt><trkpt lat="41.072043815748465" lon="14.550422273045445"><ele>265.25</ele><time>2026-03-28T12:55:33.998Z</time></trkpt><trkpt lat="41.07196247516585" lon="14.55056175158806"><ele>264.5</ele><time>2026-03-28T12:55:34.998Z</time></trkpt><trkpt lat="41.07187965528199" lon="14.550714703006545"><ele>263.75</ele><time>2026-03-28T12:55:35.998Z</time></trkpt><trkpt lat="41.07178630986313" lon="14.550885148464602"><ele>263.0</ele><time>2026-03-28T12:55:36.998Z</time></trkpt><trkpt lat="41.07169949828533" lon="14.551041556438754"><ele>263.33333333333337</ele><time>2026-03-28T12:55:37.998Z</time></trkpt><trkpt lat="41.07159782296177" lon="14.551239256823203"><ele>263.6666666666667</ele><time>2026-03-28T12:55:38.998Z</time></trkpt><trkpt lat="41.071496320661765" lon="14.55139919385779"><ele>264.0</ele><time>2026-03-28T12:55:39.998Z</time></trkpt><trkpt lat="41.07139790161692" lon="14.551554616187206"><ele>264.0</ele><time>2026-03-28T12:55:40.998Z</time></trkpt><trkpt lat="41.07129408141654" lon="14.551715991320597"><ele>264.0</ele><time>2026-03-28T12:55:41.998Z</time></trkpt><trkpt lat="41.07118407896454" lon="14.551877565547738"><ele>264.0</ele><time>2026-03-28T12:55:42.998Z</time></trkpt><trkpt lat="41.07105749219788" lon="14.552030976420646"><ele>264.0</ele><time>2026-03-28T12:55:43.998Z</time></trkpt><trkpt lat="41.07095060985338" lon="14.552180032453084"><ele>264.0</ele><time>2026-03-28T12:55:44.998Z</time></trkpt><trkpt lat="41.07084613551614" lon="14.552345575272758"><ele>264.0</ele><time>2026-03-28T12:55:45.998Z</time></trkpt><trkpt lat="41.07072784956483" lon="14.55250585781404"><ele>264.3333333333333</ele><time>2026-03-28T12:55:46.998Z</time></trkpt><trkpt lat="41.070609742900054" lon="14.552658509484186"><ele>264.66666666666663</ele><time>2026-03-28T12:55:47.998Z</time></trkpt><trkpt lat="41.070496419614244" lon="14.552810351077593"><ele>265.0</ele><time>2026-03-28T12:55:48.998Z</time></trkpt><trkpt lat="41.07037890945959" lon="14.552957780542082"><ele>264.3333333333333</ele><time>2026-03-28T12:55:49.998Z</time></trkpt><trkpt lat="41.07026952019299" lon="14.55310976801383"><ele>263.6666666666667</ele><time>2026-03-28T12:55:50.998Z</time></trkpt><trkpt lat="41.07014572882489" lon="14.553280628045218"><ele>263.0</ele><time>2026-03-28T12:55:51.997Z</time></trkpt><trkpt lat="41.07003384755743" lon="14.553427181095739"><ele>263.0</ele><time>2026-03-28T12:55:52.997Z</time></trkpt><trkpt lat="41.069917285749355" lon="14.553580756811801"><ele>263.0</ele><time>2026-03-28T12:55:53.997Z</time></trkpt><trkpt lat="41.06980512416129" lon="14.553732029712469"><ele>263.0</ele><time>2026-03-28T12:55:54.997Z</time></trkpt><trkpt lat="41.06968937081474" lon="14.553888828890926"><ele>262.6666666666667</ele><time>2026-03-28T12:55:55.997Z</time></trkpt><trkpt lat="41.06956811093906" lon="14.554018702365614"><ele>262.3333333333333</ele><time>2026-03-28T12:55:56.997Z</time></trkpt><trkpt lat="41.06946043242906" lon="14.554183647508543"><ele>262.0</ele><time>2026-03-28T12:55:57.997Z</time></trkpt><trkpt lat="41.06934499495864" lon="14.554326541637812"><ele>262.0</ele><time>2026-03-28T12:55:58.997Z</time></trkpt><trkpt lat="41.06922952569912" lon="14.554486108725746"><ele>262.0</ele><time>2026-03-28T12:55:59.997Z</time></trkpt><trkpt lat="41.06911018255893" lon="14.554626050579927"><ele>262.0</ele><time>2026-03-28T12:56:00.997Z</time></trkpt><trkpt lat="41.06900298476123" lon="14.554768254433828"><ele>262.0</ele><time>2026-03-28T12:56:01.997Z</time></trkpt><trkpt lat="41.068908493306495" lon="14.554918686051854"><ele>262.0</ele><time>2026-03-28T12:56:02.997Z</time></trkpt><trkpt lat="41.06878485081602" lon="14.555056071397253"><ele>262.0</ele><time>2026-03-28T12:56:03.997Z</time></trkpt><trkpt lat="41.0686755991295" lon="14.555199379191672"><ele>262.0</ele><time>2026-03-28T12:56:05Z</time></trkpt><trkpt lat="41.068558680508076" lon="14.5553515776077"><ele>262.0</ele><time>2026-03-28T12:56:06Z</time></trkpt><trkpt lat="41.06845195843022" lon="14.555483371971118"><ele>262.0</ele><time>2026-03-28T12:56:07Z</time></trkpt><trkpt lat="41.06833214956562" lon="14.55562407967844"><ele>262.3333333333333</ele><time>2026-03-28T12:56:08Z</time></trkpt><trkpt lat="41.06822227741363" lon="14.555763538032991"><ele>262.6666666666667</ele><time>2026-03-28T12:56:09Z</time></trkpt><trkpt lat="41.068100350001856" lon="14.555872495721989"><ele>263.0</ele><time>2026-03-28T12:56:10Z</time></trkpt><trkpt lat="41.0679357142708" lon="14.555989541849456"><ele>263.0</ele><time>2026-03-28T12:56:11Z</time></trkpt><trkpt lat="41.06779872383997" lon="14.556102448194832"><ele>263.0</ele><time>2026-03-28T12:56:12Z</time></trkpt><trkpt lat="41.06766868405504" lon="14.556206631307887"><ele>263.0</ele><time>2026-03-28T12:56:13Z</time></trkpt><trkpt lat="41.06753650334937" lon="14.55631075603496"><ele>263.6666666666667</ele><time>2026-03-28T12:56:14Z</time></trkpt><trkpt lat="41.06739194182353" lon="14.556425869362371"><ele>264.3333333333333</ele><time>2026-03-28T12:56:15Z</time></trkpt><trkpt lat="41.06725591941912" lon="14.556532097639188"><ele>265.0</ele><time>2026-03-28T12:56:16Z</time></trkpt><trkpt lat="41.067109690062544" lon="14.556645186239328"><ele>265.0</ele><time>2026-03-28T12:56:17Z</time></trkpt><trkpt lat="41.06696816547788" lon="14.556754772901986"><ele>265.0</ele><time>2026-03-28T12:56:18Z</time></trkpt><trkpt lat="41.066823712681426" lon="14.55686994242868"><ele>265.0</ele><time>2026-03-28T12:56:19Z</time></trkpt><trkpt lat="41.06668299080961" lon="14.556986468763812"><ele>266.0</ele><time>2026-03-28T12:56:20Z</time></trkpt><trkpt lat="41.06654745178482" lon="14.557109762017696"><ele>267.0</ele><time>2026-03-28T12:56:21Z</time></trkpt><trkpt lat="41.06642000558259" lon="14.557231790050517"><ele>268.0</ele><time>2026-03-28T12:56:22Z</time></trkpt><trkpt lat="41.06628879018885" lon="14.557371343560634"><ele>268.0</ele><time>2026-03-28T12:56:23Z</time></trkpt><trkpt lat="41.066166250042684" lon="14.557469075892188"><ele>268.0</ele><time>2026-03-28T12:56:24Z</time></trkpt><trkpt lat="41.066057649044225" lon="14.557572289989725"><ele>268.0</ele><time>2026-03-28T12:56:25Z</time></trkpt><trkpt lat="41.06595530125222" lon="14.557684843815968"><ele>268.0</ele><time>2026-03-28T12:56:26Z</time></trkpt><trkpt lat="41.065848186534716" lon="14.557767376603017"><ele>268.0</ele><time>2026-03-28T12:56:27Z</time></trkpt><trkpt lat="41.06572977147668" lon="14.557810962075594"><ele>268.0</ele><time>2026-03-28T12:56:28Z</time></trkpt><trkpt lat="41.06560584160135" lon="14.557863562574315"><ele>268.0</ele><time>2026-03-28T12:56:29Z</time></trkpt><trkpt lat="41.06547865312127" lon="14.557915325661694"><ele>268.0</ele><time>2026-03-28T12:56:30Z</time></trkpt><trkpt lat="41.06536081564046" lon="14.557977218316738"><ele>268.0</ele><time>2026-03-28T12:56:31Z</time></trkpt><trkpt lat="41.06524522345914" lon="14.558015711437516"><ele>268.0</ele><time>2026-03-28T12:56:32Z</time></trkpt><trkpt lat="41.065133827914615" lon="14.558069849418489"><ele>268.0</ele><time>2026-03-28T12:56:33Z</time></trkpt><trkpt lat="41.06502356747513" lon="14.558113620900743"><ele>268.0</ele><time>2026-03-28T12:56:34Z</time></trkpt><trkpt lat="41.06493630756263" lon="14.558132520730219"><ele>268.0</ele><time>2026-03-28T12:56:35Z</time></trkpt><trkpt lat="41.06486794612579" lon="14.558147383403508"><ele>267.6</ele><time>2026-03-28T12:56:36Z</time></trkpt><trkpt lat="41.064761840779106" lon="14.558128944680213"><ele>267.20000000000005</ele><time>2026-03-28T12:56:37.999Z</time></trkpt><trkpt lat="41.06468426340925" lon="14.558100050161698"><ele>266.8</ele><time>2026-03-28T12:56:38.999Z</time></trkpt><trkpt lat="41.064577989734865" lon="14.558055026406459"><ele>266.40000000000003</ele><time>2026-03-28T12:56:39.999Z</time></trkpt><trkpt lat="41.06446827789314" lon="14.558004005570394"><ele>266.0</ele><time>2026-03-28T12:56:40.999Z</time></trkpt><trkpt lat="41.06435231299221" lon="14.557952766145513"><ele>266.0</ele><time>2026-03-28T12:56:41.999Z</time></trkpt><trkpt lat="41.06424224626319" lon="14.5579039623097"><ele>266.0</ele><time>2026-03-28T12:56:42.999Z</time></trkpt><trkpt lat="41.0641335415986" lon="14.557890489139531"><ele>266.0</ele><time>2026-03-28T12:56:43.999Z</time></trkpt><trkpt lat="41.06401345130824" lon="14.55791894280922"><ele>266.0</ele><time>2026-03-28T12:56:44.999Z</time></trkpt><trkpt lat="41.06390120195636" lon="14.557989156886496"><ele>265.8</ele><time>2026-03-28T12:56:45.999Z</time></trkpt><trkpt lat="41.06378680322604" lon="14.558050030233828"><ele>265.6</ele><time>2026-03-28T12:56:46.999Z</time></trkpt><trkpt lat="41.063686666631206" lon="14.558122622338812"><ele>265.4</ele><time>2026-03-28T12:56:47.999Z</time></trkpt><trkpt lat="41.063605076033966" lon="14.558183936111357"><ele>265.2</ele><time>2026-03-28T12:56:48.999Z</time></trkpt><trkpt lat="41.06353190353046" lon="14.558235448995859"><ele>265.0</ele><time>2026-03-28T12:56:49.999Z</time></trkpt><trkpt lat="41.06346889307493" lon="14.558279263320133"><ele>265.0</ele><time>2026-03-28T12:56:50.999Z</time></trkpt><trkpt lat="41.06334980737216" lon="14.55835538416312"><ele>265.0</ele><time>2026-03-28T12:56:52.999Z</time></trkpt><trkpt lat="41.06326244606241" lon="14.558423793977964"><ele>265.0</ele><time>2026-03-28T12:56:53.999Z</time></trkpt><trkpt lat="41.06317051251182" lon="14.558495338764741"><ele>265.0</ele><time>2026-03-28T12:56:54.999Z</time></trkpt><trkpt lat="41.063051891778606" lon="14.558568376626557"><ele>265.0</ele><time>2026-03-28T12:56:55.999Z</time></trkpt><trkpt lat="41.062919046068124" lon="14.558644303780447"><ele>265.0</ele><time>2026-03-28T12:56:56.999Z</time></trkpt><trkpt lat="41.06281423870961" lon="14.558690628813572"><ele>265.0</ele><time>2026-03-28T12:56:57.999Z</time></trkpt><trkpt lat="41.06277384901649" lon="14.558764783364854"><ele>265.0</ele><time>2026-03-28T12:56:58.999Z</time></trkpt><trkpt lat="41.06268354040953" lon="14.558824272676667"><ele>265.0</ele><time>2026-03-28T12:56:59.999Z</time></trkpt><trkpt lat="41.06259945858254" lon="14.558881182558626"><ele>265.0</ele><time>2026-03-28T12:57:00.999Z</time></trkpt><trkpt lat="41.06251306880325" lon="14.558933068919158"><ele>265.0</ele><time>2026-03-28T12:57:01.999Z</time></trkpt><trkpt lat="41.062437951562146" lon="14.558983722894014"><ele>265.0</ele><time>2026-03-28T12:57:02.999Z</time></trkpt><trkpt lat="41.062364067503815" lon="14.559020912240065"><ele>265.0</ele><time>2026-03-28T12:57:03.999Z</time></trkpt><trkpt lat="41.062295986988" lon="14.559061761350842"><ele>265.0</ele><time>2026-03-28T12:57:04.999Z</time></trkpt><trkpt lat="41.06223903326835" lon="14.559100737937932"><ele>265.0</ele><time>2026-03-28T12:57:05.999Z</time></trkpt><trkpt lat="41.06217135683941" lon="14.55920089563082"><ele>264.8</ele><time>2026-03-28T12:57:08.999Z</time></trkpt><trkpt lat="41.06224224142699" lon="14.55935924288411"><ele>264.6</ele><time>2026-03-28T12:57:10.999Z</time></trkpt><trkpt lat="41.062299692039744" lon="14.559432018101056"><ele>264.4</ele><time>2026-03-28T12:57:11.999Z</time></trkpt><trkpt lat="41.062351390357236" lon="14.559523210276724"><ele>264.2</ele><time>2026-03-28T12:57:12.999Z</time></trkpt><trkpt lat="41.06240160235695" lon="14.55963523395692"><ele>264.0</ele><time>2026-03-28T12:57:13.999Z</time></trkpt><trkpt lat="41.06245484257182" lon="14.55975195181624"><ele>263.75</ele><time>2026-03-28T12:57:14.999Z</time></trkpt><trkpt lat="41.062504002539534" lon="14.55986969608828"><ele>263.5</ele><time>2026-03-28T12:57:15.999Z</time></trkpt><trkpt lat="41.062552544456544" lon="14.560008478580551"><ele>263.25</ele><time>2026-03-28T12:57:16.999Z</time></trkpt><trkpt lat="41.06260322639729" lon="14.560147335841416"><ele>263.0</ele><time>2026-03-28T12:57:17.999Z</time></trkpt><trkpt lat="41.06268061667771" lon="14.56030297912859"><ele>262.75</ele><time>2026-03-28T12:57:18.999Z</time></trkpt><trkpt lat="41.062746463530544" lon="14.56046322106885"><ele>262.5</ele><time>2026-03-28T12:57:19.998Z</time></trkpt><trkpt lat="41.06281700698592" lon="14.560631209213174"><ele>262.25</ele><time>2026-03-28T12:57:20.998Z</time></trkpt><trkpt lat="41.062878519091356" lon="14.56077836964074"><ele>262.0</ele><time>2026-03-28T12:57:21.998Z</time></trkpt><trkpt lat="41.062934302140754" lon="14.560935284700115"><ele>262.0</ele><time>2026-03-28T12:57:22.998Z</time></trkpt><trkpt lat="41.062996066253774" lon="14.56108642737049"><ele>262.0</ele><time>2026-03-28T12:57:23.998Z</time></trkpt><trkpt lat="41.06304864412156" lon="14.561246595389195"><ele>262.0</ele><time>2026-03-28T12:57:24.998Z</time></trkpt><trkpt lat="41.06310720602627" lon="14.561406986452168"><ele>262.0</ele><time>2026-03-28T12:57:25.998Z</time></trkpt><trkpt lat="41.06316494215892" lon="14.561568852646097"><ele>262.0</ele><time>2026-03-28T12:57:26.998Z</time></trkpt><trkpt lat="41.063214981562645" lon="14.56173757455511"><ele>262.0</ele><time>2026-03-28T12:57:27.998Z</time></trkpt><trkpt lat="41.06326202742551" lon="14.561913085942491"><ele>262.0</ele><time>2026-03-28T12:57:28.998Z</time></trkpt><trkpt lat="41.06330816652985" lon="14.562084342624757"><ele>262.0</ele><time>2026-03-28T12:57:29.998Z</time></trkpt><trkpt lat="41.06335352934806" lon="14.562257114696719"><ele>261.5</ele><time>2026-03-28T12:57:30.998Z</time></trkpt><trkpt lat="41.063385120439825" lon="14.562430655575362"><ele>261.0</ele><time>2026-03-28T12:57:31.998Z</time></trkpt><trkpt lat="41.06341718445686" lon="14.562603486410119"><ele>260.5</ele><time>2026-03-28T12:57:32.998Z</time></trkpt><trkpt lat="41.063450738896066" lon="14.5627658474314"><ele>260.0</ele><time>2026-03-28T12:57:33.998Z</time></trkpt><trkpt lat="41.063454727515804" lon="14.562954583437687"><ele>259.75</ele><time>2026-03-28T12:57:34.998Z</time></trkpt><trkpt lat="41.06347075646038" lon="14.563128480983933"><ele>259.5</ele><time>2026-03-28T12:57:35.998Z</time></trkpt><trkpt lat="41.06348210248671" lon="14.563281337438069"><ele>259.25</ele><time>2026-03-28T12:57:36.998Z</time></trkpt><trkpt lat="41.06349233034718" lon="14.563436683828241"><ele>259.0</ele><time>2026-03-28T12:57:37.998Z</time></trkpt><trkpt lat="41.06349053747172" lon="14.563577267633486"><ele>259.0</ele><time>2026-03-28T12:57:38.998Z</time></trkpt><trkpt lat="41.06348408341984" lon="14.563689594195699"><ele>259.0</ele><time>2026-03-28T12:57:39.998Z</time></trkpt><trkpt lat="41.063479681962605" lon="14.563819242403472"><ele>259.0</ele><time>2026-03-28T12:57:40.998Z</time></trkpt><trkpt lat="41.06346630823769" lon="14.56396285479311"><ele>259.0</ele><time>2026-03-28T12:57:41.998Z</time></trkpt><trkpt lat="41.06346554635542" lon="14.564119429475058"><ele>259.0</ele><time>2026-03-28T12:57:42.998Z</time></trkpt><trkpt lat="41.0634258420433" lon="14.564257624724247"><ele>259.0</ele><time>2026-03-28T12:57:43.998Z</time></trkpt><trkpt lat="41.06337407125696" lon="14.564387548499512"><ele>259.0</ele><time>2026-03-28T12:57:44.998Z</time></trkpt><trkpt lat="41.06333165754782" lon="14.564571211722317"><ele>259.0</ele><time>2026-03-28T12:57:45.998Z</time></trkpt><trkpt lat="41.06324957088146" lon="14.564779561586894"><ele>259.0</ele><time>2026-03-28T12:57:46.998Z</time></trkpt><trkpt lat="41.063178276121405" lon="14.564982916941787"><ele>257.3333333333333</ele><time>2026-03-28T12:57:47.998Z</time></trkpt><trkpt lat="41.063084822343285" lon="14.565184200991528"><ele>255.66666666666669</ele><time>2026-03-28T12:57:48.998Z</time></trkpt><trkpt lat="41.0630149557374" lon="14.565411498050942"><ele>254.0</ele><time>2026-03-28T12:57:49.998Z</time></trkpt><trkpt lat="41.062922890255614" lon="14.565639594001812"><ele>253.33333333333334</ele><time>2026-03-28T12:57:50.998Z</time></trkpt><trkpt lat="41.06284459358438" lon="14.565879602647357"><ele>252.66666666666669</ele><time>2026-03-28T12:57:51.998Z</time></trkpt><trkpt lat="41.06274948565152" lon="14.566111149589458"><ele>252.0</ele><time>2026-03-28T12:57:52.998Z</time></trkpt><trkpt lat="41.06265499034974" lon="14.566348354791133"><ele>251.33333333333331</ele><time>2026-03-28T12:57:53.998Z</time></trkpt><trkpt lat="41.06256845503916" lon="14.566575681571887"><ele>250.66666666666666</ele><time>2026-03-28T12:57:54.998Z</time></trkpt><trkpt lat="41.062488869005854" lon="14.566800000209168"><ele>250.0</ele><time>2026-03-28T12:57:55.998Z</time></trkpt><trkpt lat="41.06239812798325" lon="14.567028633654115"><ele>249.66666666666666</ele><time>2026-03-28T12:57:56.998Z</time></trkpt><trkpt lat="41.06233772384044" lon="14.567257296672954"><ele>249.33333333333331</ele><time>2026-03-28T12:57:57.998Z</time></trkpt><trkpt lat="41.06230029073047" lon="14.567503330622042"><ele>249.0</ele><time>2026-03-28T12:57:58.998Z</time></trkpt><trkpt lat="41.0622914205271" lon="14.567761107261164"><ele>248.0</ele><time>2026-03-28T12:57:59.997Z</time></trkpt><trkpt lat="41.06227045274923" lon="14.568015595065901"><ele>247.0</ele><time>2026-03-28T12:58:00.997Z</time></trkpt><trkpt lat="41.062244738465246" lon="14.568278909427514"><ele>246.0</ele><time>2026-03-28T12:58:01.997Z</time></trkpt><trkpt lat="41.06222065029927" lon="14.568543994492062"><ele>246.0</ele><time>2026-03-28T12:58:02.997Z</time></trkpt><trkpt lat="41.062199545420135" lon="14.568807093978721"><ele>246.0</ele><time>2026-03-28T12:58:03.997Z</time></trkpt><trkpt lat="41.0621743502002" lon="14.569061351071648"><ele>246.0</ele><time>2026-03-28T12:58:04.997Z</time></trkpt><trkpt lat="41.0621470455154" lon="14.569330239511528"><ele>247.0</ele><time>2026-03-28T12:58:05.997Z</time></trkpt><trkpt lat="41.06211592808295" lon="14.569577307292292"><ele>248.0</ele><time>2026-03-28T12:58:06.997Z</time></trkpt><trkpt lat="41.06209050588467" lon="14.569839664358653"><ele>249.0</ele><time>2026-03-28T12:58:07.997Z</time></trkpt><trkpt lat="41.06206793895922" lon="14.570097481280627"><ele>249.33333333333331</ele><time>2026-03-28T12:58:08.997Z</time></trkpt><trkpt lat="41.0620490943051" lon="14.57035922084163"><ele>249.66666666666666</ele><time>2026-03-28T12:58:09.997Z</time></trkpt><trkpt lat="41.06202569195103" lon="14.570615901916796"><ele>250.0</ele><time>2026-03-28T12:58:11Z</time></trkpt><trkpt lat="41.061995599120884" lon="14.570874792787405"><ele>250.0</ele><time>2026-03-28T12:58:12Z</time></trkpt><trkpt lat="41.06194864487134" lon="14.57112565993709"><ele>250.0</ele><time>2026-03-28T12:58:13Z</time></trkpt><trkpt lat="41.061870948273835" lon="14.571360057443439"><ele>250.0</ele><time>2026-03-28T12:58:14Z</time></trkpt><trkpt lat="41.06177832161722" lon="14.571588824719093"><ele>250.66666666666666</ele><time>2026-03-28T12:58:15Z</time></trkpt><trkpt lat="41.06166810107628" lon="14.571816694094572"><ele>251.33333333333331</ele><time>2026-03-28T12:58:16Z</time></trkpt><trkpt lat="41.061553793931154" lon="14.572043096373298"><ele>252.0</ele><time>2026-03-28T12:58:17Z</time></trkpt><trkpt lat="41.06145723380479" lon="14.572290943284159"><ele>253.33333333333331</ele><time>2026-03-28T12:58:18Z</time></trkpt><trkpt lat="41.061340300712786" lon="14.572515982243162"><ele>254.66666666666666</ele><time>2026-03-28T12:58:19Z</time></trkpt><trkpt lat="41.061219777051846" lon="14.572746930740257"><ele>256.0</ele><time>2026-03-28T12:58:20Z</time></trkpt><trkpt lat="41.06109888538507" lon="14.572981516275323"><ele>256.5</ele><time>2026-03-28T12:58:21Z</time></trkpt><trkpt lat="41.060954051589825" lon="14.573212411451678"><ele>257.0</ele><time>2026-03-28T12:58:22Z</time></trkpt><trkpt lat="41.06082490963416" lon="14.573455046737875"><ele>258.0</ele><time>2026-03-28T12:58:23Z</time></trkpt><trkpt lat="41.06070316688525" lon="14.573700181984805"><ele>259.0</ele><time>2026-03-28T12:58:24Z</time></trkpt><trkpt lat="41.06059315447151" lon="14.573957228541193"><ele>260.0</ele><time>2026-03-28T12:58:25Z</time></trkpt><trkpt lat="41.0604782359059" lon="14.574176306201164"><ele>260.0</ele><time>2026-03-28T12:58:26Z</time></trkpt><trkpt lat="41.06035441496712" lon="14.57438988928315"><ele>260.0</ele><time>2026-03-28T12:58:27Z</time></trkpt><trkpt lat="41.06020478893023" lon="14.574552277844354"><ele>260.0</ele><time>2026-03-28T12:58:28Z</time></trkpt><trkpt lat="41.06002998651876" lon="14.574701796986604"><ele>260.33333333333337</ele><time>2026-03-28T12:58:29Z</time></trkpt><trkpt lat="41.05984914179896" lon="14.574853266752667"><ele>260.6666666666667</ele><time>2026-03-28T12:58:30Z</time></trkpt><trkpt lat="41.059670799042074" lon="14.57500918726439"><ele>261.0</ele><time>2026-03-28T12:58:31Z</time></trkpt><trkpt lat="41.05949558546158" lon="14.575155908962776"><ele>261.0</ele><time>2026-03-28T12:58:32Z</time></trkpt><trkpt lat="41.059294872928525" lon="14.575301489700381"><ele>261.0</ele><time>2026-03-28T12:58:33Z</time></trkpt><trkpt lat="41.059116203933726" lon="14.575467118436393"><ele>261.0</ele><time>2026-03-28T12:58:34Z</time></trkpt><trkpt lat="41.05892763395747" lon="14.57561597217736"><ele>260.6666666666667</ele><time>2026-03-28T12:58:35Z</time></trkpt><trkpt lat="41.05875548604202" lon="14.575792709212909"><ele>260.33333333333337</ele><time>2026-03-28T12:58:36Z</time></trkpt><trkpt lat="41.05858509740956" lon="14.575976815472353"><ele>260.0</ele><time>2026-03-28T12:58:37Z</time></trkpt><trkpt lat="41.05842497675452" lon="14.576186228776132"><ele>259.6666666666667</ele><time>2026-03-28T12:58:38Z</time></trkpt><trkpt lat="41.058253875423" lon="14.576381315373997"><ele>259.3333333333333</ele><time>2026-03-28T12:58:39Z</time></trkpt><trkpt lat="41.0580860807101" lon="14.576562970554582"><ele>259.0</ele><time>2026-03-28T12:58:40Z</time></trkpt><trkpt lat="41.05790576234322" lon="14.576736391379162"><ele>259.0</ele><time>2026-03-28T12:58:41Z</time></trkpt><trkpt lat="41.05771477109033" lon="14.576881280159641"><ele>259.0</ele><time>2026-03-28T12:58:42Z</time></trkpt><trkpt lat="41.05754940367024" lon="14.577068354446256"><ele>259.0</ele><time>2026-03-28T12:58:43Z</time></trkpt><trkpt lat="41.05728410134637" lon="14.577069100188147"><ele>258.0</ele><time>2026-03-28T12:58:43.999Z</time></trkpt><trkpt lat="41.0570638629029" lon="14.57713151700644"><ele>257.0</ele><time>2026-03-28T12:58:44.999Z</time></trkpt><trkpt lat="41.05684411779325" lon="14.577193758851847"><ele>257.0</ele><time>2026-03-28T12:58:45.999Z</time></trkpt><trkpt lat="41.056628717334426" lon="14.577268418296443"><ele>257.0</ele><time>2026-03-28T12:58:46.999Z</time></trkpt><trkpt lat="41.056422329868305" lon="14.57735617528546"><ele>257.0</ele><time>2026-03-28T12:58:47.999Z</time></trkpt><trkpt lat="41.05622980546017" lon="14.577473078636052"><ele>257.0</ele><time>2026-03-28T12:58:48.999Z</time></trkpt><trkpt lat="41.05604576559251" lon="14.577635778698722"><ele>257.0</ele><time>2026-03-28T12:58:49.999Z</time></trkpt><trkpt lat="41.05587572486" lon="14.577832639093682"><ele>257.0</ele><time>2026-03-28T12:58:50.999Z</time></trkpt><trkpt lat="41.055710931145654" lon="14.578051404453678"><ele>258.0</ele><time>2026-03-28T12:58:51.999Z</time></trkpt><trkpt lat="41.05554220761179" lon="14.578272834181536"><ele>259.0</ele><time>2026-03-28T12:58:52.999Z</time></trkpt><trkpt lat="41.055362190868294" lon="14.578484902041843"><ele>259.0</ele><time>2026-03-28T12:58:53.999Z</time></trkpt><trkpt lat="41.055182036618426" lon="14.578689661166491"><ele>259.0</ele><time>2026-03-28T12:58:54.999Z</time></trkpt><trkpt lat="41.054996166329886" lon="14.57889677600829"><ele>259.5</ele><time>2026-03-28T12:58:55.999Z</time></trkpt><trkpt lat="41.054808077447504" lon="14.579101305605086"><ele>260.0</ele><time>2026-03-28T12:58:56.999Z</time></trkpt><trkpt lat="41.05462179781629" lon="14.579308112653063"><ele>259.5</ele><time>2026-03-28T12:58:57.999Z</time></trkpt><trkpt lat="41.054432019166924" lon="14.579518497116036"><ele>259.0</ele><time>2026-03-28T12:58:58.999Z</time></trkpt><trkpt lat="41.054246317723255" lon="14.579723146276676"><ele>259.0</ele><time>2026-03-28T12:58:59.999Z</time></trkpt><trkpt lat="41.05407192100269" lon="14.579920111440535"><ele>259.0</ele><time>2026-03-28T12:59:00.999Z</time></trkpt><trkpt lat="41.053898772700734" lon="14.58010581555564"><ele>259.0</ele><time>2026-03-28T12:59:01.999Z</time></trkpt><trkpt lat="41.05373059235516" lon="14.580296764232502"><ele>259.0</ele><time>2026-03-28T12:59:02.999Z</time></trkpt><trkpt lat="41.05357662422937" lon="14.58051035459006"><ele>259.0</ele><time>2026-03-28T12:59:03.999Z</time></trkpt><trkpt lat="41.053440071549545" lon="14.58075287632985"><ele>258.66666666666663</ele><time>2026-03-28T12:59:04.999Z</time></trkpt><trkpt lat="41.0533291607605" lon="14.580999204379399"><ele>258.3333333333333</ele><time>2026-03-28T12:59:05.999Z</time></trkpt><trkpt lat="41.05323516993596" lon="14.581233146194494"><ele>258.0</ele><time>2026-03-28T12:59:06.999Z</time></trkpt><trkpt lat="41.053152665614185" lon="14.581464000074968"><ele>258.0</ele><time>2026-03-28T12:59:07.999Z</time></trkpt><trkpt lat="41.053093832622324" lon="14.581694344886655"><ele>258.0</ele><time>2026-03-28T12:59:08.999Z</time></trkpt><trkpt lat="41.05306659041584" lon="14.581922779172297"><ele>258.0</ele><time>2026-03-28T12:59:09.999Z</time></trkpt><trkpt lat="41.053057437531734" lon="14.582143613026616"><ele>258.0</ele><time>2026-03-28T12:59:10.999Z</time></trkpt><trkpt lat="41.053048585387245" lon="14.582335287593205"><ele>258.0</ele><time>2026-03-28T12:59:11.999Z</time></trkpt><trkpt lat="41.05303449563784" lon="14.58251275654141"><ele>258.0</ele><time>2026-03-28T12:59:12.999Z</time></trkpt><trkpt lat="41.053020732353204" lon="14.582692298970574"><ele>258.0</ele><time>2026-03-28T12:59:13.999Z</time></trkpt><trkpt lat="41.05300736230162" lon="14.582865949982136"><ele>258.5</ele><time>2026-03-28T12:59:14.999Z</time></trkpt><trkpt lat="41.05299433376088" lon="14.583038536858488"><ele>259.0</ele><time>2026-03-28T12:59:15.999Z</time></trkpt><trkpt lat="41.052980191129556" lon="14.583217865236833"><ele>259.5</ele><time>2026-03-28T12:59:16.999Z</time></trkpt><trkpt lat="41.05296749333108" lon="14.58340734788156"><ele>260.0</ele><time>2026-03-28T12:59:17.999Z</time></trkpt><trkpt lat="41.05295780430693" lon="14.583626586667517"><ele>260.0</ele><time>2026-03-28T12:59:18.999Z</time></trkpt><trkpt lat="41.05295087495908" lon="14.583903359956945"><ele>260.0</ele><time>2026-03-28T12:59:19.999Z</time></trkpt><trkpt lat="41.05291391667463" lon="14.584210787905475"><ele>260.0</ele><time>2026-03-28T12:59:20.999Z</time></trkpt><trkpt lat="41.05287830685645" lon="14.584511445955537"><ele>259.5</ele><time>2026-03-28T12:59:21.999Z</time></trkpt><trkpt lat="41.05283913153867" lon="14.584872433272047"><ele>259.0</ele><time>2026-03-28T12:59:22.999Z</time></trkpt><trkpt lat="41.05282432700015" lon="14.58522843196974"><ele>259.0</ele><time>2026-03-28T12:59:23.999Z</time></trkpt><trkpt lat="41.052770340289904" lon="14.58548589314141"><ele>259.0</ele><time>2026-03-28T12:59:24.998Z</time></trkpt><trkpt lat="41.05273794283833" lon="14.585827668107923"><ele>259.0</ele><time>2026-03-28T12:59:25.998Z</time></trkpt><trkpt lat="41.052681294528924" lon="14.586155337132812"><ele>259.0</ele><time>2026-03-28T12:59:26.998Z</time></trkpt><trkpt lat="41.05258515507008" lon="14.586465483425355"><ele>259.5</ele><time>2026-03-28T12:59:27.998Z</time></trkpt><trkpt lat="41.05245890742967" lon="14.586771351944053"><ele>260.0</ele><time>2026-03-28T12:59:28.998Z</time></trkpt><trkpt lat="41.05229898627575" lon="14.587090331389826"><ele>260.0</ele><time>2026-03-28T12:59:29.998Z</time></trkpt><trkpt lat="41.05212845515775" lon="14.587424781942401"><ele>260.0</ele><time>2026-03-28T12:59:30.998Z</time></trkpt><trkpt lat="41.05195716152165" lon="14.5877322953743"><ele>260.0</ele><time>2026-03-28T12:59:31.998Z</time></trkpt><trkpt lat="41.05180936240518" lon="14.588031710606423"><ele>260.0</ele><time>2026-03-28T12:59:32.998Z</time></trkpt><trkpt lat="41.05167348183002" lon="14.588302793553124"><ele>260.5</ele><time>2026-03-28T12:59:33.998Z</time></trkpt><trkpt lat="41.051545648971384" lon="14.588584507012344"><ele>261.0</ele><time>2026-03-28T12:59:34.998Z</time></trkpt><trkpt lat="41.05143718866444" lon="14.588888724308507"><ele>261.0</ele><time>2026-03-28T12:59:35.998Z</time></trkpt><trkpt lat="41.051339799640644" lon="14.589201573930422"><ele>261.0</ele><time>2026-03-28T12:59:36.998Z</time></trkpt><trkpt lat="41.051269294513325" lon="14.58951862843203"><ele>261.0</ele><time>2026-03-28T12:59:37.998Z</time></trkpt><trkpt lat="41.05117158742419" lon="14.589837731088718"><ele>261.0</ele><time>2026-03-28T12:59:38.998Z</time></trkpt><trkpt lat="41.051083750408935" lon="14.590150994520036"><ele>261.5</ele><time>2026-03-28T12:59:39.998Z</time></trkpt><trkpt lat="41.050988146284354" lon="14.590472557906814"><ele>262.0</ele><time>2026-03-28T12:59:40.998Z</time></trkpt><trkpt lat="41.05090027547686" lon="14.590771678195276"><ele>262.0</ele><time>2026-03-28T12:59:41.998Z</time></trkpt><trkpt lat="41.050826883247055" lon="14.591044431815392"><ele>262.0</ele><time>2026-03-28T12:59:42.998Z</time></trkpt><trkpt lat="41.05075716061709" lon="14.59129506462755"><ele>262.0</ele><time>2026-03-28T12:59:43.998Z</time></trkpt><trkpt lat="41.05069125940217" lon="14.591529149907513"><ele>262.3333333333333</ele><time>2026-03-28T12:59:44.998Z</time></trkpt><trkpt lat="41.05063054774633" lon="14.59176307224632"><ele>262.6666666666667</ele><time>2026-03-28T12:59:45.998Z</time></trkpt><trkpt lat="41.050564117222685" lon="14.59199536835271"><ele>263.0</ele><time>2026-03-28T12:59:46.998Z</time></trkpt><trkpt lat="41.05050580813601" lon="14.592243213201096"><ele>263.5</ele><time>2026-03-28T12:59:47.998Z</time></trkpt><trkpt lat="41.050398090276275" lon="14.592501942184633"><ele>264.0</ele><time>2026-03-28T12:59:48.998Z</time></trkpt><trkpt lat="41.050315032623736" lon="14.592798334459093"><ele>263.5</ele><time>2026-03-28T12:59:49.998Z</time></trkpt><trkpt lat="41.05023603481263" lon="14.593113199877251"><ele>263.0</ele><time>2026-03-28T12:59:50.998Z</time></trkpt><trkpt lat="41.05013585783756" lon="14.593452136031335"><ele>263.0</ele><time>2026-03-28T12:59:51.998Z</time></trkpt><trkpt lat="41.05003971762935" lon="14.59378461532817"><ele>263.0</ele><time>2026-03-28T12:59:52.998Z</time></trkpt><trkpt lat="41.049954013355894" lon="14.594130817476485"><ele>264.0</ele><time>2026-03-28T12:59:53.998Z</time></trkpt><trkpt lat="41.049888388808824" lon="14.594510338180859"><ele>265.0</ele><time>2026-03-28T12:59:54.998Z</time></trkpt><trkpt lat="41.04984228326163" lon="14.594832727176266"><ele>265.0</ele><time>2026-03-28T12:59:55.998Z</time></trkpt><trkpt lat="41.04982961499117" lon="14.59514897880053"><ele>265.0</ele><time>2026-03-28T12:59:56.998Z</time></trkpt><trkpt lat="41.0497859432023" lon="14.595406753285635"><ele>265.0</ele><time>2026-03-28T12:59:57.998Z</time></trkpt><trkpt lat="41.0497486947033" lon="14.595647294122022"><ele>265.0</ele><time>2026-03-28T12:59:58.998Z</time></trkpt><trkpt lat="41.0497059631542" lon="14.595880203805242"><ele>265.0</ele><time>2026-03-28T12:59:59.998Z</time></trkpt><trkpt lat="41.049624701499276" lon="14.596061576689321"><ele>265.0</ele><time>2026-03-28T13:00:00.998Z</time></trkpt><trkpt lat="41.04954802198571" lon="14.596242047429387"><ele>265.0</ele><time>2026-03-28T13:00:01.998Z</time></trkpt><trkpt lat="41.04944057116564" lon="14.596362978479336"><ele>265.0</ele><time>2026-03-28T13:00:02.998Z</time></trkpt><trkpt lat="41.04933832906634" lon="14.596453186955587"><ele>265.0</ele><time>2026-03-28T13:00:03.998Z</time></trkpt><trkpt lat="41.049251218568855" lon="14.596511057739688"><ele>265.0</ele><time>2026-03-28T13:00:04.998Z</time></trkpt><trkpt lat="41.049172909765716" lon="14.596558748566551"><ele>265.0</ele><time>2026-03-28T13:00:05.997Z</time></trkpt><trkpt lat="41.049102195293955" lon="14.596622761141864"><ele>265.0</ele><time>2026-03-28T13:00:07.997Z</time></trkpt><trkpt lat="41.04909401327437" lon="14.59683049392733"><ele>265.0</ele><time>2026-03-28T13:00:10.997Z</time></trkpt><trkpt lat="41.04911909120424" lon="14.597017465368937"><ele>265.0</ele><time>2026-03-28T13:00:11.997Z</time></trkpt><trkpt lat="41.049169050274934" lon="14.59718884547728"><ele>265.0</ele><time>2026-03-28T13:00:12.997Z</time></trkpt><trkpt lat="41.0492165749509" lon="14.597376865519013"><ele>265.0</ele><time>2026-03-28T13:00:13.997Z</time></trkpt><trkpt lat="41.04926486621719" lon="14.597578627689385"><ele>265.0</ele><time>2026-03-28T13:00:14.997Z</time></trkpt><trkpt lat="41.049322035027686" lon="14.597803908220211"><ele>265.0</ele><time>2026-03-28T13:00:15.997Z</time></trkpt><trkpt lat="41.04937826152585" lon="14.598042113252772"><ele>264.66666666666663</ele><time>2026-03-28T13:00:17Z</time></trkpt><trkpt lat="41.04943718047227" lon="14.59828145057787"><ele>264.3333333333333</ele><time>2026-03-28T13:00:18Z</time></trkpt><trkpt lat="41.04949937476946" lon="14.598522545008883"><ele>264.0</ele><time>2026-03-28T13:00:19Z</time></trkpt><trkpt lat="41.04956264085494" lon="14.598765522650119"><ele>264.0</ele><time>2026-03-28T13:00:20Z</time></trkpt><trkpt lat="41.049624814975644" lon="14.599012879528923"><ele>264.0</ele><time>2026-03-28T13:00:21Z</time></trkpt><trkpt lat="41.04968540721822" lon="14.599264126708897"><ele>264.0</ele><time>2026-03-28T13:00:22Z</time></trkpt><trkpt lat="41.04974803423365" lon="14.599520100295308"><ele>264.0</ele><time>2026-03-28T13:00:23Z</time></trkpt><trkpt lat="41.04982029706482" lon="14.599793445016532"><ele>264.0</ele><time>2026-03-28T13:00:24Z</time></trkpt><trkpt lat="41.049897388771655" lon="14.600079964271044"><ele>264.0</ele><time>2026-03-28T13:00:25Z</time></trkpt><trkpt lat="41.04997061446922" lon="14.60036800378956"><ele>264.3333333333333</ele><time>2026-03-28T13:00:26Z</time></trkpt><trkpt lat="41.05003798326768" lon="14.600649638150761"><ele>264.66666666666663</ele><time>2026-03-28T13:00:27Z</time></trkpt><trkpt lat="41.05010523659528" lon="14.60093473636671"><ele>265.0</ele><time>2026-03-28T13:00:28Z</time></trkpt><trkpt lat="41.05017653486478" lon="14.60122603656232"><ele>265.5</ele><time>2026-03-28T13:00:29Z</time></trkpt><trkpt lat="41.05024994133954" lon="14.60152091731374"><ele>266.0</ele><time>2026-03-28T13:00:30Z</time></trkpt><trkpt lat="41.050324629331996" lon="14.601814991539532"><ele>266.0</ele><time>2026-03-28T13:00:31Z</time></trkpt><trkpt lat="41.050399665819675" lon="14.6021139813463"><ele>266.0</ele><time>2026-03-28T13:00:32Z</time></trkpt><trkpt lat="41.05047060296557" lon="14.602397240562937"><ele>266.0</ele><time>2026-03-28T13:00:33Z</time></trkpt><trkpt lat="41.050540272245364" lon="14.602672695124967"><ele>266.0</ele><time>2026-03-28T13:00:34Z</time></trkpt><trkpt lat="41.05060707374143" lon="14.602939375463142"><ele>266.0</ele><time>2026-03-28T13:00:35Z</time></trkpt><trkpt lat="41.050677132492616" lon="14.603208536314796"><ele>266.33333333333337</ele><time>2026-03-28T13:00:36Z</time></trkpt><trkpt lat="41.05074381575999" lon="14.60347720799918"><ele>266.6666666666667</ele><time>2026-03-28T13:00:37Z</time></trkpt><trkpt lat="41.05080812330862" lon="14.603741537238593"><ele>267.0</ele><time>2026-03-28T13:00:38Z</time></trkpt><trkpt lat="41.05087208657433" lon="14.603998726350575"><ele>267.0</ele><time>2026-03-28T13:00:39Z</time></trkpt><trkpt lat="41.050935312100975" lon="14.60425720160815"><ele>267.0</ele><time>2026-03-28T13:00:40Z</time></trkpt><trkpt lat="41.050998930680564" lon="14.604514805622133"><ele>267.0</ele><time>2026-03-28T13:00:41Z</time></trkpt><trkpt lat="41.051059018096154" lon="14.604778381797283"><ele>267.0</ele><time>2026-03-28T13:00:42Z</time></trkpt><trkpt lat="41.05111708036041" lon="14.605041825024381"><ele>267.0</ele><time>2026-03-28T13:00:43Z</time></trkpt><trkpt lat="41.05117928076092" lon="14.605308212457855"><ele>267.0</ele><time>2026-03-28T13:00:44Z</time></trkpt><trkpt lat="41.05124725281843" lon="14.605582022874222"><ele>266.6666666666667</ele><time>2026-03-28T13:00:45Z</time></trkpt><trkpt lat="41.05131947914612" lon="14.605854222867125"><ele>266.33333333333337</ele><time>2026-03-28T13:00:46Z</time></trkpt><trkpt lat="41.05139501760966" lon="14.606126211828393"><ele>266.0</ele><time>2026-03-28T13:00:47Z</time></trkpt><trkpt lat="41.05145915862997" lon="14.60638138887068"><ele>265.6666666666667</ele><time>2026-03-28T13:00:48Z</time></trkpt><trkpt lat="41.051522303661116" lon="14.606629967794632"><ele>265.3333333333333</ele><time>2026-03-28T13:00:49Z</time></trkpt><trkpt lat="41.05158688718525" lon="14.606873642265708"><ele>265.0</ele><time>2026-03-28T13:00:50Z</time></trkpt><trkpt lat="41.05165179371091" lon="14.607115732362862"><ele>265.66666666666663</ele><time>2026-03-28T13:00:50.999Z</time></trkpt><trkpt lat="41.05171736630137" lon="14.607355840300182"><ele>266.3333333333333</ele><time>2026-03-28T13:00:51.999Z</time></trkpt><trkpt lat="41.05177575275832" lon="14.607596378806"><ele>267.0</ele><time>2026-03-28T13:00:52.999Z</time></trkpt><trkpt lat="41.05183355937937" lon="14.607829720095992"><ele>267.0</ele><time>2026-03-28T13:00:53.999Z</time></trkpt><trkpt lat="41.05189441103067" lon="14.608066474177658"><ele>267.0</ele><time>2026-03-28T13:00:54.999Z</time></trkpt><trkpt lat="41.05195254215335" lon="14.60829060818132"><ele>267.0</ele><time>2026-03-28T13:00:55.999Z</time></trkpt><trkpt lat="41.05200963894436" lon="14.608518469770454"><ele>267.3333333333333</ele><time>2026-03-28T13:00:56.999Z</time></trkpt><trkpt lat="41.05207338009273" lon="14.608757149030641"><ele>267.66666666666663</ele><time>2026-03-28T13:00:57.999Z</time></trkpt><trkpt lat="41.05213142580664" lon="14.609033552932292"><ele>268.0</ele><time>2026-03-28T13:00:58.999Z</time></trkpt><trkpt lat="41.05221833574685" lon="14.609316804353815"><ele>268.3333333333333</ele><time>2026-03-28T13:00:59.999Z</time></trkpt><trkpt lat="41.05228118206321" lon="14.609584471377492"><ele>268.6666666666667</ele><time>2026-03-28T13:01:00.999Z</time></trkpt><trkpt lat="41.05233668368936" lon="14.609826397685374"><ele>269.0</ele><time>2026-03-28T13:01:01.999Z</time></trkpt><trkpt lat="41.05239324000629" lon="14.610058983471877"><ele>269.0</ele><time>2026-03-28T13:01:02.999Z</time></trkpt><trkpt lat="41.05245083105097" lon="14.610286414496803"><ele>269.0</ele><time>2026-03-28T13:01:03.999Z</time></trkpt><trkpt lat="41.05251384427687" lon="14.610518208653787"><ele>269.0</ele><time>2026-03-28T13:01:04.999Z</time></trkpt><trkpt lat="41.052586042834015" lon="14.610774162893964"><ele>269.0</ele><time>2026-03-28T13:01:05.999Z</time></trkpt><trkpt lat="41.05266180174214" lon="14.611044160716187"><ele>269.0</ele><time>2026-03-28T13:01:06.999Z</time></trkpt><trkpt lat="41.052732258429295" lon="14.611337145305255"><ele>269.0</ele><time>2026-03-28T13:01:07.999Z</time></trkpt><trkpt lat="41.05279924292347" lon="14.611645840565872"><ele>270.0</ele><time>2026-03-28T13:01:08.999Z</time></trkpt><trkpt lat="41.052873429701215" lon="14.611951333970213"><ele>271.0</ele><time>2026-03-28T13:01:09.999Z</time></trkpt><trkpt lat="41.05294264594965" lon="14.612233470388405"><ele>271.0</ele><time>2026-03-28T13:01:10.999Z</time></trkpt><trkpt lat="41.05302125502476" lon="14.612519252041693"><ele>271.0</ele><time>2026-03-28T13:01:11.999Z</time></trkpt><trkpt lat="41.05310053916326" lon="14.61279796463885"><ele>271.3333333333333</ele><time>2026-03-28T13:01:12.999Z</time></trkpt><trkpt lat="41.05317430449386" lon="14.613083180893428"><ele>271.6666666666667</ele><time>2026-03-28T13:01:13.999Z</time></trkpt><trkpt lat="41.05322920232241" lon="14.613358713531225"><ele>272.0</ele><time>2026-03-28T13:01:14.999Z</time></trkpt><trkpt lat="41.053304240877736" lon="14.61362323869542"><ele>271.6666666666667</ele><time>2026-03-28T13:01:15.999Z</time></trkpt><trkpt lat="41.05338645306465" lon="14.613875465592852"><ele>271.3333333333333</ele><time>2026-03-28T13:01:16.999Z</time></trkpt><trkpt lat="41.05345166200735" lon="14.61416166883436"><ele>271.0</ele><time>2026-03-28T13:01:17.999Z</time></trkpt><trkpt lat="41.053518340739245" lon="14.614438453858863"><ele>271.0</ele><time>2026-03-28T13:01:18.999Z</time></trkpt><trkpt lat="41.053586917153275" lon="14.614712538203639"><ele>271.0</ele><time>2026-03-28T13:01:19.999Z</time></trkpt><trkpt lat="41.0536586897649" lon="14.614978888025675"><ele>271.0</ele><time>2026-03-28T13:01:20.999Z</time></trkpt><trkpt lat="41.05372735200064" lon="14.615238832013057"><ele>271.3333333333333</ele><time>2026-03-28T13:01:21.999Z</time></trkpt><trkpt lat="41.05379145176026" lon="14.615490251894233"><ele>271.6666666666667</ele><time>2026-03-28T13:01:22.999Z</time></trkpt><trkpt lat="41.05386171886829" lon="14.615745500896484"><ele>272.0</ele><time>2026-03-28T13:01:23.999Z</time></trkpt><trkpt lat="41.05392462342958" lon="14.615987420231358"><ele>271.6666666666667</ele><time>2026-03-28T13:01:24.999Z</time></trkpt><trkpt lat="41.053983591921" lon="14.616209847843608"><ele>271.3333333333333</ele><time>2026-03-28T13:01:25.999Z</time></trkpt><trkpt lat="41.05403665896942" lon="14.616418451772962"><ele>271.0</ele><time>2026-03-28T13:01:26.999Z</time></trkpt><trkpt lat="41.05408470853207" lon="14.616604556619375"><ele>271.25</ele><time>2026-03-28T13:01:27.999Z</time></trkpt><trkpt lat="41.05413096923683" lon="14.616786361488845"><ele>271.5</ele><time>2026-03-28T13:01:28.999Z</time></trkpt><trkpt lat="41.05417792838706" lon="14.616969281887062"><ele>271.75</ele><time>2026-03-28T13:01:29.999Z</time></trkpt><trkpt lat="41.05422114164144" lon="14.61713744176753"><ele>272.0</ele><time>2026-03-28T13:01:30.999Z</time></trkpt><trkpt lat="41.05426964474474" lon="14.617307987201258"><ele>272.0</ele><time>2026-03-28T13:01:31.999Z</time></trkpt><trkpt lat="41.05432297990143" lon="14.61749177656848"><ele>272.0</ele><time>2026-03-28T13:01:32.998Z</time></trkpt><trkpt lat="41.05439219606728" lon="14.61772313498145"><ele>272.0</ele><time>2026-03-28T13:01:33.998Z</time></trkpt><trkpt lat="41.05447021680154" lon="14.618002034163426"><ele>272.5</ele><time>2026-03-28T13:01:34.998Z</time></trkpt><trkpt lat="41.0545458886161" lon="14.618287798878788"><ele>273.0</ele><time>2026-03-28T13:01:35.998Z</time></trkpt><trkpt lat="41.05461599860552" lon="14.618649957833208"><ele>273.0</ele><time>2026-03-28T13:01:36.998Z</time></trkpt><trkpt lat="41.05470236908226" lon="14.618991708820403"><ele>273.0</ele><time>2026-03-28T13:01:37.998Z</time></trkpt><trkpt lat="41.05478843356302" lon="14.61931818565794"><ele>274.0</ele><time>2026-03-28T13:01:38.998Z</time></trkpt><trkpt lat="41.054869182260326" lon="14.619619986225032"><ele>275.0</ele><time>2026-03-28T13:01:39.998Z</time></trkpt><trkpt lat="41.05493960039222" lon="14.619890696802731"><ele>275.0</ele><time>2026-03-28T13:01:40.998Z</time></trkpt><trkpt lat="41.05500332043508" lon="14.620132301006777"><ele>275.0</ele><time>2026-03-28T13:01:41.998Z</time></trkpt><trkpt lat="41.05505111234957" lon="14.620339078848184"><ele>275.0</ele><time>2026-03-28T13:01:42.998Z</time></trkpt><trkpt lat="41.055076818985526" lon="14.620533081526473"><ele>275.0</ele><time>2026-03-28T13:01:43.998Z</time></trkpt><trkpt lat="41.05506708168389" lon="14.620706364864011"><ele>275.0</ele><time>2026-03-28T13:01:44.998Z</time></trkpt><trkpt lat="41.05503473914967" lon="14.620867593223824"><ele>275.0</ele><time>2026-03-28T13:01:45.998Z</time></trkpt><trkpt lat="41.05499599769469" lon="14.621002311527748"><ele>275.0</ele><time>2026-03-28T13:01:46.998Z</time></trkpt><trkpt lat="41.05495959547703" lon="14.621122496495294"><ele>275.0</ele><time>2026-03-28T13:01:47.998Z</time></trkpt><trkpt lat="41.05495872340141" lon="14.621228459832597"><ele>275.0</ele><time>2026-03-28T13:01:48.998Z</time></trkpt><trkpt lat="41.055010201295225" lon="14.621324561748292"><ele>275.0</ele><time>2026-03-28T13:01:49.998Z</time></trkpt><trkpt lat="41.055116276839456" lon="14.62140309792128"><ele>275.0</ele><time>2026-03-28T13:01:50.998Z</time></trkpt><trkpt lat="41.055252546941205" lon="14.621493387765765"><ele>275.0</ele><time>2026-03-28T13:01:51.998Z</time></trkpt><trkpt lat="41.05537229324423" lon="14.621606053945078"><ele>275.0</ele><time>2026-03-28T13:01:52.998Z</time></trkpt><trkpt lat="41.05544868752937" lon="14.621791547743946"><ele>275.0</ele><time>2026-03-28T13:01:53.998Z</time></trkpt><trkpt lat="41.05551431899982" lon="14.622073316248077"><ele>275.0</ele><time>2026-03-28T13:01:54.998Z</time></trkpt><trkpt lat="41.055578827617964" lon="14.622362613165787"><ele>276.0</ele><time>2026-03-28T13:01:55.998Z</time></trkpt><trkpt lat="41.05564656385501" lon="14.622645445744753"><ele>277.0</ele><time>2026-03-28T13:01:56.998Z</time></trkpt><trkpt lat="41.05572296181562" lon="14.62293779436539"><ele>277.0</ele><time>2026-03-28T13:01:57.998Z</time></trkpt><trkpt lat="41.05580379771808" lon="14.623252360567284"><ele>277.0</ele><time>2026-03-28T13:01:58.998Z</time></trkpt><trkpt lat="41.05588114431118" lon="14.623539134790338"><ele>277.3333333333333</ele><time>2026-03-28T13:01:59.998Z</time></trkpt><trkpt lat="41.055952542772" lon="14.623819270734666"><ele>277.6666666666667</ele><time>2026-03-28T13:02:00.998Z</time></trkpt><trkpt lat="41.05602050460625" lon="14.62410061626987"><ele>278.0</ele><time>2026-03-28T13:02:01.998Z</time></trkpt><trkpt lat="41.056086057251925" lon="14.62437411163423"><ele>278.6666666666667</ele><time>2026-03-28T13:02:02.998Z</time></trkpt><trkpt lat="41.05614771956769" lon="14.624641772827902"><ele>279.3333333333333</ele><time>2026-03-28T13:02:03.998Z</time></trkpt><trkpt lat="41.056203576459446" lon="14.62490829044275"><ele>280.0</ele><time>2026-03-28T13:02:04.998Z</time></trkpt><trkpt lat="41.05625697445734" lon="14.625168777051782"><ele>280.0</ele><time>2026-03-28T13:02:05.998Z</time></trkpt><trkpt lat="41.05631568014918" lon="14.62541675796449"><ele>280.0</ele><time>2026-03-28T13:02:06.998Z</time></trkpt><trkpt lat="41.05634912100906" lon="14.62566875751196"><ele>280.0</ele><time>2026-03-28T13:02:07.998Z</time></trkpt><trkpt lat="41.056412151110486" lon="14.625885681039424"><ele>280.0</ele><time>2026-03-28T13:02:08.998Z</time></trkpt><trkpt lat="41.05646465561537" lon="14.626083937884673"><ele>280.0</ele><time>2026-03-28T13:02:09.998Z</time></trkpt><trkpt lat="41.05651096864512" lon="14.626264453175578"><ele>280.0</ele><time>2026-03-28T13:02:10.998Z</time></trkpt><trkpt lat="41.056560950529565" lon="14.626424493616454"><ele>280.0</ele><time>2026-03-28T13:02:11.998Z</time></trkpt><trkpt lat="41.056601365219805" lon="14.62657770834086"><ele>280.16666666666663</ele><time>2026-03-28T13:02:12.998Z</time></trkpt><trkpt lat="41.0566340966469" lon="14.62671555384956"><ele>280.3333333333333</ele><time>2026-03-28T13:02:13.997Z</time></trkpt><trkpt lat="41.05666342206293" lon="14.62681708831357"><ele>280.5</ele><time>2026-03-28T13:02:14.997Z</time></trkpt><trkpt lat="41.05668555864219" lon="14.626900020622923"><ele>280.6666666666667</ele><time>2026-03-28T13:02:15.997Z</time></trkpt><trkpt lat="41.05660287133223" lon="14.6269830163818"><ele>280.83333333333337</ele><time>2026-03-28T13:02:18.997Z</time></trkpt><trkpt lat="41.056543247581715" lon="14.626955987226374"><ele>281.0</ele><time>2026-03-28T13:02:19.997Z</time></trkpt><trkpt lat="41.05646813846856" lon="14.627030013807072"><ele>280.6</ele><time>2026-03-28T13:02:20.997Z</time></trkpt><trkpt lat="41.05637856215874" lon="14.627082507225653"><ele>280.20000000000005</ele><time>2026-03-28T13:02:21.997Z</time></trkpt><trkpt lat="41.05626621768744" lon="14.627123717619126"><ele>279.79999999999995</ele><time>2026-03-28T13:02:23Z</time></trkpt><trkpt lat="41.05615145882363" lon="14.627134016770542"><ele>279.4</ele><time>2026-03-28T13:02:24Z</time></trkpt><trkpt lat="41.05603760987798" lon="14.627088938216035"><ele>279.0</ele><time>2026-03-28T13:02:25Z</time></trkpt><trkpt lat="41.05593800712523" lon="14.6271520873964"><ele>279.0</ele><time>2026-03-28T13:02:26Z</time></trkpt><trkpt lat="41.055841689958456" lon="14.627238345037531"><ele>279.0</ele><time>2026-03-28T13:02:27Z</time></trkpt><trkpt lat="41.055803281024986" lon="14.627383258221425"><ele>279.0</ele><time>2026-03-28T13:02:28Z</time></trkpt><trkpt lat="41.05576125019341" lon="14.627536453873606"><ele>279.0</ele><time>2026-03-28T13:02:29Z</time></trkpt><trkpt lat="41.05573438395162" lon="14.627691598485647"><ele>279.25</ele><time>2026-03-28T13:02:30Z</time></trkpt><trkpt lat="41.05569136576768" lon="14.627905203701527"><ele>279.5</ele><time>2026-03-28T13:02:31Z</time></trkpt><trkpt lat="41.05563372724202" lon="14.628082678146676"><ele>279.75</ele><time>2026-03-28T13:02:32Z</time></trkpt><trkpt lat="41.055605183107275" lon="14.628225859341406"><ele>280.0</ele><time>2026-03-28T13:02:33Z</time></trkpt><trkpt lat="41.055558879515466" lon="14.628375821979644"><ele>280.0</ele><time>2026-03-28T13:02:34Z</time></trkpt><trkpt lat="41.05551592762505" lon="14.628483602687545"><ele>280.0</ele><time>2026-03-28T13:02:35Z</time></trkpt><trkpt lat="41.05547507656998" lon="14.628612805323947"><ele>280.0</ele><time>2026-03-28T13:02:36Z</time></trkpt><trkpt lat="41.05543963610148" lon="14.628707474419043"><ele>280.0</ele><time>2026-03-28T13:02:37Z</time></trkpt><trkpt lat="41.05540894377656" lon="14.628782331862041"><ele>280.0</ele><time>2026-03-28T13:02:38Z</time></trkpt><trkpt lat="41.055349169361065" lon="14.628917574215315"><ele>279.5</ele><time>2026-03-28T13:02:40Z</time></trkpt><trkpt lat="41.05531142980806" lon="14.62903119876028"><ele>279.0</ele><time>2026-03-28T13:02:41Z</time></trkpt><trkpt lat="41.05526849418643" lon="14.629160077863192"><ele>278.5</ele><time>2026-03-28T13:02:42Z</time></trkpt><trkpt lat="41.05520364152922" lon="14.629314204194237"><ele>278.0</ele><time>2026-03-28T13:02:43Z</time></trkpt><trkpt lat="41.055134874203375" lon="14.629506025861131"><ele>278.0</ele><time>2026-03-28T13:02:44Z</time></trkpt><trkpt lat="41.055063722811795" lon="14.629683311888531"><ele>278.0</ele><time>2026-03-28T13:02:45Z</time></trkpt><trkpt lat="41.05499498304889" lon="14.629853292314731"><ele>278.0</ele><time>2026-03-28T13:02:46Z</time></trkpt><trkpt lat="41.05492925665716" lon="14.63002366103856"><ele>278.0</ele><time>2026-03-28T13:02:47Z</time></trkpt><trkpt lat="41.054877898765795" lon="14.630198642219398"><ele>277.5</ele><time>2026-03-28T13:02:48Z</time></trkpt><trkpt lat="41.054846456297454" lon="14.63037072017374"><ele>277.0</ele><time>2026-03-28T13:02:49Z</time></trkpt><trkpt lat="41.054810865315126" lon="14.630541172076619"><ele>276.5</ele><time>2026-03-28T13:02:50Z</time></trkpt><trkpt lat="41.05478476872833" lon="14.630702928922707"><ele>276.0</ele><time>2026-03-28T13:02:51Z</time></trkpt><trkpt lat="41.054763820551294" lon="14.630844625711376"><ele>276.0</ele><time>2026-03-28T13:02:52Z</time></trkpt><trkpt lat="41.054743478188726" lon="14.630981985763766"><ele>276.0</ele><time>2026-03-28T13:02:53Z</time></trkpt><trkpt lat="41.05471718905563" lon="14.631141020228323"><ele>276.0</ele><time>2026-03-28T13:02:54Z</time></trkpt><trkpt lat="41.054684196992625" lon="14.631307276464792"><ele>276.0</ele><time>2026-03-28T13:02:55Z</time></trkpt><trkpt lat="41.05465612448403" lon="14.631488259210848"><ele>276.25</ele><time>2026-03-28T13:02:56Z</time></trkpt><trkpt lat="41.05461716999254" lon="14.631655583389675"><ele>276.5</ele><time>2026-03-28T13:02:56.999Z</time></trkpt><trkpt lat="41.05457401095346" lon="14.63181138837525"><ele>276.75</ele><time>2026-03-28T13:02:57.999Z</time></trkpt><trkpt lat="41.054534308223666" lon="14.631957344757012"><ele>277.0</ele><time>2026-03-28T13:02:58.999Z</time></trkpt><trkpt lat="41.054503787420984" lon="14.632104985273001"><ele>277.3333333333333</ele><time>2026-03-28T13:02:59.999Z</time></trkpt><trkpt lat="41.05447217109579" lon="14.632197170065567"><ele>277.66666666666663</ele><time>2026-03-28T13:03:00.999Z</time></trkpt><trkpt lat="41.05444915963745" lon="14.632277894674987"><ele>278.0</ele><time>2026-03-28T13:03:01.999Z</time></trkpt><trkpt lat="41.05443220479299" lon="14.632438339513044"><ele>278.3333333333333</ele><time>2026-03-28T13:03:03.999Z</time></trkpt><trkpt lat="41.05440342565862" lon="14.63254081584108"><ele>278.6666666666667</ele><time>2026-03-28T13:03:04.999Z</time></trkpt><trkpt lat="41.05435967404367" lon="14.632657193808614"><ele>279.0</ele><time>2026-03-28T13:03:05.999Z</time></trkpt><trkpt lat="41.054323711145344" lon="14.632742829634893"><ele>278.75</ele><time>2026-03-28T13:03:06.999Z</time></trkpt><trkpt lat="41.05426865372149" lon="14.632858494228392"><ele>278.5</ele><time>2026-03-28T13:03:08.999Z</time></trkpt><trkpt lat="41.05421201696163" lon="14.633007543831678"><ele>278.25</ele><time>2026-03-28T13:03:10.999Z</time></trkpt><trkpt lat="41.054174973008266" lon="14.633150265883055"><ele>278.0</ele><time>2026-03-28T13:03:11.999Z</time></trkpt><trkpt lat="41.05414645596495" lon="14.633330682846253"><ele>278.0</ele><time>2026-03-28T13:03:12.999Z</time></trkpt><trkpt lat="41.05412177742557" lon="14.633507037071084"><ele>278.0</ele><time>2026-03-28T13:03:13.999Z</time></trkpt><trkpt lat="41.054087591300785" lon="14.633698791534835"><ele>278.0</ele><time>2026-03-28T13:03:14.999Z</time></trkpt><trkpt lat="41.05404819061485" lon="14.63387929530934"><ele>278.0</ele><time>2026-03-28T13:03:15.999Z</time></trkpt><trkpt lat="41.054008446742465" lon="14.634049976090802"><ele>277.5</ele><time>2026-03-28T13:03:16.999Z</time></trkpt><trkpt lat="41.05396593743347" lon="14.634215289621382"><ele>277.0</ele><time>2026-03-28T13:03:17.999Z</time></trkpt><trkpt lat="41.05392981680752" lon="14.634379227505924"><ele>276.5</ele><time>2026-03-28T13:03:18.999Z</time></trkpt><trkpt lat="41.05388926321888" lon="14.634535184819335"><ele>276.0</ele><time>2026-03-28T13:03:19.999Z</time></trkpt><trkpt lat="41.05385166412708" lon="14.634683614538721"><ele>276.0</ele><time>2026-03-28T13:03:20.999Z</time></trkpt><trkpt lat="41.05381151688463" lon="14.634817953874517"><ele>276.0</ele><time>2026-03-28T13:03:21.999Z</time></trkpt><trkpt lat="41.053768798761084" lon="14.634941711992942"><ele>276.0</ele><time>2026-03-28T13:03:22.999Z</time></trkpt><trkpt lat="41.053716414640455" lon="14.635059564453428"><ele>276.0</ele><time>2026-03-28T13:03:23.999Z</time></trkpt><trkpt lat="41.05365643551494" lon="14.63516923629019"><ele>276.0</ele><time>2026-03-28T13:03:24.999Z</time></trkpt><trkpt lat="41.05364116772981" lon="14.635288593444377"><ele>276.2</ele><time>2026-03-28T13:03:25.999Z</time></trkpt><trkpt lat="41.053556794960734" lon="14.635401893998148"><ele>276.40000000000003</ele><time>2026-03-28T13:03:26.999Z</time></trkpt><trkpt lat="41.05356520896029" lon="14.635534567117503"><ele>276.6</ele><time>2026-03-28T13:03:27.999Z</time></trkpt><trkpt lat="41.05356194738105" lon="14.635685153245356"><ele>276.8</ele><time>2026-03-28T13:03:28.999Z</time></trkpt><trkpt lat="41.05354978969046" lon="14.635830753183976"><ele>277.0</ele><time>2026-03-28T13:03:29.999Z</time></trkpt><trkpt lat="41.05351256815107" lon="14.635984876158677"><ele>276.75</ele><time>2026-03-28T13:03:30.999Z</time></trkpt><trkpt lat="41.053474262898206" lon="14.636139852436058"><ele>276.5</ele><time>2026-03-28T13:03:31.999Z</time></trkpt><trkpt lat="41.05343361826659" lon="14.636293457782678"><ele>276.25</ele><time>2026-03-28T13:03:32.999Z</time></trkpt><trkpt lat="41.05339332750472" lon="14.636452233843851"><ele>276.0</ele><time>2026-03-28T13:03:33.999Z</time></trkpt><trkpt lat="41.053346927534754" lon="14.636608654796074"><ele>276.0</ele><time>2026-03-28T13:03:34.999Z</time></trkpt><trkpt lat="41.053307497876915" lon="14.636766020734635"><ele>276.0</ele><time>2026-03-28T13:03:35.999Z</time></trkpt><trkpt lat="41.05325410055653" lon="14.636966158130331"><ele>276.0</ele><time>2026-03-28T13:03:36.999Z</time></trkpt><trkpt lat="41.05319215017843" lon="14.637172238920702"><ele>277.0</ele><time>2026-03-28T13:03:37.998Z</time></trkpt><trkpt lat="41.05315481619555" lon="14.637379783549907"><ele>278.0</ele><time>2026-03-28T13:03:38.998Z</time></trkpt><trkpt lat="41.05310505686164" lon="14.63760213634806"><ele>279.0</ele><time>2026-03-28T13:03:39.998Z</time></trkpt><trkpt lat="41.05303959065113" lon="14.637804249871083"><ele>279.3333333333333</ele><time>2026-03-28T13:03:40.998Z</time></trkpt><trkpt lat="41.05298549682048" lon="14.638033142304248"><ele>279.66666666666663</ele><time>2026-03-28T13:03:41.998Z</time></trkpt><trkpt lat="41.05293312837769" lon="14.638254733965324"><ele>280.0</ele><time>2026-03-28T13:03:42.998Z</time></trkpt><trkpt lat="41.05288318678979" lon="14.638466056633845"><ele>280.3333333333333</ele><time>2026-03-28T13:03:43.998Z</time></trkpt><trkpt lat="41.05283290330891" lon="14.638681633656443"><ele>280.6666666666667</ele><time>2026-03-28T13:03:44.998Z</time></trkpt><trkpt lat="41.05278060061278" lon="14.638908430875189"><ele>281.0</ele><time>2026-03-28T13:03:45.998Z</time></trkpt><trkpt lat="41.052728550564034" lon="14.639134132550609"><ele>281.0</ele><time>2026-03-28T13:03:46.998Z</time></trkpt><trkpt lat="41.05267552013865" lon="14.63936408537455"><ele>281.0</ele><time>2026-03-28T13:03:47.998Z</time></trkpt><trkpt lat="41.052621501055164" lon="14.639598325279"><ele>281.0</ele><time>2026-03-28T13:03:48.998Z</time></trkpt><trkpt lat="41.052567642751974" lon="14.639831867986144"><ele>281.0</ele><time>2026-03-28T13:03:49.998Z</time></trkpt><trkpt lat="41.05252766340124" lon="14.640074191069223"><ele>281.0</ele><time>2026-03-28T13:03:50.998Z</time></trkpt><trkpt lat="41.05245847590653" lon="14.640302611121882"><ele>281.0</ele><time>2026-03-28T13:03:51.998Z</time></trkpt><trkpt lat="41.0524034316068" lon="14.640542427911948"><ele>281.0</ele><time>2026-03-28T13:03:52.998Z</time></trkpt><trkpt lat="41.05234778209514" lon="14.640780358632828"><ele>281.0</ele><time>2026-03-28T13:03:53.998Z</time></trkpt><trkpt lat="41.05229099020198" lon="14.641021354824783"><ele>281.0</ele><time>2026-03-28T13:03:54.998Z</time></trkpt><trkpt lat="41.052230468783605" lon="14.641268889445241"><ele>281.0</ele><time>2026-03-28T13:03:55.998Z</time></trkpt><trkpt lat="41.05217162941938" lon="14.641509783820887"><ele>281.0</ele><time>2026-03-28T13:03:56.998Z</time></trkpt><trkpt lat="41.05211659338013" lon="14.64175235661917"><ele>281.0</ele><time>2026-03-28T13:03:57.998Z</time></trkpt><trkpt lat="41.052068731643026" lon="14.641985294370366"><ele>280.33333333333337</ele><time>2026-03-28T13:03:58.998Z</time></trkpt><trkpt lat="41.052035146223645" lon="14.642229090698818"><ele>279.6666666666667</ele><time>2026-03-28T13:03:59.998Z</time></trkpt><trkpt lat="41.05197651755275" lon="14.642468276494006"><ele>279.0</ele><time>2026-03-28T13:04:00.998Z</time></trkpt><trkpt lat="41.051920868705224" lon="14.642705075108944"><ele>279.0</ele><time>2026-03-28T13:04:01.998Z</time></trkpt><trkpt lat="41.05183941718103" lon="14.642954152230816"><ele>279.0</ele><time>2026-03-28T13:04:02.998Z</time></trkpt><trkpt lat="41.0517619837117" lon="14.643238850811418"><ele>279.0</ele><time>2026-03-28T13:04:03.998Z</time></trkpt><trkpt lat="41.051678132752286" lon="14.64354372444739"><ele>279.5</ele><time>2026-03-28T13:04:04.998Z</time></trkpt><trkpt lat="41.05157313358359" lon="14.643895989664465"><ele>280.0</ele><time>2026-03-28T13:04:05.998Z</time></trkpt><trkpt lat="41.05146409710348" lon="14.644255994096243"><ele>280.0</ele><time>2026-03-28T13:04:06.998Z</time></trkpt><trkpt lat="41.0513539405183" lon="14.644619977645474"><ele>280.0</ele><time>2026-03-28T13:04:07.998Z</time></trkpt><trkpt lat="41.051254393320896" lon="14.644998965557152"><ele>279.5</ele><time>2026-03-28T13:04:08.998Z</time></trkpt><trkpt lat="41.051156704756984" lon="14.645318601470793"><ele>279.0</ele><time>2026-03-28T13:04:09.998Z</time></trkpt><trkpt lat="41.05106348292484" lon="14.645615898260036"><ele>279.0</ele><time>2026-03-28T13:04:10.998Z</time></trkpt><trkpt lat="41.050986618282224" lon="14.645886008474127"><ele>279.0</ele><time>2026-03-28T13:04:11.998Z</time></trkpt><trkpt lat="41.05091211507452" lon="14.64613890701154"><ele>279.0</ele><time>2026-03-28T13:04:12.998Z</time></trkpt><trkpt lat="41.05084111692624" lon="14.646367625077284"><ele>278.6666666666667</ele><time>2026-03-28T13:04:13.998Z</time></trkpt><trkpt lat="41.050774675840074" lon="14.646579098384716"><ele>278.33333333333337</ele><time>2026-03-28T13:04:14.998Z</time></trkpt><trkpt lat="41.05070762434327" lon="14.646766723903125"><ele>278.0</ele><time>2026-03-28T13:04:15.998Z</time></trkpt><trkpt lat="41.05063309133814" lon="14.646930184998922"><ele>278.33333333333337</ele><time>2026-03-28T13:04:16.998Z</time></trkpt><trkpt lat="41.050552225788685" lon="14.64706948091612"><ele>278.6666666666667</ele><time>2026-03-28T13:04:17.998Z</time></trkpt><trkpt lat="41.050454180154496" lon="14.647213964457034"><ele>279.0</ele><time>2026-03-28T13:04:18.998Z</time></trkpt><trkpt lat="41.05035439690524" lon="14.647398559148458"><ele>279.0</ele><time>2026-03-28T13:04:19.997Z</time></trkpt><trkpt lat="41.050199613233275" lon="14.647542893689005"><ele>279.0</ele><time>2026-03-28T13:04:20.997Z</time></trkpt><trkpt lat="41.05004575173363" lon="14.64769922648443"><ele>279.0</ele><time>2026-03-28T13:04:21.997Z</time></trkpt><trkpt lat="41.049888798177925" lon="14.647822161604527"><ele>279.0</ele><time>2026-03-28T13:04:22.997Z</time></trkpt><trkpt lat="41.049719685666" lon="14.647923068336013"><ele>279.0</ele><time>2026-03-28T13:04:23.997Z</time></trkpt><trkpt lat="41.04952991709042" lon="14.648020005330114"><ele>279.0</ele><time>2026-03-28T13:04:24.997Z</time></trkpt><trkpt lat="41.04933939936" lon="14.6481143219649"><ele>279.0</ele><time>2026-03-28T13:04:25.997Z</time></trkpt><trkpt lat="41.04915404426859" lon="14.648209794151017"><ele>279.0</ele><time>2026-03-28T13:04:26.997Z</time></trkpt><trkpt lat="41.048990149070384" lon="14.648297407619088"><ele>279.0</ele><time>2026-03-28T13:04:27.997Z</time></trkpt><trkpt lat="41.048836407041435" lon="14.648384541918809"><ele>279.6666666666667</ele><time>2026-03-28T13:04:29Z</time></trkpt><trkpt lat="41.04869085156689" lon="14.64845987255247"><ele>280.33333333333337</ele><time>2026-03-28T13:04:30Z</time></trkpt><trkpt lat="41.04854172916901" lon="14.64853154585106"><ele>281.0</ele><time>2026-03-28T13:04:31Z</time></trkpt><trkpt lat="41.04838459214566" lon="14.648609970860345"><ele>281.0</ele><time>2026-03-28T13:04:32Z</time></trkpt><trkpt lat="41.048226478542745" lon="14.648690801924609"><ele>281.0</ele><time>2026-03-28T13:04:33Z</time></trkpt><trkpt lat="41.04806492754929" lon="14.648776326349587"><ele>281.0</ele><time>2026-03-28T13:04:34Z</time></trkpt><trkpt lat="41.047912424723776" lon="14.648864262530669"><ele>281.0</ele><time>2026-03-28T13:04:35Z</time></trkpt><trkpt lat="41.04775792726413" lon="14.648949200837336"><ele>281.0</ele><time>2026-03-28T13:04:36Z</time></trkpt><trkpt lat="41.04759538271366" lon="14.649029708119405"><ele>281.0</ele><time>2026-03-28T13:04:37Z</time></trkpt><trkpt lat="41.04743335128994" lon="14.649114926423342"><ele>281.0</ele><time>2026-03-28T13:04:38Z</time></trkpt><trkpt lat="41.04726249965398" lon="14.649206647049555"><ele>281.0</ele><time>2026-03-28T13:04:39Z</time></trkpt><trkpt lat="41.047091205187456" lon="14.649299122479993"><ele>281.0</ele><time>2026-03-28T13:04:40Z</time></trkpt><trkpt lat="41.046915684772536" lon="14.649388464202193"><ele>281.0</ele><time>2026-03-28T13:04:41Z</time></trkpt><trkpt lat="41.04673928594845" lon="14.64945709728783"><ele>281.0</ele><time>2026-03-28T13:04:42Z</time></trkpt><trkpt lat="41.04656568583865" lon="14.649571527598335"><ele>281.0</ele><time>2026-03-28T13:04:43Z</time></trkpt><trkpt lat="41.046381346878974" lon="14.649664472827368"><ele>280.0</ele><time>2026-03-28T13:04:44Z</time></trkpt><trkpt lat="41.04619887884648" lon="14.649758099813905"><ele>279.0</ele><time>2026-03-28T13:04:45Z</time></trkpt><trkpt lat="41.046029087352466" lon="14.649846533420384"><ele>278.0</ele><time>2026-03-28T13:04:46Z</time></trkpt><trkpt lat="41.04587554477856" lon="14.649927343942561"><ele>277.75</ele><time>2026-03-28T13:04:47Z</time></trkpt><trkpt lat="41.04573406535949" lon="14.650005537965452"><ele>277.5</ele><time>2026-03-28T13:04:48Z</time></trkpt><trkpt lat="41.04561482759959" lon="14.650069160736017"><ele>277.25</ele><time>2026-03-28T13:04:49Z</time></trkpt><trkpt lat="41.04550617058489" lon="14.650129904628542"><ele>277.0</ele><time>2026-03-28T13:04:50Z</time></trkpt><trkpt lat="41.04540007863496" lon="14.65018306490183"><ele>277.0</ele><time>2026-03-28T13:04:51Z</time></trkpt><trkpt lat="41.045293705505635" lon="14.650233903300382"><ele>277.0</ele><time>2026-03-28T13:04:52Z</time></trkpt><trkpt lat="41.04517297797474" lon="14.65030118671465"><ele>277.0</ele><time>2026-03-28T13:04:53Z</time></trkpt><trkpt lat="41.04505692006877" lon="14.650368474642734"><ele>277.0</ele><time>2026-03-28T13:04:54Z</time></trkpt><trkpt lat="41.04492349550799" lon="14.650441108689101"><ele>277.0</ele><time>2026-03-28T13:04:55Z</time></trkpt><trkpt lat="41.04478364599015" lon="14.650519127899368"><ele>277.0</ele><time>2026-03-28T13:04:56Z</time></trkpt><trkpt lat="41.04464122356676" lon="14.650594434324324"><ele>277.0</ele><time>2026-03-28T13:04:57Z</time></trkpt><trkpt lat="41.04449991534753" lon="14.650668815482293"><ele>277.0</ele><time>2026-03-28T13:04:58Z</time></trkpt><trkpt lat="41.044363871307596" lon="14.65074105353256"><ele>277.0</ele><time>2026-03-28T13:04:59Z</time></trkpt><trkpt lat="41.04421846654634" lon="14.650813902659491"><ele>277.0</ele><time>2026-03-28T13:05:00Z</time></trkpt><trkpt lat="41.04407296445798" lon="14.650888556888944"><ele>277.0</ele><time>2026-03-28T13:05:01Z</time></trkpt><trkpt lat="41.04391923793233" lon="14.65097312838121"><ele>277.0</ele><time>2026-03-28T13:05:02Z</time></trkpt><trkpt lat="41.04376175302462" lon="14.651060304644718"><ele>277.0</ele><time>2026-03-28T13:05:03Z</time></trkpt><trkpt lat="41.043600357830734" lon="14.65114877974802"><ele>277.0</ele><time>2026-03-28T13:05:03.999Z</time></trkpt><trkpt lat="41.04343407640544" lon="14.651229318481333"><ele>277.0</ele><time>2026-03-28T13:05:04.999Z</time></trkpt><trkpt lat="41.043256397537306" lon="14.651331212059453"><ele>277.0</ele><time>2026-03-28T13:05:05.999Z</time></trkpt><trkpt lat="41.04308348607456" lon="14.651431527073784"><ele>275.66666666666663</ele><time>2026-03-28T13:05:06.999Z</time></trkpt><trkpt lat="41.04293078351955" lon="14.651524889562145"><ele>274.3333333333333</ele><time>2026-03-28T13:05:07.999Z</time></trkpt><trkpt lat="41.04278666603594" lon="14.651616778771201"><ele>273.0</ele><time>2026-03-28T13:05:08.999Z</time></trkpt><trkpt lat="41.04265153277959" lon="14.651703781075195"><ele>273.0</ele><time>2026-03-28T13:05:09.999Z</time></trkpt><trkpt lat="41.042523626996115" lon="14.65178050822965"><ele>273.0</ele><time>2026-03-28T13:05:10.999Z</time></trkpt><trkpt lat="41.042410282667866" lon="14.651858528808487"><ele>273.0</ele><time>2026-03-28T13:05:11.999Z</time></trkpt><trkpt lat="41.04231126259015" lon="14.65192607126388"><ele>273.0</ele><time>2026-03-28T13:05:12.999Z</time></trkpt><trkpt lat="41.04221575492576" lon="14.651975266977438"><ele>273.0</ele><time>2026-03-28T13:05:13.999Z</time></trkpt><trkpt lat="41.04212884982285" lon="14.652002805448522"><ele>273.0</ele><time>2026-03-28T13:05:14.999Z</time></trkpt><trkpt lat="41.04205666421675" lon="14.652002365170587"><ele>273.0</ele><time>2026-03-28T13:05:15.999Z</time></trkpt><trkpt lat="41.04198666891229" lon="14.652009357694181"><ele>273.0</ele><time>2026-03-28T13:05:16.999Z</time></trkpt><trkpt lat="41.04190788439764" lon="14.65201777805465"><ele>273.0</ele><time>2026-03-28T13:05:17.999Z</time></trkpt><trkpt lat="41.041819938461245" lon="14.652035741837224"><ele>273.0</ele><time>2026-03-28T13:05:18.999Z</time></trkpt><trkpt lat="41.04172995654418" lon="14.652076716326476"><ele>273.0</ele><time>2026-03-28T13:05:19.999Z</time></trkpt><trkpt lat="41.04164187739594" lon="14.652161295676322"><ele>273.0</ele><time>2026-03-28T13:05:20.999Z</time></trkpt><trkpt lat="41.04156521600044" lon="14.652276485635682"><ele>273.0</ele><time>2026-03-28T13:05:21.999Z</time></trkpt><trkpt lat="41.04147505946072" lon="14.652397188967473"><ele>273.0</ele><time>2026-03-28T13:05:22.999Z</time></trkpt><trkpt lat="41.041358212319544" lon="14.652499501195026"><ele>273.0</ele><time>2026-03-28T13:05:23.999Z</time></trkpt><trkpt lat="41.04120869439286" lon="14.65258726511457"><ele>273.0</ele><time>2026-03-28T13:05:24.999Z</time></trkpt><trkpt lat="41.041012571418285" lon="14.652704515388349"><ele>273.0</ele><time>2026-03-28T13:05:25.999Z</time></trkpt><trkpt lat="41.040840597273764" lon="14.652823796160027"><ele>273.3333333333333</ele><time>2026-03-28T13:05:26.999Z</time></trkpt><trkpt lat="41.04065422649905" lon="14.652947079478691"><ele>273.66666666666663</ele><time>2026-03-28T13:05:27.999Z</time></trkpt><trkpt lat="41.04045649148265" lon="14.65306960313941"><ele>274.0</ele><time>2026-03-28T13:05:28.999Z</time></trkpt><trkpt lat="41.040254866423034" lon="14.653184394752202"><ele>274.0</ele><time>2026-03-28T13:05:29.999Z</time></trkpt><trkpt lat="41.04006390547692" lon="14.653307050571494"><ele>274.0</ele><time>2026-03-28T13:05:30.999Z</time></trkpt><trkpt lat="41.03986121891458" lon="14.653430577432328"><ele>274.0</ele><time>2026-03-28T13:05:31.999Z</time></trkpt><trkpt lat="41.03966765288431" lon="14.653548356971333"><ele>274.0</ele><time>2026-03-28T13:05:32.999Z</time></trkpt><trkpt lat="41.039481323903715" lon="14.653673270120857"><ele>274.0</ele><time>2026-03-28T13:05:33.999Z</time></trkpt><trkpt lat="41.03928729226838" lon="14.653794264946528"><ele>274.0</ele><time>2026-03-28T13:05:34.999Z</time></trkpt><trkpt lat="41.03909337740287" lon="14.653913642013501"><ele>275.0</ele><time>2026-03-28T13:05:35.999Z</time></trkpt><trkpt lat="41.038902993101644" lon="14.654029905791539"><ele>276.0</ele><time>2026-03-28T13:05:36.999Z</time></trkpt><trkpt lat="41.038705608748685" lon="14.654146099802192"><ele>277.0</ele><time>2026-03-28T13:05:37.999Z</time></trkpt><trkpt lat="41.038513985507336" lon="14.654259569054428"><ele>277.0</ele><time>2026-03-28T13:05:38.999Z</time></trkpt><trkpt lat="41.03834283279485" lon="14.654360019789573"><ele>277.0</ele><time>2026-03-28T13:05:39.999Z</time></trkpt><trkpt lat="41.03818485077525" lon="14.654465112150143"><ele>277.0</ele><time>2026-03-28T13:05:40.999Z</time></trkpt><trkpt lat="41.03801909315027" lon="14.654573031786615"><ele>278.0</ele><time>2026-03-28T13:05:41.999Z</time></trkpt><trkpt lat="41.03786611776524" lon="14.654669738049686"><ele>279.0</ele><time>2026-03-28T13:05:42.999Z</time></trkpt><trkpt lat="41.037729206878076" lon="14.654753999258133"><ele>280.0</ele><time>2026-03-28T13:05:43.999Z</time></trkpt><trkpt lat="41.03760667450969" lon="14.654833819230433"><ele>280.0</ele><time>2026-03-28T13:05:44.998Z</time></trkpt><trkpt lat="41.037487678811964" lon="14.654907075492442"><ele>280.0</ele><time>2026-03-28T13:05:45.998Z</time></trkpt><trkpt lat="41.037377941634894" lon="14.65497639034729"><ele>280.0</ele><time>2026-03-28T13:05:46.998Z</time></trkpt><trkpt lat="41.037268352080126" lon="14.65504253965044"><ele>280.0</ele><time>2026-03-28T13:05:47.998Z</time></trkpt><trkpt lat="41.03714797610292" lon="14.655110678038504"><ele>280.0</ele><time>2026-03-28T13:05:48.998Z</time></trkpt><trkpt lat="41.0370283007796" lon="14.655186623233728"><ele>280.0</ele><time>2026-03-28T13:05:49.998Z</time></trkpt><trkpt lat="41.03690298290541" lon="14.655270862073737"><ele>280.0</ele><time>2026-03-28T13:05:50.998Z</time></trkpt><trkpt lat="41.03676814120772" lon="14.655353395722226"><ele>280.0</ele><time>2026-03-28T13:05:51.998Z</time></trkpt><trkpt lat="41.036629198965024" lon="14.65543722599583"><ele>280.0</ele><time>2026-03-28T13:05:52.998Z</time></trkpt><trkpt lat="41.03648518510158" lon="14.655523482944725"><ele>280.0</ele><time>2026-03-28T13:05:53.998Z</time></trkpt><trkpt lat="41.03634150736592" lon="14.655621274944501"><ele>280.0</ele><time>2026-03-28T13:05:54.998Z</time></trkpt><trkpt lat="41.036189807829736" lon="14.655708076280616"><ele>280.0</ele><time>2026-03-28T13:05:55.998Z</time></trkpt><trkpt lat="41.03604020850652" lon="14.655797431964125"><ele>280.0</ele><time>2026-03-28T13:05:56.998Z</time></trkpt><trkpt lat="41.03588711399696" lon="14.655886157838559"><ele>280.0</ele><time>2026-03-28T13:05:57.998Z</time></trkpt><trkpt lat="41.03573197308965" lon="14.655981141797744"><ele>279.66666666666663</ele><time>2026-03-28T13:05:58.998Z</time></trkpt><trkpt lat="41.03558009839828" lon="14.656089752190098"><ele>279.3333333333333</ele><time>2026-03-28T13:05:59.998Z</time></trkpt><trkpt lat="41.03542797184209" lon="14.65617465095955"><ele>279.0</ele><time>2026-03-28T13:06:00.998Z</time></trkpt><trkpt lat="41.03527217620617" lon="14.656271699884291"><ele>279.0</ele><time>2026-03-28T13:06:01.998Z</time></trkpt><trkpt lat="41.03511712887941" lon="14.656372618404848"><ele>279.0</ele><time>2026-03-28T13:06:02.998Z</time></trkpt><trkpt lat="41.03496304407214" lon="14.656467919832336"><ele>279.0</ele><time>2026-03-28T13:06:03.998Z</time></trkpt><trkpt lat="41.034804971629725" lon="14.656564991081934"><ele>279.3333333333333</ele><time>2026-03-28T13:06:04.998Z</time></trkpt><trkpt lat="41.03465267143432" lon="14.656658676937646"><ele>279.66666666666663</ele><time>2026-03-28T13:06:05.998Z</time></trkpt><trkpt lat="41.03449824269263" lon="14.656753932299795"><ele>280.0</ele><time>2026-03-28T13:06:06.998Z</time></trkpt><trkpt lat="41.034340730550014" lon="14.656854889360682"><ele>280.0</ele><time>2026-03-28T13:06:07.998Z</time></trkpt><trkpt lat="41.034184238005366" lon="14.65695519657704"><ele>280.0</ele><time>2026-03-28T13:06:08.998Z</time></trkpt><trkpt lat="41.03402626310543" lon="14.65705296802108"><ele>280.0</ele><time>2026-03-28T13:06:09.998Z</time></trkpt><trkpt lat="41.03386787841814" lon="14.657139177479165"><ele>280.3333333333333</ele><time>2026-03-28T13:06:10.998Z</time></trkpt><trkpt lat="41.03370284577735" lon="14.65723955011694"><ele>280.6666666666667</ele><time>2026-03-28T13:06:11.998Z</time></trkpt><trkpt lat="41.03354596598109" lon="14.657335758713595"><ele>281.0</ele><time>2026-03-28T13:06:12.998Z</time></trkpt><trkpt lat="41.03339151230811" lon="14.65743534253124"><ele>281.33333333333337</ele><time>2026-03-28T13:06:13.998Z</time></trkpt><trkpt lat="41.033240248089" lon="14.657534826382937"><ele>281.6666666666667</ele><time>2026-03-28T13:06:14.998Z</time></trkpt><trkpt lat="41.03309727444242" lon="14.657623455809032"><ele>282.0</ele><time>2026-03-28T13:06:15.998Z</time></trkpt><trkpt lat="41.0329612294972" lon="14.657709424329585"><ele>282.75</ele><time>2026-03-28T13:06:16.998Z</time></trkpt><trkpt lat="41.03284041078217" lon="14.657785330504593"><ele>283.5</ele><time>2026-03-28T13:06:17.998Z</time></trkpt><trkpt lat="41.032730996421066" lon="14.657854926728906"><ele>284.25</ele><time>2026-03-28T13:06:18.998Z</time></trkpt><trkpt lat="41.03262346716729" lon="14.657922682000914"><ele>285.0</ele><time>2026-03-28T13:06:19.998Z</time></trkpt><trkpt lat="41.032520309145006" lon="14.657987262662393"><ele>284.8</ele><time>2026-03-28T13:06:20.998Z</time></trkpt><trkpt lat="41.03242423207903" lon="14.65804584772711"><ele>284.6</ele><time>2026-03-28T13:06:21.998Z</time></trkpt><trkpt lat="41.03232594112061" lon="14.658109314926033"><ele>284.4</ele><time>2026-03-28T13:06:22.998Z</time></trkpt><trkpt lat="41.03222880269371" lon="14.658170578205647"><ele>284.2</ele><time>2026-03-28T13:06:23.998Z</time></trkpt><trkpt lat="41.032151814084905" lon="14.658217877161734"><ele>284.0</ele><time>2026-03-28T13:06:24.998Z</time></trkpt><trkpt lat="41.032081254521344" lon="14.658263644161854"><ele>284.0</ele><time>2026-03-28T13:06:25.997Z</time></trkpt><trkpt lat="41.03200029715528" lon="14.658313296175804"><ele>284.0</ele><time>2026-03-28T13:06:26.997Z</time></trkpt><trkpt lat="41.031925539050604" lon="14.658361102789321"><ele>284.0</ele><time>2026-03-28T13:06:27.997Z</time></trkpt><trkpt lat="41.03185902020407" lon="14.658399724259132"><ele>284.0</ele><time>2026-03-28T13:06:28.997Z</time></trkpt><trkpt lat="41.03175664539731" lon="14.658455225694388"><ele>284.0</ele><time>2026-03-28T13:06:30.997Z</time></trkpt><trkpt lat="41.031647781753534" lon="14.65839474474775"><ele>283.83333333333337</ele><time>2026-03-28T13:06:32.997Z</time></trkpt><trkpt lat="41.03157814731002" lon="14.658384126592969"><ele>283.6666666666667</ele><time>2026-03-28T13:06:33.997Z</time></trkpt><trkpt lat="41.03151077729887" lon="14.658404385290028"><ele>283.5</ele><time>2026-03-28T13:06:35Z</time></trkpt><trkpt lat="41.03144853485262" lon="14.658498552656058"><ele>283.3333333333333</ele><time>2026-03-28T13:06:36Z</time></trkpt><trkpt lat="41.03141909791752" lon="14.658608584924963"><ele>283.16666666666663</ele><time>2026-03-28T13:06:37Z</time></trkpt><trkpt lat="41.03136738492992" lon="14.658705928966057"><ele>283.0</ele><time>2026-03-28T13:06:38Z</time></trkpt><trkpt lat="41.031276910842024" lon="14.658760957872621"><ele>283.0</ele><time>2026-03-28T13:06:39Z</time></trkpt><trkpt lat="41.031142675883466" lon="14.65883477309021"><ele>283.0</ele><time>2026-03-28T13:06:40Z</time></trkpt><trkpt lat="41.031017582097036" lon="14.658903048330261"><ele>283.0</ele><time>2026-03-28T13:06:41Z</time></trkpt><trkpt lat="41.03088037919298" lon="14.65898228038161"><ele>283.0</ele><time>2026-03-28T13:06:42Z</time></trkpt><trkpt lat="41.030738884247555" lon="14.659066769784905"><ele>283.66666666666663</ele><time>2026-03-28T13:06:43Z</time></trkpt><trkpt lat="41.03059450273043" lon="14.659160427366324"><ele>284.3333333333333</ele><time>2026-03-28T13:06:44Z</time></trkpt><trkpt lat="41.03044321163204" lon="14.659258703086216"><ele>285.0</ele><time>2026-03-28T13:06:45Z</time></trkpt><trkpt lat="41.03028563760914" lon="14.659356964594224"><ele>285.3333333333333</ele><time>2026-03-28T13:06:46Z</time></trkpt><trkpt lat="41.03012060059305" lon="14.6594570882345"><ele>285.66666666666663</ele><time>2026-03-28T13:06:47Z</time></trkpt><trkpt lat="41.02995518370245" lon="14.659557393168923"><ele>286.0</ele><time>2026-03-28T13:06:48Z</time></trkpt><trkpt lat="41.029786765234995" lon="14.65965957273308"><ele>286.66666666666663</ele><time>2026-03-28T13:06:49Z</time></trkpt><trkpt lat="41.02961404544225" lon="14.659764606415274"><ele>287.3333333333333</ele><time>2026-03-28T13:06:50Z</time></trkpt><trkpt lat="41.02944403359562" lon="14.659872329811202"><ele>288.0</ele><time>2026-03-28T13:06:51Z</time></trkpt><trkpt lat="41.029272373886904" lon="14.659978745363256"><ele>288.3333333333333</ele><time>2026-03-28T13:06:52Z</time></trkpt><trkpt lat="41.02910265736166" lon="14.660085124408472"><ele>288.66666666666663</ele><time>2026-03-28T13:06:53Z</time></trkpt><trkpt lat="41.02893976538522" lon="14.660193307672065"><ele>289.0</ele><time>2026-03-28T13:06:54Z</time></trkpt><trkpt lat="41.02877474519174" lon="14.660299887901946"><ele>290.0</ele><time>2026-03-28T13:06:55Z</time></trkpt><trkpt lat="41.028610685755176" lon="14.66040539089536"><ele>291.0</ele><time>2026-03-28T13:06:56Z</time></trkpt><trkpt lat="41.02844912003592" lon="14.660510274001975"><ele>292.0</ele><time>2026-03-28T13:06:57Z</time></trkpt><trkpt lat="41.028284191873546" lon="14.660606324368958"><ele>292.66666666666663</ele><time>2026-03-28T13:06:58Z</time></trkpt><trkpt lat="41.02811462404066" lon="14.660701297144549"><ele>293.3333333333333</ele><time>2026-03-28T13:06:59Z</time></trkpt><trkpt lat="41.02794622444733" lon="14.660803140413645"><ele>294.0</ele><time>2026-03-28T13:07:00Z</time></trkpt><trkpt lat="41.02777604678594" lon="14.660906809785244"><ele>294.0</ele><time>2026-03-28T13:07:01Z</time></trkpt><trkpt lat="41.02760713107018" lon="14.661013540640814"><ele>294.0</ele><time>2026-03-28T13:07:02Z</time></trkpt><trkpt lat="41.027435421223416" lon="14.6611185852029"><ele>294.0</ele><time>2026-03-28T13:07:03Z</time></trkpt><trkpt lat="41.0272775991472" lon="14.661215317145071"><ele>296.0</ele><time>2026-03-28T13:07:04Z</time></trkpt><trkpt lat="41.027136894390445" lon="14.661305830349045"><ele>298.0</ele><time>2026-03-28T13:07:05Z</time></trkpt><trkpt lat="41.02701279050369" lon="14.661392369596026"><ele>300.0</ele><time>2026-03-28T13:07:06Z</time></trkpt><trkpt lat="41.026867058283244" lon="14.661461356254579"><ele>300.0</ele><time>2026-03-28T13:07:07Z</time></trkpt><trkpt lat="41.0267365952966" lon="14.661546925679646"><ele>300.0</ele><time>2026-03-28T13:07:08Z</time></trkpt><trkpt lat="41.026607810074665" lon="14.661642108897246"><ele>300.0</ele><time>2026-03-28T13:07:09Z</time></trkpt><trkpt lat="41.026484061562385" lon="14.661788057090295"><ele>302.25</ele><time>2026-03-28T13:07:10Z</time></trkpt><trkpt lat="41.026385614932" lon="14.661920432714343"><ele>304.5</ele><time>2026-03-28T13:07:10.999Z</time></trkpt><trkpt lat="41.02632195155589" lon="14.662093695238994"><ele>306.75</ele><time>2026-03-28T13:07:11.999Z</time></trkpt><trkpt lat="41.02629892143874" lon="14.6622942256248"><ele>309.0</ele><time>2026-03-28T13:07:12.999Z</time></trkpt><trkpt lat="41.02630411449327" lon="14.662492811265237"><ele>309.0</ele><time>2026-03-28T13:07:13.999Z</time></trkpt><trkpt lat="41.026317306198536" lon="14.662677550874994"><ele>309.0</ele><time>2026-03-28T13:07:14.999Z</time></trkpt><trkpt lat="41.02633073481154" lon="14.6628282180086"><ele>309.0</ele><time>2026-03-28T13:07:15.999Z</time></trkpt><trkpt lat="41.02635588528561" lon="14.663014258854501"><ele>309.0</ele><time>2026-03-28T13:07:16.999Z</time></trkpt><trkpt lat="41.02639729547208" lon="14.663199558473288"><ele>308.6666666666667</ele><time>2026-03-28T13:07:17.999Z</time></trkpt><trkpt lat="41.026459900635714" lon="14.663400296683557"><ele>308.33333333333337</ele><time>2026-03-28T13:07:18.999Z</time></trkpt><trkpt lat="41.02652162403338" lon="14.663623366226497"><ele>308.0</ele><time>2026-03-28T13:07:19.999Z</time></trkpt><trkpt lat="41.02658993987295" lon="14.663857208665867"><ele>308.0</ele><time>2026-03-28T13:07:20.999Z</time></trkpt><trkpt lat="41.02663656516037" lon="14.664104409065658"><ele>308.0</ele><time>2026-03-28T13:07:21.999Z</time></trkpt><trkpt lat="41.02668572233991" lon="14.664342592401614"><ele>308.0</ele><time>2026-03-28T13:07:22.999Z</time></trkpt><trkpt lat="41.02675293305178" lon="14.664588085943883"><ele>307.0</ele><time>2026-03-28T13:07:23.999Z</time></trkpt><trkpt lat="41.02685284049514" lon="14.664818384870076"><ele>306.0</ele><time>2026-03-28T13:07:24.999Z</time></trkpt><trkpt lat="41.02693365935885" lon="14.665042223582022"><ele>305.0</ele><time>2026-03-28T13:07:25.999Z</time></trkpt><trkpt lat="41.02698663854387" lon="14.665190717000401"><ele>303.33333333333337</ele><time>2026-03-28T13:07:26.999Z</time></trkpt><trkpt lat="41.027047449213065" lon="14.665369805008927"><ele>301.6666666666667</ele><time>2026-03-28T13:07:27.999Z</time></trkpt><trkpt lat="41.02711832562793" lon="14.665559471262902"><ele>300.0</ele><time>2026-03-28T13:07:28.999Z</time></trkpt><trkpt lat="41.027213030087836" lon="14.665730116768314"><ele>300.0</ele><time>2026-03-28T13:07:29.999Z</time></trkpt><trkpt lat="41.02727657191364" lon="14.66592944158111"><ele>300.0</ele><time>2026-03-28T13:07:30.999Z</time></trkpt><trkpt lat="41.027335742702874" lon="14.666133150679181"><ele>300.0</ele><time>2026-03-28T13:07:31.999Z</time></trkpt><trkpt lat="41.02738646942827" lon="14.666350516585213"><ele>299.6666666666667</ele><time>2026-03-28T13:07:32.999Z</time></trkpt><trkpt lat="41.0274325255735" lon="14.666568493689319"><ele>299.33333333333337</ele><time>2026-03-28T13:07:33.999Z</time></trkpt><trkpt lat="41.027481610691574" lon="14.666764462124675"><ele>299.0</ele><time>2026-03-28T13:07:34.999Z</time></trkpt><trkpt lat="41.02752484230197" lon="14.666945727278149"><ele>297.75</ele><time>2026-03-28T13:07:35.999Z</time></trkpt><trkpt lat="41.02756742496922" lon="14.66712428863713"><ele>296.5</ele><time>2026-03-28T13:07:36.999Z</time></trkpt><trkpt lat="41.02760536931696" lon="14.667293383213758"><ele>295.25</ele><time>2026-03-28T13:07:37.999Z</time></trkpt><trkpt lat="41.02764357732434" lon="14.667454916730055"><ele>294.0</ele><time>2026-03-28T13:07:38.999Z</time></trkpt><trkpt lat="41.02767874439712" lon="14.667614444175383"><ele>294.0</ele><time>2026-03-28T13:07:39.999Z</time></trkpt><trkpt lat="41.02771368587029" lon="14.667773830502721"><ele>294.0</ele><time>2026-03-28T13:07:40.999Z</time></trkpt><trkpt lat="41.02774873896785" lon="14.667929863418655"><ele>294.0</ele><time>2026-03-28T13:07:41.999Z</time></trkpt><trkpt lat="41.027780532689526" lon="14.66809833512137"><ele>294.0</ele><time>2026-03-28T13:07:42.999Z</time></trkpt><trkpt lat="41.027813635089885" lon="14.66826776328415"><ele>293.75</ele><time>2026-03-28T13:07:43.999Z</time></trkpt><trkpt lat="41.02785281740404" lon="14.668439031010006"><ele>293.5</ele><time>2026-03-28T13:07:44.999Z</time></trkpt><trkpt lat="41.02787761552205" lon="14.668605465533473"><ele>293.25</ele><time>2026-03-28T13:07:45.999Z</time></trkpt><trkpt lat="41.02790489113974" lon="14.66875104294261"><ele>293.0</ele><time>2026-03-28T13:07:46.999Z</time></trkpt><trkpt lat="41.027929726311214" lon="14.668889409683453"><ele>292.25</ele><time>2026-03-28T13:07:47.999Z</time></trkpt><trkpt lat="41.027959396201005" lon="14.669036646171818"><ele>291.5</ele><time>2026-03-28T13:07:48.999Z</time></trkpt><trkpt lat="41.02799304231009" lon="14.669195396647694"><ele>290.75</ele><time>2026-03-28T13:07:49.999Z</time></trkpt><trkpt lat="41.02803666427493" lon="14.669357833455209"><ele>290.0</ele><time>2026-03-28T13:07:50.999Z</time></trkpt><trkpt lat="41.028056664999106" lon="14.669545977899924"><ele>288.6666666666667</ele><time>2026-03-28T13:07:51.998Z</time></trkpt><trkpt lat="41.02809482343851" lon="14.66974463010863"><ele>287.3333333333333</ele><time>2026-03-28T13:07:52.998Z</time></trkpt><trkpt lat="41.028137644309965" lon="14.669952381602306"><ele>286.0</ele><time>2026-03-28T13:07:53.998Z</time></trkpt><trkpt lat="41.02819838336474" lon="14.670177281779859"><ele>285.66666666666663</ele><time>2026-03-28T13:07:54.998Z</time></trkpt><trkpt lat="41.02824465233136" lon="14.670416388158495"><ele>285.3333333333333</ele><time>2026-03-28T13:07:55.998Z</time></trkpt><trkpt lat="41.02828670004311" lon="14.670634534728725"><ele>285.0</ele><time>2026-03-28T13:07:56.998Z</time></trkpt><trkpt lat="41.028324820787226" lon="14.67084139242463"><ele>285.6666666666667</ele><time>2026-03-28T13:07:57.998Z</time></trkpt><trkpt lat="41.0283635736744" lon="14.671049227958354"><ele>286.33333333333337</ele><time>2026-03-28T13:07:58.998Z</time></trkpt><trkpt lat="41.028404347389305" lon="14.67126377714817"><ele>287.0</ele><time>2026-03-28T13:07:59.998Z</time></trkpt><trkpt lat="41.028435933914544" lon="14.671462696881584"><ele>285.0</ele><time>2026-03-28T13:08:00.998Z</time></trkpt><trkpt lat="41.028483340474565" lon="14.67166853106611"><ele>283.0</ele><time>2026-03-28T13:08:01.998Z</time></trkpt><trkpt lat="41.028530779552646" lon="14.671877468083938"><ele>281.0</ele><time>2026-03-28T13:08:02.998Z</time></trkpt><trkpt lat="41.028575932916794" lon="14.67207516174253"><ele>280.75</ele><time>2026-03-28T13:08:03.998Z</time></trkpt><trkpt lat="41.02861596647947" lon="14.672273214169156"><ele>280.5</ele><time>2026-03-28T13:08:04.998Z</time></trkpt><trkpt lat="41.02864994192108" lon="14.672469811281351"><ele>280.25</ele><time>2026-03-28T13:08:05.998Z</time></trkpt><trkpt lat="41.02866328587395" lon="14.672650256035054"><ele>280.0</ele><time>2026-03-28T13:08:06.998Z</time></trkpt><trkpt lat="41.02871057236159" lon="14.67283831282685"><ele>279.66666666666663</ele><time>2026-03-28T13:08:07.998Z</time></trkpt><trkpt lat="41.02874978877697" lon="14.673037470427936"><ele>279.3333333333333</ele><time>2026-03-28T13:08:08.998Z</time></trkpt><trkpt lat="41.02879078105702" lon="14.67324017472532"><ele>279.0</ele><time>2026-03-28T13:08:09.998Z</time></trkpt><trkpt lat="41.028843173278894" lon="14.673457531511191"><ele>280.0</ele><time>2026-03-28T13:08:10.998Z</time></trkpt><trkpt lat="41.028904991829144" lon="14.67369826004374"><ele>281.0</ele><time>2026-03-28T13:08:11.998Z</time></trkpt><trkpt lat="41.02895800756333" lon="14.673970402456336"><ele>282.0</ele><time>2026-03-28T13:08:12.998Z</time></trkpt><trkpt lat="41.02900032408708" lon="14.674240913982763"><ele>283.0</ele><time>2026-03-28T13:08:13.998Z</time></trkpt><trkpt lat="41.029042085810886" lon="14.674516213027536"><ele>284.0</ele><time>2026-03-28T13:08:14.998Z</time></trkpt><trkpt lat="41.02909253412499" lon="14.674799697183664"><ele>285.0</ele><time>2026-03-28T13:08:15.998Z</time></trkpt><trkpt lat="41.02913890183171" lon="14.675086047921376"><ele>277.5</ele><time>2026-03-28T13:08:16.998Z</time></trkpt><trkpt lat="41.029182554157494" lon="14.675384205176282"><ele>270.0</ele><time>2026-03-28T13:08:17.998Z</time></trkpt><trkpt lat="41.02922686348459" lon="14.67567831713687"><ele>270.0</ele><time>2026-03-28T13:08:18.998Z</time></trkpt><trkpt lat="41.02927284236091" lon="14.675973885230405"><ele>270.0</ele><time>2026-03-28T13:08:19.998Z</time></trkpt><trkpt lat="41.029309999218306" lon="14.67624632270483"><ele>270.0</ele><time>2026-03-28T13:08:20.998Z</time></trkpt><trkpt lat="41.029346709289804" lon="14.676515801604644"><ele>269.3333333333333</ele><time>2026-03-28T13:08:21.998Z</time></trkpt><trkpt lat="41.02937276386132" lon="14.67677954909755"><ele>268.66666666666663</ele><time>2026-03-28T13:08:22.998Z</time></trkpt><trkpt lat="41.02938051679652" lon="14.677048680529074"><ele>268.0</ele><time>2026-03-28T13:08:23.998Z</time></trkpt><trkpt lat="41.029378932821736" lon="14.67732970625149"><ele>267.3333333333333</ele><time>2026-03-28T13:08:24.998Z</time></trkpt><trkpt lat="41.02936765337558" lon="14.677614893716704"><ele>266.6666666666667</ele><time>2026-03-28T13:08:25.998Z</time></trkpt><trkpt lat="41.02935440337194" lon="14.677893588036968"><ele>266.0</ele><time>2026-03-28T13:08:26.998Z</time></trkpt><trkpt lat="41.02934681312839" lon="14.678167143451356"><ele>265.6666666666667</ele><time>2026-03-28T13:08:27.998Z</time></trkpt><trkpt lat="41.02933404555112" lon="14.67843614237888"><ele>265.3333333333333</ele><time>2026-03-28T13:08:28.998Z</time></trkpt><trkpt lat="41.02931734632282" lon="14.678709342188391"><ele>265.0</ele><time>2026-03-28T13:08:29.998Z</time></trkpt><trkpt lat="41.02929613689665" lon="14.678977615673446"><ele>264.3333333333333</ele><time>2026-03-28T13:08:30.998Z</time></trkpt><trkpt lat="41.029261582335785" lon="14.679258736162407"><ele>263.6666666666667</ele><time>2026-03-28T13:08:31.998Z</time></trkpt><trkpt lat="41.029231528319116" lon="14.679520608495032"><ele>263.0</ele><time>2026-03-28T13:08:32.997Z</time></trkpt><trkpt lat="41.02919146371697" lon="14.679752814219981"><ele>263.0</ele><time>2026-03-28T13:08:33.997Z</time></trkpt><trkpt lat="41.02915831685227" lon="14.679957700341813"><ele>263.0</ele><time>2026-03-28T13:08:34.997Z</time></trkpt><trkpt lat="41.02911948891807" lon="14.68011647665197"><ele>263.0</ele><time>2026-03-28T13:08:35.997Z</time></trkpt><trkpt lat="41.029059612917145" lon="14.680250318298983"><ele>263.0</ele><time>2026-03-28T13:08:36.997Z</time></trkpt><trkpt lat="41.02885620193018" lon="14.680734405866595"><ele>263.0</ele><time>2026-03-28T13:08:37.997Z</time></trkpt><trkpt lat="41.02874180198153" lon="14.680934292480766"><ele>263.0</ele><time>2026-03-28T13:08:38.997Z</time></trkpt><trkpt lat="41.02864293138021" lon="14.681152053078936"><ele>263.0</ele><time>2026-03-28T13:08:39.997Z</time></trkpt><trkpt lat="41.02857818490495" lon="14.681378990565031"><ele>262.0</ele><time>2026-03-28T13:08:41Z</time></trkpt><trkpt lat="41.02855006907593" lon="14.681587330761372"><ele>261.0</ele><time>2026-03-28T13:08:42Z</time></trkpt><trkpt lat="41.028549550795745" lon="14.681838657533492"><ele>260.0</ele><time>2026-03-28T13:08:43Z</time></trkpt><trkpt lat="41.02858657524946" lon="14.682100070535704"><ele>260.0</ele><time>2026-03-28T13:08:44Z</time></trkpt><trkpt lat="41.02863934261418" lon="14.682370697442778"><ele>260.0</ele><time>2026-03-28T13:08:45Z</time></trkpt><trkpt lat="41.02870369122342" lon="14.68266565576373"><ele>260.0</ele><time>2026-03-28T13:08:46Z</time></trkpt><trkpt lat="41.02877741108585" lon="14.682966409455211"><ele>262.5</ele><time>2026-03-28T13:08:47Z</time></trkpt><trkpt lat="41.02885617448343" lon="14.683265930378012"><ele>265.0</ele><time>2026-03-28T13:08:48Z</time></trkpt><trkpt lat="41.02894969611071" lon="14.683567187509269"><ele>266.5</ele><time>2026-03-28T13:08:49Z</time></trkpt><trkpt lat="41.02906463837265" lon="14.683893084170338"><ele>268.0</ele><time>2026-03-28T13:08:50Z</time></trkpt><trkpt lat="41.029173901718146" lon="14.684196738540876"><ele>262.0</ele><time>2026-03-28T13:08:51Z</time></trkpt><trkpt lat="41.029269566256595" lon="14.684505098893888"><ele>256.0</ele><time>2026-03-28T13:08:52Z</time></trkpt><trkpt lat="41.02935362755676" lon="14.684847988385282"><ele>256.0</ele><time>2026-03-28T13:08:53Z</time></trkpt><trkpt lat="41.02942821739822" lon="14.685203392008264"><ele>256.0</ele><time>2026-03-28T13:08:54Z</time></trkpt><trkpt lat="41.029498124378286" lon="14.685558675064673"><ele>256.5</ele><time>2026-03-28T13:08:55Z</time></trkpt><trkpt lat="41.02955091797115" lon="14.68596044004066"><ele>257.0</ele><time>2026-03-28T13:08:56Z</time></trkpt><trkpt lat="41.02961299194454" lon="14.686305989044758"><ele>255.5</ele><time>2026-03-28T13:08:57Z</time></trkpt><trkpt lat="41.02963814751385" lon="14.686663898474936"><ele>254.0</ele><time>2026-03-28T13:08:58Z</time></trkpt><trkpt lat="41.02967692715532" lon="14.687038962965737"><ele>254.0</ele><time>2026-03-28T13:08:59Z</time></trkpt><trkpt lat="41.02971254631032" lon="14.68739249447254"><ele>254.0</ele><time>2026-03-28T13:09:00Z</time></trkpt><trkpt lat="41.02974841710749" lon="14.687749182273306"><ele>256.5</ele><time>2026-03-28T13:09:01Z</time></trkpt><trkpt lat="41.02978418729884" lon="14.68810666733454"><ele>259.0</ele><time>2026-03-28T13:09:02Z</time></trkpt><trkpt lat="41.02982050008847" lon="14.688459520190138"><ele>259.5</ele><time>2026-03-28T13:09:03Z</time></trkpt><trkpt lat="41.02985343273743" lon="14.688806001792237"><ele>260.0</ele><time>2026-03-28T13:09:04Z</time></trkpt><trkpt lat="41.02986133644573" lon="14.689119856940902"><ele>260.0</ele><time>2026-03-28T13:09:05Z</time></trkpt><trkpt lat="41.02988135420374" lon="14.689412948131356"><ele>260.0</ele><time>2026-03-28T13:09:06Z</time></trkpt><trkpt lat="41.029916697140386" lon="14.689714315311127"><ele>257.0</ele><time>2026-03-28T13:09:07Z</time></trkpt><trkpt lat="41.02992313584933" lon="14.690021316806028"><ele>254.0</ele><time>2026-03-28T13:09:08Z</time></trkpt><trkpt lat="41.029908945414746" lon="14.690327264729115"><ele>252.66666666666669</ele><time>2026-03-28T13:09:09Z</time></trkpt><trkpt lat="41.02988584125717" lon="14.690619050195886"><ele>251.33333333333331</ele><time>2026-03-28T13:09:10Z</time></trkpt><trkpt lat="41.029861970343624" lon="14.690901163883941"><ele>250.0</ele><time>2026-03-28T13:09:11Z</time></trkpt><trkpt lat="41.02983737619269" lon="14.691156244812968"><ele>248.33333333333331</ele><time>2026-03-28T13:09:12Z</time></trkpt><trkpt lat="41.0298061579852" lon="14.691399787958298"><ele>246.66666666666669</ele><time>2026-03-28T13:09:13Z</time></trkpt><trkpt lat="41.029766601361224" lon="14.691632405246974"><ele>245.0</ele><time>2026-03-28T13:09:14Z</time></trkpt><trkpt lat="41.02970420312159" lon="14.691874706557087"><ele>243.33333333333334</ele><time>2026-03-28T13:09:15Z</time></trkpt><trkpt lat="41.02961189381424" lon="14.692115476502055"><ele>241.66666666666669</ele><time>2026-03-28T13:09:16Z</time></trkpt><trkpt lat="41.029494626916254" lon="14.692345338363523"><ele>240.0</ele><time>2026-03-28T13:09:17Z</time></trkpt><trkpt lat="41.02936464187039" lon="14.69255945043954"><ele>240.0</ele><time>2026-03-28T13:09:17.999Z</time></trkpt><trkpt lat="41.02922704195354" lon="14.69274190403284"><ele>240.0</ele><time>2026-03-28T13:09:18.999Z</time></trkpt><trkpt lat="41.029097609863975" lon="14.692898379810595"><ele>240.0</ele><time>2026-03-28T13:09:19.999Z</time></trkpt><trkpt lat="41.029005055169506" lon="14.693071400333064"><ele>239.0</ele><time>2026-03-28T13:09:20.999Z</time></trkpt><trkpt lat="41.02895751163411" lon="14.693265058848388"><ele>238.0</ele><time>2026-03-28T13:09:21.999Z</time></trkpt><trkpt lat="41.02895729705784" lon="14.693489098943484"><ele>237.0</ele><time>2026-03-28T13:09:22.999Z</time></trkpt><trkpt lat="41.028975728143564" lon="14.693700197323418"><ele>238.2</ele><time>2026-03-28T13:09:23.999Z</time></trkpt><trkpt lat="41.02900972980515" lon="14.693872572369193"><ele>239.39999999999998</ele><time>2026-03-28T13:09:24.999Z</time></trkpt><trkpt lat="41.02906160674363" lon="14.693976957693744"><ele>240.60000000000002</ele><time>2026-03-28T13:09:25.999Z</time></trkpt><trkpt lat="41.02910752273688" lon="14.694102379033675"><ele>241.8</ele><time>2026-03-28T13:09:26.999Z</time></trkpt><trkpt lat="41.02911169006403" lon="14.694230284428695"><ele>243.0</ele><time>2026-03-28T13:09:27.999Z</time></trkpt><trkpt lat="41.02908826672013" lon="14.694359778023967"><ele>246.5</ele><time>2026-03-28T13:09:28.999Z</time></trkpt><trkpt lat="41.02902603410673" lon="14.694522099309866"><ele>250.0</ele><time>2026-03-28T13:09:29.999Z</time></trkpt><trkpt lat="41.02896792079367" lon="14.694708696624957"><ele>253.5</ele><time>2026-03-28T13:09:30.999Z</time></trkpt><trkpt lat="41.02890511811035" lon="14.694871373174761"><ele>257.0</ele><time>2026-03-28T13:09:31.999Z</time></trkpt><trkpt lat="41.02882478159862" lon="14.695074473824796"><ele>259.6666666666667</ele><time>2026-03-28T13:09:32.999Z</time></trkpt><trkpt lat="41.02872494192799" lon="14.695333998248804"><ele>262.3333333333333</ele><time>2026-03-28T13:09:33.999Z</time></trkpt><trkpt lat="41.02865529915013" lon="14.695482552778548"><ele>265.0</ele><time>2026-03-28T13:09:34.999Z</time></trkpt><trkpt lat="41.02857620419464" lon="14.695656371594172"><ele>265.0</ele><time>2026-03-28T13:09:35.999Z</time></trkpt><trkpt lat="41.02849445912521" lon="14.695832219905904"><ele>265.0</ele><time>2026-03-28T13:09:36.999Z</time></trkpt><trkpt lat="41.02840744105848" lon="14.695982719869248"><ele>265.0</ele><time>2026-03-28T13:09:37.999Z</time></trkpt><trkpt lat="41.02834249991118" lon="14.696123565687708"><ele>265.0</ele><time>2026-03-28T13:09:38.999Z</time></trkpt><trkpt lat="41.02832593955449" lon="14.696253492709555"><ele>266.5</ele><time>2026-03-28T13:09:39.999Z</time></trkpt><trkpt lat="41.028346790410026" lon="14.696401241447516"><ele>268.0</ele><time>2026-03-28T13:09:40.999Z</time></trkpt><trkpt lat="41.02840210123687" lon="14.696557660254397"><ele>269.5</ele><time>2026-03-28T13:09:41.999Z</time></trkpt><trkpt lat="41.02845329631509" lon="14.69669992762098"><ele>271.0</ele><time>2026-03-28T13:09:42.999Z</time></trkpt><trkpt lat="41.02849810286669" lon="14.696846274606765"><ele>272.0</ele><time>2026-03-28T13:09:43.999Z</time></trkpt><trkpt lat="41.02852797570674" lon="14.69698394809061"><ele>273.0</ele><time>2026-03-28T13:09:44.999Z</time></trkpt><trkpt lat="41.02854179239971" lon="14.697120743216189"><ele>274.0</ele><time>2026-03-28T13:09:45.999Z</time></trkpt><trkpt lat="41.02854002086411" lon="14.697233331821554"><ele>275.0</ele><time>2026-03-28T13:09:46.999Z</time></trkpt><trkpt lat="41.028537161881935" lon="14.697328739069148"><ele>276.0</ele><time>2026-03-28T13:09:47.999Z</time></trkpt><trkpt lat="41.02852027775342" lon="14.697435659012738"><ele>276.0</ele><time>2026-03-28T13:09:48.999Z</time></trkpt><trkpt lat="41.028483331425804" lon="14.697545280709505"><ele>276.0</ele><time>2026-03-28T13:09:49.999Z</time></trkpt><trkpt lat="41.02845117402599" lon="14.697704502464532"><ele>276.0</ele><time>2026-03-28T13:09:50.999Z</time></trkpt><trkpt lat="41.028384879748174" lon="14.697838929293697"><ele>276.0</ele><time>2026-03-28T13:09:51.999Z</time></trkpt><trkpt lat="41.02832512649245" lon="14.697971646079514"><ele>275.40000000000003</ele><time>2026-03-28T13:09:52.999Z</time></trkpt><trkpt lat="41.028268423734225" lon="14.698092160912907"><ele>274.8</ele><time>2026-03-28T13:09:53.999Z</time></trkpt><trkpt lat="41.0282006004488" lon="14.698198960585193"><ele>274.20000000000005</ele><time>2026-03-28T13:09:54.999Z</time></trkpt><trkpt lat="41.02812530333072" lon="14.69828987678059"><ele>273.6</ele><time>2026-03-28T13:09:55.999Z</time></trkpt><trkpt lat="41.02804441923572" lon="14.698364806803372"><ele>273.0</ele><time>2026-03-28T13:09:56.999Z</time></trkpt><trkpt lat="41.02795799269805" lon="14.698431587977739"><ele>273.0</ele><time>2026-03-28T13:09:57.999Z</time></trkpt><trkpt lat="41.027846830126045" lon="14.698488052443167"><ele>273.0</ele><time>2026-03-28T13:09:58.998Z</time></trkpt><trkpt lat="41.02773338772981" lon="14.69853925921563"><ele>273.0</ele><time>2026-03-28T13:09:59.998Z</time></trkpt><trkpt lat="41.02763521770084" lon="14.698604215954166"><ele>273.0</ele><time>2026-03-28T13:10:00.998Z</time></trkpt><trkpt lat="41.0275518555747" lon="14.698694501959377"><ele>273.0</ele><time>2026-03-28T13:10:01.998Z</time></trkpt><trkpt lat="41.02749746510876" lon="14.698783642997217"><ele>273.0</ele><time>2026-03-28T13:10:02.998Z</time></trkpt><trkpt lat="41.02742888008326" lon="14.69886321125806"><ele>273.0</ele><time>2026-03-28T13:10:04.998Z</time></trkpt><trkpt lat="41.027310110934145" lon="14.69892915750526"><ele>273.0</ele><time>2026-03-28T13:10:06.998Z</time></trkpt><trkpt lat="41.027244299147824" lon="14.698960339273816"><ele>273.0</ele><time>2026-03-28T13:10:07.998Z</time></trkpt><trkpt lat="41.02717408887525" lon="14.69898832536366"><ele>273.0</ele><time>2026-03-28T13:10:08.998Z</time></trkpt><trkpt lat="41.02709628761259" lon="14.69905085735632"><ele>273.0</ele><time>2026-03-28T13:10:09.998Z</time></trkpt><trkpt lat="41.02701644195373" lon="14.69912643150065"><ele>273.0</ele><time>2026-03-28T13:10:10.998Z</time></trkpt><trkpt lat="41.0269260551845" lon="14.69923378326739"><ele>273.0</ele><time>2026-03-28T13:10:11.998Z</time></trkpt><trkpt lat="41.02683407698428" lon="14.69936565327051"><ele>273.0</ele><time>2026-03-28T13:10:12.998Z</time></trkpt><trkpt lat="41.02674617823073" lon="14.699506458719425"><ele>273.75</ele><time>2026-03-28T13:10:13.998Z</time></trkpt><trkpt lat="41.02665825814024" lon="14.699652072980173"><ele>274.5</ele><time>2026-03-28T13:10:14.998Z</time></trkpt><trkpt lat="41.02656664699944" lon="14.699793684702863"><ele>275.25</ele><time>2026-03-28T13:10:15.998Z</time></trkpt><trkpt lat="41.02647283360371" lon="14.699933547146468"><ele>276.0</ele><time>2026-03-28T13:10:16.998Z</time></trkpt><trkpt lat="41.02637947435879" lon="14.700086796576187"><ele>276.0</ele><time>2026-03-28T13:10:17.998Z</time></trkpt><trkpt lat="41.02629714167796" lon="14.700223876550545"><ele>276.0</ele><time>2026-03-28T13:10:18.998Z</time></trkpt><trkpt lat="41.02622116271718" lon="14.700360749599733"><ele>276.0</ele><time>2026-03-28T13:10:19.998Z</time></trkpt><trkpt lat="41.026136663003655" lon="14.700504044745923"><ele>276.0</ele><time>2026-03-28T13:10:20.998Z</time></trkpt><trkpt lat="41.026047560297926" lon="14.700644138358152"><ele>277.0</ele><time>2026-03-28T13:10:21.998Z</time></trkpt><trkpt lat="41.02595737881566" lon="14.700782723773806"><ele>278.0</ele><time>2026-03-28T13:10:22.998Z</time></trkpt><trkpt lat="41.02587109303525" lon="14.700915118705957"><ele>279.0</ele><time>2026-03-28T13:10:23.998Z</time></trkpt><trkpt lat="41.02578652938995" lon="14.701043383969601"><ele>280.0</ele><time>2026-03-28T13:10:24.998Z</time></trkpt><trkpt lat="41.02570444461853" lon="14.701185445006226"><ele>280.0</ele><time>2026-03-28T13:10:25.998Z</time></trkpt><trkpt lat="41.02562915253718" lon="14.70133394681485"><ele>280.0</ele><time>2026-03-28T13:10:26.998Z</time></trkpt><trkpt lat="41.02556195617065" lon="14.701491352749583"><ele>280.0</ele><time>2026-03-28T13:10:27.998Z</time></trkpt><trkpt lat="41.02549910593716" lon="14.70165074505014"><ele>280.0</ele><time>2026-03-28T13:10:28.998Z</time></trkpt><trkpt lat="41.02543725721314" lon="14.701800151968369"><ele>276.5</ele><time>2026-03-28T13:10:29.998Z</time></trkpt><trkpt lat="41.025368551607606" lon="14.701946825323247"><ele>273.0</ele><time>2026-03-28T13:10:30.998Z</time></trkpt><trkpt lat="41.02529052863964" lon="14.702089025158966"><ele>269.5</ele><time>2026-03-28T13:10:31.998Z</time></trkpt><trkpt lat="41.025202541864005" lon="14.70223232778434"><ele>266.0</ele><time>2026-03-28T13:10:32.998Z</time></trkpt><trkpt lat="41.025112349702574" lon="14.70237467265699"><ele>266.0</ele><time>2026-03-28T13:10:33.998Z</time></trkpt><trkpt lat="41.02502572301425" lon="14.702513555054324"><ele>266.0</ele><time>2026-03-28T13:10:34.998Z</time></trkpt><trkpt lat="41.02494205988649" lon="14.702640502616457"><ele>266.0</ele><time>2026-03-28T13:10:35.998Z</time></trkpt><trkpt lat="41.0248563878238" lon="14.702755779639011"><ele>266.0</ele><time>2026-03-28T13:10:36.998Z</time></trkpt><trkpt lat="41.02477454113955" lon="14.702868483132608"><ele>266.8</ele><time>2026-03-28T13:10:37.998Z</time></trkpt><trkpt lat="41.024698236445516" lon="14.702953820801607"><ele>267.6</ele><time>2026-03-28T13:10:38.998Z</time></trkpt><trkpt lat="41.024644290756804" lon="14.703008293051846"><ele>268.4</ele><time>2026-03-28T13:10:39.998Z</time></trkpt><trkpt lat="41.02459526703216" lon="14.703077884777482"><ele>269.2</ele><time>2026-03-28T13:10:40.997Z</time></trkpt><trkpt lat="41.02460286917205" lon="14.703202241487098"><ele>270.0</ele><time>2026-03-28T13:10:42.997Z</time></trkpt><trkpt lat="41.024530005558766" lon="14.703347481615255"><ele>270.0</ele><time>2026-03-28T13:10:44.997Z</time></trkpt><trkpt lat="41.02448357809019" lon="14.703422550645627"><ele>270.0</ele><time>2026-03-28T13:10:45.997Z</time></trkpt><trkpt lat="41.02446442314758" lon="14.70350511668885"><ele>270.0</ele><time>2026-03-28T13:10:47Z</time></trkpt><trkpt lat="41.024447535473485" lon="14.703589079018833"><ele>270.0</ele><time>2026-03-28T13:10:48Z</time></trkpt><trkpt lat="41.02442704963365" lon="14.703675539614466"><ele>270.0</ele><time>2026-03-28T13:10:49Z</time></trkpt><trkpt lat="41.02439411344789" lon="14.703748311857398"><ele>270.0</ele><time>2026-03-28T13:10:50Z</time></trkpt><trkpt lat="41.02437255093678" lon="14.703841033027754"><ele>270.0</ele><time>2026-03-28T13:10:51Z</time></trkpt><trkpt lat="41.02433824395772" lon="14.70394054509145"><ele>267.8</ele><time>2026-03-28T13:10:53Z</time></trkpt><trkpt lat="41.024330849707844" lon="14.704105081422988"><ele>265.6</ele><time>2026-03-28T13:10:55Z</time></trkpt><trkpt lat="41.02434522904113" lon="14.704201761639812"><ele>263.4</ele><time>2026-03-28T13:10:56Z</time></trkpt><trkpt lat="41.02433267497886" lon="14.7043621278444"><ele>261.2</ele><time>2026-03-28T13:10:58Z</time></trkpt><trkpt lat="41.024320600152286" lon="14.704453320614054"><ele>259.0</ele><time>2026-03-28T13:10:59Z</time></trkpt><trkpt lat="41.02431528242129" lon="14.704546279249508"><ele>259.0</ele><time>2026-03-28T13:11:00Z</time></trkpt><trkpt lat="41.024303819571934" lon="14.704640563916206"><ele>259.0</ele><time>2026-03-28T13:11:01Z</time></trkpt><trkpt lat="41.02429765505253" lon="14.704742215881732"><ele>259.0</ele><time>2026-03-28T13:11:02Z</time></trkpt><trkpt lat="41.02428818008872" lon="14.704846795932765"><ele>259.0</ele><time>2026-03-28T13:11:03Z</time></trkpt><trkpt lat="41.02425273686186" lon="14.704939645504208"><ele>259.0</ele><time>2026-03-28T13:11:04Z</time></trkpt><trkpt lat="41.024196017569594" lon="14.705019107842368"><ele>259.0</ele><time>2026-03-28T13:11:05Z</time></trkpt><trkpt lat="41.02413172360845" lon="14.705097208532253"><ele>260.25</ele><time>2026-03-28T13:11:06Z</time></trkpt><trkpt lat="41.024030476918064" lon="14.705170599779796"><ele>261.5</ele><time>2026-03-28T13:11:07Z</time></trkpt><trkpt lat="41.023929255499624" lon="14.705242305708945"><ele>262.75</ele><time>2026-03-28T13:11:08Z</time></trkpt><trkpt lat="41.02380749135282" lon="14.705302279076909"><ele>264.0</ele><time>2026-03-28T13:11:09Z</time></trkpt><trkpt lat="41.02367471986614" lon="14.705392061432057"><ele>268.0</ele><time>2026-03-28T13:11:10Z</time></trkpt><trkpt lat="41.02352659373414" lon="14.705529636107283"><ele>272.0</ele><time>2026-03-28T13:11:11Z</time></trkpt><trkpt lat="41.02341758697756" lon="14.705666317005205"><ele>276.0</ele><time>2026-03-28T13:11:12Z</time></trkpt><trkpt lat="41.02332876568763" lon="14.705799809156558"><ele>275.6</ele><time>2026-03-28T13:11:13Z</time></trkpt><trkpt lat="41.02324495192342" lon="14.705914920462453"><ele>275.20000000000005</ele><time>2026-03-28T13:11:14Z</time></trkpt><trkpt lat="41.023177856516696" lon="14.706040048344681"><ele>274.79999999999995</ele><time>2026-03-28T13:11:15Z</time></trkpt><trkpt lat="41.02315786819092" lon="14.706187137751513"><ele>274.4</ele><time>2026-03-28T13:11:16Z</time></trkpt><trkpt lat="41.02313239260377" lon="14.706288588696546"><ele>274.0</ele><time>2026-03-28T13:11:17Z</time></trkpt><trkpt lat="41.023129588059064" lon="14.70641243486686"><ele>276.0</ele><time>2026-03-28T13:11:18Z</time></trkpt><trkpt lat="41.02315161731474" lon="14.70658815811416"><ele>278.0</ele><time>2026-03-28T13:11:19Z</time></trkpt><trkpt lat="41.023173805780985" lon="14.706763822062031"><ele>280.0</ele><time>2026-03-28T13:11:20Z</time></trkpt><trkpt lat="41.02316405428079" lon="14.706916366110722"><ele>282.0</ele><time>2026-03-28T13:11:20.999Z</time></trkpt><trkpt lat="41.02313239316015" lon="14.707117774669495"><ele>283.6666666666667</ele><time>2026-03-28T13:11:21.999Z</time></trkpt><trkpt lat="41.02309029787793" lon="14.707311085918011"><ele>285.33333333333337</ele><time>2026-03-28T13:11:22.999Z</time></trkpt><trkpt lat="41.023042170246605" lon="14.707513924379954"><ele>287.0</ele><time>2026-03-28T13:11:23.999Z</time></trkpt><trkpt lat="41.0229899467558" lon="14.70780994077066"><ele>289.33333333333337</ele><time>2026-03-28T13:11:24.999Z</time></trkpt><trkpt lat="41.02293366950605" lon="14.708064681871235"><ele>291.6666666666667</ele><time>2026-03-28T13:11:25.999Z</time></trkpt><trkpt lat="41.02289570403275" lon="14.708261792059034"><ele>294.0</ele><time>2026-03-28T13:11:26.999Z</time></trkpt><trkpt lat="41.02287513853004" lon="14.708410736420108"><ele>294.0</ele><time>2026-03-28T13:11:27.999Z</time></trkpt><trkpt lat="41.02286861407533" lon="14.708505186609221"><ele>294.0</ele><time>2026-03-28T13:11:28.999Z</time></trkpt><trkpt lat="41.02285926552508" lon="14.708619095297868"><ele>294.0</ele><time>2026-03-28T13:11:29.999Z</time></trkpt><trkpt lat="41.02284846913561" lon="14.708763277701953"><ele>294.0</ele><time>2026-03-28T13:11:30.999Z</time></trkpt><trkpt lat="41.02283293046651" lon="14.708927812701837"><ele>294.0</ele><time>2026-03-28T13:11:31.999Z</time></trkpt><trkpt lat="41.02281832718013" lon="14.709095612867863"><ele>295.0</ele><time>2026-03-28T13:11:32.999Z</time></trkpt><trkpt lat="41.022810779793325" lon="14.709284388077485"><ele>296.0</ele><time>2026-03-28T13:11:33.999Z</time></trkpt><trkpt lat="41.022800779054236" lon="14.709485152883634"><ele>297.0</ele><time>2026-03-28T13:11:34.999Z</time></trkpt><trkpt lat="41.0227978897366" lon="14.709688215730159"><ele>298.0</ele><time>2026-03-28T13:11:35.999Z</time></trkpt><trkpt lat="41.02279892115063" lon="14.7098797990038"><ele>299.0</ele><time>2026-03-28T13:11:36.999Z</time></trkpt><trkpt lat="41.022802852113614" lon="14.710065649011355"><ele>300.0</ele><time>2026-03-28T13:11:37.999Z</time></trkpt><trkpt lat="41.022813667879085" lon="14.710235962002157"><ele>301.0</ele><time>2026-03-28T13:11:38.999Z</time></trkpt><trkpt lat="41.02283674374763" lon="14.710382581973898"><ele>302.0</ele><time>2026-03-28T13:11:39.999Z</time></trkpt><trkpt lat="41.02287137673167" lon="14.710510370556996"><ele>304.25</ele><time>2026-03-28T13:11:40.999Z</time></trkpt><trkpt lat="41.02290688120222" lon="14.71061940649039"><ele>306.5</ele><time>2026-03-28T13:11:41.999Z</time></trkpt><trkpt lat="41.0228688866568" lon="14.710865064040725"><ele>308.75</ele><time>2026-03-28T13:11:43.999Z</time></trkpt><trkpt lat="41.022798576983064" lon="14.711008999433341"><ele>311.0</ele><time>2026-03-28T13:11:44.999Z</time></trkpt><trkpt lat="41.0227395228339" lon="14.711173012103053"><ele>312.0</ele><time>2026-03-28T13:11:45.999Z</time></trkpt><trkpt lat="41.022692516002344" lon="14.711365715020877"><ele>313.0</ele><time>2026-03-28T13:11:46.999Z</time></trkpt><trkpt lat="41.022641929687154" lon="14.711531486527798"><ele>314.0</ele><time>2026-03-28T13:11:47.999Z</time></trkpt><trkpt lat="41.022583156042465" lon="14.711701286218018"><ele>315.0</ele><time>2026-03-28T13:11:48.999Z</time></trkpt><trkpt lat="41.02251757880265" lon="14.711869867359795"><ele>317.0</ele><time>2026-03-28T13:11:49.999Z</time></trkpt><trkpt lat="41.02244781387234" lon="14.712033626171387"><ele>319.0</ele><time>2026-03-28T13:11:50.999Z</time></trkpt><trkpt lat="41.02238726105255" lon="14.712180850594184"><ele>321.0</ele><time>2026-03-28T13:11:51.999Z</time></trkpt><trkpt lat="41.02233402818757" lon="14.712327863333014"><ele>323.0</ele><time>2026-03-28T13:11:52.999Z</time></trkpt><trkpt lat="41.02228223389029" lon="14.712486880026571"><ele>323.0</ele><time>2026-03-28T13:11:53.999Z</time></trkpt><trkpt lat="41.022236055692225" lon="14.712657839855048"><ele>323.0</ele><time>2026-03-28T13:11:54.999Z</time></trkpt><trkpt lat="41.02219192637693" lon="14.712832862502173"><ele>323.0</ele><time>2026-03-28T13:11:55.999Z</time></trkpt><trkpt lat="41.02215587822497" lon="14.712992275446833"><ele>323.0</ele><time>2026-03-28T13:11:56.999Z</time></trkpt><trkpt lat="41.022105050012875" lon="14.713129341451298"><ele>325.2</ele><time>2026-03-28T13:11:57.999Z</time></trkpt><trkpt lat="41.02203506759868" lon="14.713222141656466"><ele>327.4</ele><time>2026-03-28T13:11:58.999Z</time></trkpt><trkpt lat="41.02195788752721" lon="14.713320165824381"><ele>329.59999999999997</ele><time>2026-03-28T13:11:59.999Z</time></trkpt><trkpt lat="41.02190915351372" lon="14.713460926323506"><ele>331.79999999999995</ele><time>2026-03-28T13:12:00.999Z</time></trkpt><trkpt lat="41.02188965036843" lon="14.713622063232515"><ele>334.0</ele><time>2026-03-28T13:12:01.998Z</time></trkpt><trkpt lat="41.02187311410051" lon="14.713796682442148"><ele>336.25</ele><time>2026-03-28T13:12:02.998Z</time></trkpt><trkpt lat="41.02185678013774" lon="14.713966917284985"><ele>338.5</ele><time>2026-03-28T13:12:03.998Z</time></trkpt><trkpt lat="41.02182440073345" lon="14.714130279974555"><ele>340.75</ele><time>2026-03-28T13:12:04.998Z</time></trkpt><trkpt lat="41.021783996052285" lon="14.714291605703535"><ele>343.0</ele><time>2026-03-28T13:12:05.998Z</time></trkpt><trkpt lat="41.02173164872761" lon="14.714447177088983"><ele>344.2</ele><time>2026-03-28T13:12:06.998Z</time></trkpt><trkpt lat="41.0216728884162" lon="14.714594283337211"><ele>345.4</ele><time>2026-03-28T13:12:07.998Z</time></trkpt><trkpt lat="41.02161048730211" lon="14.714692486223921"><ele>346.59999999999997</ele><time>2026-03-28T13:12:08.998Z</time></trkpt><trkpt lat="41.021546903527494" lon="14.714766499708928"><ele>347.79999999999995</ele><time>2026-03-28T13:12:09.998Z</time></trkpt><trkpt lat="41.021490838507674" lon="14.714868198483899"><ele>349.0</ele><time>2026-03-28T13:12:11.998Z</time></trkpt><trkpt lat="41.021415034752216" lon="14.714875959947841"><ele>350.8333333333333</ele><time>2026-03-28T13:12:14.998Z</time></trkpt><trkpt lat="41.02135635662902" lon="14.714933749642174"><ele>352.66666666666663</ele><time>2026-03-28T13:12:17.998Z</time></trkpt><trkpt lat="41.02141194724742" lon="14.715072160013845"><ele>354.5</ele><time>2026-03-28T13:12:19.998Z</time></trkpt><trkpt lat="41.02146758073132" lon="14.715140658547588"><ele>356.3333333333333</ele><time>2026-03-28T13:12:20.998Z</time></trkpt><trkpt lat="41.02152205829659" lon="14.71521839598015"><ele>358.1666666666667</ele><time>2026-03-28T13:12:21.998Z</time></trkpt><trkpt lat="41.02157701672091" lon="14.7153169406723"><ele>360.0</ele><time>2026-03-28T13:12:22.998Z</time></trkpt><trkpt lat="41.021630759883095" lon="14.71543288822904"><ele>359.0</ele><time>2026-03-28T13:12:23.998Z</time></trkpt><trkpt lat="41.0216926943318" lon="14.715533384725958"><ele>358.0</ele><time>2026-03-28T13:12:24.998Z</time></trkpt><trkpt lat="41.02176513090011" lon="14.715678813663624"><ele>357.0</ele><time>2026-03-28T13:12:25.998Z</time></trkpt><trkpt lat="41.02180720118441" lon="14.715838705101735"><ele>356.0</ele><time>2026-03-28T13:12:26.998Z</time></trkpt><trkpt lat="41.02187500663456" lon="14.715983568787923"><ele>356.25</ele><time>2026-03-28T13:12:27.998Z</time></trkpt><trkpt lat="41.02192218678187" lon="14.716129178691077"><ele>356.5</ele><time>2026-03-28T13:12:28.998Z</time></trkpt><trkpt lat="41.02193522889482" lon="14.71628010331524"><ele>356.75</ele><time>2026-03-28T13:12:29.998Z</time></trkpt><trkpt lat="41.02194505866357" lon="14.716435676650068"><ele>357.0</ele><time>2026-03-28T13:12:30.998Z</time></trkpt><trkpt lat="41.02188742429096" lon="14.716586384045947"><ele>357.0</ele><time>2026-03-28T13:12:31.998Z</time></trkpt><trkpt lat="41.021808586498416" lon="14.716746488366802"><ele>357.0</ele><time>2026-03-28T13:12:32.998Z</time></trkpt><trkpt lat="41.021723363926924" lon="14.716886324804927"><ele>357.0</ele><time>2026-03-28T13:12:33.998Z</time></trkpt><trkpt lat="41.02163749222311" lon="14.717041466720868"><ele>357.0</ele><time>2026-03-28T13:12:34.998Z</time></trkpt><trkpt lat="41.0215518015136" lon="14.71719141915467"><ele>358.8</ele><time>2026-03-28T13:12:35.998Z</time></trkpt><trkpt lat="41.02148197561275" lon="14.717342855510807"><ele>360.6</ele><time>2026-03-28T13:12:36.998Z</time></trkpt><trkpt lat="41.02142839746098" lon="14.71747883981297"><ele>362.40000000000003</ele><time>2026-03-28T13:12:37.998Z</time></trkpt><trkpt lat="41.02138524929621" lon="14.717594439164245"><ele>364.20000000000005</ele><time>2026-03-28T13:12:38.998Z</time></trkpt><trkpt lat="41.02135862037468" lon="14.71770226068062"><ele>366.0</ele><time>2026-03-28T13:12:39.998Z</time></trkpt><trkpt lat="41.021317232483824" lon="14.71780037848983"><ele>366.6</ele><time>2026-03-28T13:12:40.998Z</time></trkpt><trkpt lat="41.0212733799778" lon="14.717913733171548"><ele>367.20000000000005</ele><time>2026-03-28T13:12:41.998Z</time></trkpt><trkpt lat="41.02124579853812" lon="14.718041788160326"><ele>367.79999999999995</ele><time>2026-03-28T13:12:42.998Z</time></trkpt><trkpt lat="41.02124851846751" lon="14.718181714759888"><ele>368.4</ele><time>2026-03-28T13:12:43.997Z</time></trkpt><trkpt lat="41.02125522795955" lon="14.718342773922751"><ele>369.0</ele><time>2026-03-28T13:12:44.997Z</time></trkpt><trkpt lat="41.02127593274693" lon="14.718504550855352"><ele>371.75</ele><time>2026-03-28T13:12:45.997Z</time></trkpt><trkpt lat="41.02129136488127" lon="14.718675187501558"><ele>374.5</ele><time>2026-03-28T13:12:46.997Z</time></trkpt><trkpt lat="41.02132877352082" lon="14.718851616991653"><ele>377.25</ele><time>2026-03-28T13:12:47.997Z</time></trkpt><trkpt lat="41.021366566061374" lon="14.719052676759086"><ele>380.0</ele><time>2026-03-28T13:12:48.997Z</time></trkpt><trkpt lat="41.02140120490309" lon="14.719261783856208"><ele>383.0</ele><time>2026-03-28T13:12:49.997Z</time></trkpt><trkpt lat="41.02143821571643" lon="14.719484010110898"><ele>386.0</ele><time>2026-03-28T13:12:50.997Z</time></trkpt><trkpt lat="41.02147886854948" lon="14.719718330871972"><ele>389.0</ele><time>2026-03-28T13:12:51.997Z</time></trkpt><trkpt lat="41.0215226203353" lon="14.719955705822848"><ele>389.0</ele><time>2026-03-28T13:12:53Z</time></trkpt><trkpt lat="41.02156609993932" lon="14.720199110179045"><ele>389.0</ele><time>2026-03-28T13:12:54Z</time></trkpt><trkpt lat="41.0216155165572" lon="14.720436919823504"><ele>389.0</ele><time>2026-03-28T13:12:55Z</time></trkpt><trkpt lat="41.02162056144364" lon="14.720706799268498"><ele>390.3333333333333</ele><time>2026-03-28T13:12:56Z</time></trkpt><trkpt lat="41.021628095176034" lon="14.720965558173864"><ele>391.66666666666663</ele><time>2026-03-28T13:12:57Z</time></trkpt><trkpt lat="41.02165416080925" lon="14.72119777177466"><ele>393.0</ele><time>2026-03-28T13:12:58Z</time></trkpt><trkpt lat="41.02169137792309" lon="14.721385999188835"><ele>388.0</ele><time>2026-03-28T13:12:59Z</time></trkpt><trkpt lat="41.02174189658052" lon="14.721604408056034"><ele>383.0</ele><time>2026-03-28T13:13:00Z</time></trkpt><trkpt lat="41.021772139392404" lon="14.721774551546986"><ele>378.0</ele><time>2026-03-28T13:13:01Z</time></trkpt><trkpt lat="41.02178515763215" lon="14.72198772078991"><ele>377.5</ele><time>2026-03-28T13:13:02Z</time></trkpt><trkpt lat="41.02176754906502" lon="14.722187014581756"><ele>377.0</ele><time>2026-03-28T13:13:03Z</time></trkpt><trkpt lat="41.02174778649157" lon="14.72235863225691"><ele>376.5</ele><time>2026-03-28T13:13:04Z</time></trkpt><trkpt lat="41.02169517869773" lon="14.72252293139867"><ele>376.0</ele><time>2026-03-28T13:13:05Z</time></trkpt><trkpt lat="41.02163015323338" lon="14.722708036237792"><ele>380.3333333333333</ele><time>2026-03-28T13:13:06Z</time></trkpt><trkpt lat="41.02154446061795" lon="14.722901044608252"><ele>384.66666666666663</ele><time>2026-03-28T13:13:07Z</time></trkpt><trkpt lat="41.02144523718431" lon="14.723098860649262"><ele>389.0</ele><time>2026-03-28T13:13:08Z</time></trkpt><trkpt lat="41.02132915308502" lon="14.723280835550804"><ele>389.0</ele><time>2026-03-28T13:13:09Z</time></trkpt><trkpt lat="41.0212118781495" lon="14.723465961242493"><ele>389.0</ele><time>2026-03-28T13:13:10Z</time></trkpt><trkpt lat="41.02108075173094" lon="14.723632509300623"><ele>389.0</ele><time>2026-03-28T13:13:11Z</time></trkpt><trkpt lat="41.020944011104966" lon="14.723784865264262"><ele>393.0</ele><time>2026-03-28T13:13:12Z</time></trkpt><trkpt lat="41.02080129543836" lon="14.723938288172347"><ele>397.0</ele><time>2026-03-28T13:13:13Z</time></trkpt><trkpt lat="41.020651853167706" lon="14.72408880695609"><ele>401.0</ele><time>2026-03-28T13:13:14Z</time></trkpt><trkpt lat="41.020500558619" lon="14.724235372786255"><ele>397.66666666666663</ele><time>2026-03-28T13:13:15Z</time></trkpt><trkpt lat="41.020338254207736" lon="14.724401067556057"><ele>394.33333333333337</ele><time>2026-03-28T13:13:16Z</time></trkpt><trkpt lat="41.020185234400216" lon="14.724590013735973"><ele>391.0</ele><time>2026-03-28T13:13:17Z</time></trkpt><trkpt lat="41.02003683787124" lon="14.724803216148745"><ele>395.0</ele><time>2026-03-28T13:13:18Z</time></trkpt><trkpt lat="41.01990135053744" lon="14.7250262939571"><ele>399.0</ele><time>2026-03-28T13:13:19Z</time></trkpt><trkpt lat="41.019764352567115" lon="14.725257069233606"><ele>403.0</ele><time>2026-03-28T13:13:20Z</time></trkpt><trkpt lat="41.01962436741918" lon="14.72547876693753"><ele>403.0</ele><time>2026-03-28T13:13:21Z</time></trkpt><trkpt lat="41.01947821237347" lon="14.725720193601678"><ele>403.0</ele><time>2026-03-28T13:13:22Z</time></trkpt><trkpt lat="41.0193363066331" lon="14.725951934885158"><ele>398.0</ele><time>2026-03-28T13:13:23Z</time></trkpt><trkpt lat="41.01919732800611" lon="14.726194503807388"><ele>393.0</ele><time>2026-03-28T13:13:24Z</time></trkpt><trkpt lat="41.01906892657147" lon="14.726443641923789"><ele>397.33333333333337</ele><time>2026-03-28T13:13:25Z</time></trkpt><trkpt lat="41.01894982228997" lon="14.726679811629275"><ele>401.6666666666667</ele><time>2026-03-28T13:13:25.999Z</time></trkpt><trkpt lat="41.01882857957577" lon="14.726896742729796"><ele>406.0</ele><time>2026-03-28T13:13:26.999Z</time></trkpt><trkpt lat="41.01870712675412" lon="14.727118017357363"><ele>406.0</ele><time>2026-03-28T13:13:27.999Z</time></trkpt><trkpt lat="41.01859442728666" lon="14.727339455327257"><ele>406.0</ele><time>2026-03-28T13:13:28.999Z</time></trkpt><trkpt lat="41.018476883585585" lon="14.727546555884365"><ele>406.0</ele><time>2026-03-28T13:13:29.999Z</time></trkpt><trkpt lat="41.01838449124665" lon="14.727735611693074"><ele>410.6666666666667</ele><time>2026-03-28T13:13:30.999Z</time></trkpt><trkpt lat="41.01831459147616" lon="14.727933790609615"><ele>415.33333333333337</ele><time>2026-03-28T13:13:31.999Z</time></trkpt><trkpt lat="41.018272996315616" lon="14.728144978657498"><ele>420.0</ele><time>2026-03-28T13:13:32.999Z</time></trkpt><trkpt lat="41.0182775871835" lon="14.728319772439354"><ele>417.25</ele><time>2026-03-28T13:13:33.999Z</time></trkpt><trkpt lat="41.018322962396404" lon="14.728507636698145"><ele>414.5</ele><time>2026-03-28T13:13:34.999Z</time></trkpt><trkpt lat="41.0184007474801" lon="14.728674668384011"><ele>411.75</ele><time>2026-03-28T13:13:35.999Z</time></trkpt><trkpt lat="41.01844224483802" lon="14.728826362738722"><ele>409.0</ele><time>2026-03-28T13:13:36.999Z</time></trkpt><trkpt lat="41.018463724986304" lon="14.728928574608984"><ele>409.0</ele><time>2026-03-28T13:13:37.999Z</time></trkpt><trkpt lat="41.018441717659826" lon="14.72911806120137"><ele>409.0</ele><time>2026-03-28T13:13:38.999Z</time></trkpt><trkpt lat="41.018382253212366" lon="14.729301022727507"><ele>409.0</ele><time>2026-03-28T13:13:39.999Z</time></trkpt><trkpt lat="41.0183049207739" lon="14.72949169515305"><ele>411.33333333333337</ele><time>2026-03-28T13:13:40.999Z</time></trkpt><trkpt lat="41.01817939777621" lon="14.72966216315222"><ele>413.66666666666663</ele><time>2026-03-28T13:13:41.999Z</time></trkpt><trkpt lat="41.01802167851392" lon="14.729809943202369"><ele>416.0</ele><time>2026-03-28T13:13:42.999Z</time></trkpt><trkpt lat="41.017844522207355" lon="14.72994198830864"><ele>416.0</ele><time>2026-03-28T13:13:43.999Z</time></trkpt><trkpt lat="41.01766183423598" lon="14.730044649318899"><ele>416.0</ele><time>2026-03-28T13:13:44.999Z</time></trkpt><trkpt lat="41.01745786728039" lon="14.730128688872602"><ele>416.0</ele><time>2026-03-28T13:13:45.999Z</time></trkpt><trkpt lat="41.017231698413234" lon="14.730182951255838"><ele>417.0</ele><time>2026-03-28T13:13:46.999Z</time></trkpt><trkpt lat="41.01699803171195" lon="14.730207338898786"><ele>418.0</ele><time>2026-03-28T13:13:47.999Z</time></trkpt><trkpt lat="41.01675101139689" lon="14.730190764281762"><ele>420.33333333333337</ele><time>2026-03-28T13:13:48.999Z</time></trkpt><trkpt lat="41.01655364865347" lon="14.730196552202152"><ele>422.66666666666663</ele><time>2026-03-28T13:13:49.999Z</time></trkpt><trkpt lat="41.01637297013423" lon="14.73018341119543"><ele>425.0</ele><time>2026-03-28T13:13:50.999Z</time></trkpt><trkpt lat="41.01624276027069" lon="14.730172521125963"><ele>425.0</ele><time>2026-03-28T13:13:51.999Z</time></trkpt><trkpt lat="41.016144204216076" lon="14.730160299376774"><ele>425.0</ele><time>2026-03-28T13:13:52.999Z</time></trkpt><trkpt lat="41.01604978111691" lon="14.730143245040624"><ele>425.0</ele><time>2026-03-28T13:13:53.999Z</time></trkpt><trkpt lat="41.01594732122539" lon="14.730119375800514"><ele>425.0</ele><time>2026-03-28T13:13:54.999Z</time></trkpt><trkpt lat="41.015828231864745" lon="14.730096830341703"><ele>425.0</ele><time>2026-03-28T13:13:55.999Z</time></trkpt><trkpt lat="41.01569661110817" lon="14.730077776878272"><ele>425.5</ele><time>2026-03-28T13:13:56.999Z</time></trkpt><trkpt lat="41.015550315283384" lon="14.730053410380972"><ele>426.0</ele><time>2026-03-28T13:13:57.999Z</time></trkpt><trkpt lat="41.0154027288888" lon="14.730024577098826"><ele>426.5</ele><time>2026-03-28T13:13:58.999Z</time></trkpt><trkpt lat="41.01526467179138" lon="14.729996908872542"><ele>427.0</ele><time>2026-03-28T13:13:59.999Z</time></trkpt><trkpt lat="41.01512327755392" lon="14.730037398418798"><ele>427.0</ele><time>2026-03-28T13:14:00.999Z</time></trkpt><trkpt lat="41.0149949859369" lon="14.73011226368316"><ele>427.0</ele><time>2026-03-28T13:14:01.999Z</time></trkpt><trkpt lat="41.01488278263164" lon="14.730201801400412"><ele>427.0</ele><time>2026-03-28T13:14:02.999Z</time></trkpt><trkpt lat="41.01477960706918" lon="14.730359852002469"><ele>427.0</ele><time>2026-03-28T13:14:03.999Z</time></trkpt><trkpt lat="41.01467068380495" lon="14.730531847588056"><ele>428.6666666666667</ele><time>2026-03-28T13:14:04.999Z</time></trkpt><trkpt lat="41.01455452272554" lon="14.730726834876801"><ele>430.33333333333337</ele><time>2026-03-28T13:14:05.998Z</time></trkpt><trkpt lat="41.01443143784389" lon="14.730910689106757"><ele>432.0</ele><time>2026-03-28T13:14:06.998Z</time></trkpt><trkpt lat="41.01429949157732" lon="14.73110017112986"><ele>432.0</ele><time>2026-03-28T13:14:07.998Z</time></trkpt><trkpt lat="41.01417234465697" lon="14.731294047294398"><ele>432.0</ele><time>2026-03-28T13:14:08.998Z</time></trkpt><trkpt lat="41.01405578854284" lon="14.731468726460607"><ele>432.0</ele><time>2026-03-28T13:14:09.998Z</time></trkpt><trkpt lat="41.013956038899465" lon="14.731618607931585"><ele>432.0</ele><time>2026-03-28T13:14:10.998Z</time></trkpt><trkpt lat="41.01386250512002" lon="14.731754303660601"><ele>432.0</ele><time>2026-03-28T13:14:11.998Z</time></trkpt><trkpt lat="41.01377478398124" lon="14.731862359886392"><ele>432.0</ele><time>2026-03-28T13:14:12.998Z</time></trkpt><trkpt lat="41.013669608189836" lon="14.731932656898477"><ele>432.0</ele><time>2026-03-28T13:14:13.998Z</time></trkpt><trkpt lat="41.013552018899674" lon="14.731914407447425"><ele>434.0</ele><time>2026-03-28T13:14:14.998Z</time></trkpt><trkpt lat="41.01342023351338" lon="14.731864170428327"><ele>436.0</ele><time>2026-03-28T13:14:15.998Z</time></trkpt><trkpt lat="41.0132579161465" lon="14.731784165432234"><ele>438.0</ele><time>2026-03-28T13:14:16.998Z</time></trkpt><trkpt lat="41.01309373536945" lon="14.731649403099887"><ele>438.0</ele><time>2026-03-28T13:14:17.998Z</time></trkpt><trkpt lat="41.01292237192783" lon="14.73149894597577"><ele>438.0</ele><time>2026-03-28T13:14:18.998Z</time></trkpt><trkpt lat="41.01277078023219" lon="14.731385561253392"><ele>438.0</ele><time>2026-03-28T13:14:19.998Z</time></trkpt><trkpt lat="41.01261774681761" lon="14.731297241366876"><ele>441.66666666666663</ele><time>2026-03-28T13:14:20.998Z</time></trkpt><trkpt lat="41.01244755601133" lon="14.731245421171222"><ele>445.3333333333333</ele><time>2026-03-28T13:14:21.998Z</time></trkpt><trkpt lat="41.01227208938698" lon="14.731226970552658"><ele>449.0</ele><time>2026-03-28T13:14:22.998Z</time></trkpt><trkpt lat="41.01210970239623" lon="14.731233686751011"><ele>449.0</ele><time>2026-03-28T13:14:23.998Z</time></trkpt><trkpt lat="41.011977318670624" lon="14.731273794923434"><ele>449.0</ele><time>2026-03-28T13:14:24.998Z</time></trkpt><trkpt lat="41.011860478085204" lon="14.73135953705432"><ele>449.0</ele><time>2026-03-28T13:14:25.998Z</time></trkpt><trkpt lat="41.011761593422975" lon="14.731491265919102"><ele>449.0</ele><time>2026-03-28T13:14:26.998Z</time></trkpt><trkpt lat="41.01170802192018" lon="14.731677504431179"><ele>449.0</ele><time>2026-03-28T13:14:27.998Z</time></trkpt><trkpt lat="41.011667511657556" lon="14.73188490452009"><ele>449.0</ele><time>2026-03-28T13:14:28.998Z</time></trkpt><trkpt lat="41.01166727599591" lon="14.73211694809194"><ele>449.0</ele><time>2026-03-28T13:14:29.998Z</time></trkpt><trkpt lat="41.01169460435129" lon="14.73236735390771"><ele>448.66666666666663</ele><time>2026-03-28T13:14:30.998Z</time></trkpt><trkpt lat="41.01174699451071" lon="14.732630582459684"><ele>448.33333333333337</ele><time>2026-03-28T13:14:31.998Z</time></trkpt><trkpt lat="41.01180636904488" lon="14.732888231877064"><ele>448.0</ele><time>2026-03-28T13:14:32.998Z</time></trkpt><trkpt lat="41.0118612452848" lon="14.73315013434877"><ele>447.6666666666667</ele><time>2026-03-28T13:14:33.998Z</time></trkpt><trkpt lat="41.01191779137089" lon="14.733402617548082"><ele>447.33333333333337</ele><time>2026-03-28T13:14:34.998Z</time></trkpt><trkpt lat="41.01196776812907" lon="14.733637445171267"><ele>447.0</ele><time>2026-03-28T13:14:35.998Z</time></trkpt><trkpt lat="41.01202129815209" lon="14.73385749627617"><ele>447.0</ele><time>2026-03-28T13:14:36.998Z</time></trkpt><trkpt lat="41.012056675824276" lon="14.73407198319346"><ele>447.0</ele><time>2026-03-28T13:14:37.998Z</time></trkpt><trkpt lat="41.01211418747148" lon="14.734256176375885"><ele>447.0</ele><time>2026-03-28T13:14:38.998Z</time></trkpt><trkpt lat="41.01215111335375" lon="14.734415203915296"><ele>447.0</ele><time>2026-03-28T13:14:39.998Z</time></trkpt><trkpt lat="41.012193125789814" lon="14.734528831766845"><ele>444.0</ele><time>2026-03-28T13:14:40.998Z</time></trkpt><trkpt lat="41.01224662356326" lon="14.734657423390358"><ele>441.0</ele><time>2026-03-28T13:14:41.998Z</time></trkpt><trkpt lat="41.012311456717214" lon="14.734803505999638"><ele>438.0</ele><time>2026-03-28T13:14:42.998Z</time></trkpt><trkpt lat="41.01238993962317" lon="14.734944045889142"><ele>435.0</ele><time>2026-03-28T13:14:43.998Z</time></trkpt><trkpt lat="41.012472099663555" lon="14.735057903161502"><ele>436.75</ele><time>2026-03-28T13:14:44.998Z</time></trkpt><trkpt lat="41.012568384419026" lon="14.735164330224267"><ele>438.5</ele><time>2026-03-28T13:14:45.997Z</time></trkpt><trkpt lat="41.01269017630096" lon="14.735261983703664"><ele>440.25</ele><time>2026-03-28T13:14:46.997Z</time></trkpt><trkpt lat="41.0128260485972" lon="14.73534713844073"><ele>442.0</ele><time>2026-03-28T13:14:47.997Z</time></trkpt><trkpt lat="41.01297298392403" lon="14.735424022189356"><ele>439.6666666666667</ele><time>2026-03-28T13:14:48.997Z</time></trkpt><trkpt lat="41.01312270336849" lon="14.735509365260283"><ele>437.33333333333337</ele><time>2026-03-28T13:14:49.997Z</time></trkpt><trkpt lat="41.01327533262063" lon="14.73559749979215"><ele>435.0</ele><time>2026-03-28T13:14:50.997Z</time></trkpt><trkpt lat="41.01341557286427" lon="14.73568828898226"><ele>435.0</ele><time>2026-03-28T13:14:51.997Z</time></trkpt><trkpt lat="41.01352739117194" lon="14.735802576088231"><ele>435.0</ele><time>2026-03-28T13:14:52.997Z</time></trkpt><trkpt lat="41.01362970469741" lon="14.735903913731704"><ele>435.0</ele><time>2026-03-28T13:14:53.997Z</time></trkpt><trkpt lat="41.01371685811548" lon="14.736013904102345"><ele>435.0</ele><time>2026-03-28T13:14:54.997Z</time></trkpt><trkpt lat="41.013779603161204" lon="14.736118811679486"><ele>432.4</ele><time>2026-03-28T13:14:55.997Z</time></trkpt><trkpt lat="41.01380758523605" lon="14.736210530203651"><ele>429.8</ele><time>2026-03-28T13:14:56.997Z</time></trkpt><trkpt lat="41.01380593326145" lon="14.736304295979888"><ele>427.20000000000005</ele><time>2026-03-28T13:14:57.997Z</time></trkpt><trkpt lat="41.013752910198825" lon="14.736385198580555"><ele>424.6</ele><time>2026-03-28T13:14:59Z</time></trkpt><trkpt lat="41.013657399935354" lon="14.7363981093958"><ele>422.0</ele><time>2026-03-28T13:15:00Z</time></trkpt><trkpt lat="41.013520670403416" lon="14.736337117117225"><ele>422.0</ele><time>2026-03-28T13:15:01Z</time></trkpt><trkpt lat="41.013369601685916" lon="14.736265855875606"><ele>422.0</ele><time>2026-03-28T13:15:02Z</time></trkpt><trkpt lat="41.013207850098794" lon="14.736193504029702"><ele>422.0</ele><time>2026-03-28T13:15:03Z</time></trkpt><trkpt lat="41.01304318261515" lon="14.736121132870611"><ele>424.0</ele><time>2026-03-28T13:15:04Z</time></trkpt><trkpt lat="41.01286670088945" lon="14.736049011537744"><ele>426.0</ele><time>2026-03-28T13:15:05Z</time></trkpt><trkpt lat="41.01269628564436" lon="14.735988834126454"><ele>428.0</ele><time>2026-03-28T13:15:06Z</time></trkpt><trkpt lat="41.01253498220376" lon="14.7359365667031"><ele>426.5</ele><time>2026-03-28T13:15:07Z</time></trkpt><trkpt lat="41.012393137446495" lon="14.735904942746018"><ele>425.0</ele><time>2026-03-28T13:15:08Z</time></trkpt><trkpt lat="41.01224877966429" lon="14.735881686901456"><ele>423.5</ele><time>2026-03-28T13:15:09Z</time></trkpt><trkpt lat="41.01211157639751" lon="14.735870317895904"><ele>422.0</ele><time>2026-03-28T13:15:10Z</time></trkpt><trkpt lat="41.011995928866185" lon="14.735884257989591"><ele>422.0</ele><time>2026-03-28T13:15:11Z</time></trkpt><trkpt lat="41.011897009048774" lon="14.735925841443157"><ele>422.0</ele><time>2026-03-28T13:15:12Z</time></trkpt><trkpt lat="41.011822579741704" lon="14.736014815105545"><ele>422.0</ele><time>2026-03-28T13:15:13Z</time></trkpt><trkpt lat="41.011763405481425" lon="14.736132798699433"><ele>422.0</ele><time>2026-03-28T13:15:14Z</time></trkpt><trkpt lat="41.011802538574216" lon="14.736294219173733"><ele>422.0</ele><time>2026-03-28T13:15:15Z</time></trkpt><trkpt lat="41.011812994812495" lon="14.736462104451315"><ele>417.0</ele><time>2026-03-28T13:15:16Z</time></trkpt><trkpt lat="41.01202020109025" lon="14.736480050555228"><ele>412.0</ele><time>2026-03-28T13:15:17Z</time></trkpt><trkpt lat="41.01216588021011" lon="14.73649437996305"><ele>407.0</ele><time>2026-03-28T13:15:18Z</time></trkpt><trkpt lat="41.012338838525224" lon="14.736544787004895"><ele>407.0</ele><time>2026-03-28T13:15:19Z</time></trkpt><trkpt lat="41.012456503964124" lon="14.73657232997607"><ele>407.0</ele><time>2026-03-28T13:15:20Z</time></trkpt><trkpt lat="41.012573083331446" lon="14.736604908150255"><ele>407.0</ele><time>2026-03-28T13:15:21Z</time></trkpt><trkpt lat="41.012680171536644" lon="14.736640679117922"><ele>407.0</ele><time>2026-03-28T13:15:22Z</time></trkpt><trkpt lat="41.012767109732074" lon="14.736687697426735"><ele>407.0</ele><time>2026-03-28T13:15:23Z</time></trkpt><trkpt lat="41.0128535545226" lon="14.736792610133389"><ele>405.5</ele><time>2026-03-28T13:15:24Z</time></trkpt><trkpt lat="41.01297763210252" lon="14.736910736787568"><ele>404.0</ele><time>2026-03-28T13:15:25Z</time></trkpt><trkpt lat="41.013063994184876" lon="14.737018107199441"><ele>402.5</ele><time>2026-03-28T13:15:26Z</time></trkpt><trkpt lat="41.01314643775636" lon="14.737135784190505"><ele>401.0</ele><time>2026-03-28T13:15:27Z</time></trkpt><trkpt lat="41.013226991531475" lon="14.737274788075396"><ele>401.0</ele><time>2026-03-28T13:15:28Z</time></trkpt><trkpt lat="41.01330844674833" lon="14.737436940228857"><ele>401.0</ele><time>2026-03-28T13:15:29Z</time></trkpt><trkpt lat="41.01335668066587" lon="14.737550426042121"><ele>401.0</ele><time>2026-03-28T13:15:30Z</time></trkpt><trkpt lat="41.01340707182135" lon="14.737648360560383"><ele>401.0</ele><time>2026-03-28T13:15:31Z</time></trkpt><trkpt lat="41.01345095550776" lon="14.737786815249516"><ele>401.0</ele><time>2026-03-28T13:15:32Z</time></trkpt><trkpt lat="41.01351854309362" lon="14.73796462068795"><ele>400.0</ele><time>2026-03-28T13:15:33Z</time></trkpt><trkpt lat="41.013583870285764" lon="14.738170008514741"><ele>399.0</ele><time>2026-03-28T13:15:33.999Z</time></trkpt><trkpt lat="41.01364881678066" lon="14.738386160446321"><ele>398.0</ele><time>2026-03-28T13:15:34.999Z</time></trkpt><trkpt lat="41.01369874425114" lon="14.7385971095196"><ele>396.3333333333333</ele><time>2026-03-28T13:15:35.999Z</time></trkpt><trkpt lat="41.0137493214839" lon="14.738804660637996"><ele>394.66666666666663</ele><time>2026-03-28T13:15:36.999Z</time></trkpt><trkpt lat="41.01376941142526" lon="14.738999803354808"><ele>393.0</ele><time>2026-03-28T13:15:37.999Z</time></trkpt><trkpt lat="41.01374375556923" lon="14.739199772067675"><ele>392.33333333333337</ele><time>2026-03-28T13:15:38.999Z</time></trkpt><trkpt lat="41.01370688221431" lon="14.739405848287062"><ele>391.6666666666667</ele><time>2026-03-28T13:15:39.999Z</time></trkpt><trkpt lat="41.013622793360334" lon="14.73963130131716"><ele>391.0</ele><time>2026-03-28T13:15:40.999Z</time></trkpt><trkpt lat="41.01355403120481" lon="14.739838865008537"><ele>391.0</ele><time>2026-03-28T13:15:41.999Z</time></trkpt><trkpt lat="41.0135257090156" lon="14.740004144019911"><ele>391.0</ele><time>2026-03-28T13:15:42.999Z</time></trkpt><trkpt lat="41.01356290957434" lon="14.740151107483937"><ele>391.0</ele><time>2026-03-28T13:15:43.999Z</time></trkpt><trkpt lat="41.013640245560424" lon="14.740301046889966"><ele>391.0</ele><time>2026-03-28T13:15:44.999Z</time></trkpt><trkpt lat="41.01375709042469" lon="14.740414058301031"><ele>390.0</ele><time>2026-03-28T13:15:45.999Z</time></trkpt><trkpt lat="41.013888925848725" lon="14.740485916004193"><ele>389.0</ele><time>2026-03-28T13:15:46.999Z</time></trkpt><trkpt lat="41.01404483369816" lon="14.740507867821504"><ele>388.0</ele><time>2026-03-28T13:15:47.999Z</time></trkpt><trkpt lat="41.01421911960195" lon="14.740533203681915"><ele>388.0</ele><time>2026-03-28T13:15:48.999Z</time></trkpt><trkpt lat="41.014379565143656" lon="14.740568198521244"><ele>388.0</ele><time>2026-03-28T13:15:49.999Z</time></trkpt><trkpt lat="41.01451752314973" lon="14.740610431512863"><ele>388.0</ele><time>2026-03-28T13:15:50.999Z</time></trkpt><trkpt lat="41.014652035512306" lon="14.740677501206429"><ele>388.0</ele><time>2026-03-28T13:15:51.999Z</time></trkpt><trkpt lat="41.014802529700795" lon="14.740793690084159"><ele>388.0</ele><time>2026-03-28T13:15:52.999Z</time></trkpt><trkpt lat="41.01492877774725" lon="14.740914088223924"><ele>388.0</ele><time>2026-03-28T13:15:53.999Z</time></trkpt><trkpt lat="41.01504761806224" lon="14.741034441246306"><ele>388.0</ele><time>2026-03-28T13:15:54.999Z</time></trkpt><trkpt lat="41.01515580804605" lon="14.741151004325815"><ele>388.0</ele><time>2026-03-28T13:15:55.999Z</time></trkpt><trkpt lat="41.015244168303774" lon="14.741272742361248"><ele>386.0</ele><time>2026-03-28T13:15:56.999Z</time></trkpt><trkpt lat="41.01532419934505" lon="14.741396176553065"><ele>384.0</ele><time>2026-03-28T13:15:57.999Z</time></trkpt><trkpt lat="41.01539565819091" lon="14.741531388676345"><ele>382.0</ele><time>2026-03-28T13:15:58.999Z</time></trkpt><trkpt lat="41.01543500244054" lon="14.741700956039455"><ele>380.0</ele><time>2026-03-28T13:15:59.999Z</time></trkpt><trkpt lat="41.015427868465785" lon="14.741870896482801"><ele>378.75</ele><time>2026-03-28T13:16:00.999Z</time></trkpt><trkpt lat="41.01538450313419" lon="14.742050301667684"><ele>377.5</ele><time>2026-03-28T13:16:01.999Z</time></trkpt><trkpt lat="41.01533562963364" lon="14.742228880596516"><ele>376.25</ele><time>2026-03-28T13:16:02.999Z</time></trkpt><trkpt lat="41.015291890659896" lon="14.742392511192909"><ele>375.0</ele><time>2026-03-28T13:16:03.999Z</time></trkpt><trkpt lat="41.01525577832209" lon="14.742533036088965"><ele>375.0</ele><time>2026-03-28T13:16:04.999Z</time></trkpt><trkpt lat="41.01522491644897" lon="14.742655408230439"><ele>375.0</ele><time>2026-03-28T13:16:05.999Z</time></trkpt><trkpt lat="41.01520486091481" lon="14.742752617335501"><ele>375.0</ele><time>2026-03-28T13:16:06.999Z</time></trkpt><trkpt lat="41.01534671664396" lon="14.742885915187092"><ele>375.0</ele><time>2026-03-28T13:16:09.999Z</time></trkpt><trkpt lat="41.01544203766266" lon="14.74290035254305"><ele>375.0</ele><time>2026-03-28T13:16:10.999Z</time></trkpt><trkpt lat="41.015547241752216" lon="14.742930533887655"><ele>374.25</ele><time>2026-03-28T13:16:11.999Z</time></trkpt><trkpt lat="41.015677727978215" lon="14.742978692182925"><ele>373.5</ele><time>2026-03-28T13:16:12.999Z</time></trkpt><trkpt lat="41.0158043560971" lon="14.743027932809271"><ele>372.75</ele><time>2026-03-28T13:16:13.998Z</time></trkpt><trkpt lat="41.015942171192805" lon="14.74307301641012"><ele>372.0</ele><time>2026-03-28T13:16:14.998Z</time></trkpt><trkpt lat="41.016089342861754" lon="14.743125524592234"><ele>370.3333333333333</ele><time>2026-03-28T13:16:15.998Z</time></trkpt><trkpt lat="41.01624133239869" lon="14.743192456204687"><ele>368.66666666666663</ele><time>2026-03-28T13:16:16.998Z</time></trkpt><trkpt lat="41.01639796637633" lon="14.743264741519306"><ele>367.0</ele><time>2026-03-28T13:16:17.998Z</time></trkpt><trkpt lat="41.01655173907407" lon="14.743353929016015"><ele>368.0</ele><time>2026-03-28T13:16:18.998Z</time></trkpt><trkpt lat="41.016696021370436" lon="14.743467834621299"><ele>369.0</ele><time>2026-03-28T13:16:19.998Z</time></trkpt><trkpt lat="41.0168346559606" lon="14.743602939049811"><ele>370.0</ele><time>2026-03-28T13:16:20.998Z</time></trkpt><trkpt lat="41.0169652179223" lon="14.74376529719341"><ele>367.66666666666663</ele><time>2026-03-28T13:16:21.998Z</time></trkpt><trkpt lat="41.01709471748928" lon="14.743927586683363"><ele>365.3333333333333</ele><time>2026-03-28T13:16:22.998Z</time></trkpt><trkpt lat="41.01721789795423" lon="14.744082497473864"><ele>363.0</ele><time>2026-03-28T13:16:23.998Z</time></trkpt><trkpt lat="41.01732724685141" lon="14.74422199337323"><ele>363.0</ele><time>2026-03-28T13:16:24.998Z</time></trkpt><trkpt lat="41.01743032783201" lon="14.744352234093586"><ele>363.0</ele><time>2026-03-28T13:16:25.998Z</time></trkpt><trkpt lat="41.01752535835822" lon="14.744473305264313"><ele>363.0</ele><time>2026-03-28T13:16:26.998Z</time></trkpt><trkpt lat="41.017593529886675" lon="14.74461583952035"><ele>363.0</ele><time>2026-03-28T13:16:27.998Z</time></trkpt><trkpt lat="41.017635289251295" lon="14.744765862925316"><ele>363.75</ele><time>2026-03-28T13:16:28.998Z</time></trkpt><trkpt lat="41.01763910690335" lon="14.74493639654896"><ele>364.5</ele><time>2026-03-28T13:16:29.998Z</time></trkpt><trkpt lat="41.01758838191723" lon="14.745111002258412"><ele>365.25</ele><time>2026-03-28T13:16:30.998Z</time></trkpt><trkpt lat="41.017514704646224" lon="14.745281522835345"><ele>366.0</ele><time>2026-03-28T13:16:31.998Z</time></trkpt><trkpt lat="41.01741854643799" lon="14.745439102181141"><ele>363.25</ele><time>2026-03-28T13:16:32.998Z</time></trkpt><trkpt lat="41.01731281659335" lon="14.745591408137255"><ele>360.5</ele><time>2026-03-28T13:16:33.998Z</time></trkpt><trkpt lat="41.017225378607186" lon="14.745734201228355"><ele>357.75</ele><time>2026-03-28T13:16:34.998Z</time></trkpt><trkpt lat="41.017166196058135" lon="14.745889633950023"><ele>355.0</ele><time>2026-03-28T13:16:35.998Z</time></trkpt><trkpt lat="41.01711055998007" lon="14.746083871864874"><ele>355.0</ele><time>2026-03-28T13:16:36.998Z</time></trkpt><trkpt lat="41.01704761517819" lon="14.746277750701326"><ele>355.0</ele><time>2026-03-28T13:16:37.998Z</time></trkpt><trkpt lat="41.01698387903412" lon="14.746470998642128"><ele>355.0</ele><time>2026-03-28T13:16:38.998Z</time></trkpt><trkpt lat="41.01692894743808" lon="14.746691387058759"><ele>355.0</ele><time>2026-03-28T13:16:39.998Z</time></trkpt><trkpt lat="41.016875734952684" lon="14.74687177236259"><ele>355.0</ele><time>2026-03-28T13:16:40.998Z</time></trkpt><trkpt lat="41.01683508863445" lon="14.747037828230287"><ele>355.0</ele><time>2026-03-28T13:16:41.998Z</time></trkpt><trkpt lat="41.016807691849806" lon="14.747200370985425"><ele>355.0</ele><time>2026-03-28T13:16:42.998Z</time></trkpt><trkpt lat="41.016793989799616" lon="14.74736416030906"><ele>354.4</ele><time>2026-03-28T13:16:43.998Z</time></trkpt><trkpt lat="41.016795014441556" lon="14.747536889823243"><ele>353.8</ele><time>2026-03-28T13:16:44.998Z</time></trkpt><trkpt lat="41.016822800511335" lon="14.747691777909905"><ele>353.20000000000005</ele><time>2026-03-28T13:16:45.998Z</time></trkpt><trkpt lat="41.01687275297416" lon="14.747803137415822"><ele>352.6</ele><time>2026-03-28T13:16:46.998Z</time></trkpt><trkpt lat="41.016923082022224" lon="14.747877272270545"><ele>352.0</ele><time>2026-03-28T13:16:47.998Z</time></trkpt><trkpt lat="41.016975066374215" lon="14.747983625135749"><ele>351.0</ele><time>2026-03-28T13:16:49.998Z</time></trkpt><trkpt lat="41.01698790762705" lon="14.748071455590619"><ele>350.0</ele><time>2026-03-28T13:16:50.998Z</time></trkpt><trkpt lat="41.016837519414096" lon="14.748164323250158"><ele>349.0</ele><time>2026-03-28T13:16:51.998Z</time></trkpt><trkpt lat="41.016759627549824" lon="14.748287537060229"><ele>348.0</ele><time>2026-03-28T13:16:52.998Z</time></trkpt><trkpt lat="41.01666817120826" lon="14.748372108703151"><ele>345.25</ele><time>2026-03-28T13:16:53.997Z</time></trkpt><trkpt lat="41.01656883278189" lon="14.74841185113954"><ele>342.5</ele><time>2026-03-28T13:16:54.997Z</time></trkpt><trkpt lat="41.01646721726067" lon="14.748395001215453"><ele>339.75</ele><time>2026-03-28T13:16:55.997Z</time></trkpt><trkpt lat="41.016365903410424" lon="14.748321932014488"><ele>337.0</ele><time>2026-03-28T13:16:56.997Z</time></trkpt><trkpt lat="41.01625860826178" lon="14.748207233750149"><ele>337.0</ele><time>2026-03-28T13:16:57.997Z</time></trkpt><trkpt lat="41.016149528584585" lon="14.748068641168965"><ele>337.0</ele><time>2026-03-28T13:16:58.997Z</time></trkpt><trkpt lat="41.01603541608985" lon="14.747936368354543"><ele>337.0</ele><time>2026-03-28T13:16:59.997Z</time></trkpt><trkpt lat="41.015925333562876" lon="14.74781946049488"><ele>337.0</ele><time>2026-03-28T13:17:00.997Z</time></trkpt><trkpt lat="41.01581715580566" lon="14.747723587387956"><ele>334.40000000000003</ele><time>2026-03-28T13:17:01.997Z</time></trkpt><trkpt lat="41.01572793964229" lon="14.747659745859844"><ele>331.8</ele><time>2026-03-28T13:17:02.997Z</time></trkpt><trkpt lat="41.01564214522592" lon="14.747620990285618"><ele>329.2</ele><time>2026-03-28T13:17:03.997Z</time></trkpt><trkpt lat="41.01556298378767" lon="14.747609471115549"><ele>326.6</ele><time>2026-03-28T13:17:05Z</time></trkpt><trkpt lat="41.01547413573052" lon="14.747658353458805"><ele>324.0</ele><time>2026-03-28T13:17:06Z</time></trkpt><trkpt lat="41.015385013268826" lon="14.747769033767744"><ele>324.0</ele><time>2026-03-28T13:17:07Z</time></trkpt><trkpt lat="41.01531033230209" lon="14.747887804158683"><ele>324.0</ele><time>2026-03-28T13:17:08Z</time></trkpt><trkpt lat="41.01523627397706" lon="14.748012430958582"><ele>324.0</ele><time>2026-03-28T13:17:09Z</time></trkpt><trkpt lat="41.01515742109569" lon="14.748141914008553"><ele>324.0</ele><time>2026-03-28T13:17:10Z</time></trkpt><trkpt lat="41.015074070224024" lon="14.748278784342903"><ele>324.0</ele><time>2026-03-28T13:17:11Z</time></trkpt><trkpt lat="41.014991835753186" lon="14.748422116426326"><ele>324.0</ele><time>2026-03-28T13:17:12Z</time></trkpt><trkpt lat="41.014913692301334" lon="14.748555866074957"><ele>324.0</ele><time>2026-03-28T13:17:13Z</time></trkpt><trkpt lat="41.014839397497745" lon="14.748696427495945"><ele>324.0</ele><time>2026-03-28T13:17:14Z</time></trkpt><trkpt lat="41.014769632888196" lon="14.748837794894726"><ele>322.0</ele><time>2026-03-28T13:17:15Z</time></trkpt><trkpt lat="41.01470781414066" lon="14.74898823776345"><ele>320.0</ele><time>2026-03-28T13:17:16Z</time></trkpt><trkpt lat="41.014613098087025" lon="14.7491035828403"><ele>318.0</ele><time>2026-03-28T13:17:17Z</time></trkpt><trkpt lat="41.01450001350085" lon="14.749195363286026"><ele>316.0</ele><time>2026-03-28T13:17:18Z</time></trkpt><trkpt lat="41.01438224755503" lon="14.749293937171021"><ele>316.5</ele><time>2026-03-28T13:17:19Z</time></trkpt><trkpt lat="41.01427410226173" lon="14.749427264771382"><ele>317.0</ele><time>2026-03-28T13:17:20Z</time></trkpt><trkpt lat="41.014160574947375" lon="14.749547731256474"><ele>317.5</ele><time>2026-03-28T13:17:21Z</time></trkpt><trkpt lat="41.01407556032248" lon="14.749673123998587"><ele>318.0</ele><time>2026-03-28T13:17:22Z</time></trkpt><trkpt lat="41.014017473569275" lon="14.749819664926852"><ele>315.0</ele><time>2026-03-28T13:17:23Z</time></trkpt><trkpt lat="41.013954973261555" lon="14.749966365333126"><ele>312.0</ele><time>2026-03-28T13:17:24Z</time></trkpt><trkpt lat="41.013879045495734" lon="14.750102459290687"><ele>309.0</ele><time>2026-03-28T13:17:25Z</time></trkpt><trkpt lat="41.01381971747033" lon="14.750241367959909"><ele>306.0</ele><time>2026-03-28T13:17:26Z</time></trkpt><trkpt lat="41.01376247724302" lon="14.75037615828564"><ele>306.0</ele><time>2026-03-28T13:17:27Z</time></trkpt><trkpt lat="41.013706083924" lon="14.750508954376405"><ele>306.0</ele><time>2026-03-28T13:17:28Z</time></trkpt><trkpt lat="41.0136596077455" lon="14.750645795877107"><ele>306.0</ele><time>2026-03-28T13:17:29Z</time></trkpt><trkpt lat="41.01358821573027" lon="14.750770545188171"><ele>306.0</ele><time>2026-03-28T13:17:30Z</time></trkpt><trkpt lat="41.01351565304614" lon="14.750887292066349"><ele>306.0</ele><time>2026-03-28T13:17:31Z</time></trkpt><trkpt lat="41.013450965091494" lon="14.751017940811831"><ele>306.0</ele><time>2026-03-28T13:17:32Z</time></trkpt><trkpt lat="41.013413047494815" lon="14.751167385355124"><ele>306.0</ele><time>2026-03-28T13:17:33Z</time></trkpt><trkpt lat="41.01338624347339" lon="14.751325972071752"><ele>306.0</ele><time>2026-03-28T13:17:34Z</time></trkpt><trkpt lat="41.01340859419188" lon="14.751490589318227"><ele>304.5</ele><time>2026-03-28T13:17:35Z</time></trkpt><trkpt lat="41.013422412351254" lon="14.751656915442297"><ele>303.0</ele><time>2026-03-28T13:17:36Z</time></trkpt><trkpt lat="41.013459534904655" lon="14.751809523066614"><ele>301.5</ele><time>2026-03-28T13:17:37Z</time></trkpt><trkpt lat="41.01350684411251" lon="14.7519651127684"><ele>300.0</ele><time>2026-03-28T13:17:38Z</time></trkpt><trkpt lat="41.01353569996571" lon="14.752129001195966"><ele>298.75</ele><time>2026-03-28T13:17:39Z</time></trkpt><trkpt lat="41.013539989449605" lon="14.752300087231655"><ele>297.5</ele><time>2026-03-28T13:17:40Z</time></trkpt><trkpt lat="41.013529334688975" lon="14.752479208571007"><ele>296.25</ele><time>2026-03-28T13:17:40.999Z</time></trkpt><trkpt lat="41.01350912670239" lon="14.752639284430245"><ele>295.0</ele><time>2026-03-28T13:17:41.999Z</time></trkpt><trkpt lat="41.01349068506657" lon="14.752808389256375"><ele>292.0</ele><time>2026-03-28T13:17:42.999Z</time></trkpt><trkpt lat="41.0134753871971" lon="14.752979721902967"><ele>289.0</ele><time>2026-03-28T13:17:43.999Z</time></trkpt><trkpt lat="41.01342197698618" lon="14.753164470301458"><ele>286.0</ele><time>2026-03-28T13:17:44.999Z</time></trkpt><trkpt lat="41.013360529320416" lon="14.753348461471335"><ele>283.0</ele><time>2026-03-28T13:17:45.999Z</time></trkpt><trkpt lat="41.01330027531731" lon="14.753524610641971"><ele>280.5</ele><time>2026-03-28T13:17:46.999Z</time></trkpt><trkpt lat="41.013236092381874" lon="14.753704370640051"><ele>278.0</ele><time>2026-03-28T13:17:47.999Z</time></trkpt><trkpt lat="41.013157985647794" lon="14.753867767983927"><ele>275.5</ele><time>2026-03-28T13:17:48.999Z</time></trkpt><trkpt lat="41.013058216104" lon="14.753996224933903"><ele>273.0</ele><time>2026-03-28T13:17:49.999Z</time></trkpt><trkpt lat="41.01292887533553" lon="14.754114965420683"><ele>273.0</ele><time>2026-03-28T13:17:50.999Z</time></trkpt><trkpt lat="41.012804706919574" lon="14.754255815369781"><ele>273.0</ele><time>2026-03-28T13:17:51.999Z</time></trkpt><trkpt lat="41.01269213405231" lon="14.75440013351538"><ele>273.0</ele><time>2026-03-28T13:17:52.999Z</time></trkpt><trkpt lat="41.012604816698996" lon="14.754544727264904"><ele>270.3333333333333</ele><time>2026-03-28T13:17:53.999Z</time></trkpt><trkpt lat="41.012521965956225" lon="14.75471859496535"><ele>267.66666666666663</ele><time>2026-03-28T13:17:54.999Z</time></trkpt><trkpt lat="41.01245289252927" lon="14.75491483812075"><ele>265.0</ele><time>2026-03-28T13:17:55.999Z</time></trkpt><trkpt lat="41.012367544049454" lon="14.755136657015951"><ele>263.66666666666663</ele><time>2026-03-28T13:17:56.999Z</time></trkpt><trkpt lat="41.01228265798571" lon="14.755368639801947"><ele>262.3333333333333</ele><time>2026-03-28T13:17:57.999Z</time></trkpt><trkpt lat="41.012183601576545" lon="14.755600440468342"><ele>261.0</ele><time>2026-03-28T13:17:58.999Z</time></trkpt><trkpt lat="41.01211163762959" lon="14.755825437635497"><ele>260.6666666666667</ele><time>2026-03-28T13:17:59.999Z</time></trkpt><trkpt lat="41.01204318486994" lon="14.756042815570172"><ele>260.33333333333337</ele><time>2026-03-28T13:18:00.999Z</time></trkpt><trkpt lat="41.011992522600295" lon="14.756250481114245"><ele>260.0</ele><time>2026-03-28T13:18:01.999Z</time></trkpt><trkpt lat="41.01191495339714" lon="14.756424383936357"><ele>260.0</ele><time>2026-03-28T13:18:02.999Z</time></trkpt><trkpt lat="41.011827407250024" lon="14.756584747950882"><ele>260.0</ele><time>2026-03-28T13:18:03.999Z</time></trkpt><trkpt lat="41.01174996792278" lon="14.756748457823157"><ele>260.0</ele><time>2026-03-28T13:18:04.999Z</time></trkpt><trkpt lat="41.0116890331891" lon="14.756913584561099"><ele>260.0</ele><time>2026-03-28T13:18:05.999Z</time></trkpt><trkpt lat="41.011639443811056" lon="14.757083634794911"><ele>256.25</ele><time>2026-03-28T13:18:06.999Z</time></trkpt><trkpt lat="41.01158915148088" lon="14.75725354574426"><ele>252.5</ele><time>2026-03-28T13:18:07.999Z</time></trkpt><trkpt lat="41.01153258381783" lon="14.757416586051514"><ele>248.75</ele><time>2026-03-28T13:18:08.999Z</time></trkpt><trkpt lat="41.01148279733243" lon="14.757567350968792"><ele>245.0</ele><time>2026-03-28T13:18:09.999Z</time></trkpt><trkpt lat="41.011434547630074" lon="14.757690671827406"><ele>244.5</ele><time>2026-03-28T13:18:10.999Z</time></trkpt><trkpt lat="41.01135832800186" lon="14.757786021968666"><ele>244.0</ele><time>2026-03-28T13:18:11.999Z</time></trkpt><trkpt lat="41.01124498791526" lon="14.757846002093144"><ele>243.5</ele><time>2026-03-28T13:18:12.999Z</time></trkpt><trkpt lat="41.0111229076245" lon="14.75789372214265"><ele>243.0</ele><time>2026-03-28T13:18:13.999Z</time></trkpt><trkpt lat="41.01102180260649" lon="14.757960549998678"><ele>243.0</ele><time>2026-03-28T13:18:14.999Z</time></trkpt><trkpt lat="41.01093102638031" lon="14.75805645948841"><ele>243.0</ele><time>2026-03-28T13:18:15.999Z</time></trkpt><trkpt lat="41.010870259720534" lon="14.758170065010793"><ele>243.0</ele><time>2026-03-28T13:18:16.999Z</time></trkpt><trkpt lat="41.010833382373946" lon="14.758268811774387"><ele>243.0</ele><time>2026-03-28T13:18:17.999Z</time></trkpt><trkpt lat="41.01078886038882" lon="14.758357193956527"><ele>243.0</ele><time>2026-03-28T13:18:18.999Z</time></trkpt><trkpt lat="41.010744564360344" lon="14.758420035947355"><ele>243.0</ele><time>2026-03-28T13:18:19.999Z</time></trkpt><trkpt lat="41.01069717726797" lon="14.758488399147414"><ele>240.2</ele><time>2026-03-28T13:18:21.998Z</time></trkpt><trkpt lat="41.01065688438005" lon="14.75864692824039"><ele>237.4</ele><time>2026-03-28T13:18:24.998Z</time></trkpt><trkpt lat="41.01066927205993" lon="14.758769522023863"><ele>234.59999999999997</ele><time>2026-03-28T13:18:25.998Z</time></trkpt><trkpt lat="41.010698152389864" lon="14.758893884632332"><ele>231.79999999999998</ele><time>2026-03-28T13:18:26.998Z</time></trkpt><trkpt lat="41.01072609764963" lon="14.75903429324616"><ele>229.0</ele><time>2026-03-28T13:18:27.998Z</time></trkpt><trkpt lat="41.010759139528695" lon="14.75919066737705"><ele>229.0</ele><time>2026-03-28T13:18:28.998Z</time></trkpt><trkpt lat="41.01079184190364" lon="14.759362455767329"><ele>229.0</ele><time>2026-03-28T13:18:29.998Z</time></trkpt><trkpt lat="41.01082678953471" lon="14.759545022279298"><ele>229.0</ele><time>2026-03-28T13:18:30.998Z</time></trkpt><trkpt lat="41.01086265997509" lon="14.759739342178907"><ele>229.0</ele><time>2026-03-28T13:18:31.998Z</time></trkpt><trkpt lat="41.0108995742678" lon="14.759941682069398"><ele>229.66666666666666</ele><time>2026-03-28T13:18:32.998Z</time></trkpt><trkpt lat="41.010934922028504" lon="14.760149168674438"><ele>230.33333333333331</ele><time>2026-03-28T13:18:33.998Z</time></trkpt><trkpt lat="41.010966859672514" lon="14.760374045145367"><ele>231.0</ele><time>2026-03-28T13:18:34.998Z</time></trkpt><trkpt lat="41.011008215369785" lon="14.76060323574189"><ele>229.66666666666669</ele><time>2026-03-28T13:18:35.998Z</time></trkpt><trkpt lat="41.01104714956053" lon="14.760837333470624"><ele>228.33333333333334</ele><time>2026-03-28T13:18:36.998Z</time></trkpt><trkpt lat="41.011065435438475" lon="14.761078139866113"><ele>227.0</ele><time>2026-03-28T13:18:37.998Z</time></trkpt><trkpt lat="41.01109810901058" lon="14.761302955610638"><ele>226.5</ele><time>2026-03-28T13:18:38.998Z</time></trkpt><trkpt lat="41.011145031849885" lon="14.761519608521716"><ele>226.0</ele><time>2026-03-28T13:18:39.998Z</time></trkpt><trkpt lat="41.01119426277076" lon="14.761964340448994"><ele>225.66666666666666</ele><time>2026-03-28T13:18:41.998Z</time></trkpt><trkpt lat="41.011206886545715" lon="14.762192064604779"><ele>225.33333333333331</ele><time>2026-03-28T13:18:42.998Z</time></trkpt><trkpt lat="41.011219255802466" lon="14.762425288971974"><ele>225.0</ele><time>2026-03-28T13:18:43.998Z</time></trkpt><trkpt lat="41.01122206058762" lon="14.76266514934508"><ele>224.33333333333331</ele><time>2026-03-28T13:18:44.998Z</time></trkpt><trkpt lat="41.011220561895236" lon="14.762911412013885"><ele>223.66666666666666</ele><time>2026-03-28T13:18:45.998Z</time></trkpt><trkpt lat="41.01120886769906" lon="14.76314582679759"><ele>223.0</ele><time>2026-03-28T13:18:46.998Z</time></trkpt><trkpt lat="41.01119566142882" lon="14.763381950110702"><ele>222.33333333333331</ele><time>2026-03-28T13:18:47.998Z</time></trkpt><trkpt lat="41.011180908967795" lon="14.763617307256037"><ele>221.66666666666669</ele><time>2026-03-28T13:18:48.998Z</time></trkpt><trkpt lat="41.01115595945933" lon="14.763842254365622"><ele>221.0</ele><time>2026-03-28T13:18:49.998Z</time></trkpt><trkpt lat="41.01113477344176" lon="14.764052905381885"><ele>221.0</ele><time>2026-03-28T13:18:50.998Z</time></trkpt><trkpt lat="41.01110565704761" lon="14.764254105540225"><ele>221.0</ele><time>2026-03-28T13:18:51.998Z</time></trkpt><trkpt lat="41.01105982519575" lon="14.764477318706213"><ele>221.0</ele><time>2026-03-28T13:18:52.998Z</time></trkpt><trkpt lat="41.01101409020138" lon="14.764700772648817"><ele>220.33333333333334</ele><time>2026-03-28T13:18:53.998Z</time></trkpt><trkpt lat="41.01096738059653" lon="14.764923894682072"><ele>219.66666666666669</ele><time>2026-03-28T13:18:54.998Z</time></trkpt><trkpt lat="41.010900366090105" lon="14.765123438932525"><ele>219.0</ele><time>2026-03-28T13:18:55.998Z</time></trkpt><trkpt lat="41.01085164460764" lon="14.76529541194449"><ele>218.75</ele><time>2026-03-28T13:18:56.998Z</time></trkpt><trkpt lat="41.010810841632676" lon="14.765433746311137"><ele>218.5</ele><time>2026-03-28T13:18:57.998Z</time></trkpt><trkpt lat="41.010778701185785" lon="14.765537148043649"><ele>218.25</ele><time>2026-03-28T13:18:58.998Z</time></trkpt><trkpt lat="41.01074132271994" lon="14.765657326816617"><ele>218.0</ele><time>2026-03-28T13:19:00.998Z</time></trkpt><trkpt lat="41.01093383995991" lon="14.765846420726989"><ele>218.0</ele><time>2026-03-28T13:19:02.997Z</time></trkpt><trkpt lat="41.011029641306486" lon="14.765937640623367"><ele>218.0</ele><time>2026-03-28T13:19:03.997Z</time></trkpt><trkpt lat="41.011089237219174" lon="14.76607253212577"><ele>218.0</ele><time>2026-03-28T13:19:04.997Z</time></trkpt><trkpt lat="41.01112402146527" lon="14.76621814666358"><ele>218.0</ele><time>2026-03-28T13:19:05.997Z</time></trkpt><trkpt lat="41.01115785864617" lon="14.766405013472554"><ele>217.66666666666669</ele><time>2026-03-28T13:19:06.997Z</time></trkpt><trkpt lat="41.011198565708405" lon="14.766599073860307"><ele>217.33333333333331</ele><time>2026-03-28T13:19:07.997Z</time></trkpt><trkpt lat="41.0112160567135" lon="14.766814414267118"><ele>217.0</ele><time>2026-03-28T13:19:08.997Z</time></trkpt><trkpt lat="41.0112000135461" lon="14.767022721866104"><ele>217.0</ele><time>2026-03-28T13:19:09.997Z</time></trkpt><trkpt lat="41.01119802319166" lon="14.767229619407905"><ele>217.0</ele><time>2026-03-28T13:19:11Z</time></trkpt><trkpt lat="41.01119382043095" lon="14.767405587415364"><ele>217.0</ele><time>2026-03-28T13:19:12Z</time></trkpt><trkpt lat="41.01118566403232" lon="14.767576965691203"><ele>217.0</ele><time>2026-03-28T13:19:13Z</time></trkpt><trkpt lat="41.0111737744556" lon="14.767768521165198"><ele>216.5</ele><time>2026-03-28T13:19:14Z</time></trkpt><trkpt lat="41.011128782275144" lon="14.767965509056394"><ele>216.0</ele><time>2026-03-28T13:19:15Z</time></trkpt><trkpt lat="41.011084024224516" lon="14.768143121212592"><ele>215.5</ele><time>2026-03-28T13:19:16Z</time></trkpt><trkpt lat="41.0110480792022" lon="14.768305087469548"><ele>215.0</ele><time>2026-03-28T13:19:17Z</time></trkpt><trkpt lat="41.01102418070409" lon="14.76845676411635"><ele>214.75</ele><time>2026-03-28T13:19:18Z</time></trkpt><trkpt lat="41.01104198943603" lon="14.768615843732999"><ele>214.5</ele><time>2026-03-28T13:19:19Z</time></trkpt><trkpt lat="41.011096279326146" lon="14.76876963095461"><ele>214.25</ele><time>2026-03-28T13:19:20Z</time></trkpt><trkpt lat="41.01118915891932" lon="14.768906345517857"><ele>214.0</ele><time>2026-03-28T13:19:21Z</time></trkpt><trkpt lat="41.011308896998244" lon="14.76902402412818"><ele>214.0</ele><time>2026-03-28T13:19:22Z</time></trkpt><trkpt lat="41.01142788830369" lon="14.769145387964866"><ele>214.0</ele><time>2026-03-28T13:19:23Z</time></trkpt><trkpt lat="41.01153729501588" lon="14.769255982175599"><ele>214.0</ele><time>2026-03-28T13:19:24Z</time></trkpt><trkpt lat="41.01163480595811" lon="14.769378757746237"><ele>214.0</ele><time>2026-03-28T13:19:25Z</time></trkpt><trkpt lat="41.011702858078124" lon="14.769552636795057"><ele>214.0</ele><time>2026-03-28T13:19:26Z</time></trkpt><trkpt lat="41.01179847826639" lon="14.769720362181506"><ele>214.0</ele><time>2026-03-28T13:19:27Z</time></trkpt><trkpt lat="41.0119256167998" lon="14.769881194791028"><ele>214.0</ele><time>2026-03-28T13:19:28Z</time></trkpt><trkpt lat="41.012048782092805" lon="14.770045150402757"><ele>214.0</ele><time>2026-03-28T13:19:29Z</time></trkpt><trkpt lat="41.01216380195456" lon="14.770186554021521"><ele>214.0</ele><time>2026-03-28T13:19:30Z</time></trkpt><trkpt lat="41.01225892655226" lon="14.770318054555506"><ele>214.0</ele><time>2026-03-28T13:19:31Z</time></trkpt><trkpt lat="41.01234483724585" lon="14.770442508537293"><ele>214.0</ele><time>2026-03-28T13:19:32Z</time></trkpt><trkpt lat="41.01242581976167" lon="14.770576776215474"><ele>213.5</ele><time>2026-03-28T13:19:33Z</time></trkpt><trkpt lat="41.012475838000476" lon="14.770734278779141"><ele>213.0</ele><time>2026-03-28T13:19:34Z</time></trkpt><trkpt lat="41.01252459201978" lon="14.770918523272286"><ele>212.5</ele><time>2026-03-28T13:19:35Z</time></trkpt><trkpt lat="41.01257110736386" lon="14.771113915650053"><ele>212.0</ele><time>2026-03-28T13:19:36Z</time></trkpt><trkpt lat="41.01263593653974" lon="14.771308359946934"><ele>211.66666666666669</ele><time>2026-03-28T13:19:37Z</time></trkpt><trkpt lat="41.01269977449366" lon="14.771508865459216"><ele>211.33333333333331</ele><time>2026-03-28T13:19:38Z</time></trkpt><trkpt lat="41.01279691115586" lon="14.77170199868353"><ele>211.0</ele><time>2026-03-28T13:19:39Z</time></trkpt><trkpt lat="41.01290121274179" lon="14.771885999420995"><ele>211.0</ele><time>2026-03-28T13:19:40Z</time></trkpt><trkpt lat="41.01298139001279" lon="14.772055848754672"><ele>211.0</ele><time>2026-03-28T13:19:41Z</time></trkpt><trkpt lat="41.01307575128558" lon="14.772195428439153"><ele>211.0</ele><time>2026-03-28T13:19:42Z</time></trkpt><trkpt lat="41.01315696448111" lon="14.772371835057175"><ele>211.0</ele><time>2026-03-28T13:19:43Z</time></trkpt><trkpt lat="41.013227485489075" lon="14.772549592197835"><ele>211.0</ele><time>2026-03-28T13:19:44Z</time></trkpt><trkpt lat="41.0132922601375" lon="14.772741196559068"><ele>211.0</ele><time>2026-03-28T13:19:44.999Z</time></trkpt><trkpt lat="41.01333207485662" lon="14.772946224777025"><ele>211.0</ele><time>2026-03-28T13:19:45.999Z</time></trkpt><trkpt lat="41.013406983308435" lon="14.77314649427011"><ele>211.33333333333331</ele><time>2026-03-28T13:19:46.999Z</time></trkpt><trkpt lat="41.01350596585938" lon="14.773328965713114"><ele>211.66666666666669</ele><time>2026-03-28T13:19:47.999Z</time></trkpt><trkpt lat="41.01357371388524" lon="14.77353072384244"><ele>212.0</ele><time>2026-03-28T13:19:48.999Z</time></trkpt><trkpt lat="41.01366618566956" lon="14.77369534682623"><ele>211.0</ele><time>2026-03-28T13:19:49.999Z</time></trkpt><trkpt lat="41.01374686295986" lon="14.773873830029771"><ele>210.0</ele><time>2026-03-28T13:19:50.999Z</time></trkpt><trkpt lat="41.01383432008562" lon="14.774049414130976"><ele>209.0</ele><time>2026-03-28T13:19:51.999Z</time></trkpt><trkpt lat="41.013919514876044" lon="14.774208498964269"><ele>209.0</ele><time>2026-03-28T13:19:52.999Z</time></trkpt><trkpt lat="41.01400206725057" lon="14.774342221601131"><ele>209.0</ele><time>2026-03-28T13:19:53.999Z</time></trkpt><trkpt lat="41.01407116570535" lon="14.774480938378142"><ele>209.0</ele><time>2026-03-28T13:19:54.999Z</time></trkpt><trkpt lat="41.014147140199654" lon="14.774602758506113"><ele>209.0</ele><time>2026-03-28T13:19:55.999Z</time></trkpt><trkpt lat="41.014214874861594" lon="14.774721825523917"><ele>209.0</ele><time>2026-03-28T13:19:56.999Z</time></trkpt><trkpt lat="41.01426648251884" lon="14.77484185940573"><ele>209.0</ele><time>2026-03-28T13:19:57.999Z</time></trkpt><trkpt lat="41.01429025466462" lon="14.77498159887768"><ele>209.0</ele><time>2026-03-28T13:19:58.999Z</time></trkpt><trkpt lat="41.014293265767584" lon="14.77513282659187"><ele>209.0</ele><time>2026-03-28T13:19:59.999Z</time></trkpt><trkpt lat="41.01431390082573" lon="14.775311614216834"><ele>208.5</ele><time>2026-03-28T13:20:00.999Z</time></trkpt><trkpt lat="41.014327165344234" lon="14.77547965458668"><ele>208.0</ele><time>2026-03-28T13:20:01.999Z</time></trkpt><trkpt lat="41.01436766468365" lon="14.77561265795136"><ele>207.5</ele><time>2026-03-28T13:20:02.999Z</time></trkpt><trkpt lat="41.01443043209286" lon="14.77574359838328"><ele>207.0</ele><time>2026-03-28T13:20:03.999Z</time></trkpt><trkpt lat="41.01449912462661" lon="14.775853480561386"><ele>207.0</ele><time>2026-03-28T13:20:04.999Z</time></trkpt><trkpt lat="41.01456331271771" lon="14.775975061058375"><ele>207.0</ele><time>2026-03-28T13:20:05.999Z</time></trkpt><trkpt lat="41.0146118514125" lon="14.776135233049716"><ele>207.0</ele><time>2026-03-28T13:20:06.999Z</time></trkpt><trkpt lat="41.014708769127324" lon="14.776425221700134"><ele>207.25</ele><time>2026-03-28T13:20:08.999Z</time></trkpt><trkpt lat="41.01477470170122" lon="14.776559096084503"><ele>207.5</ele><time>2026-03-28T13:20:09.999Z</time></trkpt><trkpt lat="41.014817667150695" lon="14.776682927625052"><ele>207.75</ele><time>2026-03-28T13:20:10.999Z</time></trkpt><trkpt lat="41.01481807686612" lon="14.776837223001731"><ele>208.0</ele><time>2026-03-28T13:20:11.999Z</time></trkpt><trkpt lat="41.01480635587903" lon="14.777005891224498"><ele>208.0</ele><time>2026-03-28T13:20:12.999Z</time></trkpt><trkpt lat="41.01481273787262" lon="14.777164411312624"><ele>208.0</ele><time>2026-03-28T13:20:13.999Z</time></trkpt><trkpt lat="41.01484406186645" lon="14.77727660217274"><ele>208.0</ele><time>2026-03-28T13:20:14.999Z</time></trkpt><trkpt lat="41.014893835107905" lon="14.777358775926109"><ele>208.0</ele><time>2026-03-28T13:20:15.999Z</time></trkpt><trkpt lat="41.0149758884341" lon="14.777417045021867"><ele>208.0</ele><time>2026-03-28T13:20:16.999Z</time></trkpt><trkpt lat="41.0150878946567" lon="14.777450222150255"><ele>207.0</ele><time>2026-03-28T13:20:17.999Z</time></trkpt><trkpt lat="41.01522848295027" lon="14.777500065743075"><ele>206.0</ele><time>2026-03-28T13:20:18.999Z</time></trkpt><trkpt lat="41.015393376282425" lon="14.777520381065074"><ele>205.0</ele><time>2026-03-28T13:20:19.999Z</time></trkpt><trkpt lat="41.01554616371964" lon="14.777560905688663"><ele>205.0</ele><time>2026-03-28T13:20:20.999Z</time></trkpt><trkpt lat="41.015681529576796" lon="14.777618205473445"><ele>205.0</ele><time>2026-03-28T13:20:21.999Z</time></trkpt><trkpt lat="41.015800287162755" lon="14.777664062071391"><ele>205.0</ele><time>2026-03-28T13:20:22.999Z</time></trkpt><trkpt lat="41.01590497626169" lon="14.777718560757096"><ele>205.0</ele><time>2026-03-28T13:20:23.998Z</time></trkpt><trkpt lat="41.01599368701766" lon="14.77776952021851"><ele>205.0</ele><time>2026-03-28T13:20:24.998Z</time></trkpt><trkpt lat="41.01603060743374" lon="14.777874718012255"><ele>205.0</ele><time>2026-03-28T13:20:25.998Z</time></trkpt><trkpt lat="41.01603454380925" lon="14.777986524892686"><ele>205.0</ele><time>2026-03-28T13:20:26.998Z</time></trkpt><trkpt lat="41.016007330648016" lon="14.778124553825744"><ele>205.0</ele><time>2026-03-28T13:20:27.998Z</time></trkpt><trkpt lat="41.01597820843032" lon="14.778319831343563"><ele>205.0</ele><time>2026-03-28T13:20:28.998Z</time></trkpt><trkpt lat="41.01594540077616" lon="14.77854488471335"><ele>205.0</ele><time>2026-03-28T13:20:29.998Z</time></trkpt><trkpt lat="41.015913218362904" lon="14.778767522067014"><ele>205.0</ele><time>2026-03-28T13:20:30.998Z</time></trkpt><trkpt lat="41.01589865894905" lon="14.778994044122847"><ele>205.0</ele><time>2026-03-28T13:20:31.998Z</time></trkpt><trkpt lat="41.015874036023135" lon="14.779172947699712"><ele>205.0</ele><time>2026-03-28T13:20:32.998Z</time></trkpt><trkpt lat="41.01587849751622" lon="14.779323175031983"><ele>205.0</ele><time>2026-03-28T13:20:33.998Z</time></trkpt><trkpt lat="41.01589575805155" lon="14.77946858537506"><ele>205.0</ele><time>2026-03-28T13:20:34.998Z</time></trkpt><trkpt lat="41.01593361017895" lon="14.779627565051062"><ele>205.0</ele><time>2026-03-28T13:20:35.998Z</time></trkpt><trkpt lat="41.015994397921304" lon="14.779765059025852"><ele>205.0</ele><time>2026-03-28T13:20:36.998Z</time></trkpt><trkpt lat="41.01605903688145" lon="14.779868591838866"><ele>205.0</ele><time>2026-03-28T13:20:37.998Z</time></trkpt><trkpt lat="41.016118256551316" lon="14.779967578745193"><ele>205.0</ele><time>2026-03-28T13:20:38.998Z</time></trkpt><trkpt lat="41.016175729097895" lon="14.780048020071392"><ele>205.0</ele><time>2026-03-28T13:20:39.998Z</time></trkpt><trkpt lat="41.01620825328186" lon="14.780175988518394"><ele>205.0</ele><time>2026-03-28T13:20:41.998Z</time></trkpt><trkpt lat="41.016227447119846" lon="14.78029220496668"><ele>205.0</ele><time>2026-03-28T13:20:42.998Z</time></trkpt><trkpt lat="41.016217833086536" lon="14.780413790264612"><ele>205.0</ele><time>2026-03-28T13:20:43.998Z</time></trkpt><trkpt lat="41.01623128859204" lon="14.780509807597307"><ele>205.0</ele><time>2026-03-28T13:20:44.998Z</time></trkpt><trkpt lat="41.016249319458346" lon="14.78062207058718"><ele>205.0</ele><time>2026-03-28T13:20:50.998Z</time></trkpt><trkpt lat="41.01608331590994" lon="14.78070166308428"><ele>205.0</ele><time>2026-03-28T13:20:51.998Z</time></trkpt><trkpt lat="41.016023908159" lon="14.780753015935835"><ele>204.99999999999997</ele><time>2026-03-28T13:20:52.998Z</time></trkpt><trkpt lat="41.01596304705624" lon="14.780838508431883"><ele>205.0</ele><time>2026-03-28T13:20:53.998Z</time></trkpt><trkpt lat="41.015904396571415" lon="14.780933714730685"><ele>205.0</ele><time>2026-03-28T13:20:54.998Z</time></trkpt><trkpt lat="41.01585429798413" lon="14.781051074083502"><ele>205.0</ele><time>2026-03-28T13:20:55.998Z</time></trkpt><trkpt lat="41.015788901324186" lon="14.781136383427565"><ele>204.99999999999997</ele><time>2026-03-28T13:20:56.998Z</time></trkpt><trkpt lat="41.01574443019847" lon="14.781202670515796"><ele>205.0</ele><time>2026-03-28T13:20:57.998Z</time></trkpt><trkpt lat="41.0156695840069" lon="14.781270942376304"><ele>207.8</ele><time>2026-03-28T13:20:59.998Z</time></trkpt><trkpt lat="41.01569681264885" lon="14.781438166986776"><ele>210.6</ele><time>2026-03-28T13:21:02.998Z</time></trkpt><trkpt lat="41.01574342248636" lon="14.7815498967268"><ele>213.39999999999998</ele><time>2026-03-28T13:21:03.997Z</time></trkpt><trkpt lat="41.01578440571492" lon="14.781643863415132"><ele>216.2</ele><time>2026-03-28T13:21:04.997Z</time></trkpt><trkpt lat="41.015814988730746" lon="14.78171711478866"><ele>219.0</ele><time>2026-03-28T13:21:05.997Z</time></trkpt><trkpt lat="41.01578667324262" lon="14.781943562331014"><ele>219.0</ele><time>2026-03-28T13:21:07.997Z</time></trkpt><trkpt lat="41.015730010123356" lon="14.782117227461853"><ele>219.0</ele><time>2026-03-28T13:21:08.997Z</time></trkpt><trkpt lat="41.01566146326103" lon="14.78233159667692"><ele>219.0</ele><time>2026-03-28T13:21:09.997Z</time></trkpt><trkpt lat="41.01558362841467" lon="14.782577099168053"><ele>218.33333333333331</ele><time>2026-03-28T13:21:10.997Z</time></trkpt><trkpt lat="41.01551757570602" lon="14.78278951137924"><ele>217.66666666666666</ele><time>2026-03-28T13:21:11.997Z</time></trkpt><trkpt lat="41.01547037303425" lon="14.783002214199138"><ele>217.0</ele><time>2026-03-28T13:21:12.997Z</time></trkpt><trkpt lat="41.01545889970873" lon="14.783225627625761"><ele>217.0</ele><time>2026-03-28T13:21:13.997Z</time></trkpt><trkpt lat="41.015466288179454" lon="14.783420985868139"><ele>217.0</ele><time>2026-03-28T13:21:14.997Z</time></trkpt><trkpt lat="41.015481302026814" lon="14.78357716388892"><ele>217.0</ele><time>2026-03-28T13:21:15.997Z</time></trkpt><trkpt lat="41.01550311986916" lon="14.783708805346212"><ele>217.0</ele><time>2026-03-28T13:21:17Z</time></trkpt><trkpt lat="41.015519430508434" lon="14.783803960589541"><ele>217.0</ele><time>2026-03-28T13:21:18Z</time></trkpt><trkpt lat="41.01558812126447" lon="14.783943917155383"><ele>217.25</ele><time>2026-03-28T13:21:20Z</time></trkpt><trkpt lat="41.015742431533845" lon="14.783916285347825"><ele>217.5</ele><time>2026-03-28T13:21:21Z</time></trkpt><trkpt lat="41.01586529781558" lon="14.783955295357316"><ele>217.75</ele><time>2026-03-28T13:21:22Z</time></trkpt><trkpt lat="41.01599773743094" lon="14.783990467949504"><ele>218.0</ele><time>2026-03-28T13:21:23Z</time></trkpt><trkpt lat="41.01612679477616" lon="14.78400383414492"><ele>216.4</ele><time>2026-03-28T13:21:24Z</time></trkpt><trkpt lat="41.01622592586805" lon="14.784029446231248"><ele>214.8</ele><time>2026-03-28T13:21:25Z</time></trkpt><trkpt lat="41.01630680668933" lon="14.784010944580057"><ele>213.2</ele><time>2026-03-28T13:21:26Z</time></trkpt><trkpt lat="41.01638608851516" lon="14.783937531213802"><ele>211.6</ele><time>2026-03-28T13:21:27Z</time></trkpt><trkpt lat="41.01644021207569" lon="14.783770593024212"><ele>210.0</ele><time>2026-03-28T13:21:28Z</time></trkpt><trkpt lat="41.01652283774664" lon="14.783553655289563"><ele>211.0</ele><time>2026-03-28T13:21:29Z</time></trkpt><trkpt lat="41.016625469541786" lon="14.783378372495463"><ele>212.0</ele><time>2026-03-28T13:21:30Z</time></trkpt><trkpt lat="41.01676997889388" lon="14.783273859319092"><ele>213.0</ele><time>2026-03-28T13:21:31Z</time></trkpt><trkpt lat="41.01692812846056" lon="14.783190524147262"><ele>213.0</ele><time>2026-03-28T13:21:32Z</time></trkpt><trkpt lat="41.01708226753574" lon="14.783159814716216"><ele>213.0</ele><time>2026-03-28T13:21:33Z</time></trkpt><trkpt lat="41.017172230377135" lon="14.783149321683027"><ele>213.0</ele><time>2026-03-28T13:21:34Z</time></trkpt><trkpt lat="41.01727674440189" lon="14.783276306586076"><ele>213.0</ele><time>2026-03-28T13:21:36Z</time></trkpt><trkpt lat="41.01732399761357" lon="14.783432747463866"><ele>217.0</ele><time>2026-03-28T13:21:37Z</time></trkpt><trkpt lat="41.01738987262432" lon="14.783615188120331"><ele>221.0</ele><time>2026-03-28T13:21:38Z</time></trkpt><trkpt lat="41.01744075191876" lon="14.783831616837993"><ele>225.0</ele><time>2026-03-28T13:21:39Z</time></trkpt><trkpt lat="41.01751707517473" lon="14.784021255260974"><ele>225.0</ele><time>2026-03-28T13:21:40Z</time></trkpt><trkpt lat="41.01760428023816" lon="14.784231461342229"><ele>225.0</ele><time>2026-03-28T13:21:41Z</time></trkpt><trkpt lat="41.01769229931231" lon="14.784438896969665"><ele>225.0</ele><time>2026-03-28T13:21:42Z</time></trkpt><trkpt lat="41.017763950720735" lon="14.784655738069851"><ele>226.0</ele><time>2026-03-28T13:21:43Z</time></trkpt><trkpt lat="41.017821159283855" lon="14.784876499046833"><ele>227.0</ele><time>2026-03-28T13:21:44Z</time></trkpt><trkpt lat="41.01787961358092" lon="14.785096647654544"><ele>228.0</ele><time>2026-03-28T13:21:45Z</time></trkpt><trkpt lat="41.01793567959393" lon="14.785289288387808"><ele>225.60000000000002</ele><time>2026-03-28T13:21:46Z</time></trkpt><trkpt lat="41.017969995799966" lon="14.785428915250865"><ele>223.20000000000002</ele><time>2026-03-28T13:21:47Z</time></trkpt><trkpt lat="41.01797577161327" lon="14.785554209342"><ele>220.8</ele><time>2026-03-28T13:21:48Z</time></trkpt><trkpt lat="41.017969259377956" lon="14.785660350717945"><ele>218.4</ele><time>2026-03-28T13:21:49Z</time></trkpt><trkpt lat="41.01795993755916" lon="14.78576247088318"><ele>216.0</ele><time>2026-03-28T13:21:50Z</time></trkpt><trkpt lat="41.01794875580152" lon="14.7858761944838"><ele>216.0</ele><time>2026-03-28T13:21:51Z</time></trkpt><trkpt lat="41.01793662115718" lon="14.786005503044997"><ele>216.0</ele><time>2026-03-28T13:21:52.999Z</time></trkpt><trkpt lat="41.01806282174046" lon="14.78607469326453"><ele>216.0</ele><time>2026-03-28T13:21:54.999Z</time></trkpt><trkpt lat="41.01819718997924" lon="14.78614289961776"><ele>216.0</ele><time>2026-03-28T13:21:56.999Z</time></trkpt><trkpt lat="41.01830369746441" lon="14.786158266831094"><ele>219.60000000000002</ele><time>2026-03-28T13:21:57.999Z</time></trkpt><trkpt lat="41.0184046709975" lon="14.786200572837819"><ele>223.20000000000002</ele><time>2026-03-28T13:21:58.999Z</time></trkpt><trkpt lat="41.01851291946422" lon="14.786197381991649"><ele>226.79999999999998</ele><time>2026-03-28T13:21:59.999Z</time></trkpt><trkpt lat="41.01861912356128" lon="14.786210869998229"><ele>230.39999999999998</ele><time>2026-03-28T13:22:00.999Z</time></trkpt><trkpt lat="41.01869594502326" lon="14.786260486651823"><ele>234.0</ele><time>2026-03-28T13:22:01.999Z</time></trkpt><trkpt lat="41.018745546307386" lon="14.786366819379102"><ele>234.0</ele><time>2026-03-28T13:22:03.999Z</time></trkpt><trkpt lat="41.01870215300668" lon="14.786495587364488"><ele>233.99999999999997</ele><time>2026-03-28T13:22:04.999Z</time></trkpt><trkpt lat="41.018648729940026" lon="14.786587631334694"><ele>233.99999999999997</ele><time>2026-03-28T13:22:05.999Z</time></trkpt><trkpt lat="41.018620146409724" lon="14.78670811169763"><ele>234.0</ele><time>2026-03-28T13:22:06.999Z</time></trkpt><trkpt lat="41.01860522765784" lon="14.786870595366436"><ele>234.0</ele><time>2026-03-28T13:22:07.999Z</time></trkpt><trkpt lat="41.01866124092036" lon="14.786984711737322"><ele>235.79999999999998</ele><time>2026-03-28T13:22:08.999Z</time></trkpt><trkpt lat="41.018687243078354" lon="14.787133374628388"><ele>237.59999999999997</ele><time>2026-03-28T13:22:09.999Z</time></trkpt><trkpt lat="41.01872554301697" lon="14.787271379269951"><ele>239.4</ele><time>2026-03-28T13:22:10.999Z</time></trkpt><trkpt lat="41.01871847122728" lon="14.787390969952108"><ele>241.2</ele><time>2026-03-28T13:22:11.999Z</time></trkpt><trkpt lat="41.01869009748867" lon="14.787500309841713"><ele>243.0</ele><time>2026-03-28T13:22:12.999Z</time></trkpt><trkpt lat="41.018612139873646" lon="14.787606510973026"><ele>245.83333333333334</ele><time>2026-03-28T13:22:13.999Z</time></trkpt><trkpt lat="41.018549368279686" lon="14.7876941867139"><ele>248.66666666666669</ele><time>2026-03-28T13:22:14.999Z</time></trkpt><trkpt lat="41.01847277851357" lon="14.787793306272508"><ele>251.5</ele><time>2026-03-28T13:22:15.999Z</time></trkpt><trkpt lat="41.01840640514834" lon="14.787855808328255"><ele>254.33333333333334</ele><time>2026-03-28T13:22:16.999Z</time></trkpt><trkpt lat="41.018338661719525" lon="14.787899687338161"><ele>257.1666666666667</ele><time>2026-03-28T13:22:17.999Z</time></trkpt><trkpt lat="41.01827262069457" lon="14.787962614499746"><ele>260.0</ele><time>2026-03-28T13:22:18.999Z</time></trkpt><trkpt lat="41.018245177284896" lon="14.78815484276482"><ele>253.75</ele><time>2026-03-28T13:22:20.999Z</time></trkpt><trkpt lat="41.01828192849883" lon="14.788300159530253"><ele>247.5</ele><time>2026-03-28T13:22:21.999Z</time></trkpt><trkpt lat="41.018311785750335" lon="14.788465088602788"><ele>241.25</ele><time>2026-03-28T13:22:22.999Z</time></trkpt><trkpt lat="41.01831006509434" lon="14.78862323230039"><ele>235.0</ele><time>2026-03-28T13:22:23.999Z</time></trkpt><trkpt lat="41.018314286916635" lon="14.788783604045044"><ele>242.4</ele><time>2026-03-28T13:22:24.999Z</time></trkpt><trkpt lat="41.01831814863088" lon="14.788936636477363"><ele>249.8</ele><time>2026-03-28T13:22:25.999Z</time></trkpt><trkpt lat="41.01833092827668" lon="14.78907407175392"><ele>257.2</ele><time>2026-03-28T13:22:26.999Z</time></trkpt><trkpt lat="41.01834833871542" lon="14.78920919640786"><ele>264.6</ele><time>2026-03-28T13:22:27.999Z</time></trkpt><trkpt lat="41.01837284400811" lon="14.789287959597095"><ele>272.0</ele><time>2026-03-28T13:22:28.999Z</time></trkpt><trkpt lat="41.01844953136639" lon="14.78934251507898"><ele>272.0</ele><time>2026-03-28T13:22:29.999Z</time></trkpt><trkpt lat="41.018556492209186" lon="14.789343864986753"><ele>272.0</ele><time>2026-03-28T13:22:30.998Z</time></trkpt><trkpt lat="41.01867511538505" lon="14.789348199325659"><ele>272.0</ele><time>2026-03-28T13:22:31.998Z</time></trkpt><trkpt lat="41.01879216008321" lon="14.78934214789188"><ele>272.0</ele><time>2026-03-28T13:22:32.998Z</time></trkpt><trkpt lat="41.0188961801182" lon="14.789393706962098"><ele>272.0</ele><time>2026-03-28T13:22:33.998Z</time></trkpt><trkpt lat="41.01900495549101" lon="14.789548812682254"><ele>272.0</ele><time>2026-03-28T13:22:34.998Z</time></trkpt><trkpt lat="41.019121612092434" lon="14.789660766521365"><ele>272.0</ele><time>2026-03-28T13:22:35.998Z</time></trkpt><trkpt lat="41.01922262192265" lon="14.789787839229723"><ele>272.0</ele><time>2026-03-28T13:22:36.998Z</time></trkpt><trkpt lat="41.019301196522086" lon="14.78989523811084"><ele>275.2</ele><time>2026-03-28T13:22:37.998Z</time></trkpt><trkpt lat="41.019406264506486" lon="14.789977412421651"><ele>278.4</ele><time>2026-03-28T13:22:38.998Z</time></trkpt><trkpt lat="41.019497486900946" lon="14.790048042638203"><ele>281.6</ele><time>2026-03-28T13:22:39.998Z</time></trkpt><trkpt lat="41.01960062297563" lon="14.790122739660463"><ele>284.8</ele><time>2026-03-28T13:22:40.998Z</time></trkpt><trkpt lat="41.01964679862311" lon="14.790204319338141"><ele>288.0</ele><time>2026-03-28T13:22:41.998Z</time></trkpt><trkpt lat="41.019695435808586" lon="14.790373791624038"><ele>288.5</ele><time>2026-03-28T13:22:43.998Z</time></trkpt><trkpt lat="41.01959297527661" lon="14.790472669870946"><ele>289.0</ele><time>2026-03-28T13:22:44.998Z</time></trkpt><trkpt lat="41.01955249686459" lon="14.79060848816188"><ele>289.5</ele><time>2026-03-28T13:22:45.998Z</time></trkpt><trkpt lat="41.01955332282267" lon="14.790774133940568"><ele>290.0</ele><time>2026-03-28T13:22:46.998Z</time></trkpt><trkpt lat="41.01954623401986" lon="14.790943747445029"><ele>292.5</ele><time>2026-03-28T13:22:47.998Z</time></trkpt><trkpt lat="41.019544403036974" lon="14.791134710608953"><ele>295.0</ele><time>2026-03-28T13:22:48.998Z</time></trkpt><trkpt lat="41.01952811350297" lon="14.791326408954191"><ele>297.5</ele><time>2026-03-28T13:22:49.998Z</time></trkpt><trkpt lat="41.01951536823374" lon="14.79149526760378"><ele>300.0</ele><time>2026-03-28T13:22:50.998Z</time></trkpt><trkpt lat="41.019515572629494" lon="14.791637133689676"><ele>300.0</ele><time>2026-03-28T13:22:51.998Z</time></trkpt><trkpt lat="41.01952125169537" lon="14.791781815981055"><ele>300.0</ele><time>2026-03-28T13:22:52.998Z</time></trkpt><trkpt lat="41.01955227642887" lon="14.791912537291156"><ele>300.0</ele><time>2026-03-28T13:22:53.998Z</time></trkpt><trkpt lat="41.01962107371357" lon="14.792041047487002"><ele>300.0</ele><time>2026-03-28T13:22:54.998Z</time></trkpt><trkpt lat="41.01970493586328" lon="14.792178674331774"><ele>300.3333333333333</ele><time>2026-03-28T13:22:55.998Z</time></trkpt><trkpt lat="41.01978878973794" lon="14.792347847069061"><ele>300.66666666666663</ele><time>2026-03-28T13:22:56.998Z</time></trkpt><trkpt lat="41.01986489744605" lon="14.792519915447468"><ele>301.0</ele><time>2026-03-28T13:22:57.998Z</time></trkpt><trkpt lat="41.01994432683365" lon="14.792683734330174"><ele>303.5</ele><time>2026-03-28T13:22:58.998Z</time></trkpt><trkpt lat="41.020026782860626" lon="14.792824355260501"><ele>306.0</ele><time>2026-03-28T13:22:59.998Z</time></trkpt><trkpt lat="41.02011370780599" lon="14.792913940901824"><ele>308.5</ele><time>2026-03-28T13:23:00.998Z</time></trkpt><trkpt lat="41.02021750516631" lon="14.79298931343582"><ele>311.0</ele><time>2026-03-28T13:23:01.998Z</time></trkpt><trkpt lat="41.02031383392845" lon="14.793121026066114"><ele>311.0</ele><time>2026-03-28T13:23:02.998Z</time></trkpt><trkpt lat="41.020417986728916" lon="14.793234890275304"><ele>311.0</ele><time>2026-03-28T13:23:03.998Z</time></trkpt><trkpt lat="41.02052315296053" lon="14.793359558499997"><ele>311.0</ele><time>2026-03-28T13:23:04.998Z</time></trkpt><trkpt lat="41.020635500940124" lon="14.793410601518842"><ele>311.0</ele><time>2026-03-28T13:23:05.998Z</time></trkpt><trkpt lat="41.020762030628546" lon="14.7934378882314"><ele>312.40000000000003</ele><time>2026-03-28T13:23:06.998Z</time></trkpt><trkpt lat="41.02090044670835" lon="14.793491523057241"><ele>313.8</ele><time>2026-03-28T13:23:07.998Z</time></trkpt><trkpt lat="41.02100801346968" lon="14.793515404653718"><ele>315.20000000000005</ele><time>2026-03-28T13:23:08.998Z</time></trkpt><trkpt lat="41.02108147202139" lon="14.793588951605942"><ele>316.6</ele><time>2026-03-28T13:23:09.998Z</time></trkpt><trkpt lat="41.021123685016285" lon="14.7936739271601"><ele>318.0</ele><time>2026-03-28T13:23:10.997Z</time></trkpt><trkpt lat="41.02118516363795" lon="14.793792318913992"><ele>318.0</ele><time>2026-03-28T13:23:11.997Z</time></trkpt><trkpt lat="41.021268033424406" lon="14.793946182946689"><ele>318.0</ele><time>2026-03-28T13:23:12.997Z</time></trkpt><trkpt lat="41.02135245302687" lon="14.79410867899679"><ele>318.0</ele><time>2026-03-28T13:23:13.997Z</time></trkpt><trkpt lat="41.021412686099865" lon="14.794284075009863"><ele>318.0</ele><time>2026-03-28T13:23:14.997Z</time></trkpt><trkpt lat="41.02145696560564" lon="14.794444629515398"><ele>319.0</ele><time>2026-03-28T13:23:15.997Z</time></trkpt><trkpt lat="41.021487953642826" lon="14.79463083108816"><ele>320.0</ele><time>2026-03-28T13:23:16.997Z</time></trkpt><trkpt lat="41.02149249621624" lon="14.794792983702186"><ele>321.0</ele><time>2026-03-28T13:23:17.997Z</time></trkpt><trkpt lat="41.02147899926165" lon="14.79497454294759"><ele>322.0</ele><time>2026-03-28T13:23:18.997Z</time></trkpt><trkpt lat="41.02146632859552" lon="14.795163039465791"><ele>323.0</ele><time>2026-03-28T13:23:19.997Z</time></trkpt><trkpt lat="41.02147257982562" lon="14.795356146087446"><ele>324.0</ele><time>2026-03-28T13:23:20.997Z</time></trkpt><trkpt lat="41.0214952674625" lon="14.795524831028532"><ele>325.0</ele><time>2026-03-28T13:23:21.997Z</time></trkpt><trkpt lat="41.02152652618953" lon="14.795692322944564"><ele>326.0</ele><time>2026-03-28T13:23:23Z</time></trkpt><trkpt lat="41.02157626426189" lon="14.795891039536844"><ele>326.8</ele><time>2026-03-28T13:23:24Z</time></trkpt><trkpt lat="41.021619933831644" lon="14.796009772998946"><ele>327.6</ele><time>2026-03-28T13:23:25Z</time></trkpt><trkpt lat="41.02166528743505" lon="14.796113561527582"><ele>328.4</ele><time>2026-03-28T13:23:26Z</time></trkpt><trkpt lat="41.021757860536006" lon="14.796215494024567"><ele>329.2</ele><time>2026-03-28T13:23:27Z</time></trkpt><trkpt lat="41.021794912662074" lon="14.796336208909482"><ele>330.0</ele><time>2026-03-28T13:23:28Z</time></trkpt><trkpt lat="41.02178011345496" lon="14.79646332966882"><ele>335.6</ele><time>2026-03-28T13:23:29Z</time></trkpt><trkpt lat="41.02178901871705" lon="14.796585610680083"><ele>341.2</ele><time>2026-03-28T13:23:30Z</time></trkpt><trkpt lat="41.02181017207306" lon="14.796675377238246"><ele>346.79999999999995</ele><time>2026-03-28T13:23:31Z</time></trkpt><trkpt lat="41.021875122759255" lon="14.796727208937057"><ele>352.4</ele><time>2026-03-28T13:23:32Z</time></trkpt><trkpt lat="41.02197201993107" lon="14.796775050421848"><ele>358.0</ele><time>2026-03-28T13:23:33Z</time></trkpt><trkpt lat="41.02208318111207" lon="14.796823672889678"><ele>358.2</ele><time>2026-03-28T13:23:34Z</time></trkpt><trkpt lat="41.02217239091041" lon="14.796870206383078"><ele>358.4</ele><time>2026-03-28T13:23:35Z</time></trkpt><trkpt lat="41.02224731543981" lon="14.79694556680248"><ele>358.59999999999997</ele><time>2026-03-28T13:23:36Z</time></trkpt><trkpt lat="41.02229907291681" lon="14.79699819965344"><ele>358.79999999999995</ele><time>2026-03-28T13:23:37Z</time></trkpt><trkpt lat="41.022388719337705" lon="14.797107157906357"><ele>359.0</ele><time>2026-03-28T13:23:39Z</time></trkpt><trkpt lat="41.02248475936123" lon="14.797115276093608"><ele>362.25</ele><time>2026-03-28T13:23:40Z</time></trkpt><trkpt lat="41.02258440438479" lon="14.797117107868463"><ele>365.5</ele><time>2026-03-28T13:23:41Z</time></trkpt><trkpt lat="41.022692093180474" lon="14.797137313354947"><ele>368.75</ele><time>2026-03-28T13:23:42Z</time></trkpt><trkpt lat="41.022819817011545" lon="14.797163657734188"><ele>372.0</ele><time>2026-03-28T13:23:43Z</time></trkpt><trkpt lat="41.02294409751061" lon="14.797197810122533"><ele>372.0</ele><time>2026-03-28T13:23:44Z</time></trkpt><trkpt lat="41.02306572909034" lon="14.797231507115008"><ele>372.0</ele><time>2026-03-28T13:23:45Z</time></trkpt><trkpt lat="41.02319226882676" lon="14.79726160393163"><ele>372.0</ele><time>2026-03-28T13:23:46Z</time></trkpt><trkpt lat="41.023317522606895" lon="14.797294958712087"><ele>372.0</ele><time>2026-03-28T13:23:47Z</time></trkpt><trkpt lat="41.02343343276661" lon="14.797352600539698"><ele>372.6666666666667</ele><time>2026-03-28T13:23:48Z</time></trkpt><trkpt lat="41.02354855502509" lon="14.797436917340116"><ele>373.33333333333337</ele><time>2026-03-28T13:23:49Z</time></trkpt><trkpt lat="41.02369077239196" lon="14.797552796960897"><ele>374.0</ele><time>2026-03-28T13:23:50Z</time></trkpt><trkpt lat="41.023853265549725" lon="14.797669167227966"><ele>374.0</ele><time>2026-03-28T13:23:51Z</time></trkpt><trkpt lat="41.02400260267766" lon="14.797781378212015"><ele>374.0</ele><time>2026-03-28T13:23:52Z</time></trkpt><trkpt lat="41.02413879567086" lon="14.797882751744876"><ele>374.0</ele><time>2026-03-28T13:23:53Z</time></trkpt><trkpt lat="41.024261300437715" lon="14.797971788016362"><ele>379.0</ele><time>2026-03-28T13:23:54Z</time></trkpt><trkpt lat="41.024365382968924" lon="14.798043976923354"><ele>384.0</ele><time>2026-03-28T13:23:55Z</time></trkpt><trkpt lat="41.02445609178124" lon="14.79809313320014"><ele>389.0</ele><time>2026-03-28T13:23:56Z</time></trkpt><trkpt lat="41.0245539742479" lon="14.798093888038709"><ele>394.0</ele><time>2026-03-28T13:23:57Z</time></trkpt><trkpt lat="41.02465696891153" lon="14.798037857810764"><ele>399.0</ele><time>2026-03-28T13:23:57.999Z</time></trkpt><trkpt lat="41.024780677699084" lon="14.797933489627736"><ele>399.0</ele><time>2026-03-28T13:23:58.999Z</time></trkpt><trkpt lat="41.02493266483046" lon="14.797838883538896"><ele>399.0</ele><time>2026-03-28T13:23:59.999Z</time></trkpt><trkpt lat="41.0250707884199" lon="14.797729814302505"><ele>399.0</ele><time>2026-03-28T13:24:00.999Z</time></trkpt><trkpt lat="41.02519871795266" lon="14.797628788173293"><ele>401.66666666666663</ele><time>2026-03-28T13:24:01.999Z</time></trkpt><trkpt lat="41.02534021571961" lon="14.797565979226146"><ele>404.3333333333333</ele><time>2026-03-28T13:24:02.999Z</time></trkpt><trkpt lat="41.025512997570246" lon="14.797508539032766"><ele>407.0</ele><time>2026-03-28T13:24:03.999Z</time></trkpt><trkpt lat="41.02569471700303" lon="14.797425307667432"><ele>416.3333333333333</ele><time>2026-03-28T13:24:04.999Z</time></trkpt><trkpt lat="41.02586735660585" lon="14.797359237885559"><ele>425.66666666666663</ele><time>2026-03-28T13:24:05.999Z</time></trkpt><trkpt lat="41.0259928714468" lon="14.797276117663406"><ele>435.0</ele><time>2026-03-28T13:24:06.999Z</time></trkpt><trkpt lat="41.02609850175109" lon="14.797165212627569"><ele>435.0</ele><time>2026-03-28T13:24:07.999Z</time></trkpt><trkpt lat="41.02620917059118" lon="14.797062014306304"><ele>435.0</ele><time>2026-03-28T13:24:08.999Z</time></trkpt><trkpt lat="41.02631975182328" lon="14.796986333530024"><ele>435.0</ele><time>2026-03-28T13:24:09.999Z</time></trkpt><trkpt lat="41.026431283949876" lon="14.796939575036097"><ele>435.0</ele><time>2026-03-28T13:24:10.999Z</time></trkpt><trkpt lat="41.0265295323209" lon="14.796921189526913"><ele>435.0</ele><time>2026-03-28T13:24:11.999Z</time></trkpt><trkpt lat="41.026616309456216" lon="14.796944766304762"><ele>435.0</ele><time>2026-03-28T13:24:12.999Z</time></trkpt><trkpt lat="41.026700791805936" lon="14.797020907839626"><ele>435.0</ele><time>2026-03-28T13:24:13.999Z</time></trkpt><trkpt lat="41.02680945521825" lon="14.797074033168933"><ele>435.0</ele><time>2026-03-28T13:24:14.999Z</time></trkpt><trkpt lat="41.02693339924881" lon="14.797112401703513"><ele>435.0</ele><time>2026-03-28T13:24:15.999Z</time></trkpt><trkpt lat="41.027051769478106" lon="14.797111874912064"><ele>439.4</ele><time>2026-03-28T13:24:16.999Z</time></trkpt><trkpt lat="41.02717094283139" lon="14.797061835214654"><ele>443.8</ele><time>2026-03-28T13:24:17.999Z</time></trkpt><trkpt lat="41.02730613902573" lon="14.796995495087202"><ele>448.20000000000005</ele><time>2026-03-28T13:24:18.999Z</time></trkpt><trkpt lat="41.02737983029361" lon="14.79694273592689"><ele>452.6</ele><time>2026-03-28T13:24:19.999Z</time></trkpt><trkpt lat="41.02743548911676" lon="14.796989425085638"><ele>457.0</ele><time>2026-03-28T13:24:21.999Z</time></trkpt><trkpt lat="41.02738554266132" lon="14.797049561510491"><ele>457.0</ele><time>2026-03-28T13:24:22.999Z</time></trkpt><trkpt lat="41.02733410555788" lon="14.797119151880104"><ele>457.00000000000006</ele><time>2026-03-28T13:24:23.999Z</time></trkpt><trkpt lat="41.027255973844845" lon="14.797169469540583"><ele>457.00000000000006</ele><time>2026-03-28T13:24:24.999Z</time></trkpt><trkpt lat="41.027175571505026" lon="14.797231166389125"><ele>457.0</ele><time>2026-03-28T13:24:25.999Z</time></trkpt><trkpt lat="41.027060845781726" lon="14.797328962274646"><ele>457.0</ele><time>2026-03-28T13:24:26.999Z</time></trkpt><trkpt lat="41.026940911118395" lon="14.797391605926874"><ele>457.0</ele><time>2026-03-28T13:24:27.999Z</time></trkpt><trkpt lat="41.02681706127003" lon="14.7974212211286"><ele>457.00000000000006</ele><time>2026-03-28T13:24:28.999Z</time></trkpt><trkpt lat="41.02670477460157" lon="14.797407711866985"><ele>457.00000000000006</ele><time>2026-03-28T13:24:29.999Z</time></trkpt><trkpt lat="41.02660912310042" lon="14.797412169675894"><ele>457.0</ele><time>2026-03-28T13:24:30.999Z</time></trkpt><trkpt lat="41.02652888670272" lon="14.79745028671006"><ele>457.0</ele><time>2026-03-28T13:24:31.999Z</time></trkpt><trkpt lat="41.026450618684265" lon="14.797520439380797"><ele>461.0</ele><time>2026-03-28T13:24:32.999Z</time></trkpt><trkpt lat="41.02638943790202" lon="14.797656744486746"><ele>465.0</ele><time>2026-03-28T13:24:33.999Z</time></trkpt><trkpt lat="41.02630954716348" lon="14.797789585980954"><ele>469.0</ele><time>2026-03-28T13:24:34.999Z</time></trkpt><trkpt lat="41.02621247920482" lon="14.797931728864192"><ele>473.0</ele><time>2026-03-28T13:24:35.999Z</time></trkpt><trkpt lat="41.026112494462616" lon="14.798055369709793"><ele>473.0</ele><time>2026-03-28T13:24:36.998Z</time></trkpt><trkpt lat="41.02600204053777" lon="14.798177235813407"><ele>473.0</ele><time>2026-03-28T13:24:37.998Z</time></trkpt><trkpt lat="41.025876110775265" lon="14.798304481455178"><ele>473.0</ele><time>2026-03-28T13:24:38.998Z</time></trkpt><trkpt lat="41.025761968461296" lon="14.79841882921423"><ele>473.0</ele><time>2026-03-28T13:24:39.998Z</time></trkpt><trkpt lat="41.02567054890464" lon="14.79851675829872"><ele>470.4</ele><time>2026-03-28T13:24:40.998Z</time></trkpt><trkpt lat="41.0255908625006" lon="14.798628091304053"><ele>467.79999999999995</ele><time>2026-03-28T13:24:41.998Z</time></trkpt><trkpt lat="41.025526069143325" lon="14.798748193473289"><ele>465.2</ele><time>2026-03-28T13:24:42.998Z</time></trkpt><trkpt lat="41.02548489225399" lon="14.798885034358754"><ele>462.6</ele><time>2026-03-28T13:24:43.998Z</time></trkpt><trkpt lat="41.02547257281567" lon="14.798970606195583"><ele>460.0</ele><time>2026-03-28T13:24:44.998Z</time></trkpt><trkpt lat="41.025465224552796" lon="14.799095436995271"><ele>460.0</ele><time>2026-03-28T13:24:45.998Z</time></trkpt><trkpt lat="41.025468377683914" lon="14.799213531234109"><ele>460.0</ele><time>2026-03-28T13:24:46.998Z</time></trkpt><trkpt lat="41.02556648911681" lon="14.799301966751205"><ele>460.0</ele><time>2026-03-28T13:24:48.998Z</time></trkpt><trkpt lat="41.02561973238762" lon="14.799176418562128"><ele>460.0</ele><time>2026-03-28T13:24:49.998Z</time></trkpt><trkpt lat="41.02563854953553" lon="14.799055532823106"><ele>460.0</ele><time>2026-03-28T13:24:50.998Z</time></trkpt><trkpt lat="41.025626615243425" lon="14.798961071257157"><ele>460.0</ele><time>2026-03-28T13:24:51.998Z</time></trkpt><trkpt lat="41.02570183558908" lon="14.798827709407522"><ele>460.0</ele><time>2026-03-28T13:24:53.998Z</time></trkpt><trkpt lat="41.02581785985188" lon="14.798766617014047"><ele>460.0</ele><time>2026-03-28T13:24:54.998Z</time></trkpt><trkpt lat="41.025909109408175" lon="14.798715643537337"><ele>460.0</ele><time>2026-03-28T13:24:55.998Z</time></trkpt><trkpt lat="41.02601452927077" lon="14.798662919505096"><ele>463.25</ele><time>2026-03-28T13:24:56.998Z</time></trkpt><trkpt lat="41.02612739740945" lon="14.798605436177791"><ele>466.5</ele><time>2026-03-28T13:24:57.998Z</time></trkpt><trkpt lat="41.02624676153236" lon="14.798554159053312"><ele>469.75</ele><time>2026-03-28T13:24:58.998Z</time></trkpt><trkpt lat="41.02637253397416" lon="14.79850757683673"><ele>473.0</ele><time>2026-03-28T13:24:59.998Z</time></trkpt><trkpt lat="41.02649656562788" lon="14.798428299240701"><ele>473.0</ele><time>2026-03-28T13:25:00.998Z</time></trkpt><trkpt lat="41.026602922777535" lon="14.798365683922713"><ele>472.99999999999994</ele><time>2026-03-28T13:25:01.998Z</time></trkpt><trkpt lat="41.02667531995625" lon="14.798311007481331"><ele>472.99999999999994</ele><time>2026-03-28T13:25:02.998Z</time></trkpt><trkpt lat="41.0267389072944" lon="14.79830253392719"><ele>473.0</ele><time>2026-03-28T13:25:03.998Z</time></trkpt><trkpt lat="41.0267942143831" lon="14.798426754692208"><ele>473.0</ele><time>2026-03-28T13:25:05.998Z</time></trkpt><trkpt lat="41.02671588835218" lon="14.798507078428697"><ele>481.5</ele><time>2026-03-28T13:25:06.998Z</time></trkpt><trkpt lat="41.02666548591312" lon="14.798657527526604"><ele>490.0</ele><time>2026-03-28T13:25:07.998Z</time></trkpt><trkpt lat="41.02664475961498" lon="14.798824119976715"><ele>498.5</ele><time>2026-03-28T13:25:08.998Z</time></trkpt><trkpt lat="41.02666134841496" lon="14.79898661721762"><ele>507.0</ele><time>2026-03-28T13:25:09.998Z</time></trkpt><trkpt lat="41.02668810783937" lon="14.799141410870112"><ele>507.0</ele><time>2026-03-28T13:25:10.998Z</time></trkpt><trkpt lat="41.02667977489518" lon="14.799293225443027"><ele>507.00000000000006</ele><time>2026-03-28T13:25:11.998Z</time></trkpt><trkpt lat="41.026641044571605" lon="14.799426208576621"><ele>507.00000000000006</ele><time>2026-03-28T13:25:12.998Z</time></trkpt><trkpt lat="41.026577558523705" lon="14.799515769770833"><ele>507.0</ele><time>2026-03-28T13:25:13.998Z</time></trkpt><trkpt lat="41.02650862116545" lon="14.799609934514724"><ele>507.0</ele><time>2026-03-28T13:25:14.998Z</time></trkpt><trkpt lat="41.02641061508553" lon="14.799600719065626"><ele>509.0</ele><time>2026-03-28T13:25:15.998Z</time></trkpt><trkpt lat="41.02626224355179" lon="14.799617788022754"><ele>511.0</ele><time>2026-03-28T13:25:16.997Z</time></trkpt><trkpt lat="41.02614774451789" lon="14.799648562329885"><ele>513.0</ele><time>2026-03-28T13:25:17.997Z</time></trkpt><trkpt lat="41.02604620538661" lon="14.799733421802479"><ele>515.0</ele><time>2026-03-28T13:25:18.997Z</time></trkpt><trkpt lat="41.02595026451219" lon="14.799837646293199"><ele>515.0</ele><time>2026-03-28T13:25:19.997Z</time></trkpt><trkpt lat="41.025885827190955" lon="14.79998629990357"><ele>515.0</ele><time>2026-03-28T13:25:20.997Z</time></trkpt><trkpt lat="41.02582541136676" lon="14.800126830710676"><ele>515.0</ele><time>2026-03-28T13:25:21.997Z</time></trkpt><trkpt lat="41.02577086447012" lon="14.800255308146957"><ele>515.0</ele><time>2026-03-28T13:25:22.997Z</time></trkpt><trkpt lat="41.02572576037407" lon="14.800383209897646"><ele>510.8</ele><time>2026-03-28T13:25:23.997Z</time></trkpt><trkpt lat="41.02571713917003" lon="14.800510143739544"><ele>506.6</ele><time>2026-03-28T13:25:24.997Z</time></trkpt><trkpt lat="41.02574798218713" lon="14.800644134011174"><ele>502.4</ele><time>2026-03-28T13:25:25.997Z</time></trkpt><trkpt lat="41.02579054105005" lon="14.800780474187746"><ele>498.2</ele><time>2026-03-28T13:25:26.997Z</time></trkpt><trkpt lat="41.0257907141202" lon="14.800936642656072"><ele>494.0</ele><time>2026-03-28T13:25:27.997Z</time></trkpt><trkpt lat="41.02580572564758" lon="14.801101143895634"><ele>501.5</ele><time>2026-03-28T13:25:29Z</time></trkpt><trkpt lat="41.02582649605373" lon="14.801283690760725"><ele>509.0</ele><time>2026-03-28T13:25:30Z</time></trkpt><trkpt lat="41.02585078959941" lon="14.801479821512462"><ele>516.5</ele><time>2026-03-28T13:25:31Z</time></trkpt><trkpt lat="41.02587346345339" lon="14.801674020195527"><ele>524.0</ele><time>2026-03-28T13:25:32Z</time></trkpt><trkpt lat="41.025902115527074" lon="14.801866991002454"><ele>526.6666666666666</ele><time>2026-03-28T13:25:33Z</time></trkpt><trkpt lat="41.02592980744641" lon="14.802063968887037"><ele>529.3333333333334</ele><time>2026-03-28T13:25:34Z</time></trkpt><trkpt lat="41.02595573740725" lon="14.802261491329967"><ele>532.0</ele><time>2026-03-28T13:25:35Z</time></trkpt><trkpt lat="41.025961698544016" lon="14.802459402811078"><ele>532.0</ele><time>2026-03-28T13:25:36Z</time></trkpt><trkpt lat="41.025994129527454" lon="14.80264725539492"><ele>532.0</ele><time>2026-03-28T13:25:37Z</time></trkpt><trkpt lat="41.026010774686874" lon="14.802830322030072"><ele>532.0</ele><time>2026-03-28T13:25:38Z</time></trkpt><trkpt lat="41.02603447260255" lon="14.80298267534233"><ele>532.0</ele><time>2026-03-28T13:25:39Z</time></trkpt><trkpt lat="41.026072032804414" lon="14.803124863072384"><ele>532.75</ele><time>2026-03-28T13:25:40Z</time></trkpt><trkpt lat="41.02613047478763" lon="14.803255840207147"><ele>533.5</ele><time>2026-03-28T13:25:41Z</time></trkpt><trkpt lat="41.02619304508299" lon="14.803382716545594"><ele>534.25</ele><time>2026-03-28T13:25:42Z</time></trkpt><trkpt lat="41.026264359741994" lon="14.803518350112151"><ele>535.0</ele><time>2026-03-28T13:25:43Z</time></trkpt><trkpt lat="41.0263437675462" lon="14.803665721215719"><ele>535.0</ele><time>2026-03-28T13:25:44Z</time></trkpt><trkpt lat="41.02643028982237" lon="14.803798277294211"><ele>535.0</ele><time>2026-03-28T13:25:45Z</time></trkpt><trkpt lat="41.02652906330807" lon="14.8039491530393"><ele>535.0</ele><time>2026-03-28T13:25:46Z</time></trkpt><trkpt lat="41.02663669272803" lon="14.804032824281238"><ele>535.0</ele><time>2026-03-28T13:25:47Z</time></trkpt><trkpt lat="41.02675717434064" lon="14.804114573794058"><ele>540.3333333333334</ele><time>2026-03-28T13:25:48Z</time></trkpt><trkpt lat="41.026899349582706" lon="14.804222595076954"><ele>545.6666666666666</ele><time>2026-03-28T13:25:49Z</time></trkpt><trkpt lat="41.027039145056584" lon="14.804330686423793"><ele>551.0</ele><time>2026-03-28T13:25:50Z</time></trkpt><trkpt lat="41.02715166051728" lon="14.804421935603278"><ele>552.0</ele><time>2026-03-28T13:25:51Z</time></trkpt><trkpt lat="41.02723419617544" lon="14.804491237087403"><ele>553.0</ele><time>2026-03-28T13:25:52Z</time></trkpt><trkpt lat="41.027291085954914" lon="14.80453945664866"><ele>554.0</ele><time>2026-03-28T13:25:53Z</time></trkpt><trkpt lat="41.02735355645165" lon="14.804609978059842"><ele>555.0</ele><time>2026-03-28T13:25:55Z</time></trkpt><trkpt lat="41.02734127297239" lon="14.804739796258849"><ele>556.0</ele><time>2026-03-28T13:25:57Z</time></trkpt><trkpt lat="41.027314724884114" lon="14.804846870535076"><ele>557.0</ele><time>2026-03-28T13:25:58Z</time></trkpt><trkpt lat="41.0272997553997" lon="14.8049716470497"><ele>557.0</ele><time>2026-03-28T13:25:59Z</time></trkpt><trkpt lat="41.027321707151366" lon="14.805098431964376"><ele>557.0</ele><time>2026-03-28T13:26:00Z</time></trkpt><trkpt lat="41.02738669830467" lon="14.805210589250954"><ele>557.0</ele><time>2026-03-28T13:26:01Z</time></trkpt><trkpt lat="41.02746970610869" lon="14.805271173976397"><ele>557.0</ele><time>2026-03-28T13:26:02Z</time></trkpt><trkpt lat="41.02757211925061" lon="14.80529755058229"><ele>557.0</ele><time>2026-03-28T13:26:03Z</time></trkpt><trkpt lat="41.027669392332456" lon="14.805314514566454"><ele>559.8000000000001</ele><time>2026-03-28T13:26:04Z</time></trkpt><trkpt lat="41.02776005435986" lon="14.80535669597041"><ele>562.6</ele><time>2026-03-28T13:26:05Z</time></trkpt><trkpt lat="41.027852294258125" lon="14.805440569220206"><ele>565.4000000000001</ele><time>2026-03-28T13:26:05.999Z</time></trkpt><trkpt lat="41.02795130353789" lon="14.805532444633236"><ele>568.2</ele><time>2026-03-28T13:26:06.999Z</time></trkpt><trkpt lat="41.02804098186649" lon="14.805617610600555"><ele>571.0</ele><time>2026-03-28T13:26:07.999Z</time></trkpt><trkpt lat="41.02812595279915" lon="14.805692557141274"><ele>571.0</ele><time>2026-03-28T13:26:08.999Z</time></trkpt><trkpt lat="41.02821054684854" lon="14.805759583403118"><ele>571.0</ele><time>2026-03-28T13:26:09.999Z</time></trkpt><trkpt lat="41.02830428594631" lon="14.80581750546942"><ele>571.0</ele><time>2026-03-28T13:26:10.999Z</time></trkpt><trkpt lat="41.028396890398" lon="14.805867895973718"><ele>571.0</ele><time>2026-03-28T13:26:11.999Z</time></trkpt><trkpt lat="41.02847641249231" lon="14.80590808117642"><ele>571.0</ele><time>2026-03-28T13:26:12.999Z</time></trkpt><trkpt lat="41.028542123633976" lon="14.805975560928005"><ele>574.75</ele><time>2026-03-28T13:26:13.999Z</time></trkpt><trkpt lat="41.02859457363566" lon="14.806092120251007"><ele>578.5</ele><time>2026-03-28T13:26:14.999Z</time></trkpt><trkpt lat="41.02863303815007" lon="14.806259359359673"><ele>582.25</ele><time>2026-03-28T13:26:15.999Z</time></trkpt><trkpt lat="41.02865383038962" lon="14.806415749538782"><ele>586.0</ele><time>2026-03-28T13:26:16.999Z</time></trkpt><trkpt lat="41.028678632266725" lon="14.806565788156167"><ele>586.0</ele><time>2026-03-28T13:26:17.999Z</time></trkpt><trkpt lat="41.02871226378162" lon="14.806690921706783"><ele>586.0</ele><time>2026-03-28T13:26:18.999Z</time></trkpt><trkpt lat="41.02876416590088" lon="14.806781439849415"><ele>586.0</ele><time>2026-03-28T13:26:19.999Z</time></trkpt><trkpt lat="41.028848936961126" lon="14.806859258248723"><ele>586.0</ele><time>2026-03-28T13:26:20.999Z</time></trkpt><trkpt lat="41.028957809552516" lon="14.80687507807611"><ele>586.0</ele><time>2026-03-28T13:26:21.999Z</time></trkpt><trkpt lat="41.029081375802726" lon="14.806848915835001"><ele>584.75</ele><time>2026-03-28T13:26:22.999Z</time></trkpt><trkpt lat="41.02920640987583" lon="14.80681532683613"><ele>583.5</ele><time>2026-03-28T13:26:23.999Z</time></trkpt><trkpt lat="41.02935151509213" lon="14.806828904179032"><ele>582.25</ele><time>2026-03-28T13:26:24.999Z</time></trkpt><trkpt lat="41.02949130597627" lon="14.80687581301294"><ele>581.0</ele><time>2026-03-28T13:26:25.999Z</time></trkpt><trkpt lat="41.02962772816202" lon="14.806973485030314"><ele>583.25</ele><time>2026-03-28T13:26:26.999Z</time></trkpt><trkpt lat="41.02974891435537" lon="14.807062447016499"><ele>585.5</ele><time>2026-03-28T13:26:27.999Z</time></trkpt><trkpt lat="41.029851130273734" lon="14.807150706484402"><ele>587.75</ele><time>2026-03-28T13:26:28.999Z</time></trkpt><trkpt lat="41.029947811975966" lon="14.807261444161542"><ele>590.0</ele><time>2026-03-28T13:26:29.999Z</time></trkpt><trkpt lat="41.030006258992984" lon="14.807394964183391"><ele>590.0</ele><time>2026-03-28T13:26:30.999Z</time></trkpt><trkpt lat="41.03003982615186" lon="14.80750803117814"><ele>590.0</ele><time>2026-03-28T13:26:31.999Z</time></trkpt><trkpt lat="41.03007374996799" lon="14.80760335142695"><ele>590.0</ele><time>2026-03-28T13:26:32.999Z</time></trkpt><trkpt lat="41.030103480037596" lon="14.807686420813637"><ele>590.0</ele><time>2026-03-28T13:26:33.999Z</time></trkpt><trkpt lat="41.03020548511837" lon="14.807702485638517"><ele>590.0</ele><time>2026-03-28T13:26:34.999Z</time></trkpt><trkpt lat="41.03027962374478" lon="14.8076624524931"><ele>590.0</ele><time>2026-03-28T13:26:35.999Z</time></trkpt><trkpt lat="41.03036683926268" lon="14.807549695522146"><ele>590.0</ele><time>2026-03-28T13:26:36.999Z</time></trkpt><trkpt lat="41.03043764831298" lon="14.807426587800125"><ele>590.0</ele><time>2026-03-28T13:26:37.999Z</time></trkpt><trkpt lat="41.03053887905047" lon="14.807315466364349"><ele>590.0</ele><time>2026-03-28T13:26:38.999Z</time></trkpt><trkpt lat="41.03059306021376" lon="14.807231785906186"><ele>590.0</ele><time>2026-03-28T13:26:39.999Z</time></trkpt><trkpt lat="41.03063892793973" lon="14.807156873062187"><ele>590.0</ele><time>2026-03-28T13:26:40.999Z</time></trkpt><trkpt lat="41.03068606154845" lon="14.807079892629057"><ele>590.0</ele><time>2026-03-28T13:26:41.999Z</time></trkpt><trkpt lat="41.030764974814566" lon="14.806941300379968"><ele>590.0</ele><time>2026-03-28T13:26:42.999Z</time></trkpt><trkpt lat="41.03082507339307" lon="14.806858419062811"><ele>590.0</ele><time>2026-03-28T13:26:43.999Z</time></trkpt><trkpt lat="41.03089496311853" lon="14.806801318682542"><ele>590.0</ele><time>2026-03-28T13:26:44.998Z</time></trkpt><trkpt lat="41.030984778890115" lon="14.806782109406752"><ele>590.0</ele><time>2026-03-28T13:26:45.998Z</time></trkpt><trkpt lat="41.03107454437565" lon="14.806774466478231"><ele>589.6</ele><time>2026-03-28T13:26:46.998Z</time></trkpt><trkpt lat="41.031170151000296" lon="14.806781601430977"><ele>589.2</ele><time>2026-03-28T13:26:47.998Z</time></trkpt><trkpt lat="41.03126758990292" lon="14.8068091667367"><ele>588.8</ele><time>2026-03-28T13:26:48.998Z</time></trkpt><trkpt lat="41.03136640435709" lon="14.806833577423676"><ele>588.4</ele><time>2026-03-28T13:26:49.998Z</time></trkpt><trkpt lat="41.03147103397424" lon="14.806868391851276"><ele>588.0</ele><time>2026-03-28T13:26:50.998Z</time></trkpt><trkpt lat="41.03158176234511" lon="14.80690754144669"><ele>589.75</ele><time>2026-03-28T13:26:51.998Z</time></trkpt><trkpt lat="41.03169061756431" lon="14.80695157011672"><ele>591.5</ele><time>2026-03-28T13:26:52.998Z</time></trkpt><trkpt lat="41.03180212997575" lon="14.80700761472674"><ele>593.25</ele><time>2026-03-28T13:26:53.998Z</time></trkpt><trkpt lat="41.031896827878974" lon="14.807101832905312"><ele>595.0</ele><time>2026-03-28T13:26:54.998Z</time></trkpt><trkpt lat="41.031972858138204" lon="14.807231909972028"><ele>595.0</ele><time>2026-03-28T13:26:55.998Z</time></trkpt><trkpt lat="41.03204019377953" lon="14.807392078108625"><ele>595.0</ele><time>2026-03-28T13:26:56.998Z</time></trkpt><trkpt lat="41.03211850349482" lon="14.807505051018227"><ele>595.0</ele><time>2026-03-28T13:26:57.998Z</time></trkpt><trkpt lat="41.032215336938286" lon="14.807565414279512"><ele>595.0</ele><time>2026-03-28T13:26:58.998Z</time></trkpt><trkpt lat="41.032324645795896" lon="14.807598009960438"><ele>595.0</ele><time>2026-03-28T13:26:59.998Z</time></trkpt><trkpt lat="41.03245859907197" lon="14.807598084144002"><ele>595.0</ele><time>2026-03-28T13:27:00.998Z</time></trkpt><trkpt lat="41.03259592258766" lon="14.807634818480459"><ele>595.0</ele><time>2026-03-28T13:27:01.998Z</time></trkpt><trkpt lat="41.032721104826344" lon="14.807726491108737"><ele>595.0</ele><time>2026-03-28T13:27:02.998Z</time></trkpt><trkpt lat="41.032780882331096" lon="14.807887828312477"><ele>594.25</ele><time>2026-03-28T13:27:03.998Z</time></trkpt><trkpt lat="41.03282324647712" lon="14.808059331458132"><ele>593.5</ele><time>2026-03-28T13:27:04.998Z</time></trkpt><trkpt lat="41.03288179717623" lon="14.808236872466178"><ele>592.75</ele><time>2026-03-28T13:27:05.998Z</time></trkpt><trkpt lat="41.032969130219904" lon="14.808407089862582"><ele>592.0</ele><time>2026-03-28T13:27:06.998Z</time></trkpt><trkpt lat="41.03311808090653" lon="14.808549001205163"><ele>593.3333333333334</ele><time>2026-03-28T13:27:07.998Z</time></trkpt><trkpt lat="41.033243627584305" lon="14.80865053154176"><ele>594.6666666666666</ele><time>2026-03-28T13:27:08.998Z</time></trkpt><trkpt lat="41.03338651780097" lon="14.808750985393868"><ele>596.0</ele><time>2026-03-28T13:27:09.998Z</time></trkpt><trkpt lat="41.03355458089508" lon="14.808824660947963"><ele>596.0</ele><time>2026-03-28T13:27:10.998Z</time></trkpt><trkpt lat="41.0337398739518" lon="14.808941083388797"><ele>596.0</ele><time>2026-03-28T13:27:11.998Z</time></trkpt><trkpt lat="41.03391178777187" lon="14.809035556211535"><ele>596.0</ele><time>2026-03-28T13:27:12.998Z</time></trkpt><trkpt lat="41.03408117991258" lon="14.809125718042162"><ele>596.0</ele><time>2026-03-28T13:27:13.998Z</time></trkpt><trkpt lat="41.03423074272985" lon="14.809225045659304"><ele>596.0</ele><time>2026-03-28T13:27:14.998Z</time></trkpt><trkpt lat="41.03432612727792" lon="14.809345759967066"><ele>596.0</ele><time>2026-03-28T13:27:15.998Z</time></trkpt><trkpt lat="41.03446839747394" lon="14.80944527466706"><ele>596.0</ele><time>2026-03-28T13:27:16.998Z</time></trkpt><trkpt lat="41.03465309279629" lon="14.809495625127367"><ele>596.0</ele><time>2026-03-28T13:27:17.998Z</time></trkpt><trkpt lat="41.03479310605924" lon="14.809538578071084"><ele>596.0</ele><time>2026-03-28T13:27:18.998Z</time></trkpt><trkpt lat="41.03489969706849" lon="14.809598339267035"><ele>596.0</ele><time>2026-03-28T13:27:19.998Z</time></trkpt><trkpt lat="41.03496973042612" lon="14.809675643936377"><ele>603.75</ele><time>2026-03-28T13:27:20.998Z</time></trkpt><trkpt lat="41.03500775693763" lon="14.809816438741544"><ele>611.5</ele><time>2026-03-28T13:27:21.998Z</time></trkpt><trkpt lat="41.03501992549875" lon="14.809999985483879"><ele>619.25</ele><time>2026-03-28T13:27:22.998Z</time></trkpt><trkpt lat="41.034999627103005" lon="14.810152574347047"><ele>627.0</ele><time>2026-03-28T13:27:23.998Z</time></trkpt><trkpt lat="41.03497682707489" lon="14.810294948477953"><ele>627.0</ele><time>2026-03-28T13:27:24.997Z</time></trkpt><trkpt lat="41.034999038780164" lon="14.810436164801558"><ele>627.0</ele><time>2026-03-28T13:27:25.997Z</time></trkpt><trkpt lat="41.03506611106795" lon="14.810599824795798"><ele>627.0</ele><time>2026-03-28T13:27:26.997Z</time></trkpt><trkpt lat="41.03515198383548" lon="14.810751791969706"><ele>627.0</ele><time>2026-03-28T13:27:27.997Z</time></trkpt><trkpt lat="41.03522984507931" lon="14.810915690411733"><ele>629.6</ele><time>2026-03-28T13:27:28.997Z</time></trkpt><trkpt lat="41.03529560398336" lon="14.811058468127674"><ele>632.2</ele><time>2026-03-28T13:27:29.997Z</time></trkpt><trkpt lat="41.035337535899025" lon="14.811186067695516"><ele>634.8</ele><time>2026-03-28T13:27:30.997Z</time></trkpt><trkpt lat="41.035360702193245" lon="14.811295214928874"><ele>637.4</ele><time>2026-03-28T13:27:31.997Z</time></trkpt><trkpt lat="41.03531809657898" lon="14.811391477684342"><ele>640.0</ele><time>2026-03-28T13:27:32.997Z</time></trkpt><trkpt lat="41.035221297675434" lon="14.811468342888476"><ele>640.0</ele><time>2026-03-28T13:27:33.997Z</time></trkpt><trkpt lat="41.035084717316884" lon="14.811539100611096"><ele>640.0</ele><time>2026-03-28T13:27:35Z</time></trkpt><trkpt lat="41.034914723784844" lon="14.811606902952667"><ele>640.0</ele><time>2026-03-28T13:27:37Z</time></trkpt><trkpt lat="41.034813597233416" lon="14.811635704908017"><ele>640.0</ele><time>2026-03-28T13:27:38Z</time></trkpt><trkpt lat="41.03469913057983" lon="14.81164171113091"><ele>638.8</ele><time>2026-03-28T13:27:39Z</time></trkpt><trkpt lat="41.034581860646725" lon="14.811626627651046"><ele>637.6</ele><time>2026-03-28T13:27:40Z</time></trkpt><trkpt lat="41.03447060824242" lon="14.811594112848674"><ele>636.4</ele><time>2026-03-28T13:27:41Z</time></trkpt><trkpt lat="41.03436587818788" lon="14.811571995689135"><ele>635.2</ele><time>2026-03-28T13:27:42Z</time></trkpt><trkpt lat="41.03427848008259" lon="14.811557858126697"><ele>634.0</ele><time>2026-03-28T13:27:43Z</time></trkpt><trkpt lat="41.034204515440734" lon="14.81155870118929"><ele>633.6</ele><time>2026-03-28T13:27:44Z</time></trkpt><trkpt lat="41.03413062109326" lon="14.811589787737573"><ele>633.2</ele><time>2026-03-28T13:27:45Z</time></trkpt><trkpt lat="41.03407399998142" lon="14.811685294952737"><ele>632.8000000000001</ele><time>2026-03-28T13:27:46Z</time></trkpt><trkpt lat="41.03403500100702" lon="14.811793853908636"><ele>632.4</ele><time>2026-03-28T13:27:47Z</time></trkpt><trkpt lat="41.034005721907754" lon="14.811914732954186"><ele>632.0</ele><time>2026-03-28T13:27:48Z</time></trkpt><trkpt lat="41.0339663208509" lon="14.812033739319421"><ele>632.0</ele><time>2026-03-28T13:27:49Z</time></trkpt><trkpt lat="41.03393260703971" lon="14.812157486497256"><ele>632.0</ele><time>2026-03-28T13:27:50Z</time></trkpt><trkpt lat="41.03390324037719" lon="14.812264568653456"><ele>632.0</ele><time>2026-03-28T13:27:51Z</time></trkpt><trkpt lat="41.033869831131845" lon="14.812386393043871"><ele>632.0</ele><time>2026-03-28T13:27:52Z</time></trkpt><trkpt lat="41.033826339677574" lon="14.812472204163658"><ele>632.0</ele><time>2026-03-28T13:27:53Z</time></trkpt><trkpt lat="41.03376747810665" lon="14.81254135475089"><ele>632.0</ele><time>2026-03-28T13:27:54Z</time></trkpt><trkpt lat="41.033700993435914" lon="14.81260023782424"><ele>632.0</ele><time>2026-03-28T13:27:55Z</time></trkpt><trkpt lat="41.03364184988034" lon="14.812655705788009"><ele>632.0</ele><time>2026-03-28T13:27:56Z</time></trkpt><trkpt lat="41.03355489935956" lon="14.81273977673723"><ele>632.0</ele><time>2026-03-28T13:27:58Z</time></trkpt><trkpt lat="41.033599631380845" lon="14.812864381310096"><ele>632.0</ele><time>2026-03-28T13:27:59Z</time></trkpt><trkpt lat="41.033623728814085" lon="14.812979641250271"><ele>632.0</ele><time>2026-03-28T13:28:00Z</time></trkpt><trkpt lat="41.033644952867654" lon="14.8130781114845"><ele>632.2</ele><time>2026-03-28T13:28:01Z</time></trkpt><trkpt lat="41.033649126779416" lon="14.813166415006352"><ele>632.4000000000001</ele><time>2026-03-28T13:28:02Z</time></trkpt><trkpt lat="41.03364854320667" lon="14.81330904728003"><ele>632.5999999999999</ele><time>2026-03-28T13:28:03Z</time></trkpt><trkpt lat="41.03361965298851" lon="14.813503093114582"><ele>632.8</ele><time>2026-03-28T13:28:05Z</time></trkpt><trkpt lat="41.03360632950463" lon="14.813617962629666"><ele>633.0</ele><time>2026-03-28T13:28:06Z</time></trkpt><trkpt lat="41.03359035980859" lon="14.813716663515894"><ele>633.0</ele><time>2026-03-28T13:28:07Z</time></trkpt><trkpt lat="41.03358045002355" lon="14.81384790647253"><ele>633.0</ele><time>2026-03-28T13:28:08Z</time></trkpt><trkpt lat="41.033571158658795" lon="14.813985977329066"><ele>633.0</ele><time>2026-03-28T13:28:10Z</time></trkpt><trkpt lat="41.03362806079528" lon="14.814114765824359"><ele>633.0</ele><time>2026-03-28T13:28:11.999Z</time></trkpt><trkpt lat="41.03376420248096" lon="14.814141466591368"><ele>633.0</ele><time>2026-03-28T13:28:13.999Z</time></trkpt><trkpt lat="41.033852114474975" lon="14.81412450028192"><ele>633.0</ele><time>2026-03-28T13:28:14.999Z</time></trkpt><trkpt lat="41.03396546045032" lon="14.814100870766346"><ele>633.0</ele><time>2026-03-28T13:28:15.999Z</time></trkpt><trkpt lat="41.034071261249906" lon="14.814082703106502"><ele>633.0</ele><time>2026-03-28T13:28:16.999Z</time></trkpt><trkpt lat="41.03417933336571" lon="14.814065990548059"><ele>633.0</ele><time>2026-03-28T13:28:17.999Z</time></trkpt><trkpt lat="41.034287052472" lon="14.814070370708219"><ele>630.75</ele><time>2026-03-28T13:28:18.999Z</time></trkpt><trkpt lat="41.03440119650193" lon="14.814141063974747"><ele>628.5</ele><time>2026-03-28T13:28:19.999Z</time></trkpt><trkpt lat="41.03451946598199" lon="14.814190975435245"><ele>626.25</ele><time>2026-03-28T13:28:20.999Z</time></trkpt><trkpt lat="41.03461578069737" lon="14.814272075660543"><ele>624.0</ele><time>2026-03-28T13:28:21.999Z</time></trkpt><trkpt lat="41.03470591606235" lon="14.81432795104225"><ele>624.0</ele><time>2026-03-28T13:28:22.999Z</time></trkpt><trkpt lat="41.03478576099816" lon="14.814380708394243"><ele>624.0</ele><time>2026-03-28T13:28:23.999Z</time></trkpt><trkpt lat="41.034798241517045" lon="14.814505982038302"><ele>624.0</ele><time>2026-03-28T13:28:24.999Z</time></trkpt><trkpt lat="41.034829274037776" lon="14.814610191032212"><ele>624.0</ele><time>2026-03-28T13:28:25.999Z</time></trkpt><trkpt lat="41.034868269896286" lon="14.814705544257384"><ele>624.0</ele><time>2026-03-28T13:28:26.999Z</time></trkpt><trkpt lat="41.03487026861772" lon="14.814830252983867"><ele>624.0</ele><time>2026-03-28T13:28:27.999Z</time></trkpt><trkpt lat="41.03482431896589" lon="14.814978412672872"><ele>624.0</ele><time>2026-03-28T13:28:28.999Z</time></trkpt><trkpt lat="41.034798846395795" lon="14.815143797968803"><ele>624.0</ele><time>2026-03-28T13:28:29.999Z</time></trkpt><trkpt lat="41.03480861058633" lon="14.815318784215146"><ele>624.0</ele><time>2026-03-28T13:28:30.999Z</time></trkpt><trkpt lat="41.03483668397084" lon="14.815509919647168"><ele>624.0</ele><time>2026-03-28T13:28:31.999Z</time></trkpt><trkpt lat="41.034864999088654" lon="14.815705411403819"><ele>624.5</ele><time>2026-03-28T13:28:32.999Z</time></trkpt><trkpt lat="41.03487671523068" lon="14.815901597585652"><ele>625.0</ele><time>2026-03-28T13:28:33.999Z</time></trkpt><trkpt lat="41.03484936999983" lon="14.816071190272062"><ele>625.5</ele><time>2026-03-28T13:28:34.999Z</time></trkpt><trkpt lat="41.034822071723916" lon="14.816214599515726"><ele>626.0</ele><time>2026-03-28T13:28:35.999Z</time></trkpt><trkpt lat="41.03478668649073" lon="14.816341595920488"><ele>626.4</ele><time>2026-03-28T13:28:36.999Z</time></trkpt><trkpt lat="41.03468446482093" lon="14.816405400452789"><ele>626.8</ele><time>2026-03-28T13:28:37.999Z</time></trkpt><trkpt lat="41.034629558945156" lon="14.81650594809556"><ele>627.1999999999999</ele><time>2026-03-28T13:28:38.999Z</time></trkpt><trkpt lat="41.03460686029856" lon="14.816615277185534"><ele>627.6</ele><time>2026-03-28T13:28:39.999Z</time></trkpt><trkpt lat="41.03465012300108" lon="14.816763819089672"><ele>628.0</ele><time>2026-03-28T13:28:40.999Z</time></trkpt><trkpt lat="41.03474679432551" lon="14.816877587573488"><ele>628.0</ele><time>2026-03-28T13:28:41.999Z</time></trkpt><trkpt lat="41.03486452665821" lon="14.816985899361315"><ele>628.0</ele><time>2026-03-28T13:28:42.999Z</time></trkpt><trkpt lat="41.034980924276674" lon="14.817119470687627"><ele>628.0</ele><time>2026-03-28T13:28:43.999Z</time></trkpt><trkpt lat="41.03507752679342" lon="14.817272840727178"><ele>628.0</ele><time>2026-03-28T13:28:44.999Z</time></trkpt><trkpt lat="41.0351457374214" lon="14.817419129368545"><ele>633.5</ele><time>2026-03-28T13:28:45.999Z</time></trkpt><trkpt lat="41.03518176846256" lon="14.817553482364856"><ele>639.0</ele><time>2026-03-28T13:28:46.999Z</time></trkpt><trkpt lat="41.03523079454651" lon="14.817748560187194"><ele>644.5</ele><time>2026-03-28T13:28:47.999Z</time></trkpt><trkpt lat="41.03526635313714" lon="14.81796991276897"><ele>650.0</ele><time>2026-03-28T13:28:48.999Z</time></trkpt><trkpt lat="41.03529713244392" lon="14.818155341148618"><ele>650.0</ele><time>2026-03-28T13:28:49.998Z</time></trkpt><trkpt lat="41.03536308934313" lon="14.818316136914204"><ele>650.0</ele><time>2026-03-28T13:28:50.998Z</time></trkpt><trkpt lat="41.035468913783596" lon="14.818421006967927"><ele>650.0</ele><time>2026-03-28T13:28:51.998Z</time></trkpt><trkpt lat="41.03553615781486" lon="14.818553039120083"><ele>650.0</ele><time>2026-03-28T13:28:52.998Z</time></trkpt><trkpt lat="41.03558087561808" lon="14.8187421738187"><ele>647.25</ele><time>2026-03-28T13:28:53.998Z</time></trkpt><trkpt lat="41.035560869840936" lon="14.818935110101142"><ele>644.5</ele><time>2026-03-28T13:28:54.998Z</time></trkpt><trkpt lat="41.0355958795864" lon="14.81906489601489"><ele>641.75</ele><time>2026-03-28T13:28:55.998Z</time></trkpt><trkpt lat="41.03566850968008" lon="14.819178612092063"><ele>639.0</ele><time>2026-03-28T13:28:56.998Z</time></trkpt><trkpt lat="41.035777608786546" lon="14.81932243316288"><ele>648.5</ele><time>2026-03-28T13:28:57.998Z</time></trkpt><trkpt lat="41.035871939366615" lon="14.819471091168088"><ele>658.0</ele><time>2026-03-28T13:28:58.998Z</time></trkpt><trkpt lat="41.03590534440213" lon="14.819649284036865"><ele>667.5</ele><time>2026-03-28T13:28:59.998Z</time></trkpt><trkpt lat="41.03588440319829" lon="14.819798614273868"><ele>677.0</ele><time>2026-03-28T13:29:00.998Z</time></trkpt><trkpt lat="41.035808396139146" lon="14.819937668606169"><ele>667.75</ele><time>2026-03-28T13:29:01.998Z</time></trkpt><trkpt lat="41.03572032348454" lon="14.820093740933615"><ele>658.5</ele><time>2026-03-28T13:29:02.998Z</time></trkpt><trkpt lat="41.03563196912524" lon="14.820248025929512"><ele>649.25</ele><time>2026-03-28T13:29:03.998Z</time></trkpt><trkpt lat="41.0355697088862" lon="14.820398155664266"><ele>640.0</ele><time>2026-03-28T13:29:04.998Z</time></trkpt><trkpt lat="41.03556559457476" lon="14.820522243413775"><ele>640.0</ele><time>2026-03-28T13:29:05.998Z</time></trkpt><trkpt lat="41.03560589254397" lon="14.8206574946784"><ele>640.0</ele><time>2026-03-28T13:29:06.998Z</time></trkpt><trkpt lat="41.035701904889876" lon="14.820806291778721"><ele>640.0</ele><time>2026-03-28T13:29:07.998Z</time></trkpt><trkpt lat="41.03577181164059" lon="14.82098115930121"><ele>640.0</ele><time>2026-03-28T13:29:08.998Z</time></trkpt><trkpt lat="41.03575112727817" lon="14.821164988948171"><ele>644.0</ele><time>2026-03-28T13:29:09.998Z</time></trkpt><trkpt lat="41.03570690747048" lon="14.82139748745732"><ele>648.0</ele><time>2026-03-28T13:29:10.998Z</time></trkpt><trkpt lat="41.035685871346416" lon="14.821642209692019"><ele>652.0</ele><time>2026-03-28T13:29:11.998Z</time></trkpt><trkpt lat="41.035692409190816" lon="14.821886112179248"><ele>657.5</ele><time>2026-03-28T13:29:12.998Z</time></trkpt><trkpt lat="41.03570505498041" lon="14.822099221414916"><ele>663.0</ele><time>2026-03-28T13:29:13.998Z</time></trkpt><trkpt lat="41.035679028381885" lon="14.822285481034767"><ele>668.5</ele><time>2026-03-28T13:29:14.998Z</time></trkpt><trkpt lat="41.03559259722986" lon="14.822440396334216"><ele>674.0</ele><time>2026-03-28T13:29:15.998Z</time></trkpt><trkpt lat="41.035494420364174" lon="14.822614514754"><ele>680.3333333333333</ele><time>2026-03-28T13:29:16.998Z</time></trkpt><trkpt lat="41.03546460683075" lon="14.822744903584894"><ele>686.6666666666666</ele><time>2026-03-28T13:29:17.998Z</time></trkpt><trkpt lat="41.03541462512666" lon="14.8229727643755"><ele>693.0</ele><time>2026-03-28T13:29:18.998Z</time></trkpt><trkpt lat="41.03538037180208" lon="14.823194372082694"><ele>693.0</ele><time>2026-03-28T13:29:19.998Z</time></trkpt><trkpt lat="41.035340256330834" lon="14.823333106361313"><ele>693.0</ele><time>2026-03-28T13:29:20.998Z</time></trkpt><trkpt lat="41.03530679467539" lon="14.82345650645286"><ele>693.0</ele><time>2026-03-28T13:29:21.998Z</time></trkpt><trkpt lat="41.03519621525067" lon="14.823527774436124"><ele>693.0</ele><time>2026-03-28T13:29:22.998Z</time></trkpt><trkpt lat="41.035059259901544" lon="14.823514903209572"><ele>690.0</ele><time>2026-03-28T13:29:23.998Z</time></trkpt><trkpt lat="41.03490949358699" lon="14.8234930962737"><ele>687.0</ele><time>2026-03-28T13:29:24.998Z</time></trkpt><trkpt lat="41.0347801583713" lon="14.823419806809273"><ele>684.0</ele><time>2026-03-28T13:29:25.998Z</time></trkpt><trkpt lat="41.03468615453315" lon="14.823371583598245"><ele>681.0</ele><time>2026-03-28T13:29:26.998Z</time></trkpt><trkpt lat="41.03462469955475" lon="14.823394204786531"><ele>679.75</ele><time>2026-03-28T13:29:27.998Z</time></trkpt><trkpt lat="41.03458630627724" lon="14.823511702821277"><ele>678.5</ele><time>2026-03-28T13:29:28.998Z</time></trkpt><trkpt lat="41.03459241472731" lon="14.82368031881176"><ele>677.25</ele><time>2026-03-28T13:29:29.997Z</time></trkpt><trkpt lat="41.03461874147271" lon="14.823860802781788"><ele>676.0</ele><time>2026-03-28T13:29:30.997Z</time></trkpt><trkpt lat="41.03467862746993" lon="14.824039341436086"><ele>676.0</ele><time>2026-03-28T13:29:31.997Z</time></trkpt><trkpt lat="41.0347382162449" lon="14.824210702068203"><ele>676.0</ele><time>2026-03-28T13:29:32.997Z</time></trkpt><trkpt lat="41.03477815998677" lon="14.824389128950537"><ele>676.0</ele><time>2026-03-28T13:29:33.997Z</time></trkpt><trkpt lat="41.034761712376586" lon="14.824536058773898"><ele>676.0</ele><time>2026-03-28T13:29:34.997Z</time></trkpt><trkpt lat="41.0346935202701" lon="14.824709421552717"><ele>676.5</ele><time>2026-03-28T13:29:35.997Z</time></trkpt><trkpt lat="41.0346425768147" lon="14.824927580046168"><ele>677.0</ele><time>2026-03-28T13:29:36.997Z</time></trkpt><trkpt lat="41.03459515875667" lon="14.82509096143714"><ele>677.5</ele><time>2026-03-28T13:29:37.997Z</time></trkpt><trkpt lat="41.0345796374867" lon="14.825247630301384"><ele>678.0</ele><time>2026-03-28T13:29:38.997Z</time></trkpt><trkpt lat="41.034626107009466" lon="14.82538883540625"><ele>676.0</ele><time>2026-03-28T13:29:39.997Z</time></trkpt><trkpt lat="41.03471755252448" lon="14.825521452289923"><ele>674.0</ele><time>2026-03-28T13:29:41Z</time></trkpt><trkpt lat="41.03484328446901" lon="14.825655300648366"><ele>672.0</ele><time>2026-03-28T13:29:42Z</time></trkpt><trkpt lat="41.03495965173766" lon="14.825794047498398"><ele>673.5</ele><time>2026-03-28T13:29:43Z</time></trkpt><trkpt lat="41.03499964284589" lon="14.825951403618607"><ele>675.0</ele><time>2026-03-28T13:29:44Z</time></trkpt><trkpt lat="41.03500297259293" lon="14.826109764638337"><ele>676.5</ele><time>2026-03-28T13:29:45Z</time></trkpt><trkpt lat="41.03496504971208" lon="14.826297300633605"><ele>678.0</ele><time>2026-03-28T13:29:46Z</time></trkpt><trkpt lat="41.03495457866074" lon="14.826539865176086"><ele>678.0</ele><time>2026-03-28T13:29:47Z</time></trkpt><trkpt lat="41.03494672422712" lon="14.82677938168988"><ele>678.0</ele><time>2026-03-28T13:29:48Z</time></trkpt><trkpt lat="41.034976736514224" lon="14.827036293675352"><ele>678.0</ele><time>2026-03-28T13:29:49Z</time></trkpt><trkpt lat="41.03498946643482" lon="14.827263853931315"><ele>681.75</ele><time>2026-03-28T13:29:50Z</time></trkpt><trkpt lat="41.03497917017452" lon="14.827450580589701"><ele>685.5</ele><time>2026-03-28T13:29:51Z</time></trkpt><trkpt lat="41.034961618328225" lon="14.827614745981194"><ele>689.25</ele><time>2026-03-28T13:29:52Z</time></trkpt><trkpt lat="41.03489866222002" lon="14.827740717268387"><ele>693.0</ele><time>2026-03-28T13:29:53Z</time></trkpt><trkpt lat="41.034802513894164" lon="14.82783832327065"><ele>697.6666666666666</ele><time>2026-03-28T13:29:54Z</time></trkpt><trkpt lat="41.03466430602036" lon="14.827965023423268"><ele>702.3333333333333</ele><time>2026-03-28T13:29:55Z</time></trkpt><trkpt lat="41.034502174711626" lon="14.828044550978518"><ele>707.0</ele><time>2026-03-28T13:29:56Z</time></trkpt><trkpt lat="41.034309061899876" lon="14.828117681548338"><ele>706.3333333333333</ele><time>2026-03-28T13:29:57Z</time></trkpt><trkpt lat="41.03410984814308" lon="14.82818734096553"><ele>705.6666666666666</ele><time>2026-03-28T13:29:58Z</time></trkpt><trkpt lat="41.033909913238446" lon="14.828274772715595"><ele>705.0</ele><time>2026-03-28T13:29:59Z</time></trkpt><trkpt lat="41.03373762711935" lon="14.828336263005967"><ele>705.0</ele><time>2026-03-28T13:30:00Z</time></trkpt><trkpt lat="41.03359791881374" lon="14.828419747024917"><ele>705.0</ele><time>2026-03-28T13:30:01Z</time></trkpt><trkpt lat="41.0334930445027" lon="14.828541864329319"><ele>705.0</ele><time>2026-03-28T13:30:02Z</time></trkpt><trkpt lat="41.033386947980695" lon="14.828687931634466"><ele>705.0</ele><time>2026-03-28T13:30:03Z</time></trkpt><trkpt lat="41.0332899265935" lon="14.828865594149143"><ele>704.75</ele><time>2026-03-28T13:30:04Z</time></trkpt><trkpt lat="41.03319441336815" lon="14.829024092073261"><ele>704.5</ele><time>2026-03-28T13:30:05Z</time></trkpt><trkpt lat="41.03313332607125" lon="14.829178026435365"><ele>704.25</ele><time>2026-03-28T13:30:06Z</time></trkpt><trkpt lat="41.03304544686922" lon="14.829227910194582"><ele>704.0</ele><time>2026-03-28T13:30:07Z</time></trkpt><trkpt lat="41.03295025073513" lon="14.829246297485707"><ele>704.0</ele><time>2026-03-28T13:30:08Z</time></trkpt><trkpt lat="41.03280258107601" lon="14.82920505643648"><ele>704.0</ele><time>2026-03-28T13:30:09Z</time></trkpt><trkpt lat="41.032686161899704" lon="14.829231799379803"><ele>704.0</ele><time>2026-03-28T13:30:10Z</time></trkpt><trkpt lat="41.03258110941526" lon="14.829328848093617"><ele>704.0</ele><time>2026-03-28T13:30:11Z</time></trkpt><trkpt lat="41.03244971894395" lon="14.829423000229692"><ele>696.75</ele><time>2026-03-28T13:30:12Z</time></trkpt><trkpt lat="41.03233301245062" lon="14.829513646344465"><ele>689.5</ele><time>2026-03-28T13:30:13Z</time></trkpt><trkpt lat="41.03222054847653" lon="14.829531015695299"><ele>682.25</ele><time>2026-03-28T13:30:14Z</time></trkpt><trkpt lat="41.03207262411537" lon="14.829425140595681"><ele>675.0</ele><time>2026-03-28T13:30:15Z</time></trkpt><trkpt lat="41.03192945624623" lon="14.82936463353023"><ele>675.0</ele><time>2026-03-28T13:30:16Z</time></trkpt><trkpt lat="41.03174377605631" lon="14.829298503182908"><ele>675.0</ele><time>2026-03-28T13:30:17.999Z</time></trkpt><trkpt lat="41.031644240187745" lon="14.829317743584218"><ele>675.0</ele><time>2026-03-28T13:30:18.999Z</time></trkpt><trkpt lat="41.03152684895155" lon="14.829375534531463"><ele>675.0</ele><time>2026-03-28T13:30:19.999Z</time></trkpt><trkpt lat="41.031408199196584" lon="14.829490078228178"><ele>678.75</ele><time>2026-03-28T13:30:20.999Z</time></trkpt><trkpt lat="41.03136185906887" lon="14.82965446118525"><ele>682.5</ele><time>2026-03-28T13:30:21.999Z</time></trkpt><trkpt lat="41.031275770007" lon="14.829839966806748"><ele>686.25</ele><time>2026-03-28T13:30:22.999Z</time></trkpt><trkpt lat="41.03120384777585" lon="14.830000138088607"><ele>690.0</ele><time>2026-03-28T13:30:23.999Z</time></trkpt><trkpt lat="41.031132383563964" lon="14.83011150911508"><ele>687.5</ele><time>2026-03-28T13:30:24.999Z</time></trkpt><trkpt lat="41.0310230953734" lon="14.830209577503469"><ele>685.0</ele><time>2026-03-28T13:30:25.999Z</time></trkpt><trkpt lat="41.03087782946441" lon="14.830259835333669"><ele>682.5</ele><time>2026-03-28T13:30:26.999Z</time></trkpt><trkpt lat="41.03075022493922" lon="14.830339656518944"><ele>680.0</ele><time>2026-03-28T13:30:27.999Z</time></trkpt><trkpt lat="41.030644223864165" lon="14.830455964036663"><ele>680.0</ele><time>2026-03-28T13:30:28.999Z</time></trkpt><trkpt lat="41.03055797773652" lon="14.830598526384895"><ele>680.0</ele><time>2026-03-28T13:30:29.999Z</time></trkpt><trkpt lat="41.03045977753789" lon="14.830749502938167"><ele>680.0</ele><time>2026-03-28T13:30:30.999Z</time></trkpt><trkpt lat="41.03035264920068" lon="14.830879431378625"><ele>680.0</ele><time>2026-03-28T13:30:31.999Z</time></trkpt><trkpt lat="41.030252787108466" lon="14.83097298905415"><ele>676.75</ele><time>2026-03-28T13:30:32.999Z</time></trkpt><trkpt lat="41.0301199962187" lon="14.831083476783649"><ele>673.5</ele><time>2026-03-28T13:30:33.999Z</time></trkpt><trkpt lat="41.03000176340691" lon="14.83117628049316"><ele>670.25</ele><time>2026-03-28T13:30:34.999Z</time></trkpt><trkpt lat="41.029911039475536" lon="14.831269944093172"><ele>667.0</ele><time>2026-03-28T13:30:35.999Z</time></trkpt><trkpt lat="41.029801383743724" lon="14.831350554260593"><ele>667.0</ele><time>2026-03-28T13:30:36.999Z</time></trkpt><trkpt lat="41.029712323038986" lon="14.831432216915283"><ele>667.0</ele><time>2026-03-28T13:30:37.999Z</time></trkpt><trkpt lat="41.02964127186667" lon="14.831504556814002"><ele>667.0</ele><time>2026-03-28T13:30:38.999Z</time></trkpt><trkpt lat="41.0296012197492" lon="14.83161427288271"><ele>667.0</ele><time>2026-03-28T13:30:39.999Z</time></trkpt><trkpt lat="41.02957742960063" lon="14.831723144328912"><ele>667.0</ele><time>2026-03-28T13:30:40.999Z</time></trkpt><trkpt lat="41.02958014326099" lon="14.831836245398074"><ele>665.8</ele><time>2026-03-28T13:30:41.999Z</time></trkpt><trkpt lat="41.0296189362691" lon="14.83195214391061"><ele>664.6</ele><time>2026-03-28T13:30:42.999Z</time></trkpt><trkpt lat="41.02964711679844" lon="14.83203398712496"><ele>663.4</ele><time>2026-03-28T13:30:43.999Z</time></trkpt><trkpt lat="41.0297371986712" lon="14.832175821589558"><ele>662.1999999999999</ele><time>2026-03-28T13:30:45.999Z</time></trkpt><trkpt lat="41.02977240701517" lon="14.83227081942662"><ele>661.0</ele><time>2026-03-28T13:30:46.999Z</time></trkpt><trkpt lat="41.02977819761196" lon="14.832389730189659"><ele>661.0</ele><time>2026-03-28T13:30:47.999Z</time></trkpt><trkpt lat="41.029809062458966" lon="14.832503973332692"><ele>661.0</ele><time>2026-03-28T13:30:48.999Z</time></trkpt><trkpt lat="41.02984638056137" lon="14.832627063049621"><ele>661.0</ele><time>2026-03-28T13:30:49.999Z</time></trkpt><trkpt lat="41.02987144970687" lon="14.832741650128215"><ele>661.0</ele><time>2026-03-28T13:30:50.999Z</time></trkpt><trkpt lat="41.029890348442166" lon="14.83285825279175"><ele>661.0</ele><time>2026-03-28T13:30:51.999Z</time></trkpt><trkpt lat="41.02991966595441" lon="14.83297099140611"><ele>663.4</ele><time>2026-03-28T13:30:52.999Z</time></trkpt><trkpt lat="41.029933892320024" lon="14.833099768339936"><ele>665.8</ele><time>2026-03-28T13:30:53.999Z</time></trkpt><trkpt lat="41.029955795112905" lon="14.833226308524155"><ele>668.1999999999999</ele><time>2026-03-28T13:30:54.999Z</time></trkpt><trkpt lat="41.02996218725104" lon="14.833367975185514"><ele>670.5999999999999</ele><time>2026-03-28T13:30:55.998Z</time></trkpt><trkpt lat="41.03000377358753" lon="14.833513255031992"><ele>673.0</ele><time>2026-03-28T13:30:56.998Z</time></trkpt><trkpt lat="41.03001467582918" lon="14.833680864436941"><ele>674.0</ele><time>2026-03-28T13:30:57.998Z</time></trkpt><trkpt lat="41.03003869769528" lon="14.833837914722219"><ele>675.0</ele><time>2026-03-28T13:30:58.998Z</time></trkpt><trkpt lat="41.03006658693531" lon="14.83400208346769"><ele>676.0</ele><time>2026-03-28T13:30:59.998Z</time></trkpt><trkpt lat="41.03011284797132" lon="14.834165507747887"><ele>677.0</ele><time>2026-03-28T13:31:00.998Z</time></trkpt><trkpt lat="41.03014128943557" lon="14.83434061706641"><ele>679.3333333333333</ele><time>2026-03-28T13:31:01.998Z</time></trkpt><trkpt lat="41.030177589669385" lon="14.834513744999533"><ele>681.6666666666666</ele><time>2026-03-28T13:31:02.998Z</time></trkpt><trkpt lat="41.03018676263176" lon="14.83470154741378"><ele>684.0</ele><time>2026-03-28T13:31:03.998Z</time></trkpt><trkpt lat="41.030148677237854" lon="14.834929855118881"><ele>687.0</ele><time>2026-03-28T13:31:04.998Z</time></trkpt><trkpt lat="41.03013569370703" lon="14.835176643585827"><ele>690.0</ele><time>2026-03-28T13:31:05.998Z</time></trkpt><trkpt lat="41.0301059120217" lon="14.835402147659805"><ele>693.0</ele><time>2026-03-28T13:31:06.998Z</time></trkpt><trkpt lat="41.030099535273756" lon="14.835681262489643"><ele>693.0</ele><time>2026-03-28T13:31:07.998Z</time></trkpt><trkpt lat="41.03008725667814" lon="14.835967652748618"><ele>693.0</ele><time>2026-03-28T13:31:08.998Z</time></trkpt><trkpt lat="41.030053602872464" lon="14.836245222098631"><ele>693.0</ele><time>2026-03-28T13:31:09.998Z</time></trkpt><trkpt lat="41.03002641660876" lon="14.836514322068274"><ele>696.0</ele><time>2026-03-28T13:31:10.998Z</time></trkpt><trkpt lat="41.03001433612179" lon="14.836721803295823"><ele>699.0</ele><time>2026-03-28T13:31:11.998Z</time></trkpt><trkpt lat="41.02999121145529" lon="14.836928371416311"><ele>702.0</ele><time>2026-03-28T13:31:12.998Z</time></trkpt><trkpt lat="41.02997217673307" lon="14.837139944844942"><ele>699.6666666666666</ele><time>2026-03-28T13:31:13.998Z</time></trkpt><trkpt lat="41.02997455464263" lon="14.837368295527195"><ele>697.3333333333333</ele><time>2026-03-28T13:31:14.998Z</time></trkpt><trkpt lat="41.029958738266735" lon="14.83756890245104"><ele>695.0</ele><time>2026-03-28T13:31:15.998Z</time></trkpt><trkpt lat="41.0299187068536" lon="14.837735431026124"><ele>695.0</ele><time>2026-03-28T13:31:16.998Z</time></trkpt><trkpt lat="41.02987274026877" lon="14.837895883177243"><ele>695.0</ele><time>2026-03-28T13:31:17.998Z</time></trkpt><trkpt lat="41.02985353073014" lon="14.838039243137295"><ele>695.0</ele><time>2026-03-28T13:31:18.998Z</time></trkpt><trkpt lat="41.029844832325274" lon="14.83818660548656"><ele>695.0</ele><time>2026-03-28T13:31:19.998Z</time></trkpt><trkpt lat="41.02984992667105" lon="14.838358790846552"><ele>697.25</ele><time>2026-03-28T13:31:20.998Z</time></trkpt><trkpt lat="41.029822135584276" lon="14.838538205908128"><ele>699.5</ele><time>2026-03-28T13:31:21.998Z</time></trkpt><trkpt lat="41.029797410021" lon="14.83872748154799"><ele>701.75</ele><time>2026-03-28T13:31:22.998Z</time></trkpt><trkpt lat="41.0297596529829" lon="14.838916915157382"><ele>704.0</ele><time>2026-03-28T13:31:23.998Z</time></trkpt><trkpt lat="41.02971413037163" lon="14.839124530739731"><ele>706.3333333333333</ele><time>2026-03-28T13:31:24.998Z</time></trkpt><trkpt lat="41.02968153021771" lon="14.839333703414741"><ele>708.6666666666666</ele><time>2026-03-28T13:31:25.998Z</time></trkpt><trkpt lat="41.029643205826666" lon="14.839568181864607"><ele>711.0</ele><time>2026-03-28T13:31:26.998Z</time></trkpt><trkpt lat="41.029602739391336" lon="14.8397896127673"><ele>711.0</ele><time>2026-03-28T13:31:27.998Z</time></trkpt><trkpt lat="41.029564251355445" lon="14.840003333645658"><ele>711.0</ele><time>2026-03-28T13:31:28.998Z</time></trkpt><trkpt lat="41.02953989384535" lon="14.840196366932464"><ele>711.0</ele><time>2026-03-28T13:31:29.998Z</time></trkpt><trkpt lat="41.02953333859765" lon="14.840382645584398"><ele>710.0</ele><time>2026-03-28T13:31:30.998Z</time></trkpt><trkpt lat="41.02952000254916" lon="14.84054417415477"><ele>709.0</ele><time>2026-03-28T13:31:31.998Z</time></trkpt><trkpt lat="41.02952074645204" lon="14.840683789612704"><ele>708.0</ele><time>2026-03-28T13:31:32.998Z</time></trkpt><trkpt lat="41.02952528934584" lon="14.840813032479618"><ele>707.0</ele><time>2026-03-28T13:31:33.998Z</time></trkpt><trkpt lat="41.02956198294431" lon="14.840922471520493"><ele>706.0</ele><time>2026-03-28T13:31:34.997Z</time></trkpt><trkpt lat="41.02963773822627" lon="14.841008110530511"><ele>705.8</ele><time>2026-03-28T13:31:35.997Z</time></trkpt><trkpt lat="41.02972901882813" lon="14.84105276030707"><ele>705.5999999999999</ele><time>2026-03-28T13:31:36.997Z</time></trkpt><trkpt lat="41.02982625158292" lon="14.84110020200175"><ele>705.4</ele><time>2026-03-28T13:31:37.997Z</time></trkpt><trkpt lat="41.02993322642781" lon="14.841177100567176"><ele>705.2</ele><time>2026-03-28T13:31:38.997Z</time></trkpt><trkpt lat="41.03003518012837" lon="14.841252701402274"><ele>705.0</ele><time>2026-03-28T13:31:39.997Z</time></trkpt><trkpt lat="41.03012623144445" lon="14.841325841472322"><ele>705.0</ele><time>2026-03-28T13:31:40.997Z</time></trkpt><trkpt lat="41.030201560738384" lon="14.841412688510333"><ele>705.0</ele><time>2026-03-28T13:31:41.997Z</time></trkpt><trkpt lat="41.03024151109636" lon="14.841523635938564"><ele>705.0</ele><time>2026-03-28T13:31:42.997Z</time></trkpt><trkpt lat="41.0302607797372" lon="14.84165314233221"><ele>705.0</ele><time>2026-03-28T13:31:43.997Z</time></trkpt><trkpt lat="41.03027686288901" lon="14.841806098151055"><ele>705.0</ele><time>2026-03-28T13:31:44.997Z</time></trkpt><trkpt lat="41.03024256489629" lon="14.841982350988582"><ele>704.5</ele><time>2026-03-28T13:31:45.997Z</time></trkpt><trkpt lat="41.03019595701604" lon="14.842140290939573"><ele>704.0</ele><time>2026-03-28T13:31:47Z</time></trkpt><trkpt lat="41.03015183864511" lon="14.842312430012832"><ele>703.5</ele><time>2026-03-28T13:31:48Z</time></trkpt><trkpt lat="41.030128458545406" lon="14.842482671595203"><ele>703.0</ele><time>2026-03-28T13:31:49Z</time></trkpt><trkpt lat="41.03011104428543" lon="14.842672691933837"><ele>704.0</ele><time>2026-03-28T13:31:50Z</time></trkpt><trkpt lat="41.030076135622544" lon="14.842849168262932"><ele>705.0</ele><time>2026-03-28T13:31:51Z</time></trkpt><trkpt lat="41.030062772077834" lon="14.84301698236112"><ele>706.0</ele><time>2026-03-28T13:31:52Z</time></trkpt><trkpt lat="41.030036868553736" lon="14.843192105549864"><ele>707.0</ele><time>2026-03-28T13:31:53Z</time></trkpt><trkpt lat="41.030007593086104" lon="14.843359821439515"><ele>704.75</ele><time>2026-03-28T13:31:54Z</time></trkpt><trkpt lat="41.02997395446613" lon="14.843531246807927"><ele>702.5</ele><time>2026-03-28T13:31:55Z</time></trkpt><trkpt lat="41.02994710229133" lon="14.843707402853985"><ele>700.25</ele><time>2026-03-28T13:31:56Z</time></trkpt><trkpt lat="41.029966037041525" lon="14.843878523844852"><ele>698.0</ele><time>2026-03-28T13:31:57Z</time></trkpt><trkpt lat="41.02997776804183" lon="14.8440379777119"><ele>698.0</ele><time>2026-03-28T13:31:58Z</time></trkpt><trkpt lat="41.02998015518199" lon="14.844199356786405"><ele>698.0</ele><time>2026-03-28T13:31:59Z</time></trkpt><trkpt lat="41.02994950413806" lon="14.844343682343242"><ele>698.0</ele><time>2026-03-28T13:32:00Z</time></trkpt><trkpt lat="41.02993162582374" lon="14.844476778650286"><ele>698.0</ele><time>2026-03-28T13:32:01Z</time></trkpt><trkpt lat="41.02992824333655" lon="14.844585565444469"><ele>698.0</ele><time>2026-03-28T13:32:02Z</time></trkpt><trkpt lat="41.02995673646684" lon="14.844683571497164"><ele>695.2</ele><time>2026-03-28T13:32:03Z</time></trkpt><trkpt lat="41.03004296044731" lon="14.844707195377465"><ele>692.4</ele><time>2026-03-28T13:32:04Z</time></trkpt><trkpt lat="41.03012899675503" lon="14.844717061538539"><ele>689.6</ele><time>2026-03-28T13:32:05Z</time></trkpt><trkpt lat="41.03023373902234" lon="14.84473817562122"><ele>686.8000000000001</ele><time>2026-03-28T13:32:06Z</time></trkpt><trkpt lat="41.03035357337459" lon="14.84474517666014"><ele>684.0</ele><time>2026-03-28T13:32:07Z</time></trkpt><trkpt lat="41.03047858765604" lon="14.844751039932019"><ele>684.0</ele><time>2026-03-28T13:32:08Z</time></trkpt><trkpt lat="41.03062352656535" lon="14.844749516718847"><ele>684.0</ele><time>2026-03-28T13:32:09Z</time></trkpt><trkpt lat="41.03076692826729" lon="14.844744296826574"><ele>684.0</ele><time>2026-03-28T13:32:10Z</time></trkpt><trkpt lat="41.030902840262975" lon="14.844738038964651"><ele>684.0</ele><time>2026-03-28T13:32:11Z</time></trkpt><trkpt lat="41.031025199825926" lon="14.844794228819582"><ele>683.5</ele><time>2026-03-28T13:32:12Z</time></trkpt><trkpt lat="41.031133309291214" lon="14.844853069694805"><ele>683.0</ele><time>2026-03-28T13:32:13Z</time></trkpt><trkpt lat="41.031214005491734" lon="14.844960385496636"><ele>682.5</ele><time>2026-03-28T13:32:14Z</time></trkpt><trkpt lat="41.031266584847266" lon="14.845100352572757"><ele>682.0</ele><time>2026-03-28T13:32:15Z</time></trkpt><trkpt lat="41.031338690461254" lon="14.845258378426617"><ele>680.75</ele><time>2026-03-28T13:32:16Z</time></trkpt><trkpt lat="41.031431754343544" lon="14.845391334359254"><ele>679.5</ele><time>2026-03-28T13:32:17Z</time></trkpt><trkpt lat="41.03152824798837" lon="14.845524329053662"><ele>678.25</ele><time>2026-03-28T13:32:18Z</time></trkpt><trkpt lat="41.03164347056333" lon="14.845633384698969"><ele>677.0</ele><time>2026-03-28T13:32:19Z</time></trkpt><trkpt lat="41.03177329584684" lon="14.84572546870501"><ele>677.0</ele><time>2026-03-28T13:32:20Z</time></trkpt><trkpt lat="41.031908098542495" lon="14.845801139386086"><ele>677.0</ele><time>2026-03-28T13:32:20.999Z</time></trkpt><trkpt lat="41.0320276932347" lon="14.845899477428313"><ele>677.0</ele><time>2026-03-28T13:32:21.999Z</time></trkpt><trkpt lat="41.032138863630884" lon="14.845996015681944"><ele>677.0</ele><time>2026-03-28T13:32:22.999Z</time></trkpt><trkpt lat="41.0322428103138" lon="14.846104959481169"><ele>672.8</ele><time>2026-03-28T13:32:23.999Z</time></trkpt><trkpt lat="41.0323250110744" lon="14.846225374457989"><ele>668.6</ele><time>2026-03-28T13:32:24.999Z</time></trkpt><trkpt lat="41.032376493349275" lon="14.846339609980904"><ele>664.4</ele><time>2026-03-28T13:32:25.999Z</time></trkpt><trkpt lat="41.032419432567394" lon="14.846436031780128"><ele>660.1999999999999</ele><time>2026-03-28T13:32:26.999Z</time></trkpt><trkpt lat="41.032439182114445" lon="14.846523695451554"><ele>656.0</ele><time>2026-03-28T13:32:27.999Z</time></trkpt><trkpt lat="41.032421343314994" lon="14.846650176271579"><ele>653.25</ele><time>2026-03-28T13:32:28.999Z</time></trkpt><trkpt lat="41.03241034662923" lon="14.846810807875901"><ele>650.5</ele><time>2026-03-28T13:32:29.999Z</time></trkpt><trkpt lat="41.03240820367679" lon="14.846976900775827"><ele>647.75</ele><time>2026-03-28T13:32:30.999Z</time></trkpt><trkpt lat="41.03237878857699" lon="14.847115590634116"><ele>645.0</ele><time>2026-03-28T13:32:31.999Z</time></trkpt><trkpt lat="41.03239325314517" lon="14.84725222827219"><ele>645.0</ele><time>2026-03-28T13:32:32.999Z</time></trkpt><trkpt lat="41.032403705578965" lon="14.84739768057765"><ele>645.0</ele><time>2026-03-28T13:32:33.999Z</time></trkpt><trkpt lat="41.03247203676533" lon="14.847550454642063"><ele>645.0</ele><time>2026-03-28T13:32:34.999Z</time></trkpt><trkpt lat="41.03254904441134" lon="14.847676516659456"><ele>645.0</ele><time>2026-03-28T13:32:35.999Z</time></trkpt><trkpt lat="41.032605315928315" lon="14.847795880672543"><ele>650.0</ele><time>2026-03-28T13:32:36.999Z</time></trkpt><trkpt lat="41.03265859485138" lon="14.847899026163061"><ele>655.0</ele><time>2026-03-28T13:32:37.999Z</time></trkpt><trkpt lat="41.032687368843646" lon="14.847974926844037"><ele>660.0</ele><time>2026-03-28T13:32:38.999Z</time></trkpt><trkpt lat="41.03270270017079" lon="14.848081390062637"><ele>665.0</ele><time>2026-03-28T13:32:40.999Z</time></trkpt><trkpt lat="41.03279626866458" lon="14.848219531330477"><ele>670.0</ele><time>2026-03-28T13:32:42.999Z</time></trkpt><trkpt lat="41.03285716160811" lon="14.848291648805933"><ele>670.0</ele><time>2026-03-28T13:32:43.999Z</time></trkpt><trkpt lat="41.032921982630626" lon="14.84835708554555"><ele>670.0</ele><time>2026-03-28T13:32:44.999Z</time></trkpt><trkpt lat="41.03300185956518" lon="14.848397136470787"><ele>670.0</ele><time>2026-03-28T13:32:45.999Z</time></trkpt><trkpt lat="41.03307924589501" lon="14.848424724151188"><ele>670.0</ele><time>2026-03-28T13:32:46.999Z</time></trkpt><trkpt lat="41.03314887181286" lon="14.848434303089576"><ele>670.0</ele><time>2026-03-28T13:32:47.999Z</time></trkpt><trkpt lat="41.03323234489912" lon="14.848444506817128"><ele>670.0</ele><time>2026-03-28T13:32:48.999Z</time></trkpt><trkpt lat="41.03335232306358" lon="14.84841393065906"><ele>672.0</ele><time>2026-03-28T13:32:50.999Z</time></trkpt><trkpt lat="41.03342684377744" lon="14.848411058641876"><ele>674.0</ele><time>2026-03-28T13:32:51.999Z</time></trkpt><trkpt lat="41.03349376999138" lon="14.848414891222003"><ele>676.0</ele><time>2026-03-28T13:32:52.999Z</time></trkpt><trkpt lat="41.033636753849926" lon="14.849044886037976"><ele>671.8333333333334</ele><time>2026-03-28T13:32:53.999Z</time></trkpt><trkpt lat="41.0336880766318" lon="14.84911991138623"><ele>667.6666666666667</ele><time>2026-03-28T13:32:54.999Z</time></trkpt><trkpt lat="41.033734444104184" lon="14.849189631998216"><ele>663.5</ele><time>2026-03-28T13:32:55.999Z</time></trkpt><trkpt lat="41.033771588125546" lon="14.849287198178272"><ele>659.3333333333334</ele><time>2026-03-28T13:32:56.999Z</time></trkpt><trkpt lat="41.03376663148037" lon="14.849403468059837"><ele>655.1666666666666</ele><time>2026-03-28T13:32:57.999Z</time></trkpt><trkpt lat="41.03373474267453" lon="14.849520348473508"><ele>651.0</ele><time>2026-03-28T13:32:58.999Z</time></trkpt><trkpt lat="41.03367722275266" lon="14.849610547375702"><ele>647.6666666666666</ele><time>2026-03-28T13:32:59.998Z</time></trkpt><trkpt lat="41.03360206195626" lon="14.849671281152734"><ele>644.3333333333334</ele><time>2026-03-28T13:33:00.998Z</time></trkpt><trkpt lat="41.033553899031695" lon="14.849756948963842"><ele>641.0</ele><time>2026-03-28T13:33:01.998Z</time></trkpt><trkpt lat="41.033521523428995" lon="14.84986303525781"><ele>637.6666666666667</ele><time>2026-03-28T13:33:02.998Z</time></trkpt><trkpt lat="41.03351031100151" lon="14.849970290229184"><ele>634.3333333333334</ele><time>2026-03-28T13:33:03.998Z</time></trkpt><trkpt lat="41.033503542684386" lon="14.850077296683372"><ele>631.0</ele><time>2026-03-28T13:33:04.998Z</time></trkpt><trkpt lat="41.03350023788295" lon="14.850185913192831"><ele>630.6666666666667</ele><time>2026-03-28T13:33:05.998Z</time></trkpt><trkpt lat="41.03350580079836" lon="14.850288721022334"><ele>630.3333333333334</ele><time>2026-03-28T13:33:06.998Z</time></trkpt><trkpt lat="41.03352077242241" lon="14.850389965970805"><ele>630.0</ele><time>2026-03-28T13:33:07.998Z</time></trkpt><trkpt lat="41.033550977571444" lon="14.850485175993947"><ele>629.6666666666666</ele><time>2026-03-28T13:33:08.998Z</time></trkpt><trkpt lat="41.03359291989902" lon="14.850592381971495"><ele>629.3333333333333</ele><time>2026-03-28T13:33:10.998Z</time></trkpt><trkpt lat="41.03349968840718" lon="14.850499003122144"><ele>629.0</ele><time>2026-03-28T13:33:21.998Z</time></trkpt><trkpt lat="41.03338211626831" lon="14.850341418399442"><ele>624.0</ele><time>2026-03-28T13:33:22.998Z</time></trkpt><trkpt lat="41.03329128640514" lon="14.850217562449924"><ele>619.0</ele><time>2026-03-28T13:33:23.998Z</time></trkpt><trkpt lat="41.0331960140255" lon="14.850073638743705"><ele>614.0</ele><time>2026-03-28T13:33:24.998Z</time></trkpt><trkpt lat="41.033096160636966" lon="14.849946707688062"><ele>609.0</ele><time>2026-03-28T13:33:25.998Z</time></trkpt><trkpt lat="41.03297122390866" lon="14.849838717319063"><ele>609.0</ele><time>2026-03-28T13:33:26.998Z</time></trkpt><trkpt lat="41.032851470572965" lon="14.849760920507919"><ele>609.0</ele><time>2026-03-28T13:33:27.998Z</time></trkpt><trkpt lat="41.03270391753716" lon="14.849697998463977"><ele>609.0</ele><time>2026-03-28T13:33:28.998Z</time></trkpt><trkpt lat="41.032566173478266" lon="14.849654279418559"><ele>609.0</ele><time>2026-03-28T13:33:29.998Z</time></trkpt><trkpt lat="41.03242594253154" lon="14.849614353306583"><ele>605.25</ele><time>2026-03-28T13:33:30.998Z</time></trkpt><trkpt lat="41.03227856488761" lon="14.849566957004276"><ele>601.5</ele><time>2026-03-28T13:33:31.998Z</time></trkpt><trkpt lat="41.03213149412286" lon="14.84953841909391"><ele>597.75</ele><time>2026-03-28T13:33:32.998Z</time></trkpt><trkpt lat="41.031988264782605" lon="14.849542757436607"><ele>594.0</ele><time>2026-03-28T13:33:33.998Z</time></trkpt><trkpt lat="41.03184058363694" lon="14.849578007245237"><ele>594.0</ele><time>2026-03-28T13:33:34.998Z</time></trkpt><trkpt lat="41.03168999946438" lon="14.849616030394873"><ele>594.0</ele><time>2026-03-28T13:33:35.998Z</time></trkpt><trkpt lat="41.0315568458621" lon="14.849639983517681"><ele>594.0</ele><time>2026-03-28T13:33:36.998Z</time></trkpt><trkpt lat="41.03143043359513" lon="14.849640422825187"><ele>594.0</ele><time>2026-03-28T13:33:37.998Z</time></trkpt><trkpt lat="41.03129445732428" lon="14.84960641639715"><ele>588.3333333333334</ele><time>2026-03-28T13:33:38.997Z</time></trkpt><trkpt lat="41.03116303791183" lon="14.849529950979317"><ele>582.6666666666667</ele><time>2026-03-28T13:33:39.997Z</time></trkpt><trkpt lat="41.031025437707164" lon="14.849414683725158"><ele>577.0</ele><time>2026-03-28T13:33:40.997Z</time></trkpt><trkpt lat="41.030881571389344" lon="14.849312769615834"><ele>578.5</ele><time>2026-03-28T13:33:41.997Z</time></trkpt><trkpt lat="41.030742707446066" lon="14.84923242180759"><ele>580.0</ele><time>2026-03-28T13:33:42.997Z</time></trkpt><trkpt lat="41.03061472847113" lon="14.84917713237275"><ele>581.5</ele><time>2026-03-28T13:33:43.997Z</time></trkpt><trkpt lat="41.03051137334871" lon="14.849123524966666"><ele>583.0</ele><time>2026-03-28T13:33:44.997Z</time></trkpt><trkpt lat="41.03042911084987" lon="14.849059817831215"><ele>583.0</ele><time>2026-03-28T13:33:45.997Z</time></trkpt><trkpt lat="41.030389175679275" lon="14.848949015363221"><ele>583.0</ele><time>2026-03-28T13:33:46.997Z</time></trkpt><trkpt lat="41.0304000427783" lon="14.848808706189589"><ele>583.0</ele><time>2026-03-28T13:33:47.997Z</time></trkpt><trkpt lat="41.03042957864288" lon="14.848564447923984"><ele>583.0</ele><time>2026-03-28T13:33:48.997Z</time></trkpt><trkpt lat="41.03046542674763" lon="14.848325388528886"><ele>582.75</ele><time>2026-03-28T13:33:49.997Z</time></trkpt><trkpt lat="41.03048141348547" lon="14.848114357480206"><ele>582.5</ele><time>2026-03-28T13:33:50.997Z</time></trkpt><trkpt lat="41.03047474464922" lon="14.847929373827128"><ele>582.25</ele><time>2026-03-28T13:33:51.997Z</time></trkpt><trkpt lat="41.0304308421816" lon="14.847782396268126"><ele>582.0</ele><time>2026-03-28T13:33:53Z</time></trkpt><trkpt lat="41.03037640615681" lon="14.847618815384244"><ele>582.0</ele><time>2026-03-28T13:33:54Z</time></trkpt><trkpt lat="41.03027842329665" lon="14.847497542260088"><ele>582.0</ele><time>2026-03-28T13:33:55Z</time></trkpt><trkpt lat="41.030160563174896" lon="14.847371993532331"><ele>582.0</ele><time>2026-03-28T13:33:56Z</time></trkpt><trkpt lat="41.03004510675917" lon="14.847238799379975"><ele>582.0</ele><time>2026-03-28T13:33:57Z</time></trkpt><trkpt lat="41.029932442153445" lon="14.847132447574868"><ele>578.2</ele><time>2026-03-28T13:33:58Z</time></trkpt><trkpt lat="41.029857565751996" lon="14.847016233997817"><ele>574.4000000000001</ele><time>2026-03-28T13:33:59Z</time></trkpt><trkpt lat="41.02977288382433" lon="14.846940343422927"><ele>570.5999999999999</ele><time>2026-03-28T13:34:00Z</time></trkpt><trkpt lat="41.029669401304275" lon="14.84694784599401"><ele>566.8</ele><time>2026-03-28T13:34:01Z</time></trkpt><trkpt lat="41.02954500189758" lon="14.846973290662765"><ele>563.0</ele><time>2026-03-28T13:34:02Z</time></trkpt><trkpt lat="41.029413648859105" lon="14.847042961981177"><ele>563.0</ele><time>2026-03-28T13:34:03Z</time></trkpt><trkpt lat="41.02929914044463" lon="14.847125033174345"><ele>563.0</ele><time>2026-03-28T13:34:04Z</time></trkpt><trkpt lat="41.02917336145879" lon="14.847203100813083"><ele>563.0</ele><time>2026-03-28T13:34:05Z</time></trkpt><trkpt lat="41.02904990596523" lon="14.847267164824544"><ele>563.0</ele><time>2026-03-28T13:34:06Z</time></trkpt><trkpt lat="41.028936962838" lon="14.847260455848058"><ele>561.4</ele><time>2026-03-28T13:34:07Z</time></trkpt><trkpt lat="41.02881182263846" lon="14.847245119138991"><ele>559.8</ele><time>2026-03-28T13:34:08Z</time></trkpt><trkpt lat="41.02871404195614" lon="14.847212560153372"><ele>558.2</ele><time>2026-03-28T13:34:09Z</time></trkpt><trkpt lat="41.02861051434888" lon="14.84717344667162"><ele>556.6</ele><time>2026-03-28T13:34:10Z</time></trkpt><trkpt lat="41.02853598748391" lon="14.847060298582635"><ele>555.0</ele><time>2026-03-28T13:34:11Z</time></trkpt><trkpt lat="41.0284533927618" lon="14.846930190301212"><ele>555.0</ele><time>2026-03-28T13:34:12Z</time></trkpt><trkpt lat="41.02837045511757" lon="14.846820440814517"><ele>555.0</ele><time>2026-03-28T13:34:13Z</time></trkpt><trkpt lat="41.02828310909155" lon="14.8467511619806"><ele>555.0</ele><time>2026-03-28T13:34:14Z</time></trkpt><trkpt lat="41.028196526433845" lon="14.846729148782348"><ele>555.0</ele><time>2026-03-28T13:34:15Z</time></trkpt><trkpt lat="41.02811056596434" lon="14.846734708470784"><ele>555.0</ele><time>2026-03-28T13:34:16Z</time></trkpt><trkpt lat="41.02800992733271" lon="14.846843790425519"><ele>554.0</ele><time>2026-03-28T13:34:17Z</time></trkpt><trkpt lat="41.02791601116547" lon="14.8469750232434"><ele>553.0</ele><time>2026-03-28T13:34:18Z</time></trkpt><trkpt lat="41.027794095868416" lon="14.847104842545242"><ele>552.0</ele><time>2026-03-28T13:34:19Z</time></trkpt><trkpt lat="41.02768153364488" lon="14.84723182276794"><ele>551.0</ele><time>2026-03-28T13:34:20Z</time></trkpt><trkpt lat="41.02758284186964" lon="14.84734220461536"><ele>551.0</ele><time>2026-03-28T13:34:21Z</time></trkpt><trkpt lat="41.02748176095769" lon="14.84744032484602"><ele>551.0</ele><time>2026-03-28T13:34:22Z</time></trkpt><trkpt lat="41.0273788445546" lon="14.847496261189452"><ele>551.0</ele><time>2026-03-28T13:34:23Z</time></trkpt><trkpt lat="41.02727561372266" lon="14.847510735733982"><ele>551.0</ele><time>2026-03-28T13:34:24Z</time></trkpt><trkpt lat="41.02717767733793" lon="14.847471399973038"><ele>551.0</ele><time>2026-03-28T13:34:25Z</time></trkpt><trkpt lat="41.02709005462788" lon="14.847401314164115"><ele>542.6666666666666</ele><time>2026-03-28T13:34:26Z</time></trkpt><trkpt lat="41.02698968270412" lon="14.84723226546663"><ele>534.3333333333334</ele><time>2026-03-28T13:34:27Z</time></trkpt><trkpt lat="41.026882405905425" lon="14.847027126407975"><ele>526.0</ele><time>2026-03-28T13:34:28Z</time></trkpt><trkpt lat="41.02678157598898" lon="14.846831633394443"><ele>523.0</ele><time>2026-03-28T13:34:29Z</time></trkpt><trkpt lat="41.026750036206955" lon="14.846569928017436"><ele>520.0</ele><time>2026-03-28T13:34:29.999Z</time></trkpt><trkpt lat="41.02664911043947" lon="14.84645873913999"><ele>517.0</ele><time>2026-03-28T13:34:30.999Z</time></trkpt><trkpt lat="41.026533697959515" lon="14.846366524573714"><ele>517.0</ele><time>2026-03-28T13:34:31.999Z</time></trkpt><trkpt lat="41.02645683119786" lon="14.846215375157538"><ele>517.0</ele><time>2026-03-28T13:34:32.999Z</time></trkpt><trkpt lat="41.026391239753785" lon="14.846100966955504"><ele>517.0</ele><time>2026-03-28T13:34:33.999Z</time></trkpt><trkpt lat="41.02636224993029" lon="14.845965212568643"><ele>517.0</ele><time>2026-03-28T13:34:34.999Z</time></trkpt><trkpt lat="41.02635617401597" lon="14.845806962875182"><ele>519.4</ele><time>2026-03-28T13:34:35.999Z</time></trkpt><trkpt lat="41.02637641298699" lon="14.845664105404788"><ele>521.8000000000001</ele><time>2026-03-28T13:34:36.999Z</time></trkpt><trkpt lat="41.02641446229577" lon="14.845523401743797"><ele>524.2</ele><time>2026-03-28T13:34:37.999Z</time></trkpt><trkpt lat="41.026451494940375" lon="14.84539921889035"><ele>526.6</ele><time>2026-03-28T13:34:38.999Z</time></trkpt><trkpt lat="41.02648474581301" lon="14.8452857177031"><ele>529.0</ele><time>2026-03-28T13:34:39.999Z</time></trkpt><trkpt lat="41.02646496881969" lon="14.845200800524806"><ele>529.0</ele><time>2026-03-28T13:34:40.999Z</time></trkpt><trkpt lat="41.02640724822639" lon="14.845150418822294"><ele>529.0</ele><time>2026-03-28T13:34:42.999Z</time></trkpt><trkpt lat="41.02631231039384" lon="14.84526433533685"><ele>529.0</ele><time>2026-03-28T13:34:46.999Z</time></trkpt><trkpt lat="41.02628817823341" lon="14.845353718961173"><ele>529.0</ele><time>2026-03-28T13:34:47.999Z</time></trkpt><trkpt lat="41.02626163656132" lon="14.845458619574444"><ele>529.0</ele><time>2026-03-28T13:34:48.999Z</time></trkpt><trkpt lat="41.02623485481945" lon="14.845557450915294"><ele>529.0</ele><time>2026-03-28T13:34:49.999Z</time></trkpt><trkpt lat="41.026201097392786" lon="14.845663122232494"><ele>529.0</ele><time>2026-03-28T13:34:50.999Z</time></trkpt><trkpt lat="41.02616812458526" lon="14.845766051738346"><ele>529.0</ele><time>2026-03-28T13:34:51.999Z</time></trkpt><trkpt lat="41.026134218681214" lon="14.845876842184147"><ele>529.0</ele><time>2026-03-28T13:34:52.999Z</time></trkpt><trkpt lat="41.026110030594275" lon="14.845975870122714"><ele>529.0</ele><time>2026-03-28T13:34:53.999Z</time></trkpt><trkpt lat="41.02608750047026" lon="14.846079742363395"><ele>529.0</ele><time>2026-03-28T13:34:54.999Z</time></trkpt><trkpt lat="41.02608213122657" lon="14.846204622994765"><ele>529.0</ele><time>2026-03-28T13:34:55.999Z</time></trkpt><trkpt lat="41.02609318456754" lon="14.846320915542142"><ele>526.6</ele><time>2026-03-28T13:34:56.999Z</time></trkpt><trkpt lat="41.0261160364708" lon="14.846434686057936"><ele>524.2</ele><time>2026-03-28T13:34:57.999Z</time></trkpt><trkpt lat="41.02614570423218" lon="14.84655327292878"><ele>521.8000000000001</ele><time>2026-03-28T13:34:58.999Z</time></trkpt><trkpt lat="41.02618116085569" lon="14.846662902506594"><ele>519.4</ele><time>2026-03-28T13:34:59.999Z</time></trkpt><trkpt lat="41.0262247264342" lon="14.846781985801162"><ele>517.0</ele><time>2026-03-28T13:35:00.999Z</time></trkpt><trkpt lat="41.026280390429115" lon="14.846903839542914"><ele>515.6</ele><time>2026-03-28T13:35:01.999Z</time></trkpt><trkpt lat="41.0263315753353" lon="14.84703582493894"><ele>514.2</ele><time>2026-03-28T13:35:02.999Z</time></trkpt><trkpt lat="41.02637528099713" lon="14.847168858881979"><ele>512.8</ele><time>2026-03-28T13:35:03.999Z</time></trkpt><trkpt lat="41.02642175931864" lon="14.847299417298146"><ele>511.4</ele><time>2026-03-28T13:35:04.999Z</time></trkpt><trkpt lat="41.02646100896896" lon="14.84742259421907"><ele>510.0</ele><time>2026-03-28T13:35:05.999Z</time></trkpt><trkpt lat="41.026507460918886" lon="14.847533725961398"><ele>509.8333333333333</ele><time>2026-03-28T13:35:06.999Z</time></trkpt><trkpt lat="41.026555625171305" lon="14.84763912213698"><ele>509.66666666666663</ele><time>2026-03-28T13:35:07.999Z</time></trkpt><trkpt lat="41.02660758126282" lon="14.84773443752425"><ele>509.5</ele><time>2026-03-28T13:35:08.999Z</time></trkpt><trkpt lat="41.02665887171367" lon="14.84781607869915"><ele>509.3333333333333</ele><time>2026-03-28T13:35:09.998Z</time></trkpt><trkpt lat="41.02668418706261" lon="14.84790670924113"><ele>509.16666666666663</ele><time>2026-03-28T13:35:10.998Z</time></trkpt><trkpt lat="41.02667118725263" lon="14.848001801742482"><ele>509.0</ele><time>2026-03-28T13:35:11.998Z</time></trkpt><trkpt lat="41.02656372342414" lon="14.848070539157899"><ele>506.99999999999994</ele><time>2026-03-28T13:35:13.998Z</time></trkpt><trkpt lat="41.02650928182255" lon="14.84799320426007"><ele>505.0</ele><time>2026-03-28T13:35:14.998Z</time></trkpt><trkpt lat="41.026458561285764" lon="14.847924864779408"><ele>503.0</ele><time>2026-03-28T13:35:15.998Z</time></trkpt><trkpt lat="41.026399132344814" lon="14.847861892750588"><ele>501.0</ele><time>2026-03-28T13:35:16.998Z</time></trkpt><trkpt lat="41.0263384147481" lon="14.84780790741868"><ele>498.99999999999994</ele><time>2026-03-28T13:35:17.998Z</time></trkpt><trkpt lat="41.02627815785131" lon="14.847766851891814"><ele>497.0</ele><time>2026-03-28T13:35:18.998Z</time></trkpt><trkpt lat="41.026172692435544" lon="14.847688330380377"><ele>496.99999999999994</ele><time>2026-03-28T13:35:20.998Z</time></trkpt><trkpt lat="41.02610494375706" lon="14.847633123495445"><ele>497.0</ele><time>2026-03-28T13:35:22.998Z</time></trkpt><trkpt lat="41.02607121586244" lon="14.847555123103724"><ele>497.0</ele><time>2026-03-28T13:35:24.998Z</time></trkpt><trkpt lat="41.02600892535626" lon="14.84739690707519"><ele>497.0</ele><time>2026-03-28T13:35:26.998Z</time></trkpt><trkpt lat="41.025970511439716" lon="14.847298625094972"><ele>496.99999999999994</ele><time>2026-03-28T13:35:27.998Z</time></trkpt><trkpt lat="41.025932795229416" lon="14.84720697004647"><ele>497.0</ele><time>2026-03-28T13:35:28.998Z</time></trkpt><trkpt lat="41.025894563619126" lon="14.84711401769555"><ele>497.3333333333333</ele><time>2026-03-28T13:35:29.998Z</time></trkpt><trkpt lat="41.025817596703796" lon="14.847004108344485"><ele>497.66666666666663</ele><time>2026-03-28T13:35:31.998Z</time></trkpt><trkpt lat="41.02574780016416" lon="14.846893857140607"><ele>498.0</ele><time>2026-03-28T13:35:33.998Z</time></trkpt><trkpt lat="41.02572754548301" lon="14.846811811107564"><ele>498.33333333333337</ele><time>2026-03-28T13:35:34.998Z</time></trkpt><trkpt lat="41.0257038496989" lon="14.846730905641765"><ele>498.6666666666667</ele><time>2026-03-28T13:35:35.998Z</time></trkpt><trkpt lat="41.02567006917014" lon="14.84661911521814"><ele>499.0</ele><time>2026-03-28T13:35:36.998Z</time></trkpt><trkpt lat="41.02560438474" lon="14.846577028317007"><ele>500.00000000000006</ele><time>2026-03-28T13:35:37.998Z</time></trkpt><trkpt lat="41.025512615869516" lon="14.846579335451478"><ele>501.0</ele><time>2026-03-28T13:35:38.998Z</time></trkpt><trkpt lat="41.025443968846794" lon="14.846568957827078"><ele>502.0</ele><time>2026-03-28T13:35:39.998Z</time></trkpt><trkpt lat="41.025357581279216" lon="14.84655557124059"><ele>503.0</ele><time>2026-03-28T13:35:40.998Z</time></trkpt><trkpt lat="41.025267843602784" lon="14.84653707336165"><ele>504.00000000000006</ele><time>2026-03-28T13:35:41.998Z</time></trkpt><trkpt lat="41.025174346161066" lon="14.846514568292184"><ele>505.0</ele><time>2026-03-28T13:35:42.998Z</time></trkpt><trkpt lat="41.02510839771612" lon="14.846494414294748"><ele>505.0</ele><time>2026-03-28T13:35:43.998Z</time></trkpt><trkpt lat="41.02503974189496" lon="14.84647095548825"><ele>505.0</ele><time>2026-03-28T13:35:44.998Z</time></trkpt><trkpt lat="41.024969990967634" lon="14.846464698375529"><ele>505.0</ele><time>2026-03-28T13:35:45.998Z</time></trkpt><trkpt lat="41.024838923556146" lon="14.84642109111307"><ele>505.0</ele><time>2026-03-28T13:35:47.998Z</time></trkpt><trkpt lat="41.024763905905" lon="14.846373231006375"><ele>505.0</ele><time>2026-03-28T13:35:48.998Z</time></trkpt><trkpt lat="41.024672113845575" lon="14.846408639400758"><ele>505.8</ele><time>2026-03-28T13:35:49.997Z</time></trkpt><trkpt lat="41.02451809594713" lon="14.846417898878174"><ele>506.6</ele><time>2026-03-28T13:35:51.997Z</time></trkpt><trkpt lat="41.02441784386851" lon="14.84643356725308"><ele>507.4</ele><time>2026-03-28T13:35:52.997Z</time></trkpt><trkpt lat="41.0243357173048" lon="14.846481822724956"><ele>508.2</ele><time>2026-03-28T13:35:53.997Z</time></trkpt><trkpt lat="41.02424224047495" lon="14.846533975240748"><ele>509.0</ele><time>2026-03-28T13:35:54.997Z</time></trkpt><trkpt lat="41.02413274178495" lon="14.846558855427642"><ele>508.75</ele><time>2026-03-28T13:35:55.997Z</time></trkpt><trkpt lat="41.024013943243055" lon="14.846644160982724"><ele>508.5</ele><time>2026-03-28T13:35:56.997Z</time></trkpt><trkpt lat="41.0239232973145" lon="14.846708815776354"><ele>508.25</ele><time>2026-03-28T13:35:57.997Z</time></trkpt><trkpt lat="41.023825950244685" lon="14.846759975401875"><ele>508.0</ele><time>2026-03-28T13:35:59Z</time></trkpt><trkpt lat="41.02371914801515" lon="14.846806823535534"><ele>508.0</ele><time>2026-03-28T13:36:00Z</time></trkpt><trkpt lat="41.02360281431863" lon="14.846846668842911"><ele>508.0</ele><time>2026-03-28T13:36:01Z</time></trkpt><trkpt lat="41.02349004145185" lon="14.846837154359772"><ele>508.0</ele><time>2026-03-28T13:36:02Z</time></trkpt><trkpt lat="41.023377238640634" lon="14.846833876198142"><ele>508.0</ele><time>2026-03-28T13:36:03Z</time></trkpt><trkpt lat="41.023265162069194" lon="14.846854448077266"><ele>509.75</ele><time>2026-03-28T13:36:04Z</time></trkpt><trkpt lat="41.02314514288374" lon="14.846914403424211"><ele>511.5</ele><time>2026-03-28T13:36:05Z</time></trkpt><trkpt lat="41.02304099628064" lon="14.846975258090524"><ele>513.25</ele><time>2026-03-28T13:36:06Z</time></trkpt><trkpt lat="41.022939812906905" lon="14.847044343604065"><ele>515.0</ele><time>2026-03-28T13:36:07Z</time></trkpt><trkpt lat="41.02282355348846" lon="14.847112544889887"><ele>515.0</ele><time>2026-03-28T13:36:08Z</time></trkpt><trkpt lat="41.02269948205176" lon="14.847186960775337"><ele>515.0</ele><time>2026-03-28T13:36:09Z</time></trkpt><trkpt lat="41.02257453380153" lon="14.847263771728507"><ele>515.0</ele><time>2026-03-28T13:36:10Z</time></trkpt><trkpt lat="41.022459589511044" lon="14.847348020201915"><ele>515.0</ele><time>2026-03-28T13:36:11Z</time></trkpt><trkpt lat="41.02234173894987" lon="14.84743189349377"><ele>516.5</ele><time>2026-03-28T13:36:12Z</time></trkpt><trkpt lat="41.02224283679199" lon="14.84750612651452"><ele>518.0</ele><time>2026-03-28T13:36:13Z</time></trkpt><trkpt lat="41.02213365291964" lon="14.847595702839376"><ele>519.5</ele><time>2026-03-28T13:36:14Z</time></trkpt><trkpt lat="41.0220411763392" lon="14.847715632357152"><ele>521.0</ele><time>2026-03-28T13:36:15Z</time></trkpt><trkpt lat="41.02197181702804" lon="14.847863981173168"><ele>521.0</ele><time>2026-03-28T13:36:16Z</time></trkpt><trkpt lat="41.02191581435307" lon="14.84802262019934"><ele>521.0</ele><time>2026-03-28T13:36:17Z</time></trkpt><trkpt lat="41.02184839826203" lon="14.848172410943558"><ele>521.0</ele><time>2026-03-28T13:36:18Z</time></trkpt><trkpt lat="41.02177079918926" lon="14.84831708957024"><ele>521.0</ele><time>2026-03-28T13:36:19Z</time></trkpt><trkpt lat="41.02168199582111" lon="14.84842369000757"><ele>519.5</ele><time>2026-03-28T13:36:20Z</time></trkpt><trkpt lat="41.021552302568544" lon="14.84851389066448"><ele>518.0</ele><time>2026-03-28T13:36:21Z</time></trkpt><trkpt lat="41.02141805361718" lon="14.848581922007149"><ele>516.5</ele><time>2026-03-28T13:36:22Z</time></trkpt><trkpt lat="41.02127899892626" lon="14.848668954286529"><ele>515.0</ele><time>2026-03-28T13:36:23Z</time></trkpt><trkpt lat="41.02115725302365" lon="14.848728951260192"><ele>515.0</ele><time>2026-03-28T13:36:24Z</time></trkpt><trkpt lat="41.02103498335641" lon="14.848785598065982"><ele>515.0</ele><time>2026-03-28T13:36:25Z</time></trkpt><trkpt lat="41.020925318859234" lon="14.848838731788945"><ele>515.0</ele><time>2026-03-28T13:36:26Z</time></trkpt><trkpt lat="41.02081377341931" lon="14.848874863248792"><ele>515.0</ele><time>2026-03-28T13:36:27Z</time></trkpt><trkpt lat="41.02070305627191" lon="14.848865053876171"><ele>513.6</ele><time>2026-03-28T13:36:28Z</time></trkpt><trkpt lat="41.02061356028131" lon="14.848808913457498"><ele>512.2</ele><time>2026-03-28T13:36:29Z</time></trkpt><trkpt lat="41.02054857320293" lon="14.84871577224198"><ele>510.79999999999995</ele><time>2026-03-28T13:36:30Z</time></trkpt><trkpt lat="41.02050702318129" lon="14.848616992763079"><ele>509.4</ele><time>2026-03-28T13:36:31Z</time></trkpt><trkpt lat="41.02045813921313" lon="14.84849116621288"><ele>508.0</ele><time>2026-03-28T13:36:32Z</time></trkpt><trkpt lat="41.020418608143686" lon="14.848354082530758"><ele>508.0</ele><time>2026-03-28T13:36:33Z</time></trkpt><trkpt lat="41.0203814932614" lon="14.84821446248163"><ele>508.0</ele><time>2026-03-28T13:36:34Z</time></trkpt><trkpt lat="41.020338816610646" lon="14.848075252353972"><ele>508.0</ele><time>2026-03-28T13:36:35Z</time></trkpt><trkpt lat="41.02029384144061" lon="14.847932251095914"><ele>508.0</ele><time>2026-03-28T13:36:35.999Z</time></trkpt><trkpt lat="41.02024542440437" lon="14.847785382929159"><ele>508.0</ele><time>2026-03-28T13:36:36.999Z</time></trkpt><trkpt lat="41.020195575356716" lon="14.847635196998253"><ele>508.0</ele><time>2026-03-28T13:36:37.999Z</time></trkpt><trkpt lat="41.020148541041316" lon="14.847481416894269"><ele>508.0</ele><time>2026-03-28T13:36:38.999Z</time></trkpt><trkpt lat="41.020121251802934" lon="14.847324143581217"><ele>508.0</ele><time>2026-03-28T13:36:39.999Z</time></trkpt><trkpt lat="41.02010292484838" lon="14.847143285439703"><ele>510.5</ele><time>2026-03-28T13:36:40.999Z</time></trkpt><trkpt lat="41.020094029719935" lon="14.846966084332811"><ele>513.0</ele><time>2026-03-28T13:36:41.999Z</time></trkpt><trkpt lat="41.02007223614188" lon="14.846804900620388"><ele>515.5</ele><time>2026-03-28T13:36:42.999Z</time></trkpt><trkpt lat="41.02002156222913" lon="14.846676900414048"><ele>518.0</ele><time>2026-03-28T13:36:43.999Z</time></trkpt><trkpt lat="41.01991127998481" lon="14.846511380022953"><ele>511.3333333333333</ele><time>2026-03-28T13:36:44.999Z</time></trkpt><trkpt lat="41.01980894073137" lon="14.846372940996911"><ele>504.66666666666663</ele><time>2026-03-28T13:36:45.999Z</time></trkpt><trkpt lat="41.01973022180596" lon="14.84621019179702"><ele>498.0</ele><time>2026-03-28T13:36:46.999Z</time></trkpt><trkpt lat="41.01965865653704" lon="14.84601777020161"><ele>502.66666666666663</ele><time>2026-03-28T13:36:47.999Z</time></trkpt><trkpt lat="41.01959385717105" lon="14.845813180817945"><ele>507.3333333333333</ele><time>2026-03-28T13:36:48.999Z</time></trkpt><trkpt lat="41.01952115463922" lon="14.845645820753527"><ele>512.0</ele><time>2026-03-28T13:36:49.999Z</time></trkpt><trkpt lat="41.019425224843566" lon="14.845503550919881"><ele>512.0</ele><time>2026-03-28T13:36:50.999Z</time></trkpt><trkpt lat="41.019301576321055" lon="14.845377158213307"><ele>512.0</ele><time>2026-03-28T13:36:51.999Z</time></trkpt><trkpt lat="41.019163000400724" lon="14.845271748240032"><ele>512.0</ele><time>2026-03-28T13:36:52.999Z</time></trkpt><trkpt lat="41.01902682686531" lon="14.845166241692333"><ele>511.75</ele><time>2026-03-28T13:36:53.999Z</time></trkpt><trkpt lat="41.01890865937853" lon="14.845059507042981"><ele>511.5</ele><time>2026-03-28T13:36:54.999Z</time></trkpt><trkpt lat="41.018786595109" lon="14.844950232111586"><ele>511.25</ele><time>2026-03-28T13:36:55.999Z</time></trkpt><trkpt lat="41.01868050727278" lon="14.844851837587226"><ele>511.0</ele><time>2026-03-28T13:36:56.999Z</time></trkpt><trkpt lat="41.01859038393825" lon="14.844731210672103"><ele>511.0</ele><time>2026-03-28T13:36:57.999Z</time></trkpt><trkpt lat="41.01851442600653" lon="14.844568570639577"><ele>511.0</ele><time>2026-03-28T13:36:58.999Z</time></trkpt><trkpt lat="41.01844832679656" lon="14.844384589229241"><ele>511.0</ele><time>2026-03-28T13:36:59.999Z</time></trkpt><trkpt lat="41.01838275828613" lon="14.844239298161886"><ele>511.0</ele><time>2026-03-28T13:37:00.999Z</time></trkpt><trkpt lat="41.01828392158984" lon="14.844106762002342"><ele>510.6666666666667</ele><time>2026-03-28T13:37:01.999Z</time></trkpt><trkpt lat="41.01815926821002" lon="14.84402170520953"><ele>510.33333333333337</ele><time>2026-03-28T13:37:02.999Z</time></trkpt><trkpt lat="41.01801512495936" lon="14.843970846726862"><ele>510.0</ele><time>2026-03-28T13:37:03.999Z</time></trkpt><trkpt lat="41.01785305243201" lon="14.843951779086005"><ele>510.0</ele><time>2026-03-28T13:37:04.999Z</time></trkpt><trkpt lat="41.01767697831012" lon="14.843941487731954"><ele>510.0</ele><time>2026-03-28T13:37:05.999Z</time></trkpt><trkpt lat="41.01748672455938" lon="14.84392297610509"><ele>510.0</ele><time>2026-03-28T13:37:06.999Z</time></trkpt><trkpt lat="41.01726957973421" lon="14.843902017032008"><ele>510.0</ele><time>2026-03-28T13:37:07.999Z</time></trkpt><trkpt lat="41.017098764630305" lon="14.843905997129085"><ele>510.0</ele><time>2026-03-28T13:37:08.999Z</time></trkpt><trkpt lat="41.01694112875668" lon="14.843912188768751"><ele>510.0</ele><time>2026-03-28T13:37:09.999Z</time></trkpt><trkpt lat="41.0167860941502" lon="14.843937733320576"><ele>510.0</ele><time>2026-03-28T13:37:10.999Z</time></trkpt><trkpt lat="41.016652406018935" lon="14.844007620193079"><ele>510.0</ele><time>2026-03-28T13:37:11.999Z</time></trkpt><trkpt lat="41.016539529526206" lon="14.844069941436645"><ele>510.0</ele><time>2026-03-28T13:37:12.999Z</time></trkpt><trkpt lat="41.016436106200466" lon="14.844142332515794"><ele>510.0</ele><time>2026-03-28T13:37:13.999Z</time></trkpt><trkpt lat="41.01634427627432" lon="14.844204690902297"><ele>510.0</ele><time>2026-03-28T13:37:14.999Z</time></trkpt><trkpt lat="41.016269076347676" lon="14.844253962469892"><ele>510.0</ele><time>2026-03-28T13:37:15.998Z</time></trkpt><trkpt lat="41.01619605427169" lon="14.84428610949893"><ele>510.0</ele><time>2026-03-28T13:37:16.998Z</time></trkpt><trkpt lat="41.01612502377584" lon="14.844304587347228"><ele>510.0</ele><time>2026-03-28T13:37:17.998Z</time></trkpt><trkpt lat="41.01605217638719" lon="14.84431908183999"><ele>510.0</ele><time>2026-03-28T13:37:18.998Z</time></trkpt><trkpt lat="41.01596519624853" lon="14.844320707359751"><ele>510.0</ele><time>2026-03-28T13:37:19.998Z</time></trkpt><trkpt lat="41.01587263369411" lon="14.84431084591477"><ele>507.5</ele><time>2026-03-28T13:37:20.998Z</time></trkpt><trkpt lat="41.01577476142049" lon="14.844285066024932"><ele>505.0</ele><time>2026-03-28T13:37:21.998Z</time></trkpt><trkpt lat="41.01567389573271" lon="14.844234523436313"><ele>502.5</ele><time>2026-03-28T13:37:22.998Z</time></trkpt><trkpt lat="41.015545225176794" lon="14.844159749541852"><ele>500.0</ele><time>2026-03-28T13:37:23.998Z</time></trkpt><trkpt lat="41.0154050483191" lon="14.844070001295744"><ele>500.0</ele><time>2026-03-28T13:37:24.998Z</time></trkpt><trkpt lat="41.01524345194033" lon="14.843980436126294"><ele>500.0</ele><time>2026-03-28T13:37:25.998Z</time></trkpt><trkpt lat="41.01509236277616" lon="14.843861951640928"><ele>500.0</ele><time>2026-03-28T13:37:26.998Z</time></trkpt><trkpt lat="41.014924540745334" lon="14.843751638179343"><ele>499.3333333333333</ele><time>2026-03-28T13:37:27.998Z</time></trkpt><trkpt lat="41.01476557765992" lon="14.843653651276082"><ele>498.66666666666663</ele><time>2026-03-28T13:37:28.998Z</time></trkpt><trkpt lat="41.01462099804234" lon="14.843549251984733"><ele>498.0</ele><time>2026-03-28T13:37:29.998Z</time></trkpt><trkpt lat="41.01448653109868" lon="14.843448114237253"><ele>498.0</ele><time>2026-03-28T13:37:30.998Z</time></trkpt><trkpt lat="41.01435496466218" lon="14.843358436821516"><ele>498.0</ele><time>2026-03-28T13:37:31.998Z</time></trkpt><trkpt lat="41.014222532988924" lon="14.843291850389502"><ele>498.0</ele><time>2026-03-28T13:37:32.998Z</time></trkpt><trkpt lat="41.01408591735424" lon="14.843271856723598"><ele>498.0</ele><time>2026-03-28T13:37:33.998Z</time></trkpt><trkpt lat="41.01392884534082" lon="14.843314814971635"><ele>496.66666666666663</ele><time>2026-03-28T13:37:34.998Z</time></trkpt><trkpt lat="41.01379034217987" lon="14.843429701084693"><ele>495.3333333333333</ele><time>2026-03-28T13:37:35.998Z</time></trkpt><trkpt lat="41.01363191295404" lon="14.84353424152011"><ele>494.0</ele><time>2026-03-28T13:37:36.998Z</time></trkpt><trkpt lat="41.013490876921736" lon="14.843615769792597"><ele>491.0</ele><time>2026-03-28T13:37:37.998Z</time></trkpt><trkpt lat="41.01333806262758" lon="14.843676965344605"><ele>488.0</ele><time>2026-03-28T13:37:38.998Z</time></trkpt><trkpt lat="41.01319085346414" lon="14.843741662496273"><ele>485.0</ele><time>2026-03-28T13:37:39.998Z</time></trkpt><trkpt lat="41.013056767398794" lon="14.843817839765848"><ele>485.0</ele><time>2026-03-28T13:37:40.998Z</time></trkpt><trkpt lat="41.01292301623663" lon="14.843944631091007"><ele>485.0</ele><time>2026-03-28T13:37:41.998Z</time></trkpt><trkpt lat="41.01282539251401" lon="14.844118367097794"><ele>485.0</ele><time>2026-03-28T13:37:42.998Z</time></trkpt><trkpt lat="41.01275250697207" lon="14.844268527024493"><ele>483.0</ele><time>2026-03-28T13:37:43.998Z</time></trkpt><trkpt lat="41.012678719047045" lon="14.844393603842528"><ele>481.0</ele><time>2026-03-28T13:37:44.998Z</time></trkpt><trkpt lat="41.01260925891888" lon="14.844494103821757"><ele>479.0</ele><time>2026-03-28T13:37:45.998Z</time></trkpt><trkpt lat="41.01251257884355" lon="14.844560801226097"><ele>477.0</ele><time>2026-03-28T13:37:46.998Z</time></trkpt><trkpt lat="41.012387319488056" lon="14.844634881473006"><ele>477.0</ele><time>2026-03-28T13:37:47.998Z</time></trkpt><trkpt lat="41.01228058068068" lon="14.844716095149142"><ele>477.0</ele><time>2026-03-28T13:37:48.998Z</time></trkpt><trkpt lat="41.012160013622946" lon="14.844860361453055"><ele>477.0</ele><time>2026-03-28T13:37:49.998Z</time></trkpt><trkpt lat="41.01207130200717" lon="14.845031598153335"><ele>477.0</ele><time>2026-03-28T13:37:50.998Z</time></trkpt><trkpt lat="41.01199089256392" lon="14.845149873619134"><ele>473.0</ele><time>2026-03-28T13:37:51.998Z</time></trkpt><trkpt lat="41.01188425707098" lon="14.845287699168964"><ele>469.0</ele><time>2026-03-28T13:37:52.998Z</time></trkpt><trkpt lat="41.01175812047126" lon="14.84540346531013"><ele>465.0</ele><time>2026-03-28T13:37:53.998Z</time></trkpt><trkpt lat="41.01161694262783" lon="14.845527312677449"><ele>465.0</ele><time>2026-03-28T13:37:54.997Z</time></trkpt><trkpt lat="41.01146115922874" lon="14.845640941384184"><ele>465.0</ele><time>2026-03-28T13:37:55.997Z</time></trkpt><trkpt lat="41.01129276749567" lon="14.845741206366101"><ele>465.0</ele><time>2026-03-28T13:37:56.997Z</time></trkpt><trkpt lat="41.01112380395199" lon="14.845843455894965"><ele>461.0</ele><time>2026-03-28T13:37:57.997Z</time></trkpt><trkpt lat="41.010981754593445" lon="14.845974318000248"><ele>457.0</ele><time>2026-03-28T13:37:58.997Z</time></trkpt><trkpt lat="41.01084838328411" lon="14.846101741256215"><ele>453.0</ele><time>2026-03-28T13:37:59.997Z</time></trkpt><trkpt lat="41.01073736524404" lon="14.846206273621187"><ele>452.66666666666663</ele><time>2026-03-28T13:38:00.997Z</time></trkpt><trkpt lat="41.010617919826906" lon="14.846297714301445"><ele>452.3333333333333</ele><time>2026-03-28T13:38:01.997Z</time></trkpt><trkpt lat="41.0104816248182" lon="14.84635058495091"><ele>452.0</ele><time>2026-03-28T13:38:02.997Z</time></trkpt><trkpt lat="41.010308990047236" lon="14.846412168507154"><ele>452.0</ele><time>2026-03-28T13:38:03.997Z</time></trkpt><trkpt lat="41.01012886613722" lon="14.84644070471835"><ele>452.0</ele><time>2026-03-28T13:38:05Z</time></trkpt><trkpt lat="41.009975426861175" lon="14.84647908800039"><ele>452.0</ele><time>2026-03-28T13:38:06Z</time></trkpt><trkpt lat="41.009831130543965" lon="14.8465568786179"><ele>452.0</ele><time>2026-03-28T13:38:07Z</time></trkpt><trkpt lat="41.00968397106934" lon="14.846657626025403"><ele>452.0</ele><time>2026-03-28T13:38:08Z</time></trkpt><trkpt lat="41.00954324196622" lon="14.846780132211503"><ele>452.0</ele><time>2026-03-28T13:38:09Z</time></trkpt><trkpt lat="41.00940569666371" lon="14.846864864765172"><ele>448.25</ele><time>2026-03-28T13:38:10Z</time></trkpt><trkpt lat="41.00927191804048" lon="14.846944107858352"><ele>444.5</ele><time>2026-03-28T13:38:11Z</time></trkpt><trkpt lat="41.00913829649422" lon="14.847003379794419"><ele>440.75</ele><time>2026-03-28T13:38:12Z</time></trkpt><trkpt lat="41.009008254306075" lon="14.847050189545062"><ele>437.0</ele><time>2026-03-28T13:38:13Z</time></trkpt><trkpt lat="41.00887003897411" lon="14.8470386769488"><ele>435.66666666666663</ele><time>2026-03-28T13:38:14Z</time></trkpt><trkpt lat="41.00870871346288" lon="14.847029552087916"><ele>434.33333333333337</ele><time>2026-03-28T13:38:15Z</time></trkpt><trkpt lat="41.008549094718965" lon="14.847027334911013"><ele>433.0</ele><time>2026-03-28T13:38:16Z</time></trkpt><trkpt lat="41.00839154489786" lon="14.847012529261118"><ele>431.0</ele><time>2026-03-28T13:38:17Z</time></trkpt><trkpt lat="41.00825382261719" lon="14.847016803831247"><ele>429.0</ele><time>2026-03-28T13:38:18Z</time></trkpt><trkpt lat="41.00812062402335" lon="14.846987374929002"><ele>427.0</ele><time>2026-03-28T13:38:19Z</time></trkpt><trkpt lat="41.00799046389424" lon="14.84693664553006"><ele>425.0</ele><time>2026-03-28T13:38:20Z</time></trkpt><trkpt lat="41.00785714024066" lon="14.846871998053707"><ele>425.0</ele><time>2026-03-28T13:38:21Z</time></trkpt><trkpt lat="41.007719320619145" lon="14.846809591386402"><ele>425.0</ele><time>2026-03-28T13:38:22Z</time></trkpt><trkpt lat="41.00759575949684" lon="14.8467567212046"><ele>425.0</ele><time>2026-03-28T13:38:23Z</time></trkpt><trkpt lat="41.00749597688091" lon="14.846719724981307"><ele>425.0</ele><time>2026-03-28T13:38:24Z</time></trkpt><trkpt lat="41.00740980477536" lon="14.84666610551453"><ele>425.0</ele><time>2026-03-28T13:38:26Z</time></trkpt><trkpt lat="41.0073242605651" lon="14.846453027730373"><ele>425.0</ele><time>2026-03-28T13:38:28Z</time></trkpt><trkpt lat="41.007253870079495" lon="14.846329989741974"><ele>425.0</ele><time>2026-03-28T13:38:29Z</time></trkpt><trkpt lat="41.00720057930765" lon="14.846212368077461"><ele>425.0</ele><time>2026-03-28T13:38:30Z</time></trkpt><trkpt lat="41.007175326383816" lon="14.846078273474806"><ele>426.6</ele><time>2026-03-28T13:38:31Z</time></trkpt><trkpt lat="41.00715931476421" lon="14.845939395763645"><ele>428.2</ele><time>2026-03-28T13:38:32Z</time></trkpt><trkpt lat="41.007145724036484" lon="14.84580465045159"><ele>429.79999999999995</ele><time>2026-03-28T13:38:33Z</time></trkpt><trkpt lat="41.007140015617026" lon="14.845678040925257"><ele>431.4</ele><time>2026-03-28T13:38:34Z</time></trkpt><trkpt lat="41.00715460968478" lon="14.845558586773436"><ele>433.0</ele><time>2026-03-28T13:38:35Z</time></trkpt><trkpt lat="41.00715737555245" lon="14.845448395993627"><ele>433.0</ele><time>2026-03-28T13:38:36Z</time></trkpt><trkpt lat="41.007164545416494" lon="14.845308416230857"><ele>432.99999999999994</ele><time>2026-03-28T13:38:37Z</time></trkpt><trkpt lat="41.007139141570015" lon="14.84519307216334"><ele>432.99999999999994</ele><time>2026-03-28T13:38:37.999Z</time></trkpt><trkpt lat="41.00709622644128" lon="14.845048526334693"><ele>433.0</ele><time>2026-03-28T13:38:38.999Z</time></trkpt><trkpt lat="41.00707551863" lon="14.844904685159205"><ele>433.0</ele><time>2026-03-28T13:38:39.999Z</time></trkpt><trkpt lat="41.00707542125584" lon="14.844776189337018"><ele>435.0</ele><time>2026-03-28T13:38:40.999Z</time></trkpt><trkpt lat="41.00706125127029" lon="14.844642114278074"><ele>436.99999999999994</ele><time>2026-03-28T13:38:41.999Z</time></trkpt><trkpt lat="41.007046330397635" lon="14.84451080893275"><ele>438.99999999999994</ele><time>2026-03-28T13:38:42.999Z</time></trkpt><trkpt lat="41.00703826560833" lon="14.844398776933641"><ele>441.0</ele><time>2026-03-28T13:38:43.999Z</time></trkpt><trkpt lat="41.00703389185197" lon="14.844274573439481"><ele>443.0</ele><time>2026-03-28T13:38:44.999Z</time></trkpt><trkpt lat="41.007049508360865" lon="14.844169618948996"><ele>443.79999999999995</ele><time>2026-03-28T13:38:45.999Z</time></trkpt><trkpt lat="41.007080218276876" lon="14.84405036882432"><ele>444.59999999999997</ele><time>2026-03-28T13:38:46.999Z</time></trkpt><trkpt lat="41.00711755926221" lon="14.84393961071398"><ele>445.40000000000003</ele><time>2026-03-28T13:38:47.999Z</time></trkpt><trkpt lat="41.00716041308307" lon="14.843809024347127"><ele>446.20000000000005</ele><time>2026-03-28T13:38:48.999Z</time></trkpt><trkpt lat="41.007212005462186" lon="14.843671015574106"><ele>447.0</ele><time>2026-03-28T13:38:49.999Z</time></trkpt><trkpt lat="41.00727285191527" lon="14.843521444639125"><ele>445.75</ele><time>2026-03-28T13:38:50.999Z</time></trkpt><trkpt lat="41.007339117162964" lon="14.843369101460146"><ele>444.5</ele><time>2026-03-28T13:38:51.999Z</time></trkpt><trkpt lat="41.00739814874392" lon="14.843204594418298"><ele>443.25</ele><time>2026-03-28T13:38:52.999Z</time></trkpt><trkpt lat="41.00744435159034" lon="14.84305020001277"><ele>442.0</ele><time>2026-03-28T13:38:53.999Z</time></trkpt><trkpt lat="41.00748245028451" lon="14.842894623011347"><ele>443.5</ele><time>2026-03-28T13:38:54.999Z</time></trkpt><trkpt lat="41.007502688098356" lon="14.842717567521385"><ele>445.0</ele><time>2026-03-28T13:38:55.999Z</time></trkpt><trkpt lat="41.007522532151654" lon="14.842548661814384"><ele>446.5</ele><time>2026-03-28T13:38:56.999Z</time></trkpt><trkpt lat="41.00754818291329" lon="14.842384097111863"><ele>448.0</ele><time>2026-03-28T13:38:57.999Z</time></trkpt><trkpt lat="41.00756714756877" lon="14.842213432331897"><ele>445.0</ele><time>2026-03-28T13:38:58.999Z</time></trkpt><trkpt lat="41.007567881863565" lon="14.842029429636089"><ele>442.0</ele><time>2026-03-28T13:38:59.999Z</time></trkpt><trkpt lat="41.0075476884873" lon="14.841854105431166"><ele>439.0</ele><time>2026-03-28T13:39:00.999Z</time></trkpt><trkpt lat="41.00753008908337" lon="14.841685553379444"><ele>436.0</ele><time>2026-03-28T13:39:01.999Z</time></trkpt><trkpt lat="41.00753463898685" lon="14.8415324530806"><ele>434.20000000000005</ele><time>2026-03-28T13:39:02.999Z</time></trkpt><trkpt lat="41.00756859400892" lon="14.841390712208534"><ele>432.40000000000003</ele><time>2026-03-28T13:39:03.999Z</time></trkpt><trkpt lat="41.00763150203124" lon="14.841260323942148"><ele>430.6</ele><time>2026-03-28T13:39:04.999Z</time></trkpt><trkpt lat="41.00771642852081" lon="14.841157674666412"><ele>428.8</ele><time>2026-03-28T13:39:05.999Z</time></trkpt><trkpt lat="41.00778751532002" lon="14.841071856662964"><ele>427.0</ele><time>2026-03-28T13:39:06.999Z</time></trkpt><trkpt lat="41.00781646903093" lon="14.840966575577664"><ele>423.75</ele><time>2026-03-28T13:39:07.999Z</time></trkpt><trkpt lat="41.0078163271394" lon="14.840835570607542"><ele>420.5</ele><time>2026-03-28T13:39:08.999Z</time></trkpt><trkpt lat="41.0077908486809" lon="14.84066768499811"><ele>417.25</ele><time>2026-03-28T13:39:09.999Z</time></trkpt><trkpt lat="41.00778671670025" lon="14.840527321780925"><ele>414.0</ele><time>2026-03-28T13:39:10.999Z</time></trkpt><trkpt lat="41.007817754789706" lon="14.84037878589926"><ele>414.0</ele><time>2026-03-28T13:39:11.999Z</time></trkpt><trkpt lat="41.00788935493991" lon="14.840197185506973"><ele>414.0</ele><time>2026-03-28T13:39:12.999Z</time></trkpt><trkpt lat="41.00797602424121" lon="14.839999280552712"><ele>414.0</ele><time>2026-03-28T13:39:13.999Z</time></trkpt><trkpt lat="41.00804770543973" lon="14.839844753494713"><ele>411.5</ele><time>2026-03-28T13:39:14.999Z</time></trkpt><trkpt lat="41.008119988244324" lon="14.839721682028175"><ele>409.0</ele><time>2026-03-28T13:39:15.999Z</time></trkpt><trkpt lat="41.00819432891572" lon="14.839599140514185"><ele>406.5</ele><time>2026-03-28T13:39:16.998Z</time></trkpt><trkpt lat="41.00827262866611" lon="14.839437787702995"><ele>404.0</ele><time>2026-03-28T13:39:17.998Z</time></trkpt><trkpt lat="41.00831960569281" lon="14.839273280060493"><ele>404.25</ele><time>2026-03-28T13:39:18.998Z</time></trkpt><trkpt lat="41.00833776062765" lon="14.839142227780695"><ele>404.5</ele><time>2026-03-28T13:39:19.998Z</time></trkpt><trkpt lat="41.0083626199074" lon="14.838955841209016"><ele>404.75</ele><time>2026-03-28T13:39:20.998Z</time></trkpt><trkpt lat="41.00836369263348" lon="14.838735845800855"><ele>405.0</ele><time>2026-03-28T13:39:21.998Z</time></trkpt><trkpt lat="41.008360064586554" lon="14.838558335954517"><ele>402.25</ele><time>2026-03-28T13:39:22.998Z</time></trkpt><trkpt lat="41.00834379393519" lon="14.838374612234595"><ele>399.5</ele><time>2026-03-28T13:39:23.998Z</time></trkpt><trkpt lat="41.00834352651029" lon="14.83820377807444"><ele>396.75</ele><time>2026-03-28T13:39:24.998Z</time></trkpt><trkpt lat="41.008375755634795" lon="14.838009662593198"><ele>394.0</ele><time>2026-03-28T13:39:25.998Z</time></trkpt><trkpt lat="41.008400413306056" lon="14.837805991987503"><ele>392.25</ele><time>2026-03-28T13:39:26.998Z</time></trkpt><trkpt lat="41.00841673897622" lon="14.83761901122945"><ele>390.5</ele><time>2026-03-28T13:39:27.998Z</time></trkpt><trkpt lat="41.0084117146747" lon="14.837429203900633"><ele>388.75</ele><time>2026-03-28T13:39:28.998Z</time></trkpt><trkpt lat="41.00839943543481" lon="14.8372529324581"><ele>387.0</ele><time>2026-03-28T13:39:29.998Z</time></trkpt><trkpt lat="41.00839647877951" lon="14.837081953867038"><ele>387.0</ele><time>2026-03-28T13:39:30.998Z</time></trkpt><trkpt lat="41.0084083256283" lon="14.83692379927258"><ele>387.0</ele><time>2026-03-28T13:39:31.998Z</time></trkpt><trkpt lat="41.00844670570195" lon="14.83677299892387"><ele>387.0</ele><time>2026-03-28T13:39:32.998Z</time></trkpt><trkpt lat="41.0084956989294" lon="14.836632339881858"><ele>387.0</ele><time>2026-03-28T13:39:33.998Z</time></trkpt><trkpt lat="41.00849568718942" lon="14.836523556803565"><ele>387.0</ele><time>2026-03-28T13:39:34.998Z</time></trkpt><trkpt lat="41.00846484122779" lon="14.836404389310708"><ele>385.8</ele><time>2026-03-28T13:39:35.998Z</time></trkpt><trkpt lat="41.008411526898264" lon="14.83629195881029"><ele>384.6</ele><time>2026-03-28T13:39:36.998Z</time></trkpt><trkpt lat="41.008358073048115" lon="14.836176457943623"><ele>383.40000000000003</ele><time>2026-03-28T13:39:37.998Z</time></trkpt><trkpt lat="41.0082910887938" lon="14.836072891309598"><ele>382.20000000000005</ele><time>2026-03-28T13:39:38.998Z</time></trkpt><trkpt lat="41.008247038285376" lon="14.835986880752856"><ele>381.0</ele><time>2026-03-28T13:39:39.998Z</time></trkpt><trkpt lat="41.008254840017784" lon="14.835845989254654"><ele>378.0</ele><time>2026-03-28T13:39:40.998Z</time></trkpt><trkpt lat="41.008294420358084" lon="14.835683618145481"><ele>375.0</ele><time>2026-03-28T13:39:41.998Z</time></trkpt><trkpt lat="41.00835031079283" lon="14.835512494014626"><ele>372.0</ele><time>2026-03-28T13:39:42.998Z</time></trkpt><trkpt lat="41.008431619706826" lon="14.835334311493751"><ele>369.0</ele><time>2026-03-28T13:39:43.998Z</time></trkpt><trkpt lat="41.008542164010386" lon="14.835155902151387"><ele>365.3333333333333</ele><time>2026-03-28T13:39:44.998Z</time></trkpt><trkpt lat="41.00865585655634" lon="14.834978327471429"><ele>361.66666666666663</ele><time>2026-03-28T13:39:45.998Z</time></trkpt><trkpt lat="41.00873963665596" lon="14.834813920813675"><ele>358.0</ele><time>2026-03-28T13:39:46.998Z</time></trkpt><trkpt lat="41.008813481810186" lon="14.834654459912828"><ele>358.0</ele><time>2026-03-28T13:39:47.998Z</time></trkpt><trkpt lat="41.00889719514091" lon="14.834487759350806"><ele>358.0</ele><time>2026-03-28T13:39:48.998Z</time></trkpt><trkpt lat="41.00898926066647" lon="14.834319216314547"><ele>358.0</ele><time>2026-03-28T13:39:49.998Z</time></trkpt><trkpt lat="41.00907450346128" lon="14.834174258753311"><ele>358.0</ele><time>2026-03-28T13:39:50.998Z</time></trkpt><trkpt lat="41.00915553138269" lon="14.834034318628884"><ele>357.66666666666663</ele><time>2026-03-28T13:39:51.998Z</time></trkpt><trkpt lat="41.009225656092305" lon="14.833866681798959"><ele>357.3333333333333</ele><time>2026-03-28T13:39:52.998Z</time></trkpt><trkpt lat="41.00927426345596" lon="14.833667353776303"><ele>357.0</ele><time>2026-03-28T13:39:53.998Z</time></trkpt><trkpt lat="41.00930788759877" lon="14.83347443009498"><ele>353.75</ele><time>2026-03-28T13:39:54.998Z</time></trkpt><trkpt lat="41.00935406098136" lon="14.833291771177755"><ele>350.5</ele><time>2026-03-28T13:39:55.997Z</time></trkpt><trkpt lat="41.009388120538155" lon="14.83311946519316"><ele>347.25</ele><time>2026-03-28T13:39:56.997Z</time></trkpt><trkpt lat="41.009391736219904" lon="14.832978070633002"><ele>344.0</ele><time>2026-03-28T13:39:57.997Z</time></trkpt><trkpt lat="41.00940302949828" lon="14.832829518781779"><ele>344.0</ele><time>2026-03-28T13:39:58.997Z</time></trkpt><trkpt lat="41.009424916546486" lon="14.83269524945301"><ele>344.0</ele><time>2026-03-28T13:39:59.997Z</time></trkpt><trkpt lat="41.00947129880005" lon="14.83258223253818"><ele>344.0</ele><time>2026-03-28T13:40:00.997Z</time></trkpt><trkpt lat="41.00953988493473" lon="14.832482815344488"><ele>344.0</ele><time>2026-03-28T13:40:01.997Z</time></trkpt><trkpt lat="41.00963369005117" lon="14.832426437124179"><ele>344.0</ele><time>2026-03-28T13:40:02.997Z</time></trkpt><trkpt lat="41.00975318009109" lon="14.832383333989954"><ele>340.4</ele><time>2026-03-28T13:40:03.997Z</time></trkpt><trkpt lat="41.009867093301736" lon="14.83236779921779"><ele>336.79999999999995</ele><time>2026-03-28T13:40:04.997Z</time></trkpt><trkpt lat="41.00996331852622" lon="14.83236374890549"><ele>333.20000000000005</ele><time>2026-03-28T13:40:05.997Z</time></trkpt><trkpt lat="41.010050653102475" lon="14.832362423652926"><ele>329.6</ele><time>2026-03-28T13:40:06.997Z</time></trkpt><trkpt lat="41.01014359512513" lon="14.832290314611626"><ele>326.0</ele><time>2026-03-28T13:40:07.997Z</time></trkpt><trkpt lat="41.01021995250136" lon="14.832204644121726"><ele>326.0</ele><time>2026-03-28T13:40:08.997Z</time></trkpt><trkpt lat="41.01028744132795" lon="14.832116749184749"><ele>326.0</ele><time>2026-03-28T13:40:09.997Z</time></trkpt><trkpt lat="41.010325719945044" lon="14.832038215338429"><ele>326.0</ele><time>2026-03-28T13:40:11Z</time></trkpt><trkpt lat="41.010376026142765" lon="14.831911004365551"><ele>326.0</ele><time>2026-03-28T13:40:13Z</time></trkpt><trkpt lat="41.01037682487224" lon="14.831813260877084"><ele>326.0</ele><time>2026-03-28T13:40:23Z</time></trkpt><trkpt lat="41.01033978629221" lon="14.831606312857172"><ele>322.5</ele><time>2026-03-28T13:40:25Z</time></trkpt><trkpt lat="41.01029744923387" lon="14.831440630354738"><ele>319.0</ele><time>2026-03-28T13:40:26Z</time></trkpt><trkpt lat="41.01024683814178" lon="14.831301607314593"><ele>315.5</ele><time>2026-03-28T13:40:27Z</time></trkpt><trkpt lat="41.01019130792906" lon="14.831172182574022"><ele>312.0</ele><time>2026-03-28T13:40:28Z</time></trkpt><trkpt lat="41.01012190546248" lon="14.83099122153575"><ele>312.8</ele><time>2026-03-28T13:40:29Z</time></trkpt><trkpt lat="41.01007775358297" lon="14.830820227814806"><ele>313.6</ele><time>2026-03-28T13:40:30Z</time></trkpt><trkpt lat="41.01005845838419" lon="14.830699169764873"><ele>314.40000000000003</ele><time>2026-03-28T13:40:31Z</time></trkpt><trkpt lat="41.01004165625114" lon="14.830604669700035"><ele>315.2</ele><time>2026-03-28T13:40:32Z</time></trkpt><trkpt lat="41.010034869279515" lon="14.830498530628846"><ele>316.0</ele><time>2026-03-28T13:40:33Z</time></trkpt><trkpt lat="41.010046351039215" lon="14.830374630607814"><ele>316.0</ele><time>2026-03-28T13:40:34Z</time></trkpt><trkpt lat="41.01006167450343" lon="14.830224516694242"><ele>316.0</ele><time>2026-03-28T13:40:35Z</time></trkpt><trkpt lat="41.010079252054425" lon="14.830046530430495"><ele>316.0</ele><time>2026-03-28T13:40:36Z</time></trkpt><trkpt lat="41.01008223505225" lon="14.829873634608505"><ele>316.0</ele><time>2026-03-28T13:40:37Z</time></trkpt><trkpt lat="41.01010953967946" lon="14.829752508215593"><ele>314.75</ele><time>2026-03-28T13:40:38Z</time></trkpt><trkpt lat="41.0101538125856" lon="14.829648817679589"><ele>313.5</ele><time>2026-03-28T13:40:39Z</time></trkpt><trkpt lat="41.01021147782658" lon="14.829520669029224"><ele>312.25</ele><time>2026-03-28T13:40:40Z</time></trkpt><trkpt lat="41.01032308968253" lon="14.829295636257386"><ele>311.0</ele><time>2026-03-28T13:40:41Z</time></trkpt><trkpt lat="41.01039775553185" lon="14.829068578956106"><ele>308.33333333333337</ele><time>2026-03-28T13:40:42Z</time></trkpt><trkpt lat="41.01046599463631" lon="14.828854973832414"><ele>305.6666666666667</ele><time>2026-03-28T13:40:43Z</time></trkpt><trkpt lat="41.01051114907077" lon="14.82865939354029"><ele>303.0</ele><time>2026-03-28T13:40:44Z</time></trkpt><trkpt lat="41.01054952946285" lon="14.828488739055471"><ele>302.4</ele><time>2026-03-28T13:40:45Z</time></trkpt><trkpt lat="41.01058156167422" lon="14.828329219970122"><ele>301.8</ele><time>2026-03-28T13:40:45.999Z</time></trkpt><trkpt lat="41.01061027285588" lon="14.828166218637076"><ele>301.2</ele><time>2026-03-28T13:40:46.999Z</time></trkpt><trkpt lat="41.01064170979784" lon="14.82804055594556"><ele>300.6</ele><time>2026-03-28T13:40:47.999Z</time></trkpt><trkpt lat="41.010677884124775" lon="14.827929461258115"><ele>300.0</ele><time>2026-03-28T13:40:48.999Z</time></trkpt><trkpt lat="41.01071909176958" lon="14.827841279461934"><ele>300.0</ele><time>2026-03-28T13:40:49.999Z</time></trkpt><trkpt lat="41.01072369167522" lon="14.827743330912318"><ele>300.0</ele><time>2026-03-28T13:40:53.999Z</time></trkpt><trkpt lat="41.01059175818505" lon="14.82767932818145"><ele>300.0</ele><time>2026-03-28T13:40:54.999Z</time></trkpt><trkpt lat="41.01049722622003" lon="14.827646755505269"><ele>300.0</ele><time>2026-03-28T13:40:55.999Z</time></trkpt><trkpt lat="41.01043621311051" lon="14.827582752694076"><ele>300.0</ele><time>2026-03-28T13:40:56.999Z</time></trkpt><trkpt lat="41.01034924877558" lon="14.827494174493953"><ele>300.8</ele><time>2026-03-28T13:40:57.999Z</time></trkpt><trkpt lat="41.010306142546625" lon="14.827402038727952"><ele>301.6</ele><time>2026-03-28T13:40:58.999Z</time></trkpt><trkpt lat="41.01028375982675" lon="14.827299074194002"><ele>302.4</ele><time>2026-03-28T13:40:59.999Z</time></trkpt><trkpt lat="41.01028141547124" lon="14.827169233010583"><ele>303.2</ele><time>2026-03-28T13:41:00.999Z</time></trkpt><trkpt lat="41.01032291798272" lon="14.827036550488074"><ele>304.0</ele><time>2026-03-28T13:41:01.999Z</time></trkpt><trkpt lat="41.01035019299965" lon="14.826891564442988"><ele>303.0</ele><time>2026-03-28T13:41:02.999Z</time></trkpt><trkpt lat="41.01036908179297" lon="14.826724567709665"><ele>302.0</ele><time>2026-03-28T13:41:03.999Z</time></trkpt><trkpt lat="41.01039667968889" lon="14.82657251031842"><ele>301.0</ele><time>2026-03-28T13:41:04.999Z</time></trkpt><trkpt lat="41.010426922777654" lon="14.826436656479697"><ele>300.0</ele><time>2026-03-28T13:41:05.999Z</time></trkpt><trkpt lat="41.01046390741805" lon="14.82628951237961"><ele>300.0</ele><time>2026-03-28T13:41:06.999Z</time></trkpt><trkpt lat="41.01052528211944" lon="14.826123771490296"><ele>300.0</ele><time>2026-03-28T13:41:07.999Z</time></trkpt><trkpt lat="41.01058192925564" lon="14.82593135115184"><ele>300.0</ele><time>2026-03-28T13:41:08.999Z</time></trkpt><trkpt lat="41.01063534996909" lon="14.825739232712232"><ele>298.75</ele><time>2026-03-28T13:41:09.999Z</time></trkpt><trkpt lat="41.010681549656034" lon="14.825576511457538"><ele>297.5</ele><time>2026-03-28T13:41:10.999Z</time></trkpt><trkpt lat="41.01072763106983" lon="14.825425654501188"><ele>296.25</ele><time>2026-03-28T13:41:11.999Z</time></trkpt><trkpt lat="41.01077767428337" lon="14.825279023324393"><ele>295.0</ele><time>2026-03-28T13:41:12.999Z</time></trkpt><trkpt lat="41.01081573518753" lon="14.825149040511215"><ele>294.75</ele><time>2026-03-28T13:41:13.999Z</time></trkpt><trkpt lat="41.010850326309644" lon="14.825005257822895"><ele>294.5</ele><time>2026-03-28T13:41:14.999Z</time></trkpt><trkpt lat="41.01084860474821" lon="14.824739800875316"><ele>294.25</ele><time>2026-03-28T13:41:16.999Z</time></trkpt><trkpt lat="41.010800147441785" lon="14.824652315343007"><ele>294.0</ele><time>2026-03-28T13:41:17.999Z</time></trkpt><trkpt lat="41.010706403096194" lon="14.824606691724949"><ele>291.25</ele><time>2026-03-28T13:41:18.999Z</time></trkpt><trkpt lat="41.01060829178056" lon="14.824620943730618"><ele>288.5</ele><time>2026-03-28T13:41:19.999Z</time></trkpt><trkpt lat="41.010496152771566" lon="14.824654596414634"><ele>285.75</ele><time>2026-03-28T13:41:20.999Z</time></trkpt><trkpt lat="41.01037467721841" lon="14.824730023063177"><ele>283.0</ele><time>2026-03-28T13:41:21.999Z</time></trkpt><trkpt lat="41.01027392039471" lon="14.8247624248228"><ele>283.0</ele><time>2026-03-28T13:41:22.999Z</time></trkpt><trkpt lat="41.01019971888328" lon="14.824827782683602"><ele>283.0</ele><time>2026-03-28T13:41:23.999Z</time></trkpt><trkpt lat="41.01011218536842" lon="14.824952257031565"><ele>283.0</ele><time>2026-03-28T13:41:24.999Z</time></trkpt><trkpt lat="41.01002359656766" lon="14.825113875657973"><ele>283.0</ele><time>2026-03-28T13:41:25.999Z</time></trkpt><trkpt lat="41.00994894707002" lon="14.825253555273232"><ele>279.8</ele><time>2026-03-28T13:41:26.998Z</time></trkpt><trkpt lat="41.0098893700647" lon="14.825347882139381"><ele>276.6</ele><time>2026-03-28T13:41:27.998Z</time></trkpt><trkpt lat="41.00982993641508" lon="14.825411249188196"><ele>273.4</ele><time>2026-03-28T13:41:28.998Z</time></trkpt><trkpt lat="41.009759987654476" lon="14.825325162837384"><ele>270.2</ele><time>2026-03-28T13:41:30.998Z</time></trkpt><trkpt lat="41.00975630232001" lon="14.825223127856175"><ele>267.0</ele><time>2026-03-28T13:41:31.998Z</time></trkpt><trkpt lat="41.009790027057576" lon="14.825083758616241"><ele>263.0</ele><time>2026-03-28T13:41:32.998Z</time></trkpt><trkpt lat="41.009878305447785" lon="14.824862333818185"><ele>259.0</ele><time>2026-03-28T13:41:34.998Z</time></trkpt><trkpt lat="41.009947937136545" lon="14.824708071756783"><ele>255.0</ele><time>2026-03-28T13:41:35.998Z</time></trkpt><trkpt lat="41.01000692386317" lon="14.824613946842648"><ele>251.0</ele><time>2026-03-28T13:41:36.998Z</time></trkpt><trkpt lat="41.010078534508565" lon="14.824460844476956"><ele>254.75</ele><time>2026-03-28T13:41:37.998Z</time></trkpt><trkpt lat="41.01011680431558" lon="14.824308881300793"><ele>258.5</ele><time>2026-03-28T13:41:38.998Z</time></trkpt><trkpt lat="41.01017858391124" lon="14.824169261334614"><ele>262.25</ele><time>2026-03-28T13:41:39.998Z</time></trkpt><trkpt lat="41.01023475361921" lon="14.824016882545292"><ele>266.0</ele><time>2026-03-28T13:41:40.998Z</time></trkpt><trkpt lat="41.01029354482516" lon="14.823892329671432"><ele>266.0</ele><time>2026-03-28T13:41:41.998Z</time></trkpt><trkpt lat="41.010365676570395" lon="14.823787597647865"><ele>266.0</ele><time>2026-03-28T13:41:42.998Z</time></trkpt><trkpt lat="41.01042869902478" lon="14.823688675016248"><ele>266.0</ele><time>2026-03-28T13:41:43.998Z</time></trkpt><trkpt lat="41.01049010496245" lon="14.823589266854123"><ele>266.0</ele><time>2026-03-28T13:41:44.998Z</time></trkpt><trkpt lat="41.010552674368974" lon="14.82351360346876"><ele>266.0</ele><time>2026-03-28T13:41:45.998Z</time></trkpt><trkpt lat="41.010571893704025" lon="14.823404665491394"><ele>266.0</ele><time>2026-03-28T13:41:46.998Z</time></trkpt><trkpt lat="41.01051147219975" lon="14.823307558129589"><ele>266.0</ele><time>2026-03-28T13:41:48.998Z</time></trkpt><trkpt lat="41.01038218229513" lon="14.823401692710231"><ele>266.0</ele><time>2026-03-28T13:41:51.998Z</time></trkpt><trkpt lat="41.0103562418407" lon="14.82348368493984"><ele>266.0</ele><time>2026-03-28T13:41:52.998Z</time></trkpt><trkpt lat="41.01027308254148" lon="14.823623791474416"><ele>266.0</ele><time>2026-03-28T13:41:54.998Z</time></trkpt><trkpt lat="41.01021563034493" lon="14.823710142281247"><ele>266.0</ele><time>2026-03-28T13:41:55.998Z</time></trkpt><trkpt lat="41.010121190776545" lon="14.82388520262534"><ele>266.0</ele><time>2026-03-28T13:41:56.998Z</time></trkpt><trkpt lat="41.01000687049729" lon="14.824018694742536"><ele>266.0</ele><time>2026-03-28T13:41:57.998Z</time></trkpt><trkpt lat="41.00991806611553" lon="14.824180296471027"><ele>262.25</ele><time>2026-03-28T13:41:58.998Z</time></trkpt><trkpt lat="41.00981218739289" lon="14.824301684773804"><ele>258.5</ele><time>2026-03-28T13:41:59.998Z</time></trkpt><trkpt lat="41.00972915653639" lon="14.824424802085252"><ele>254.75</ele><time>2026-03-28T13:42:00.998Z</time></trkpt><trkpt lat="41.00965941352313" lon="14.824540651342515"><ele>251.0</ele><time>2026-03-28T13:42:01.998Z</time></trkpt><trkpt lat="41.009602180789244" lon="14.82464695740447"><ele>251.0</ele><time>2026-03-28T13:42:02.998Z</time></trkpt><trkpt lat="41.00953950728782" lon="14.824760346393358"><ele>251.0</ele><time>2026-03-28T13:42:04.998Z</time></trkpt><trkpt lat="41.00959489963761" lon="14.82462576474081"><ele>251.0</ele><time>2026-03-28T13:42:09.997Z</time></trkpt><trkpt lat="41.009652591302405" lon="14.824519171448976"><ele>251.0</ele><time>2026-03-28T13:42:10.997Z</time></trkpt><trkpt lat="41.009751454874156" lon="14.82437190342976"><ele>246.0</ele><time>2026-03-28T13:42:11.997Z</time></trkpt><trkpt lat="41.009874176297885" lon="14.824194496780695"><ele>241.0</ele><time>2026-03-28T13:42:12.997Z</time></trkpt><trkpt lat="41.00990142816106" lon="14.823907703852907"><ele>236.0</ele><time>2026-03-28T13:42:13.997Z</time></trkpt><trkpt lat="41.00993892080033" lon="14.823753626001421"><ele>236.0</ele><time>2026-03-28T13:42:14.997Z</time></trkpt><trkpt lat="41.0099896515635" lon="14.82360334641463"><ele>236.00000000000003</ele><time>2026-03-28T13:42:15.997Z</time></trkpt><trkpt lat="41.0100169666311" lon="14.823467101801906"><ele>236.00000000000003</ele><time>2026-03-28T13:42:17Z</time></trkpt><trkpt lat="41.01004102807559" lon="14.823343313497498"><ele>236.0</ele><time>2026-03-28T13:42:18Z</time></trkpt><trkpt lat="41.01005603985241" lon="14.823212669833818"><ele>236.0</ele><time>2026-03-28T13:42:19Z</time></trkpt><trkpt lat="41.01005490331023" lon="14.82305885272842"><ele>238.8</ele><time>2026-03-28T13:42:20Z</time></trkpt><trkpt lat="41.01005146679325" lon="14.822912651230464"><ele>241.60000000000002</ele><time>2026-03-28T13:42:21Z</time></trkpt><trkpt lat="41.01005868721504" lon="14.822770740760348"><ele>244.4</ele><time>2026-03-28T13:42:22Z</time></trkpt><trkpt lat="41.01007615109961" lon="14.822650155442627"><ele>247.2</ele><time>2026-03-28T13:42:23Z</time></trkpt><trkpt lat="41.01009012348269" lon="14.822534901668023"><ele>250.0</ele><time>2026-03-28T13:42:24Z</time></trkpt><trkpt lat="41.01010245432645" lon="14.822435120793795"><ele>249.99999999999997</ele><time>2026-03-28T13:42:25Z</time></trkpt><trkpt lat="41.010101200066735" lon="14.82234824515318"><ele>250.0</ele><time>2026-03-28T13:42:26Z</time></trkpt><trkpt lat="41.0101251380647" lon="14.822202180326956"><ele>250.0</ele><time>2026-03-28T13:42:29Z</time></trkpt><trkpt lat="41.010144097039614" lon="14.82210688435752"><ele>250.0</ele><time>2026-03-28T13:42:31Z</time></trkpt><trkpt lat="41.01021575446499" lon="14.822070395719663"><ele>249.99999999999997</ele><time>2026-03-28T13:42:32Z</time></trkpt><trkpt lat="41.010171621915624" lon="14.821983523711927"><ele>250.0</ele><time>2026-03-28T13:42:54.999Z</time></trkpt><trkpt lat="41.01013889312838" lon="14.82185309898748"><ele>249.0</ele><time>2026-03-28T13:42:55.999Z</time></trkpt><trkpt lat="41.01014257388505" lon="14.82170786792003"><ele>248.0</ele><time>2026-03-28T13:42:56.999Z</time></trkpt><trkpt lat="41.01012942216081" lon="14.821565176089669"><ele>247.0</ele><time>2026-03-28T13:42:57.999Z</time></trkpt><trkpt lat="41.01012031341343" lon="14.821388049910395"><ele>246.0</ele><time>2026-03-28T13:42:58.999Z</time></trkpt><trkpt lat="41.01014683716067" lon="14.821190575729545"><ele>245.0</ele><time>2026-03-28T13:42:59.999Z</time></trkpt><trkpt lat="41.010168100882474" lon="14.820964233936605"><ele>244.0</ele><time>2026-03-28T13:43:00.999Z</time></trkpt><trkpt lat="41.01017570142827" lon="14.820737777750605"><ele>243.0</ele><time>2026-03-28T13:43:01.999Z</time></trkpt><trkpt lat="41.0101929279644" lon="14.820566595274945"><ele>243.0</ele><time>2026-03-28T13:43:02.999Z</time></trkpt><trkpt lat="41.01020644232522" lon="14.820437091209605"><ele>243.0</ele><time>2026-03-28T13:43:03.999Z</time></trkpt><trkpt lat="41.01022603604438" lon="14.820340724297575"><ele>243.0</ele><time>2026-03-28T13:43:04.999Z</time></trkpt><trkpt lat="41.010264806840404" lon="14.820258234394192"><ele>243.0</ele><time>2026-03-28T13:43:05.999Z</time></trkpt><trkpt lat="41.01031680936197" lon="14.820200468424682"><ele>243.0</ele><time>2026-03-28T13:43:06.999Z</time></trkpt><trkpt lat="41.01039750856131" lon="14.820157320789528"><ele>243.0</ele><time>2026-03-28T13:43:07.999Z</time></trkpt><trkpt lat="41.01050111414405" lon="14.820120488733002"><ele>243.0</ele><time>2026-03-28T13:43:08.999Z</time></trkpt><trkpt lat="41.01056869452655" lon="14.820056240080028"><ele>243.0</ele><time>2026-03-28T13:43:09.999Z</time></trkpt><trkpt lat="41.01064174810339" lon="14.820030776417564"><ele>243.0</ele><time>2026-03-28T13:43:10.999Z</time></trkpt><trkpt lat="41.010718719806576" lon="14.820094647117392"><ele>243.0</ele><time>2026-03-28T13:43:12.999Z</time></trkpt><trkpt lat="41.01075275751893" lon="14.820216724328787"><ele>243.0</ele><time>2026-03-28T13:43:13.999Z</time></trkpt><trkpt lat="41.01082863406124" lon="14.820331922485064"><ele>247.0</ele><time>2026-03-28T13:43:14.999Z</time></trkpt><trkpt lat="41.01090676762164" lon="14.820467906332505"><ele>251.0</ele><time>2026-03-28T13:43:15.999Z</time></trkpt><trkpt lat="41.01098867798229" lon="14.820607470552407"><ele>255.0</ele><time>2026-03-28T13:43:16.999Z</time></trkpt><trkpt lat="41.01107377340817" lon="14.820750343956854"><ele>259.0</ele><time>2026-03-28T13:43:17.999Z</time></trkpt><trkpt lat="41.01115781169012" lon="14.820860977085065"><ele>259.0</ele><time>2026-03-28T13:43:18.999Z</time></trkpt><trkpt lat="41.01125266322604" lon="14.82092738736303"><ele>259.0</ele><time>2026-03-28T13:43:19.999Z</time></trkpt><trkpt lat="41.011355526068044" lon="14.82094239668577"><ele>259.0</ele><time>2026-03-28T13:43:20.999Z</time></trkpt><trkpt lat="41.0114547654882" lon="14.820922582797284"><ele>259.0</ele><time>2026-03-28T13:43:21.999Z</time></trkpt><trkpt lat="41.01153760993814" lon="14.820875593173616"><ele>259.0</ele><time>2026-03-28T13:43:22.999Z</time></trkpt><trkpt lat="41.01162039264466" lon="14.82086857641491"><ele>259.0</ele><time>2026-03-28T13:43:23.999Z</time></trkpt><trkpt lat="41.01167594699916" lon="14.82080049939717"><ele>259.0</ele><time>2026-03-28T13:43:24.999Z</time></trkpt><trkpt lat="41.01169317297727" lon="14.820697197609382"><ele>259.0</ele><time>2026-03-28T13:43:25.999Z</time></trkpt><trkpt lat="41.01167142100801" lon="14.820575084575436"><ele>259.0</ele><time>2026-03-28T13:43:26.999Z</time></trkpt><trkpt lat="41.011607241152575" lon="14.820440691591683"><ele>259.0</ele><time>2026-03-28T13:43:27.999Z</time></trkpt><trkpt lat="41.01155042681698" lon="14.820296677972191"><ele>255.0</ele><time>2026-03-28T13:43:28.998Z</time></trkpt><trkpt lat="41.011499925556464" lon="14.820142205940135"><ele>251.0</ele><time>2026-03-28T13:43:29.998Z</time></trkpt><trkpt lat="41.011459041537684" lon="14.819981038810624"><ele>247.0</ele><time>2026-03-28T13:43:30.998Z</time></trkpt><trkpt lat="41.01143718918093" lon="14.819829257360311"><ele>243.0</ele><time>2026-03-28T13:43:31.998Z</time></trkpt><trkpt lat="41.011434299261964" lon="14.819687314021921"><ele>243.0</ele><time>2026-03-28T13:43:32.998Z</time></trkpt><trkpt lat="41.011445060484824" lon="14.819580428960688"><ele>243.0</ele><time>2026-03-28T13:43:33.998Z</time></trkpt><trkpt lat="41.01150526232426" lon="14.819517098318268"><ele>243.0</ele><time>2026-03-28T13:43:34.998Z</time></trkpt><trkpt lat="41.01157353855443" lon="14.81945115378698"><ele>243.0</ele><time>2026-03-28T13:43:35.998Z</time></trkpt><trkpt lat="41.01167574107096" lon="14.81943826771338"><ele>243.0</ele><time>2026-03-28T13:43:36.998Z</time></trkpt><trkpt lat="41.011797562802165" lon="14.819416189878686"><ele>243.25</ele><time>2026-03-28T13:43:37.998Z</time></trkpt><trkpt lat="41.01191197010924" lon="14.819369495636849"><ele>243.5</ele><time>2026-03-28T13:43:38.998Z</time></trkpt><trkpt lat="41.012020631226655" lon="14.819329322580911"><ele>243.75</ele><time>2026-03-28T13:43:39.998Z</time></trkpt><trkpt lat="41.0121292153835" lon="14.819268951234855"><ele>244.0</ele><time>2026-03-28T13:43:40.998Z</time></trkpt><trkpt lat="41.012218173840004" lon="14.819156106469656"><ele>241.0</ele><time>2026-03-28T13:43:41.998Z</time></trkpt><trkpt lat="41.01229992590695" lon="14.819026471378793"><ele>238.0</ele><time>2026-03-28T13:43:42.998Z</time></trkpt><trkpt lat="41.01234988698733" lon="14.81887018922832"><ele>235.0</ele><time>2026-03-28T13:43:43.998Z</time></trkpt><trkpt lat="41.012404124041886" lon="14.818740985482162"><ele>232.0</ele><time>2026-03-28T13:43:44.998Z</time></trkpt><trkpt lat="41.01246627577195" lon="14.818625738954216"><ele>232.0</ele><time>2026-03-28T13:43:45.998Z</time></trkpt><trkpt lat="41.01252213673173" lon="14.818523282553311"><ele>232.0</ele><time>2026-03-28T13:43:46.998Z</time></trkpt><trkpt lat="41.01258566588512" lon="14.818427384411773"><ele>232.0</ele><time>2026-03-28T13:43:47.998Z</time></trkpt><trkpt lat="41.01268373448415" lon="14.818358171416913"><ele>232.0</ele><time>2026-03-28T13:43:48.998Z</time></trkpt><trkpt lat="41.01279369645804" lon="14.818293443160188"><ele>232.0</ele><time>2026-03-28T13:43:49.998Z</time></trkpt><trkpt lat="41.01291607765813" lon="14.818233654947996"><ele>232.0</ele><time>2026-03-28T13:43:50.998Z</time></trkpt><trkpt lat="41.013038100552535" lon="14.818175402510303"><ele>232.0</ele><time>2026-03-28T13:43:51.998Z</time></trkpt><trkpt lat="41.01317991067926" lon="14.81809510594726"><ele>232.0</ele><time>2026-03-28T13:43:52.998Z</time></trkpt><trkpt lat="41.01332449181281" lon="14.81798389706047"><ele>231.25</ele><time>2026-03-28T13:43:53.998Z</time></trkpt><trkpt lat="41.01344848966835" lon="14.817883905256501"><ele>230.5</ele><time>2026-03-28T13:43:54.998Z</time></trkpt><trkpt lat="41.0135644803341" lon="14.817770675141002"><ele>229.75</ele><time>2026-03-28T13:43:55.998Z</time></trkpt><trkpt lat="41.01366099270379" lon="14.817692207075854"><ele>229.0</ele><time>2026-03-28T13:43:56.998Z</time></trkpt><trkpt lat="41.01375990898705" lon="14.81755765382846"><ele>229.0</ele><time>2026-03-28T13:43:57.998Z</time></trkpt><trkpt lat="41.013859382285304" lon="14.817345701369765"><ele>229.0</ele><time>2026-03-28T13:43:58.998Z</time></trkpt><trkpt lat="41.01397576566986" lon="14.81716431836885"><ele>229.0</ele><time>2026-03-28T13:43:59.998Z</time></trkpt><trkpt lat="41.01408092895509" lon="14.817019592138617"><ele>232.0</ele><time>2026-03-28T13:44:00.998Z</time></trkpt><trkpt lat="41.014189949582565" lon="14.816830669029846"><ele>235.0</ele><time>2026-03-28T13:44:01.998Z</time></trkpt><trkpt lat="41.014236630159495" lon="14.816683264780622"><ele>238.0</ele><time>2026-03-28T13:44:02.998Z</time></trkpt><trkpt lat="41.01428702633237" lon="14.816461341935037"><ele>238.0</ele><time>2026-03-28T13:44:03.998Z</time></trkpt><trkpt lat="41.014356105047845" lon="14.816205195707173"><ele>238.0</ele><time>2026-03-28T13:44:04.998Z</time></trkpt><trkpt lat="41.01444552246503" lon="14.815926761465592"><ele>238.0</ele><time>2026-03-28T13:44:05.998Z</time></trkpt><trkpt lat="41.01454232121609" lon="14.815641208127538"><ele>235.0</ele><time>2026-03-28T13:44:06.997Z</time></trkpt><trkpt lat="41.01462668963067" lon="14.815378007862055"><ele>232.0</ele><time>2026-03-28T13:44:07.997Z</time></trkpt><trkpt lat="41.01462587382579" lon="14.81508949456992"><ele>229.0</ele><time>2026-03-28T13:44:08.997Z</time></trkpt><trkpt lat="41.0146222161926" lon="14.81482196351107"><ele>229.0</ele><time>2026-03-28T13:44:09.997Z</time></trkpt><trkpt lat="41.01459154255937" lon="14.814574299018062"><ele>229.0</ele><time>2026-03-28T13:44:10.997Z</time></trkpt><trkpt lat="41.01458282964356" lon="14.814389317783679"><ele>229.0</ele><time>2026-03-28T13:44:11.997Z</time></trkpt><trkpt lat="41.014609998402555" lon="14.814194425042556"><ele>228.66666666666666</ele><time>2026-03-28T13:44:12.997Z</time></trkpt><trkpt lat="41.01467589503316" lon="14.813944913351763"><ele>228.33333333333331</ele><time>2026-03-28T13:44:13.997Z</time></trkpt><trkpt lat="41.01479061224861" lon="14.813728638057375"><ele>228.0</ele><time>2026-03-28T13:44:14.997Z</time></trkpt><trkpt lat="41.01489576325762" lon="14.813540946133545"><ele>227.33333333333331</ele><time>2026-03-28T13:44:15.997Z</time></trkpt><trkpt lat="41.01494624578434" lon="14.813361306060568"><ele>226.66666666666666</ele><time>2026-03-28T13:44:16.997Z</time></trkpt><trkpt lat="41.01496318973312" lon="14.813143580223326"><ele>226.0</ele><time>2026-03-28T13:44:17.997Z</time></trkpt><trkpt lat="41.014946912665295" lon="14.812879382838114"><ele>226.0</ele><time>2026-03-28T13:44:18.997Z</time></trkpt><trkpt lat="41.01493611021196" lon="14.81264675338491"><ele>226.0</ele><time>2026-03-28T13:44:19.997Z</time></trkpt><trkpt lat="41.01493889309395" lon="14.812465328886118"><ele>226.0</ele><time>2026-03-28T13:44:20.997Z</time></trkpt><trkpt lat="41.01496693327007" lon="14.812330413708452"><ele>226.0</ele><time>2026-03-28T13:44:21.997Z</time></trkpt><trkpt lat="41.01505474451851" lon="14.812159058594167"><ele>230.75</ele><time>2026-03-28T13:44:23Z</time></trkpt><trkpt lat="41.01517413199918" lon="14.812078731715577"><ele>235.5</ele><time>2026-03-28T13:44:24Z</time></trkpt><trkpt lat="41.015273490078194" lon="14.812080441470087"><ele>240.25</ele><time>2026-03-28T13:44:25Z</time></trkpt><trkpt lat="41.01540244121725" lon="14.812110020444221"><ele>245.0</ele><time>2026-03-28T13:44:26Z</time></trkpt><trkpt lat="41.01558976456915" lon="14.812130634723532"><ele>245.0</ele><time>2026-03-28T13:44:27Z</time></trkpt><trkpt lat="41.015724804523416" lon="14.81213529475687"><ele>245.0</ele><time>2026-03-28T13:44:28Z</time></trkpt><trkpt lat="41.0158724592847" lon="14.812166192483419"><ele>245.0</ele><time>2026-03-28T13:44:29Z</time></trkpt><trkpt lat="41.01599933159912" lon="14.812169154562607"><ele>245.0</ele><time>2026-03-28T13:44:30Z</time></trkpt><trkpt lat="41.01612829499667" lon="14.812143353193049"><ele>245.6</ele><time>2026-03-28T13:44:31Z</time></trkpt><trkpt lat="41.016219429440554" lon="14.812084033374076"><ele>246.2</ele><time>2026-03-28T13:44:32Z</time></trkpt><trkpt lat="41.016278450033326" lon="14.811992508454853"><ele>246.8</ele><time>2026-03-28T13:44:33Z</time></trkpt><trkpt lat="41.01628106505332" lon="14.811885606874355"><ele>247.4</ele><time>2026-03-28T13:44:34Z</time></trkpt><trkpt lat="41.01625065473114" lon="14.811757078304817"><ele>248.0</ele><time>2026-03-28T13:44:35Z</time></trkpt><trkpt lat="41.01620886868562" lon="14.81163017509277"><ele>248.0</ele><time>2026-03-28T13:44:36Z</time></trkpt><trkpt lat="41.01616986207561" lon="14.811498058516454"><ele>248.0</ele><time>2026-03-28T13:44:37Z</time></trkpt><trkpt lat="41.01612962995987" lon="14.81135777878757"><ele>248.0</ele><time>2026-03-28T13:44:38Z</time></trkpt><trkpt lat="41.01609039672625" lon="14.811215946631199"><ele>248.0</ele><time>2026-03-28T13:44:39Z</time></trkpt><trkpt lat="41.01604037806578" lon="14.811088479246491"><ele>248.0</ele><time>2026-03-28T13:44:40Z</time></trkpt><trkpt lat="41.015967185643255" lon="14.81098337104906"><ele>249.0</ele><time>2026-03-28T13:44:41Z</time></trkpt><trkpt lat="41.01585795959544" lon="14.810894235647169"><ele>250.0</ele><time>2026-03-28T13:44:42Z</time></trkpt><trkpt lat="41.015725066055325" lon="14.810820568898233"><ele>251.0</ele><time>2026-03-28T13:44:43Z</time></trkpt><trkpt lat="41.015598304565344" lon="14.810752449984031"><ele>252.0</ele><time>2026-03-28T13:44:44Z</time></trkpt><trkpt lat="41.015491998494134" lon="14.810678540550956"><ele>249.0</ele><time>2026-03-28T13:44:45Z</time></trkpt><trkpt lat="41.01541470667163" lon="14.810582215635245"><ele>246.0</ele><time>2026-03-28T13:44:46Z</time></trkpt><trkpt lat="41.01534963423642" lon="14.81049468137081"><ele>243.0</ele><time>2026-03-28T13:44:47Z</time></trkpt><trkpt lat="41.01534250923752" lon="14.81035224051651"><ele>240.0</ele><time>2026-03-28T13:44:48Z</time></trkpt><trkpt lat="41.015379575865495" lon="14.810176435068922"><ele>237.0</ele><time>2026-03-28T13:44:49Z</time></trkpt><trkpt lat="41.015413695529325" lon="14.809988271216879"><ele>237.0</ele><time>2026-03-28T13:44:50Z</time></trkpt><trkpt lat="41.015469817733035" lon="14.809770039868468"><ele>237.0</ele><time>2026-03-28T13:44:51Z</time></trkpt><trkpt lat="41.01553928921511" lon="14.809572004422169"><ele>237.0</ele><time>2026-03-28T13:44:52Z</time></trkpt><trkpt lat="41.01560498332064" lon="14.80934740785711"><ele>234.33333333333331</ele><time>2026-03-28T13:44:53Z</time></trkpt><trkpt lat="41.015672920247454" lon="14.809097028493179"><ele>231.66666666666666</ele><time>2026-03-28T13:44:54Z</time></trkpt><trkpt lat="41.0157845186016" lon="14.80892577783191"><ele>229.0</ele><time>2026-03-28T13:44:55Z</time></trkpt><trkpt lat="41.01587153300672" lon="14.808761627044772"><ele>232.0</ele><time>2026-03-28T13:44:55.999Z</time></trkpt><trkpt lat="41.015965201064304" lon="14.808616583423676"><ele>235.0</ele><time>2026-03-28T13:44:56.999Z</time></trkpt><trkpt lat="41.01600928090593" lon="14.808464830644748"><ele>238.0</ele><time>2026-03-28T13:44:57.999Z</time></trkpt><trkpt lat="41.01599615836362" lon="14.808263023355716"><ele>241.0</ele><time>2026-03-28T13:44:58.999Z</time></trkpt><trkpt lat="41.01596459504369" lon="14.808063373397301"><ele>241.0</ele><time>2026-03-28T13:44:59.999Z</time></trkpt><trkpt lat="41.01592116605316" lon="14.807865260293495"><ele>241.0</ele><time>2026-03-28T13:45:00.999Z</time></trkpt><trkpt lat="41.01590397818018" lon="14.807662121109548"><ele>241.0</ele><time>2026-03-28T13:45:01.999Z</time></trkpt><trkpt lat="41.0159319734359" lon="14.807375365981532"><ele>239.0</ele><time>2026-03-28T13:45:02.999Z</time></trkpt><trkpt lat="41.015978533000684" lon="14.807131961355427"><ele>237.0</ele><time>2026-03-28T13:45:03.999Z</time></trkpt><trkpt lat="41.016027615270154" lon="14.806957392930345"><ele>235.0</ele><time>2026-03-28T13:45:04.999Z</time></trkpt><trkpt lat="41.01607610269449" lon="14.80677402991652"><ele>232.66666666666666</ele><time>2026-03-28T13:45:05.999Z</time></trkpt><trkpt lat="41.016107654269476" lon="14.806585296701567"><ele>230.33333333333331</ele><time>2026-03-28T13:45:06.999Z</time></trkpt><trkpt lat="41.01613679961112" lon="14.806384298008858"><ele>228.0</ele><time>2026-03-28T13:45:07.999Z</time></trkpt><trkpt lat="41.01617529205976" lon="14.806190081340105"><ele>226.66666666666669</ele><time>2026-03-28T13:45:08.999Z</time></trkpt><trkpt lat="41.01621131915086" lon="14.805976890169541"><ele>225.33333333333334</ele><time>2026-03-28T13:45:09.999Z</time></trkpt><trkpt lat="41.016258156726934" lon="14.80573506101278"><ele>224.0</ele><time>2026-03-28T13:45:10.999Z</time></trkpt><trkpt lat="41.0162953820526" lon="14.80545887424259"><ele>222.5</ele><time>2026-03-28T13:45:11.999Z</time></trkpt><trkpt lat="41.01635551643303" lon="14.805158230448345"><ele>221.0</ele><time>2026-03-28T13:45:12.999Z</time></trkpt><trkpt lat="41.01640338450994" lon="14.804870828345035"><ele>221.0</ele><time>2026-03-28T13:45:13.999Z</time></trkpt><trkpt lat="41.016458806684845" lon="14.804603200717354"><ele>221.0</ele><time>2026-03-28T13:45:14.999Z</time></trkpt><trkpt lat="41.01654053897272" lon="14.804355075145285"><ele>221.0</ele><time>2026-03-28T13:45:15.999Z</time></trkpt><trkpt lat="41.01665329142557" lon="14.804108632547992"><ele>223.66666666666669</ele><time>2026-03-28T13:45:16.999Z</time></trkpt><trkpt lat="41.016758025011505" lon="14.803898612860714"><ele>226.33333333333331</ele><time>2026-03-28T13:45:17.999Z</time></trkpt><trkpt lat="41.0168683715425" lon="14.803652534977253"><ele>229.0</ele><time>2026-03-28T13:45:18.999Z</time></trkpt><trkpt lat="41.01696816546945" lon="14.803340609423286"><ele>229.0</ele><time>2026-03-28T13:45:19.999Z</time></trkpt><trkpt lat="41.017092347524745" lon="14.803037039191755"><ele>229.0</ele><time>2026-03-28T13:45:20.999Z</time></trkpt><trkpt lat="41.01718200251992" lon="14.802763417573082"><ele>225.33333333333331</ele><time>2026-03-28T13:45:21.999Z</time></trkpt><trkpt lat="41.01725544104243" lon="14.80250197033218"><ele>221.66666666666669</ele><time>2026-03-28T13:45:22.999Z</time></trkpt><trkpt lat="41.01732453902374" lon="14.802262882616255"><ele>218.0</ele><time>2026-03-28T13:45:23.999Z</time></trkpt><trkpt lat="41.01739157927119" lon="14.802038746623262"><ele>217.66666666666669</ele><time>2026-03-28T13:45:24.999Z</time></trkpt><trkpt lat="41.01744011200952" lon="14.80181813002354"><ele>217.33333333333331</ele><time>2026-03-28T13:45:25.999Z</time></trkpt><trkpt lat="41.0174468041987" lon="14.801624351497047"><ele>217.0</ele><time>2026-03-28T13:45:26.999Z</time></trkpt><trkpt lat="41.01742628626623" lon="14.801450553065806"><ele>217.0</ele><time>2026-03-28T13:45:27.999Z</time></trkpt><trkpt lat="41.017393519985895" lon="14.801294574071843"><ele>217.0</ele><time>2026-03-28T13:45:28.999Z</time></trkpt><trkpt lat="41.01733983748212" lon="14.801161858100627"><ele>217.0</ele><time>2026-03-28T13:45:29.999Z</time></trkpt><trkpt lat="41.017256622585116" lon="14.801040254148216"><ele>217.0</ele><time>2026-03-28T13:45:30.999Z</time></trkpt><trkpt lat="41.01714110781164" lon="14.800964514508197"><ele>218.0</ele><time>2026-03-28T13:45:31.999Z</time></trkpt><trkpt lat="41.017037715024294" lon="14.800894839568933"><ele>219.0</ele><time>2026-03-28T13:45:32.999Z</time></trkpt><trkpt lat="41.01695483960739" lon="14.80081378244505"><ele>220.0</ele><time>2026-03-28T13:45:33.999Z</time></trkpt><trkpt lat="41.01686232194142" lon="14.800678112813351"><ele>221.0</ele><time>2026-03-28T13:45:34.998Z</time></trkpt><trkpt lat="41.01684657073635" lon="14.800509527153258"><ele>221.0</ele><time>2026-03-28T13:45:35.998Z</time></trkpt><trkpt lat="41.016889752084666" lon="14.800348674753318"><ele>221.0</ele><time>2026-03-28T13:45:36.998Z</time></trkpt><trkpt lat="41.01691707707511" lon="14.80014245360931"><ele>221.0</ele><time>2026-03-28T13:45:37.998Z</time></trkpt><trkpt lat="41.01693677574684" lon="14.799977520288646"><ele>221.0</ele><time>2026-03-28T13:45:38.998Z</time></trkpt><trkpt lat="41.01692638339379" lon="14.799813955591395"><ele>221.25</ele><time>2026-03-28T13:45:39.998Z</time></trkpt><trkpt lat="41.016946968653436" lon="14.799670968099102"><ele>221.5</ele><time>2026-03-28T13:45:40.998Z</time></trkpt><trkpt lat="41.01702773847615" lon="14.799548839360872"><ele>221.75</ele><time>2026-03-28T13:45:41.998Z</time></trkpt><trkpt lat="41.01714192806091" lon="14.799435606545003"><ele>222.0</ele><time>2026-03-28T13:45:42.998Z</time></trkpt><trkpt lat="41.01723694662067" lon="14.799329912868357"><ele>220.75</ele><time>2026-03-28T13:45:43.998Z</time></trkpt><trkpt lat="41.017301263941114" lon="14.799177534038888"><ele>219.5</ele><time>2026-03-28T13:45:44.998Z</time></trkpt><trkpt lat="41.017312261966644" lon="14.799019296853805"><ele>218.25</ele><time>2026-03-28T13:45:45.998Z</time></trkpt><trkpt lat="41.01729111292902" lon="14.798827976493277"><ele>217.0</ele><time>2026-03-28T13:45:46.998Z</time></trkpt><trkpt lat="41.0172491076053" lon="14.79860090675352"><ele>216.0</ele><time>2026-03-28T13:45:47.998Z</time></trkpt><trkpt lat="41.01723509310674" lon="14.798398254837666"><ele>215.0</ele><time>2026-03-28T13:45:48.998Z</time></trkpt><trkpt lat="41.01724663221564" lon="14.798192434206761"><ele>214.0</ele><time>2026-03-28T13:45:49.998Z</time></trkpt><trkpt lat="41.01727164835215" lon="14.79797045946439"><ele>214.0</ele><time>2026-03-28T13:45:50.998Z</time></trkpt><trkpt lat="41.0173128362338" lon="14.797739647258386"><ele>214.0</ele><time>2026-03-28T13:45:51.998Z</time></trkpt><trkpt lat="41.01733926972051" lon="14.797513566523246"><ele>214.0</ele><time>2026-03-28T13:45:52.998Z</time></trkpt><trkpt lat="41.0173378333894" lon="14.797239742896682"><ele>213.5</ele><time>2026-03-28T13:45:53.998Z</time></trkpt><trkpt lat="41.01735364627652" lon="14.79694072728921"><ele>213.0</ele><time>2026-03-28T13:45:54.998Z</time></trkpt><trkpt lat="41.01738148719535" lon="14.796642355382707"><ele>212.66666666666669</ele><time>2026-03-28T13:45:55.998Z</time></trkpt><trkpt lat="41.01741573564476" lon="14.796366695395704"><ele>212.33333333333334</ele><time>2026-03-28T13:45:56.998Z</time></trkpt><trkpt lat="41.01742273135357" lon="14.796064524277263"><ele>212.0</ele><time>2026-03-28T13:45:57.998Z</time></trkpt><trkpt lat="41.017402056993966" lon="14.795755008421384"><ele>212.0</ele><time>2026-03-28T13:45:58.998Z</time></trkpt><trkpt lat="41.01740430964243" lon="14.795487471711299"><ele>212.0</ele><time>2026-03-28T13:45:59.998Z</time></trkpt><trkpt lat="41.01740910257341" lon="14.795247780137382"><ele>212.0</ele><time>2026-03-28T13:46:00.998Z</time></trkpt><trkpt lat="41.017392179544984" lon="14.795023294188873"><ele>212.0</ele><time>2026-03-28T13:46:01.998Z</time></trkpt><trkpt lat="41.0173601961175" lon="14.79480672487568"><ele>212.0</ele><time>2026-03-28T13:46:02.998Z</time></trkpt><trkpt lat="41.017295366041076" lon="14.794610153626715"><ele>212.0</ele><time>2026-03-28T13:46:03.998Z</time></trkpt><trkpt lat="41.01721321499314" lon="14.794415012115364"><ele>212.66666666666669</ele><time>2026-03-28T13:46:04.998Z</time></trkpt><trkpt lat="41.01712951070915" lon="14.794223719691828"><ele>213.33333333333331</ele><time>2026-03-28T13:46:05.998Z</time></trkpt><trkpt lat="41.01702851749002" lon="14.79402548589164"><ele>214.0</ele><time>2026-03-28T13:46:06.998Z</time></trkpt><trkpt lat="41.01691951200068" lon="14.793831105560598"><ele>214.0</ele><time>2026-03-28T13:46:07.998Z</time></trkpt><trkpt lat="41.01681619195307" lon="14.793671488201866"><ele>214.0</ele><time>2026-03-28T13:46:08.998Z</time></trkpt><trkpt lat="41.0167208425441" lon="14.79352867091691"><ele>214.0</ele><time>2026-03-28T13:46:09.998Z</time></trkpt><trkpt lat="41.016640979110264" lon="14.793406416304695"><ele>214.0</ele><time>2026-03-28T13:46:10.998Z</time></trkpt><trkpt lat="41.01659714796029" lon="14.793263081217205"><ele>213.5</ele><time>2026-03-28T13:46:11.998Z</time></trkpt><trkpt lat="41.01657313323425" lon="14.793077181049872"><ele>213.0</ele><time>2026-03-28T13:46:12.998Z</time></trkpt><trkpt lat="41.01656379302174" lon="14.792882602520638"><ele>212.5</ele><time>2026-03-28T13:46:13.998Z</time></trkpt><trkpt lat="41.016507864696194" lon="14.792702808439685"><ele>212.0</ele><time>2026-03-28T13:46:14.997Z</time></trkpt><trkpt lat="41.01640422110559" lon="14.792534307524098"><ele>212.0</ele><time>2026-03-28T13:46:15.997Z</time></trkpt><trkpt lat="41.016292848627515" lon="14.792359208777361"><ele>212.0</ele><time>2026-03-28T13:46:16.997Z</time></trkpt><trkpt lat="41.01619939440533" lon="14.792215277474746"><ele>212.0</ele><time>2026-03-28T13:46:17.997Z</time></trkpt><trkpt lat="41.01612826036536" lon="14.79207453806478"><ele>212.0</ele><time>2026-03-28T13:46:18.997Z</time></trkpt><trkpt lat="41.01607984003601" lon="14.791907563811199"><ele>212.5</ele><time>2026-03-28T13:46:19.997Z</time></trkpt><trkpt lat="41.01605014571326" lon="14.79175443749683"><ele>213.0</ele><time>2026-03-28T13:46:20.997Z</time></trkpt><trkpt lat="41.01605295476394" lon="14.79157842281808"><ele>213.5</ele><time>2026-03-28T13:46:21.997Z</time></trkpt><trkpt lat="41.0160883688029" lon="14.791368613048684"><ele>214.0</ele><time>2026-03-28T13:46:22.997Z</time></trkpt><trkpt lat="41.016144833395636" lon="14.791127792903445"><ele>213.33333333333331</ele><time>2026-03-28T13:46:23.997Z</time></trkpt><trkpt lat="41.01621178960792" lon="14.790858458353979"><ele>212.66666666666669</ele><time>2026-03-28T13:46:24.997Z</time></trkpt><trkpt lat="41.016282962282965" lon="14.790592552675491"><ele>212.0</ele><time>2026-03-28T13:46:25.997Z</time></trkpt><trkpt lat="41.016376888510365" lon="14.790329367218217"><ele>211.0</ele><time>2026-03-28T13:46:26.997Z</time></trkpt><trkpt lat="41.016472345442324" lon="14.790103520361066"><ele>210.0</ele><time>2026-03-28T13:46:27.997Z</time></trkpt><trkpt lat="41.0165594883219" lon="14.78989550304642"><ele>209.0</ele><time>2026-03-28T13:46:29Z</time></trkpt><trkpt lat="41.016646907436396" lon="14.789709043495172"><ele>211.0</ele><time>2026-03-28T13:46:30Z</time></trkpt><trkpt lat="41.01676215725631" lon="14.789556534269202"><ele>213.0</ele><time>2026-03-28T13:46:31Z</time></trkpt><trkpt lat="41.01690088174552" lon="14.789393466518291"><ele>215.0</ele><time>2026-03-28T13:46:32Z</time></trkpt><trkpt lat="41.017029735394104" lon="14.789202473322183"><ele>215.0</ele><time>2026-03-28T13:46:33Z</time></trkpt><trkpt lat="41.01716785631497" lon="14.788985339290674"><ele>215.0</ele><time>2026-03-28T13:46:34Z</time></trkpt><trkpt lat="41.017312355017424" lon="14.788778294248267"><ele>215.0</ele><time>2026-03-28T13:46:35Z</time></trkpt><trkpt lat="41.017443872026824" lon="14.788609563247713"><ele>218.0</ele><time>2026-03-28T13:46:36Z</time></trkpt><trkpt lat="41.017554381857536" lon="14.78840285575158"><ele>221.0</ele><time>2026-03-28T13:46:37Z</time></trkpt><trkpt lat="41.01763110199742" lon="14.788187234173808"><ele>224.0</ele><time>2026-03-28T13:46:38Z</time></trkpt><trkpt lat="41.01770264126528" lon="14.787940773972485"><ele>224.0</ele><time>2026-03-28T13:46:39Z</time></trkpt><trkpt lat="41.017780115329764" lon="14.787730540928953"><ele>224.0</ele><time>2026-03-28T13:46:40Z</time></trkpt><trkpt lat="41.01783876186424" lon="14.78747548234307"><ele>224.0</ele><time>2026-03-28T13:46:41Z</time></trkpt><trkpt lat="41.01786511599481" lon="14.78719212168943"><ele>220.66666666666669</ele><time>2026-03-28T13:46:42Z</time></trkpt><trkpt lat="41.01789084573013" lon="14.786894484290956"><ele>217.33333333333331</ele><time>2026-03-28T13:46:43Z</time></trkpt><trkpt lat="41.01791158840687" lon="14.786654536715702"><ele>214.0</ele><time>2026-03-28T13:46:44Z</time></trkpt><trkpt lat="41.01793178543524" lon="14.786425900155447"><ele>213.33333333333331</ele><time>2026-03-28T13:46:45Z</time></trkpt><trkpt lat="41.01794057061245" lon="14.786168136760107"><ele>212.66666666666669</ele><time>2026-03-28T13:46:46Z</time></trkpt><trkpt lat="41.01796724273795" lon="14.785960631869775"><ele>212.0</ele><time>2026-03-28T13:46:47Z</time></trkpt><trkpt lat="41.017988715587286" lon="14.785770405466534"><ele>213.33333333333334</ele><time>2026-03-28T13:46:48Z</time></trkpt><trkpt lat="41.017994441649336" lon="14.78558765649067"><ele>214.66666666666669</ele><time>2026-03-28T13:46:49Z</time></trkpt><trkpt lat="41.01799522306026" lon="14.785386789898489"><ele>216.0</ele><time>2026-03-28T13:46:50Z</time></trkpt><trkpt lat="41.01793761307219" lon="14.785173299333461"><ele>220.0</ele><time>2026-03-28T13:46:51Z</time></trkpt><trkpt lat="41.01787382058554" lon="14.784945900521954"><ele>224.0</ele><time>2026-03-28T13:46:52Z</time></trkpt><trkpt lat="41.01781361265462" lon="14.784708442639843"><ele>228.0</ele><time>2026-03-28T13:46:53Z</time></trkpt><trkpt lat="41.01773368141379" lon="14.784450718012701"><ele>228.33333333333331</ele><time>2026-03-28T13:46:54Z</time></trkpt><trkpt lat="41.01760900981172" lon="14.784197051452878"><ele>228.66666666666666</ele><time>2026-03-28T13:46:55Z</time></trkpt><trkpt lat="41.01752184860756" lon="14.783939886102296"><ele>229.0</ele><time>2026-03-28T13:46:56Z</time></trkpt><trkpt lat="41.017373503337936" lon="14.783525236525849"><ele>225.0</ele><time>2026-03-28T13:46:58Z</time></trkpt><trkpt lat="41.01733043076553" lon="14.78336358748292"><ele>221.0</ele><time>2026-03-28T13:46:59Z</time></trkpt><trkpt lat="41.01728677080359" lon="14.783237568811375"><ele>217.0</ele><time>2026-03-28T13:47:00Z</time></trkpt><trkpt lat="41.017182495586425" lon="14.783121423233561"><ele>213.0</ele><time>2026-03-28T13:47:01Z</time></trkpt><trkpt lat="41.01705615832787" lon="14.783107509101056"><ele>213.0</ele><time>2026-03-28T13:47:02Z</time></trkpt><trkpt lat="41.01691857695944" lon="14.783151269854502"><ele>213.0</ele><time>2026-03-28T13:47:02.999Z</time></trkpt><trkpt lat="41.01677498742066" lon="14.783225369432303"><ele>213.0</ele><time>2026-03-28T13:47:03.999Z</time></trkpt><trkpt lat="41.016637471538296" lon="14.783323538901858"><ele>212.25</ele><time>2026-03-28T13:47:04.999Z</time></trkpt><trkpt lat="41.01651961408342" lon="14.783467924368274"><ele>211.5</ele><time>2026-03-28T13:47:05.999Z</time></trkpt><trkpt lat="41.01643385907367" lon="14.783623354992686"><ele>210.75</ele><time>2026-03-28T13:47:06.999Z</time></trkpt><trkpt lat="41.016358087072746" lon="14.783783319862225"><ele>210.0</ele><time>2026-03-28T13:47:07.999Z</time></trkpt><trkpt lat="41.01629640353511" lon="14.783909512734134"><ele>210.0</ele><time>2026-03-28T13:47:08.999Z</time></trkpt><trkpt lat="41.01624249503688" lon="14.78399421131144"><ele>210.0</ele><time>2026-03-28T13:47:09.999Z</time></trkpt><trkpt lat="41.01608943322951" lon="14.783968067819028"><ele>210.0</ele><time>2026-03-28T13:47:11.999Z</time></trkpt><trkpt lat="41.01594384794135" lon="14.783931794568996"><ele>210.0</ele><time>2026-03-28T13:47:12.999Z</time></trkpt><trkpt lat="41.01581322069329" lon="14.783896468500231"><ele>211.4</ele><time>2026-03-28T13:47:13.999Z</time></trkpt><trkpt lat="41.01569995261997" lon="14.78386813189457"><ele>212.8</ele><time>2026-03-28T13:47:14.999Z</time></trkpt><trkpt lat="41.01560587858514" lon="14.783837700971059"><ele>214.2</ele><time>2026-03-28T13:47:15.999Z</time></trkpt><trkpt lat="41.01554376926388" lon="14.783776118021283"><ele>215.6</ele><time>2026-03-28T13:47:16.999Z</time></trkpt><trkpt lat="41.015511084440774" lon="14.78363736776157"><ele>217.0</ele><time>2026-03-28T13:47:17.999Z</time></trkpt><trkpt lat="41.015501688283685" lon="14.783447069140594"><ele>217.0</ele><time>2026-03-28T13:47:18.999Z</time></trkpt><trkpt lat="41.01549520072393" lon="14.783204004687132"><ele>217.0</ele><time>2026-03-28T13:47:19.999Z</time></trkpt><trkpt lat="41.015509372768626" lon="14.782989621104287"><ele>217.0</ele><time>2026-03-28T13:47:20.999Z</time></trkpt><trkpt lat="41.015553770168516" lon="14.7827743562112"><ele>217.66666666666666</ele><time>2026-03-28T13:47:21.999Z</time></trkpt><trkpt lat="41.01563621006247" lon="14.782526700257382"><ele>218.33333333333331</ele><time>2026-03-28T13:47:22.999Z</time></trkpt><trkpt lat="41.01572363138983" lon="14.782296673063795"><ele>219.0</ele><time>2026-03-28T13:47:23.999Z</time></trkpt><trkpt lat="41.01578972524914" lon="14.782096468530748"><ele>219.39999999999998</ele><time>2026-03-28T13:47:24.999Z</time></trkpt><trkpt lat="41.01583813758804" lon="14.78193915748592"><ele>219.79999999999998</ele><time>2026-03-28T13:47:25.999Z</time></trkpt><trkpt lat="41.01585035494634" lon="14.781803921029052"><ele>220.20000000000002</ele><time>2026-03-28T13:47:26.999Z</time></trkpt><trkpt lat="41.01583676966651" lon="14.781678922049506"><ele>220.60000000000002</ele><time>2026-03-28T13:47:27.999Z</time></trkpt><trkpt lat="41.01579052916374" lon="14.781580876856856"><ele>221.0</ele><time>2026-03-28T13:47:28.999Z</time></trkpt><trkpt lat="41.015760798324635" lon="14.781500469525124"><ele>221.0</ele><time>2026-03-28T13:47:29.999Z</time></trkpt><trkpt lat="41.01575942301565" lon="14.781338408486851"><ele>221.00000000000003</ele><time>2026-03-28T13:47:31.999Z</time></trkpt><trkpt lat="41.01582612405363" lon="14.781237133237926"><ele>221.00000000000003</ele><time>2026-03-28T13:47:32.999Z</time></trkpt><trkpt lat="41.01590116693134" lon="14.781142064465492"><ele>221.0</ele><time>2026-03-28T13:47:33.999Z</time></trkpt><trkpt lat="41.01598333544713" lon="14.781025839826917"><ele>221.0</ele><time>2026-03-28T13:47:34.999Z</time></trkpt><trkpt lat="41.016018413280726" lon="14.780892234252288"><ele>217.8</ele><time>2026-03-28T13:47:35.999Z</time></trkpt><trkpt lat="41.0160771247636" lon="14.780800038358747"><ele>214.60000000000002</ele><time>2026-03-28T13:47:36.999Z</time></trkpt><trkpt lat="41.016153704779676" lon="14.780710359063383"><ele>211.4</ele><time>2026-03-28T13:47:37.999Z</time></trkpt><trkpt lat="41.01624651588966" lon="14.780645764138894"><ele>208.2</ele><time>2026-03-28T13:47:38.999Z</time></trkpt><trkpt lat="41.01636099706813" lon="14.780629101100718"><ele>205.0</ele><time>2026-03-28T13:47:39.999Z</time></trkpt><trkpt lat="41.01648818315676" lon="14.780647277636783"><ele>205.0</ele><time>2026-03-28T13:47:40.999Z</time></trkpt><trkpt lat="41.01660539139407" lon="14.780707169390613"><ele>205.0</ele><time>2026-03-28T13:47:41.999Z</time></trkpt><trkpt lat="41.016689526797485" lon="14.780790362062918"><ele>205.0</ele><time>2026-03-28T13:47:42.998Z</time></trkpt><trkpt lat="41.01672207534742" lon="14.780918441635718"><ele>205.0</ele><time>2026-03-28T13:47:43.998Z</time></trkpt><trkpt lat="41.01678110390052" lon="14.780998849892226"><ele>205.0</ele><time>2026-03-28T13:47:44.998Z</time></trkpt><trkpt lat="41.01687239069158" lon="14.781044135307946"><ele>204.0</ele><time>2026-03-28T13:47:45.998Z</time></trkpt><trkpt lat="41.01697105119019" lon="14.781056850395702"><ele>203.0</ele><time>2026-03-28T13:47:46.998Z</time></trkpt><trkpt lat="41.017068011945604" lon="14.781055355981149"><ele>202.0</ele><time>2026-03-28T13:47:47.998Z</time></trkpt><trkpt lat="41.017149155472346" lon="14.781068781908774"><ele>201.0</ele><time>2026-03-28T13:47:48.998Z</time></trkpt><trkpt lat="41.017238855619574" lon="14.781081558768323"><ele>200.0</ele><time>2026-03-28T13:47:49.998Z</time></trkpt><trkpt lat="41.01733359131218" lon="14.781089699882628"><ele>200.0</ele><time>2026-03-28T13:47:50.998Z</time></trkpt><trkpt lat="41.017442654236945" lon="14.781102812285352"><ele>200.0</ele><time>2026-03-28T13:47:51.998Z</time></trkpt><trkpt lat="41.01758365531868" lon="14.781128251043414"><ele>200.0</ele><time>2026-03-28T13:47:52.998Z</time></trkpt><trkpt lat="41.01771685900417" lon="14.781175207849607"><ele>200.0</ele><time>2026-03-28T13:47:53.998Z</time></trkpt><trkpt lat="41.0178245613393" lon="14.781290092694608"><ele>200.0</ele><time>2026-03-28T13:47:54.998Z</time></trkpt><trkpt lat="41.01790153614686" lon="14.781436552881729"><ele>200.0</ele><time>2026-03-28T13:47:55.998Z</time></trkpt><trkpt lat="41.01795720717347" lon="14.781646711568346"><ele>200.0</ele><time>2026-03-28T13:47:56.998Z</time></trkpt><trkpt lat="41.01803213235813" lon="14.781899580757422"><ele>200.0</ele><time>2026-03-28T13:47:57.998Z</time></trkpt><trkpt lat="41.018140223370246" lon="14.78214494573565"><ele>200.0</ele><time>2026-03-28T13:47:58.998Z</time></trkpt><trkpt lat="41.018247272583785" lon="14.782342027224379"><ele>200.0</ele><time>2026-03-28T13:47:59.998Z</time></trkpt><trkpt lat="41.018360602029645" lon="14.782528902036937"><ele>200.33333333333334</ele><time>2026-03-28T13:48:00.998Z</time></trkpt><trkpt lat="41.01849277420655" lon="14.782690969633007"><ele>200.66666666666669</ele><time>2026-03-28T13:48:01.998Z</time></trkpt><trkpt lat="41.018645599871476" lon="14.782829017048215"><ele>201.0</ele><time>2026-03-28T13:48:02.998Z</time></trkpt><trkpt lat="41.018822690974474" lon="14.782924380037262"><ele>201.0</ele><time>2026-03-28T13:48:03.998Z</time></trkpt><trkpt lat="41.0190328074386" lon="14.783010435765233"><ele>201.0</ele><time>2026-03-28T13:48:04.998Z</time></trkpt><trkpt lat="41.01927998070525" lon="14.783054255685597"><ele>202.0</ele><time>2026-03-28T13:48:05.998Z</time></trkpt><trkpt lat="41.01953442362436" lon="14.783072869590033"><ele>203.0</ele><time>2026-03-28T13:48:06.998Z</time></trkpt><trkpt lat="41.01977126621787" lon="14.783096268701282"><ele>203.0</ele><time>2026-03-28T13:48:07.998Z</time></trkpt><trkpt lat="41.01997622244332" lon="14.7831099524581"><ele>203.0</ele><time>2026-03-28T13:48:08.998Z</time></trkpt><trkpt lat="41.02016616359043" lon="14.783121616926579"><ele>203.0</ele><time>2026-03-28T13:48:09.998Z</time></trkpt><trkpt lat="41.020364990890556" lon="14.783140991839224"><ele>204.0</ele><time>2026-03-28T13:48:10.998Z</time></trkpt><trkpt lat="41.02065383808187" lon="14.783206679264204"><ele>205.0</ele><time>2026-03-28T13:48:11.998Z</time></trkpt><trkpt lat="41.02090265716843" lon="14.783241658389715"><ele>205.5</ele><time>2026-03-28T13:48:12.998Z</time></trkpt><trkpt lat="41.02116608047255" lon="14.783281556642553"><ele>206.0</ele><time>2026-03-28T13:48:13.998Z</time></trkpt><trkpt lat="41.021408594402004" lon="14.783330875103502"><ele>206.0</ele><time>2026-03-28T13:48:14.998Z</time></trkpt><trkpt lat="41.02164491716517" lon="14.783342515513288"><ele>206.0</ele><time>2026-03-28T13:48:15.998Z</time></trkpt><trkpt lat="41.02188324473873" lon="14.783326159145467"><ele>207.0</ele><time>2026-03-28T13:48:16.998Z</time></trkpt><trkpt lat="41.02208106658047" lon="14.783327718882147"><ele>208.0</ele><time>2026-03-28T13:48:17.998Z</time></trkpt><trkpt lat="41.02225815335826" lon="14.783325168946245"><ele>209.0</ele><time>2026-03-28T13:48:18.998Z</time></trkpt><trkpt lat="41.02242552547993" lon="14.783307102475472"><ele>207.0</ele><time>2026-03-28T13:48:19.998Z</time></trkpt><trkpt lat="41.02260486504755" lon="14.783262979890559"><ele>205.0</ele><time>2026-03-28T13:48:20.998Z</time></trkpt><trkpt lat="41.02282988625957" lon="14.783125180865254"><ele>203.0</ele><time>2026-03-28T13:48:21.998Z</time></trkpt><trkpt lat="41.02307999087384" lon="14.782966704514106"><ele>201.0</ele><time>2026-03-28T13:48:22.997Z</time></trkpt><trkpt lat="41.023337794809244" lon="14.78282294310769"><ele>199.0</ele><time>2026-03-28T13:48:23.997Z</time></trkpt><trkpt lat="41.02360658234167" lon="14.782682655668806"><ele>201.0</ele><time>2026-03-28T13:48:24.997Z</time></trkpt><trkpt lat="41.02388086888451" lon="14.782520060898518"><ele>203.0</ele><time>2026-03-28T13:48:25.997Z</time></trkpt><trkpt lat="41.02410315044909" lon="14.782403240431796"><ele>201.0</ele><time>2026-03-28T13:48:26.997Z</time></trkpt><trkpt lat="41.02429221535767" lon="14.782305970962975"><ele>199.0</ele><time>2026-03-28T13:48:27.997Z</time></trkpt><trkpt lat="41.02447587435049" lon="14.782218097285577"><ele>197.0</ele><time>2026-03-28T13:48:28.997Z</time></trkpt><trkpt lat="41.02464457784121" lon="14.782131207424161"><ele>197.0</ele><time>2026-03-28T13:48:29.997Z</time></trkpt><trkpt lat="41.024816248822816" lon="14.782053616609899"><ele>197.0</ele><time>2026-03-28T13:48:30.997Z</time></trkpt><trkpt lat="41.024955810116595" lon="14.78195939250652"><ele>197.0</ele><time>2026-03-28T13:48:31.997Z</time></trkpt><trkpt lat="41.02510613705229" lon="14.781880726036833"><ele>198.0</ele><time>2026-03-28T13:48:32.997Z</time></trkpt><trkpt lat="41.025275389969416" lon="14.781814602254505"><ele>199.0</ele><time>2026-03-28T13:48:33.997Z</time></trkpt><trkpt lat="41.025438461162445" lon="14.78173034091761"><ele>200.0</ele><time>2026-03-28T13:48:35Z</time></trkpt><trkpt lat="41.02559865352213" lon="14.78164756704071"><ele>200.0</ele><time>2026-03-28T13:48:36Z</time></trkpt><trkpt lat="41.02575578039304" lon="14.781568694979388"><ele>200.0</ele><time>2026-03-28T13:48:37Z</time></trkpt><trkpt lat="41.02589681727382" lon="14.781484548433532"><ele>200.0</ele><time>2026-03-28T13:48:38Z</time></trkpt><trkpt lat="41.026058354163496" lon="14.781438692747377"><ele>199.33333333333334</ele><time>2026-03-28T13:48:39Z</time></trkpt><trkpt lat="41.02620418941418" lon="14.781417246194495"><ele>198.66666666666669</ele><time>2026-03-28T13:48:40Z</time></trkpt><trkpt lat="41.02636708954929" lon="14.781412448661875"><ele>198.0</ele><time>2026-03-28T13:48:41Z</time></trkpt><trkpt lat="41.02651827980379" lon="14.78142463312328"><ele>197.75</ele><time>2026-03-28T13:48:42Z</time></trkpt><trkpt lat="41.02665234652741" lon="14.781459100079962"><ele>197.5</ele><time>2026-03-28T13:48:43Z</time></trkpt><trkpt lat="41.02679913632916" lon="14.781505478487798"><ele>197.25</ele><time>2026-03-28T13:48:44Z</time></trkpt><trkpt lat="41.02694115023094" lon="14.781535039368737"><ele>197.0</ele><time>2026-03-28T13:48:45Z</time></trkpt><trkpt lat="41.02706595319679" lon="14.781557921405522"><ele>197.0</ele><time>2026-03-28T13:48:46Z</time></trkpt><trkpt lat="41.02719454319521" lon="14.78158590289733"><ele>197.0</ele><time>2026-03-28T13:48:47Z</time></trkpt><trkpt lat="41.02732865271552" lon="14.781604142920155"><ele>197.0</ele><time>2026-03-28T13:48:48Z</time></trkpt><trkpt lat="41.02746272258853" lon="14.781578533005705"><ele>197.0</ele><time>2026-03-28T13:48:49Z</time></trkpt><trkpt lat="41.02760253512731" lon="14.781511832194026"><ele>197.0</ele><time>2026-03-28T13:48:50Z</time></trkpt><trkpt lat="41.02773466788922" lon="14.781444237386568"><ele>197.0</ele><time>2026-03-28T13:48:51Z</time></trkpt><trkpt lat="41.02785492091521" lon="14.781392026999402"><ele>197.0</ele><time>2026-03-28T13:48:52Z</time></trkpt><trkpt lat="41.02796557815878" lon="14.781339565842705"><ele>197.0</ele><time>2026-03-28T13:48:53Z</time></trkpt><trkpt lat="41.028080957691" lon="14.781290885189437"><ele>197.0</ele><time>2026-03-28T13:48:54Z</time></trkpt><trkpt lat="41.02815310487421" lon="14.781248470755099"><ele>197.0</ele><time>2026-03-28T13:48:55Z</time></trkpt><trkpt lat="41.02824665054614" lon="14.781220463574662"><ele>197.0</ele><time>2026-03-28T13:48:56Z</time></trkpt><trkpt lat="41.02835556997079" lon="14.78117236959754"><ele>197.0</ele><time>2026-03-28T13:48:57Z</time></trkpt><trkpt lat="41.02843953462936" lon="14.781104732537694"><ele>197.0</ele><time>2026-03-28T13:48:58Z</time></trkpt><trkpt lat="41.028537705840705" lon="14.781012600405347"><ele>198.0</ele><time>2026-03-28T13:48:59Z</time></trkpt><trkpt lat="41.02858480321721" lon="14.780907237252102"><ele>199.0</ele><time>2026-03-28T13:49:00Z</time></trkpt><trkpt lat="41.02864701352624" lon="14.780810637739062"><ele>200.0</ele><time>2026-03-28T13:49:02Z</time></trkpt><trkpt lat="41.02868559467626" lon="14.78074042588896"><ele>201.0</ele><time>2026-03-28T13:49:04Z</time></trkpt><trkpt lat="41.02877519660034" lon="14.780629730620205"><ele>202.0</ele><time>2026-03-28T13:49:06Z</time></trkpt><trkpt lat="41.028840917568324" lon="14.780584325522936"><ele>202.0</ele><time>2026-03-28T13:49:07Z</time></trkpt><trkpt lat="41.02892974701524" lon="14.780543267452513"><ele>202.0</ele><time>2026-03-28T13:49:08Z</time></trkpt><trkpt lat="41.02902384216504" lon="14.780520137337477"><ele>202.0</ele><time>2026-03-28T13:49:09Z</time></trkpt><trkpt lat="41.02912118554959" lon="14.780503652044056"><ele>202.0</ele><time>2026-03-28T13:49:10Z</time></trkpt><trkpt lat="41.02923769644836" lon="14.780489318667247"><ele>202.0</ele><time>2026-03-28T13:49:10.999Z</time></trkpt><trkpt lat="41.02936142993359" lon="14.780470907349907"><ele>200.66666666666666</ele><time>2026-03-28T13:49:11.999Z</time></trkpt><trkpt lat="41.02954406152807" lon="14.780416081330474"><ele>199.33333333333331</ele><time>2026-03-28T13:49:12.999Z</time></trkpt><trkpt lat="41.02970699671165" lon="14.780430449586664"><ele>198.0</ele><time>2026-03-28T13:49:13.999Z</time></trkpt><trkpt lat="41.02988197187256" lon="14.780338589903323"><ele>197.0</ele><time>2026-03-28T13:49:14.999Z</time></trkpt><trkpt lat="41.030033129473715" lon="14.780303765366837"><ele>196.0</ele><time>2026-03-28T13:49:15.999Z</time></trkpt><trkpt lat="41.03018831912015" lon="14.780262194632273"><ele>195.0</ele><time>2026-03-28T13:49:16.999Z</time></trkpt><trkpt lat="41.03037654811223" lon="14.780228338637208"><ele>195.0</ele><time>2026-03-28T13:49:17.999Z</time></trkpt><trkpt lat="41.030526283682775" lon="14.780187612898292"><ele>195.0</ele><time>2026-03-28T13:49:18.999Z</time></trkpt><trkpt lat="41.0307167678542" lon="14.780136124232563"><ele>195.0</ele><time>2026-03-28T13:49:19.999Z</time></trkpt><trkpt lat="41.03089379116371" lon="14.78009900650898"><ele>194.0</ele><time>2026-03-28T13:49:20.999Z</time></trkpt><trkpt lat="41.031148489424496" lon="14.780133854554117"><ele>193.0</ele><time>2026-03-28T13:49:21.999Z</time></trkpt><trkpt lat="41.03136755049699" lon="14.780184598470509"><ele>193.0</ele><time>2026-03-28T13:49:22.999Z</time></trkpt><trkpt lat="41.03156443655614" lon="14.780207975407501"><ele>193.0</ele><time>2026-03-28T13:49:23.999Z</time></trkpt><trkpt lat="41.03175194614086" lon="14.780217967876029"><ele>193.0</ele><time>2026-03-28T13:49:24.999Z</time></trkpt><trkpt lat="41.03193245096399" lon="14.780208828924811"><ele>198.0</ele><time>2026-03-28T13:49:25.999Z</time></trkpt><trkpt lat="41.03209498064954" lon="14.780176571925832"><ele>203.0</ele><time>2026-03-28T13:49:26.999Z</time></trkpt><trkpt lat="41.03226508198469" lon="14.780097903505277"><ele>208.0</ele><time>2026-03-28T13:49:27.999Z</time></trkpt><trkpt lat="41.03243143492707" lon="14.77996034626135"><ele>207.33333333333331</ele><time>2026-03-28T13:49:28.999Z</time></trkpt><trkpt lat="41.03258185665964" lon="14.779793835687643"><ele>206.66666666666669</ele><time>2026-03-28T13:49:29.999Z</time></trkpt><trkpt lat="41.032719482291824" lon="14.779565429401899"><ele>206.0</ele><time>2026-03-28T13:49:30.999Z</time></trkpt><trkpt lat="41.032858401412994" lon="14.779319320717772"><ele>219.5</ele><time>2026-03-28T13:49:31.999Z</time></trkpt><trkpt lat="41.033018668417014" lon="14.779070015248816"><ele>233.0</ele><time>2026-03-28T13:49:32.999Z</time></trkpt><trkpt lat="41.03317420229686" lon="14.778864140937696"><ele>229.33333333333334</ele><time>2026-03-28T13:49:33.999Z</time></trkpt><trkpt lat="41.03331634023908" lon="14.778645458826022"><ele>225.66666666666669</ele><time>2026-03-28T13:49:34.999Z</time></trkpt><trkpt lat="41.03344920021919" lon="14.778446408382914"><ele>222.0</ele><time>2026-03-28T13:49:35.999Z</time></trkpt><trkpt lat="41.03356246412216" lon="14.778277614186218"><ele>222.0</ele><time>2026-03-28T13:49:36.999Z</time></trkpt><trkpt lat="41.03368267232731" lon="14.77810061868164"><ele>222.0</ele><time>2026-03-28T13:49:37.999Z</time></trkpt><trkpt lat="41.03382494514264" lon="14.777905948107506"><ele>222.0</ele><time>2026-03-28T13:49:38.999Z</time></trkpt><trkpt lat="41.03400653990274" lon="14.777703108166788"><ele>219.0</ele><time>2026-03-28T13:49:39.999Z</time></trkpt><trkpt lat="41.034174445974195" lon="14.777558575714272"><ele>216.0</ele><time>2026-03-28T13:49:40.999Z</time></trkpt><trkpt lat="41.034372496736815" lon="14.777413404745868"><ele>213.0</ele><time>2026-03-28T13:49:41.999Z</time></trkpt><trkpt lat="41.0346286007931" lon="14.777265889134348"><ele>213.0</ele><time>2026-03-28T13:49:42.999Z</time></trkpt><trkpt lat="41.034880670205" lon="14.77713680136005"><ele>213.0</ele><time>2026-03-28T13:49:43.999Z</time></trkpt><trkpt lat="41.03516785994509" lon="14.777013237809589"><ele>216.5</ele><time>2026-03-28T13:49:44.999Z</time></trkpt><trkpt lat="41.035442126033615" lon="14.776912416901755"><ele>220.0</ele><time>2026-03-28T13:49:45.999Z</time></trkpt><trkpt lat="41.035741855897754" lon="14.77680523728041"><ele>210.5</ele><time>2026-03-28T13:49:46.999Z</time></trkpt><trkpt lat="41.03602140575293" lon="14.776723736186367"><ele>201.0</ele><time>2026-03-28T13:49:47.999Z</time></trkpt><trkpt lat="41.03627876498922" lon="14.776637745690504"><ele>201.0</ele><time>2026-03-28T13:49:48.999Z</time></trkpt><trkpt lat="41.036498264533094" lon="14.776497556501875"><ele>201.0</ele><time>2026-03-28T13:49:49.999Z</time></trkpt><trkpt lat="41.03669927749403" lon="14.776432559216756"><ele>198.5</ele><time>2026-03-28T13:49:50.998Z</time></trkpt><trkpt lat="41.03693430044036" lon="14.776365410558416"><ele>196.0</ele><time>2026-03-28T13:49:51.998Z</time></trkpt><trkpt lat="41.03714562945229" lon="14.776277359761657"><ele>196.0</ele><time>2026-03-28T13:49:52.998Z</time></trkpt><trkpt lat="41.037354549712425" lon="14.776173067752765"><ele>196.0</ele><time>2026-03-28T13:49:53.998Z</time></trkpt><trkpt lat="41.03756038775408" lon="14.776062001888802"><ele>196.0</ele><time>2026-03-28T13:49:54.998Z</time></trkpt><trkpt lat="41.03774728940504" lon="14.77595705847924"><ele>202.0</ele><time>2026-03-28T13:49:55.998Z</time></trkpt><trkpt lat="41.03792149151405" lon="14.775860046934637"><ele>208.0</ele><time>2026-03-28T13:49:56.998Z</time></trkpt><trkpt lat="41.038088878762025" lon="14.77578545871257"><ele>214.0</ele><time>2026-03-28T13:49:57.998Z</time></trkpt><trkpt lat="41.0382607920872" lon="14.7757334817638"><ele>209.0</ele><time>2026-03-28T13:49:58.998Z</time></trkpt><trkpt lat="41.03842217447541" lon="14.77571940705379"><ele>204.0</ele><time>2026-03-28T13:49:59.998Z</time></trkpt><trkpt lat="41.038566695592756" lon="14.775718435701888"><ele>199.0</ele><time>2026-03-28T13:50:00.998Z</time></trkpt><trkpt lat="41.03870995176307" lon="14.77572472279961"><ele>199.0</ele><time>2026-03-28T13:50:01.998Z</time></trkpt><trkpt lat="41.03884263525356" lon="14.775738324659246"><ele>199.0</ele><time>2026-03-28T13:50:02.998Z</time></trkpt><trkpt lat="41.038957317502785" lon="14.775764217796311"><ele>199.0</ele><time>2026-03-28T13:50:03.998Z</time></trkpt><trkpt lat="41.03905754374429" lon="14.775810518411161"><ele>199.0</ele><time>2026-03-28T13:50:04.998Z</time></trkpt><trkpt lat="41.03915921966603" lon="14.775835104976204"><ele>199.66666666666666</ele><time>2026-03-28T13:50:05.998Z</time></trkpt><trkpt lat="41.03924329694053" lon="14.77584890167849"><ele>200.33333333333331</ele><time>2026-03-28T13:50:06.998Z</time></trkpt><trkpt lat="41.03931742453869" lon="14.775868649755557"><ele>201.0</ele><time>2026-03-28T13:50:07.998Z</time></trkpt><trkpt lat="41.039397334463814" lon="14.775911060341413"><ele>201.66666666666669</ele><time>2026-03-28T13:50:08.998Z</time></trkpt><trkpt lat="41.039482229261424" lon="14.775931335002662"><ele>202.33333333333334</ele><time>2026-03-28T13:50:09.998Z</time></trkpt><trkpt lat="41.03957393615026" lon="14.77595691004294"><ele>203.0</ele><time>2026-03-28T13:50:10.998Z</time></trkpt><trkpt lat="41.03968133292318" lon="14.77598006905436"><ele>203.0</ele><time>2026-03-28T13:50:11.998Z</time></trkpt><trkpt lat="41.03979033234938" lon="14.776002232965048"><ele>203.0</ele><time>2026-03-28T13:50:12.998Z</time></trkpt><trkpt lat="41.03990346922265" lon="14.776026033088137"><ele>203.0</ele><time>2026-03-28T13:50:13.998Z</time></trkpt><trkpt lat="41.04002171995034" lon="14.776052781417102"><ele>203.0</ele><time>2026-03-28T13:50:14.998Z</time></trkpt><trkpt lat="41.040144059975574" lon="14.776064199400235"><ele>200.5</ele><time>2026-03-28T13:50:15.998Z</time></trkpt><trkpt lat="41.04028263892451" lon="14.77607615664953"><ele>198.0</ele><time>2026-03-28T13:50:16.998Z</time></trkpt><trkpt lat="41.040429124912485" lon="14.776080295901892"><ele>195.5</ele><time>2026-03-28T13:50:17.998Z</time></trkpt><trkpt lat="41.0405836576864" lon="14.776085122023911"><ele>193.0</ele><time>2026-03-28T13:50:18.998Z</time></trkpt><trkpt lat="41.04073919194659" lon="14.776074567475515"><ele>192.66666666666666</ele><time>2026-03-28T13:50:19.998Z</time></trkpt><trkpt lat="41.04089556609845" lon="14.776047332024229"><ele>192.33333333333331</ele><time>2026-03-28T13:50:20.998Z</time></trkpt><trkpt lat="41.041053409918305" lon="14.775996288147148"><ele>192.0</ele><time>2026-03-28T13:50:21.998Z</time></trkpt><trkpt lat="41.04119768152316" lon="14.775898518193422"><ele>192.0</ele><time>2026-03-28T13:50:22.998Z</time></trkpt><trkpt lat="41.041384259357244" lon="14.775753266369337"><ele>192.0</ele><time>2026-03-28T13:50:23.998Z</time></trkpt><trkpt lat="41.04156223847031" lon="14.775600280953121"><ele>192.0</ele><time>2026-03-28T13:50:24.998Z</time></trkpt><trkpt lat="41.04174877574612" lon="14.775446923415531"><ele>191.66666666666666</ele><time>2026-03-28T13:50:25.998Z</time></trkpt><trkpt lat="41.04193219721892" lon="14.77527830051508"><ele>191.33333333333331</ele><time>2026-03-28T13:50:26.998Z</time></trkpt><trkpt lat="41.04208732649733" lon="14.77510358448643"><ele>191.0</ele><time>2026-03-28T13:50:27.998Z</time></trkpt><trkpt lat="41.042225707383245" lon="14.774910813278726"><ele>191.0</ele><time>2026-03-28T13:50:28.998Z</time></trkpt><trkpt lat="41.0423650443571" lon="14.774700298418727"><ele>191.0</ele><time>2026-03-28T13:50:29.997Z</time></trkpt><trkpt lat="41.04250535289761" lon="14.774482614282316"><ele>191.0</ele><time>2026-03-28T13:50:30.997Z</time></trkpt><trkpt lat="41.04266087222301" lon="14.774247747852524"><ele>191.5</ele><time>2026-03-28T13:50:31.997Z</time></trkpt><trkpt lat="41.04282544461275" lon="14.773989461733517"><ele>192.0</ele><time>2026-03-28T13:50:32.997Z</time></trkpt><trkpt lat="41.0429665682707" lon="14.773750016969254"><ele>192.0</ele><time>2026-03-28T13:50:33.997Z</time></trkpt><trkpt lat="41.04308737842013" lon="14.773530934457641"><ele>192.0</ele><time>2026-03-28T13:50:34.997Z</time></trkpt><trkpt lat="41.04320061201389" lon="14.773323732021712"><ele>192.0</ele><time>2026-03-28T13:50:35.997Z</time></trkpt><trkpt lat="41.04332589239945" lon="14.77314156646131"><ele>191.66666666666666</ele><time>2026-03-28T13:50:36.997Z</time></trkpt><trkpt lat="41.043507209216486" lon="14.773014866735725"><ele>191.33333333333331</ele><time>2026-03-28T13:50:37.997Z</time></trkpt><trkpt lat="41.04371569056388" lon="14.772884926883593"><ele>191.0</ele><time>2026-03-28T13:50:38.997Z</time></trkpt><trkpt lat="41.04394450057164" lon="14.77274315387951"><ele>191.5</ele><time>2026-03-28T13:50:39.997Z</time></trkpt><trkpt lat="41.04421042621293" lon="14.772606321582817"><ele>192.0</ele><time>2026-03-28T13:50:41Z</time></trkpt><trkpt lat="41.044459364147556" lon="14.77247283094255"><ele>192.0</ele><time>2026-03-28T13:50:42Z</time></trkpt><trkpt lat="41.04467493631072" lon="14.77235568149219"><ele>192.0</ele><time>2026-03-28T13:50:43Z</time></trkpt><trkpt lat="41.04487746214601" lon="14.772243057190163"><ele>189.0</ele><time>2026-03-28T13:50:44Z</time></trkpt><trkpt lat="41.045067052483674" lon="14.772152940782787"><ele>186.0</ele><time>2026-03-28T13:50:45Z</time></trkpt><trkpt lat="41.04524977330297" lon="14.772107658270315"><ele>183.0</ele><time>2026-03-28T13:50:46Z</time></trkpt><trkpt lat="41.04544595979963" lon="14.772106800337628"><ele>183.0</ele><time>2026-03-28T13:50:47Z</time></trkpt><trkpt lat="41.045661934430534" lon="14.772147424627654"><ele>183.0</ele><time>2026-03-28T13:50:48Z</time></trkpt><trkpt lat="41.045889420826335" lon="14.77221729555583"><ele>184.0</ele><time>2026-03-28T13:50:49Z</time></trkpt><trkpt lat="41.04609585105315" lon="14.772273745088002"><ele>185.0</ele><time>2026-03-28T13:50:50Z</time></trkpt><trkpt lat="41.04627627400157" lon="14.772334165178595"><ele>186.0</ele><time>2026-03-28T13:50:51Z</time></trkpt><trkpt lat="41.04643509435494" lon="14.772420175616263"><ele>186.0</ele><time>2026-03-28T13:50:52Z</time></trkpt><trkpt lat="41.0465772492376" lon="14.772565182770478"><ele>186.0</ele><time>2026-03-28T13:50:53Z</time></trkpt><trkpt lat="41.046727022630655" lon="14.772688937625478"><ele>186.0</ele><time>2026-03-28T13:50:54Z</time></trkpt><trkpt lat="41.04685387335032" lon="14.772838535118918"><ele>184.33333333333334</ele><time>2026-03-28T13:50:55Z</time></trkpt><trkpt lat="41.04697425802649" lon="14.77296936765384"><ele>182.66666666666669</ele><time>2026-03-28T13:50:56Z</time></trkpt><trkpt lat="41.04709582284719" lon="14.773076761160334"><ele>181.0</ele><time>2026-03-28T13:50:57Z</time></trkpt><trkpt lat="41.04723377362775" lon="14.77316049415666"><ele>181.0</ele><time>2026-03-28T13:50:58Z</time></trkpt><trkpt lat="41.04740595546866" lon="14.773208051045156"><ele>181.0</ele><time>2026-03-28T13:50:59Z</time></trkpt><trkpt lat="41.04760395491631" lon="14.773243122193294"><ele>181.0</ele><time>2026-03-28T13:51:00Z</time></trkpt><trkpt lat="41.04782172767411" lon="14.773271656600517"><ele>180.66666666666669</ele><time>2026-03-28T13:51:01Z</time></trkpt><trkpt lat="41.04804016078507" lon="14.773293825611937"><ele>180.33333333333334</ele><time>2026-03-28T13:51:02Z</time></trkpt><trkpt lat="41.04825661989443" lon="14.773303692752961"><ele>180.0</ele><time>2026-03-28T13:51:03Z</time></trkpt><trkpt lat="41.0484407617665" lon="14.773304675600098"><ele>182.0</ele><time>2026-03-28T13:51:04Z</time></trkpt><trkpt lat="41.048605594444176" lon="14.773303076995603"><ele>184.0</ele><time>2026-03-28T13:51:05Z</time></trkpt><trkpt lat="41.04876358074698" lon="14.773282217791085"><ele>186.0</ele><time>2026-03-28T13:51:06Z</time></trkpt><trkpt lat="41.04893724538575" lon="14.773199558817602"><ele>186.0</ele><time>2026-03-28T13:51:07Z</time></trkpt><trkpt lat="41.049110920460556" lon="14.77308104418155"><ele>186.0</ele><time>2026-03-28T13:51:08Z</time></trkpt><trkpt lat="41.04930621655077" lon="14.772940661738103"><ele>186.0</ele><time>2026-03-28T13:51:09Z</time></trkpt><trkpt lat="41.04950217978337" lon="14.77277169590103"><ele>190.5</ele><time>2026-03-28T13:51:10Z</time></trkpt><trkpt lat="41.04969211685885" lon="14.77256693651014"><ele>195.0</ele><time>2026-03-28T13:51:11Z</time></trkpt><trkpt lat="41.04988288813331" lon="14.772400456622817"><ele>194.66666666666669</ele><time>2026-03-28T13:51:12Z</time></trkpt><trkpt lat="41.05006416780504" lon="14.7722685185379"><ele>194.33333333333334</ele><time>2026-03-28T13:51:13Z</time></trkpt><trkpt lat="41.05023251358401" lon="14.772182980175552"><ele>194.0</ele><time>2026-03-28T13:51:13.999Z</time></trkpt><trkpt lat="41.050385728087626" lon="14.772110943401799"><ele>194.0</ele><time>2026-03-28T13:51:14.999Z</time></trkpt><trkpt lat="41.05051881521045" lon="14.77205202597804"><ele>194.0</ele><time>2026-03-28T13:51:15.999Z</time></trkpt><trkpt lat="41.05062114039796" lon="14.7720510001959"><ele>194.0</ele><time>2026-03-28T13:51:16.999Z</time></trkpt><trkpt lat="41.050683712692425" lon="14.772061453140548"><ele>194.0</ele><time>2026-03-28T13:51:17.999Z</time></trkpt><trkpt lat="41.05081529883589" lon="14.771924285739914"><ele>196.25</ele><time>2026-03-28T13:51:19.999Z</time></trkpt><trkpt lat="41.05087558684383" lon="14.771799868926596"><ele>198.5</ele><time>2026-03-28T13:51:20.999Z</time></trkpt><trkpt lat="41.05095909934514" lon="14.771639760714393"><ele>200.75</ele><time>2026-03-28T13:51:21.999Z</time></trkpt><trkpt lat="41.0510515206881" lon="14.771491143883946"><ele>203.0</ele><time>2026-03-28T13:51:22.999Z</time></trkpt><trkpt lat="41.051135261719516" lon="14.771412632207236"><ele>203.0</ele><time>2026-03-28T13:51:23.999Z</time></trkpt><trkpt lat="41.051233849691364" lon="14.771401933083414"><ele>203.0</ele><time>2026-03-28T13:51:24.999Z</time></trkpt><trkpt lat="41.05133856034362" lon="14.771471825373187"><ele>203.0</ele><time>2026-03-28T13:51:25.999Z</time></trkpt><trkpt lat="41.05146178819609" lon="14.771517499479794"><ele>203.0</ele><time>2026-03-28T13:51:26.999Z</time></trkpt><trkpt lat="41.051569796391625" lon="14.771599182423385"><ele>203.4</ele><time>2026-03-28T13:51:27.999Z</time></trkpt><trkpt lat="41.051675629868434" lon="14.771648102379316"><ele>203.8</ele><time>2026-03-28T13:51:28.999Z</time></trkpt><trkpt lat="41.05176118429747" lon="14.771673099603545"><ele>204.2</ele><time>2026-03-28T13:51:29.999Z</time></trkpt><trkpt lat="41.051846492610075" lon="14.771667086447094"><ele>204.6</ele><time>2026-03-28T13:51:30.999Z</time></trkpt><trkpt lat="41.05191144533072" lon="14.771592131257282"><ele>205.0</ele><time>2026-03-28T13:51:31.999Z</time></trkpt><trkpt lat="41.05193217794993" lon="14.771470911475689"><ele>205.0</ele><time>2026-03-28T13:51:32.999Z</time></trkpt><trkpt lat="41.05189776715219" lon="14.771350095733638"><ele>205.0</ele><time>2026-03-28T13:51:33.999Z</time></trkpt><trkpt lat="41.0518086065595" lon="14.771270437126221"><ele>205.0</ele><time>2026-03-28T13:51:34.999Z</time></trkpt><trkpt lat="41.051689593059265" lon="14.771195789610767"><ele>205.0</ele><time>2026-03-28T13:51:35.999Z</time></trkpt><trkpt lat="41.05154972378203" lon="14.77108918667317"><ele>209.0</ele><time>2026-03-28T13:51:36.999Z</time></trkpt><trkpt lat="41.05137978436611" lon="14.77098077334658"><ele>213.0</ele><time>2026-03-28T13:51:37.999Z</time></trkpt><trkpt lat="41.051214985439714" lon="14.770842533181508"><ele>217.0</ele><time>2026-03-28T13:51:38.999Z</time></trkpt><trkpt lat="41.05103265170795" lon="14.77069401892998"><ele>217.0</ele><time>2026-03-28T13:51:39.999Z</time></trkpt><trkpt lat="41.05087015640436" lon="14.770556286993765"><ele>217.0</ele><time>2026-03-28T13:51:40.999Z</time></trkpt><trkpt lat="41.050738135133" lon="14.77042445384385"><ele>217.0</ele><time>2026-03-28T13:51:41.999Z</time></trkpt><trkpt lat="41.05061003040174" lon="14.770277521061866"><ele>217.75</ele><time>2026-03-28T13:51:42.999Z</time></trkpt><trkpt lat="41.05050281407649" lon="14.770114645553472"><ele>218.5</ele><time>2026-03-28T13:51:43.999Z</time></trkpt><trkpt lat="41.05041693493792" lon="14.76996173411458"><ele>219.25</ele><time>2026-03-28T13:51:44.999Z</time></trkpt><trkpt lat="41.05035061716607" lon="14.769817957316581"><ele>220.0</ele><time>2026-03-28T13:51:45.999Z</time></trkpt><trkpt lat="41.05032665054722" lon="14.769653533511995"><ele>220.0</ele><time>2026-03-28T13:51:46.999Z</time></trkpt><trkpt lat="41.0503550218398" lon="14.769490556194558"><ele>220.0</ele><time>2026-03-28T13:51:47.999Z</time></trkpt><trkpt lat="41.050423397569325" lon="14.769370436989789"><ele>220.0</ele><time>2026-03-28T13:51:48.999Z</time></trkpt><trkpt lat="41.05052512370402" lon="14.769307149492644"><ele>220.0</ele><time>2026-03-28T13:51:49.999Z</time></trkpt><trkpt lat="41.05067214888547" lon="14.769387327537185"><ele>222.33333333333331</ele><time>2026-03-28T13:51:50.999Z</time></trkpt><trkpt lat="41.050820811333146" lon="14.769411867689486"><ele>224.66666666666669</ele><time>2026-03-28T13:51:51.998Z</time></trkpt><trkpt lat="41.050994690821845" lon="14.769488461053479"><ele>227.0</ele><time>2026-03-28T13:51:52.998Z</time></trkpt><trkpt lat="41.05115259481077" lon="14.769543240492386"><ele>227.0</ele><time>2026-03-28T13:51:53.998Z</time></trkpt><trkpt lat="41.05127678574099" lon="14.769582617489656"><ele>227.0</ele><time>2026-03-28T13:51:54.998Z</time></trkpt><trkpt lat="41.051369192926245" lon="14.769581046792865"><ele>227.0</ele><time>2026-03-28T13:51:55.998Z</time></trkpt><trkpt lat="41.05144880469938" lon="14.76955207403924"><ele>227.0</ele><time>2026-03-28T13:51:56.998Z</time></trkpt><trkpt lat="41.05150668036735" lon="14.769485487208192"><ele>227.0</ele><time>2026-03-28T13:51:57.998Z</time></trkpt><trkpt lat="41.051461422969595" lon="14.769291906201769"><ele>228.75</ele><time>2026-03-28T13:51:58.998Z</time></trkpt><trkpt lat="41.05142539184752" lon="14.769134654101446"><ele>230.5</ele><time>2026-03-28T13:51:59.998Z</time></trkpt><trkpt lat="41.05136405820701" lon="14.768931215678226"><ele>232.25</ele><time>2026-03-28T13:52:00.998Z</time></trkpt><trkpt lat="41.05131369390927" lon="14.768736993432835"><ele>234.0</ele><time>2026-03-28T13:52:01.998Z</time></trkpt><trkpt lat="41.05123657834798" lon="14.768553664940747"><ele>237.33333333333331</ele><time>2026-03-28T13:52:02.998Z</time></trkpt><trkpt lat="41.051115222504144" lon="14.768392177102816"><ele>240.66666666666666</ele><time>2026-03-28T13:52:03.998Z</time></trkpt><trkpt lat="41.05096989081578" lon="14.76822651253473"><ele>244.0</ele><time>2026-03-28T13:52:04.998Z</time></trkpt><trkpt lat="41.050822108590616" lon="14.768054824951024"><ele>245.66666666666666</ele><time>2026-03-28T13:52:05.998Z</time></trkpt><trkpt lat="41.05063830156908" lon="14.767889854588809"><ele>247.33333333333331</ele><time>2026-03-28T13:52:06.998Z</time></trkpt><trkpt lat="41.05046197276972" lon="14.767702592815166"><ele>249.0</ele><time>2026-03-28T13:52:07.998Z</time></trkpt><trkpt lat="41.05031380311059" lon="14.767515795677728"><ele>249.0</ele><time>2026-03-28T13:52:08.998Z</time></trkpt><trkpt lat="41.050178167285736" lon="14.767375907109791"><ele>249.0</ele><time>2026-03-28T13:52:09.998Z</time></trkpt><trkpt lat="41.05007104309968" lon="14.76722983695614"><ele>249.0</ele><time>2026-03-28T13:52:10.998Z</time></trkpt><trkpt lat="41.04999998641324" lon="14.767069237780301"><ele>250.0</ele><time>2026-03-28T13:52:11.998Z</time></trkpt><trkpt lat="41.049927433283926" lon="14.766850486202788"><ele>251.0</ele><time>2026-03-28T13:52:12.998Z</time></trkpt><trkpt lat="41.04986265603604" lon="14.766591122233548"><ele>252.0</ele><time>2026-03-28T13:52:13.998Z</time></trkpt><trkpt lat="41.049789974900854" lon="14.766346037988626"><ele>252.0</ele><time>2026-03-28T13:52:14.998Z</time></trkpt><trkpt lat="41.049720132284676" lon="14.766089192886662"><ele>252.0</ele><time>2026-03-28T13:52:15.998Z</time></trkpt><trkpt lat="41.04965021956671" lon="14.765828745294593"><ele>252.0</ele><time>2026-03-28T13:52:16.998Z</time></trkpt><trkpt lat="41.04957513514578" lon="14.765601785945814"><ele>253.25</ele><time>2026-03-28T13:52:17.998Z</time></trkpt><trkpt lat="41.04950622796465" lon="14.765410755005961"><ele>254.5</ele><time>2026-03-28T13:52:18.998Z</time></trkpt><trkpt lat="41.04945432148074" lon="14.765248332271586"><ele>255.75</ele><time>2026-03-28T13:52:19.998Z</time></trkpt><trkpt lat="41.04944094559637" lon="14.765108772867213"><ele>257.0</ele><time>2026-03-28T13:52:20.998Z</time></trkpt><trkpt lat="41.0494769723864" lon="14.764959554149623"><ele>259.0</ele><time>2026-03-28T13:52:21.998Z</time></trkpt><trkpt lat="41.04956330800209" lon="14.764808383197314"><ele>261.0</ele><time>2026-03-28T13:52:22.998Z</time></trkpt><trkpt lat="41.04968749790933" lon="14.76463742009231"><ele>263.0</ele><time>2026-03-28T13:52:23.998Z</time></trkpt><trkpt lat="41.0498377540397" lon="14.764457151332573"><ele>267.6666666666667</ele><time>2026-03-28T13:52:24.998Z</time></trkpt><trkpt lat="41.04997462104966" lon="14.764277448898337"><ele>272.3333333333333</ele><time>2026-03-28T13:52:25.998Z</time></trkpt><trkpt lat="41.05009817577598" lon="14.764099571877257"><ele>277.0</ele><time>2026-03-28T13:52:26.998Z</time></trkpt><trkpt lat="41.050203730236284" lon="14.763948512717013"><ele>277.0</ele><time>2026-03-28T13:52:27.998Z</time></trkpt><trkpt lat="41.05026751722875" lon="14.763774564888722"><ele>277.0</ele><time>2026-03-28T13:52:28.998Z</time></trkpt><trkpt lat="41.050339305138266" lon="14.763572168195015"><ele>277.0</ele><time>2026-03-28T13:52:29.998Z</time></trkpt><trkpt lat="41.050382257019876" lon="14.763324495515645"><ele>280.3333333333333</ele><time>2026-03-28T13:52:30.998Z</time></trkpt><trkpt lat="41.05040490511533" lon="14.763094602617551"><ele>283.6666666666667</ele><time>2026-03-28T13:52:31.997Z</time></trkpt><trkpt lat="41.05041920566391" lon="14.762864404427727"><ele>287.0</ele><time>2026-03-28T13:52:32.997Z</time></trkpt><trkpt lat="41.05043794069332" lon="14.76264972105427"><ele>289.0</ele><time>2026-03-28T13:52:33.997Z</time></trkpt><trkpt lat="41.050479585096824" lon="14.762435209119774"><ele>291.0</ele><time>2026-03-28T13:52:34.997Z</time></trkpt><trkpt lat="41.05055471736767" lon="14.762256765140942"><ele>293.0</ele><time>2026-03-28T13:52:35.997Z</time></trkpt><trkpt lat="41.05062404469981" lon="14.762108853915477"><ele>293.0</ele><time>2026-03-28T13:52:36.997Z</time></trkpt><trkpt lat="41.05066477532293" lon="14.761964396656227"><ele>293.0</ele><time>2026-03-28T13:52:37.997Z</time></trkpt><trkpt lat="41.05066992536069" lon="14.761816987743966"><ele>293.0</ele><time>2026-03-28T13:52:38.997Z</time></trkpt><trkpt lat="41.05065670208922" lon="14.761695229269542"><ele>293.0</ele><time>2026-03-28T13:52:39.997Z</time></trkpt><trkpt lat="41.05059781662313" lon="14.761608131339683"><ele>293.0</ele><time>2026-03-28T13:52:40.997Z</time></trkpt><trkpt lat="41.05049377326704" lon="14.761551014849102"><ele>291.8</ele><time>2026-03-28T13:52:41.997Z</time></trkpt><trkpt lat="41.050381796237865" lon="14.761499199551533"><ele>290.6</ele><time>2026-03-28T13:52:42.997Z</time></trkpt><trkpt lat="41.05028196532529" lon="14.761453392471685"><ele>289.4</ele><time>2026-03-28T13:52:43.997Z</time></trkpt><trkpt lat="41.05020151989276" lon="14.761456254504141"><ele>288.2</ele><time>2026-03-28T13:52:44.997Z</time></trkpt><trkpt lat="41.05012972076734" lon="14.761516346874945"><ele>287.0</ele><time>2026-03-28T13:52:45.997Z</time></trkpt><trkpt lat="41.050091319104084" lon="14.761612004984045"><ele>287.0</ele><time>2026-03-28T13:52:47Z</time></trkpt><trkpt lat="41.05012600328199" lon="14.761746870368922"><ele>287.0</ele><time>2026-03-28T13:52:48Z</time></trkpt><trkpt lat="41.050190492047236" lon="14.76186041985022"><ele>287.0</ele><time>2026-03-28T13:52:49Z</time></trkpt><trkpt lat="41.050243762009174" lon="14.761995460005966"><ele>287.0</ele><time>2026-03-28T13:52:50Z</time></trkpt><trkpt lat="41.05026759778688" lon="14.762120306562762"><ele>287.0</ele><time>2026-03-28T13:52:51Z</time></trkpt><trkpt lat="41.05022004105002" lon="14.762266531885182"><ele>287.0</ele><time>2026-03-28T13:52:52Z</time></trkpt><trkpt lat="41.05016836028165" lon="14.762451383643535"><ele>287.0</ele><time>2026-03-28T13:52:53Z</time></trkpt><trkpt lat="41.050130361555155" lon="14.76267774569498"><ele>287.0</ele><time>2026-03-28T13:52:54Z</time></trkpt><trkpt lat="41.05011173856455" lon="14.762873802008599"><ele>287.0</ele><time>2026-03-28T13:52:55Z</time></trkpt><trkpt lat="41.05007423919304" lon="14.763022741856725"><ele>287.0</ele><time>2026-03-28T13:52:56Z</time></trkpt><trkpt lat="41.05001385516731" lon="14.763152360442925"><ele>287.0</ele><time>2026-03-28T13:52:57Z</time></trkpt><trkpt lat="41.049911911829156" lon="14.763234270706942"><ele>287.0</ele><time>2026-03-28T13:52:58Z</time></trkpt><trkpt lat="41.049795919224294" lon="14.763275099761794"><ele>289.0</ele><time>2026-03-28T13:52:59Z</time></trkpt><trkpt lat="41.049658905674974" lon="14.763245509649071"><ele>291.0</ele><time>2026-03-28T13:53:00Z</time></trkpt><trkpt lat="41.04949855102741" lon="14.763189848396463"><ele>293.0</ele><time>2026-03-28T13:53:01Z</time></trkpt><trkpt lat="41.049318506990154" lon="14.763126724986146"><ele>293.0</ele><time>2026-03-28T13:53:02Z</time></trkpt><trkpt lat="41.04913814459082" lon="14.763061869482453"><ele>293.0</ele><time>2026-03-28T13:53:03Z</time></trkpt><trkpt lat="41.048933162166804" lon="14.76299295524026"><ele>293.0</ele><time>2026-03-28T13:53:04Z</time></trkpt><trkpt lat="41.04877150417558" lon="14.762932955287278"><ele>291.33333333333337</ele><time>2026-03-28T13:53:05Z</time></trkpt><trkpt lat="41.048638345484356" lon="14.76284558284275"><ele>289.6666666666667</ele><time>2026-03-28T13:53:06Z</time></trkpt><trkpt lat="41.048521647597404" lon="14.762732118481656"><ele>288.0</ele><time>2026-03-28T13:53:07Z</time></trkpt><trkpt lat="41.04838346485583" lon="14.762621063484065"><ele>295.0</ele><time>2026-03-28T13:53:08Z</time></trkpt><trkpt lat="41.048198354049305" lon="14.762538949930883"><ele>302.0</ele><time>2026-03-28T13:53:09Z</time></trkpt><trkpt lat="41.04798385903777" lon="14.76248881541861"><ele>309.0</ele><time>2026-03-28T13:53:10Z</time></trkpt><trkpt lat="41.04778692114261" lon="14.762458094426938"><ele>309.0</ele><time>2026-03-28T13:53:11Z</time></trkpt><trkpt lat="41.04762839690117" lon="14.762416421840502"><ele>309.0</ele><time>2026-03-28T13:53:12Z</time></trkpt><trkpt lat="41.04748895738413" lon="14.762367190242058"><ele>309.0</ele><time>2026-03-28T13:53:13Z</time></trkpt><trkpt lat="41.047360514806" lon="14.762283338950176"><ele>309.0</ele><time>2026-03-28T13:53:14Z</time></trkpt><trkpt lat="41.047229000531104" lon="14.762228771955407"><ele>309.25</ele><time>2026-03-28T13:53:15Z</time></trkpt><trkpt lat="41.04709361990348" lon="14.762203449526714"><ele>309.5</ele><time>2026-03-28T13:53:16Z</time></trkpt><trkpt lat="41.04694269943711" lon="14.762212513425922"><ele>309.75</ele><time>2026-03-28T13:53:17Z</time></trkpt><trkpt lat="41.04678892809297" lon="14.762210877156438"><ele>310.0</ele><time>2026-03-28T13:53:18Z</time></trkpt><trkpt lat="41.046647518159745" lon="14.762211440338401"><ele>309.5</ele><time>2026-03-28T13:53:19Z</time></trkpt><trkpt lat="41.04651367719356" lon="14.76218921698743"><ele>309.0</ele><time>2026-03-28T13:53:19.999Z</time></trkpt><trkpt lat="41.04638581441014" lon="14.762149199995429"><ele>308.5</ele><time>2026-03-28T13:53:20.999Z</time></trkpt><trkpt lat="41.04625007486628" lon="14.762099151070963"><ele>308.0</ele><time>2026-03-28T13:53:21.999Z</time></trkpt><trkpt lat="41.046117169795224" lon="14.762048333073915"><ele>308.0</ele><time>2026-03-28T13:53:22.999Z</time></trkpt><trkpt lat="41.04598605708814" lon="14.761992380862269"><ele>308.0</ele><time>2026-03-28T13:53:23.999Z</time></trkpt><trkpt lat="41.04588616517256" lon="14.761932939068608"><ele>308.0</ele><time>2026-03-28T13:53:24.999Z</time></trkpt><trkpt lat="41.04580852017722" lon="14.761865284021916"><ele>308.0</ele><time>2026-03-28T13:53:25.999Z</time></trkpt><trkpt lat="41.04574419851661" lon="14.76181876674915"><ele>308.0</ele><time>2026-03-28T13:53:26.999Z</time></trkpt><trkpt lat="41.04566847993747" lon="14.761740424846808"><ele>310.2</ele><time>2026-03-28T13:53:30.999Z</time></trkpt><trkpt lat="41.04557520732869" lon="14.761622964083283"><ele>312.4</ele><time>2026-03-28T13:53:32.999Z</time></trkpt><trkpt lat="41.04551514839055" lon="14.76155973500089"><ele>314.59999999999997</ele><time>2026-03-28T13:53:33.999Z</time></trkpt><trkpt lat="41.0454600673641" lon="14.76148122090898"><ele>316.8</ele><time>2026-03-28T13:53:34.999Z</time></trkpt><trkpt lat="41.04538374218424" lon="14.761423008919918"><ele>319.0</ele><time>2026-03-28T13:53:35.999Z</time></trkpt><trkpt lat="41.045307752836024" lon="14.761364642618442"><ele>319.0</ele><time>2026-03-28T13:53:36.999Z</time></trkpt><trkpt lat="41.04521504861867" lon="14.761320111107352"><ele>319.0</ele><time>2026-03-28T13:53:37.999Z</time></trkpt><trkpt lat="41.04511782377073" lon="14.761258983897356"><ele>319.0</ele><time>2026-03-28T13:53:38.999Z</time></trkpt><trkpt lat="41.04501141684425" lon="14.761222423300516"><ele>319.0</ele><time>2026-03-28T13:53:39.999Z</time></trkpt><trkpt lat="41.04490226244265" lon="14.761205832799442"><ele>319.0</ele><time>2026-03-28T13:53:40.999Z</time></trkpt><trkpt lat="41.04478912752914" lon="14.76121243211558"><ele>318.0</ele><time>2026-03-28T13:53:41.999Z</time></trkpt><trkpt lat="41.04466088695128" lon="14.76118411586026"><ele>317.0</ele><time>2026-03-28T13:53:42.999Z</time></trkpt><trkpt lat="41.04454971520556" lon="14.761201385310478"><ele>316.0</ele><time>2026-03-28T13:53:43.999Z</time></trkpt><trkpt lat="41.044444442483645" lon="14.761214952004385"><ele>315.0</ele><time>2026-03-28T13:53:44.999Z</time></trkpt><trkpt lat="41.04435130538585" lon="14.761229848029158"><ele>314.0</ele><time>2026-03-28T13:53:45.999Z</time></trkpt><trkpt lat="41.044261090104705" lon="14.761154915682885"><ele>314.0</ele><time>2026-03-28T13:53:46.999Z</time></trkpt><trkpt lat="41.04421226173388" lon="14.76104166868129"><ele>314.0</ele><time>2026-03-28T13:53:47.999Z</time></trkpt><trkpt lat="41.04414793652625" lon="14.76091069759159"><ele>314.0</ele><time>2026-03-28T13:53:48.999Z</time></trkpt><trkpt lat="41.04409871875705" lon="14.760814367866388"><ele>314.0</ele><time>2026-03-28T13:53:49.999Z</time></trkpt><trkpt lat="41.04405582215252" lon="14.7607197904236"><ele>314.0</ele><time>2026-03-28T13:53:50.999Z</time></trkpt><trkpt lat="41.044003077251666" lon="14.760627022541678"><ele>314.59999999999997</ele><time>2026-03-28T13:53:51.999Z</time></trkpt><trkpt lat="41.04395955307783" lon="14.760521716174022"><ele>315.2</ele><time>2026-03-28T13:53:52.999Z</time></trkpt><trkpt lat="41.04393605020017" lon="14.760437589141183"><ele>315.79999999999995</ele><time>2026-03-28T13:53:53.999Z</time></trkpt><trkpt lat="41.04393418951765" lon="14.760288801895515"><ele>316.4</ele><time>2026-03-28T13:53:55.999Z</time></trkpt><trkpt lat="41.04391219439187" lon="14.76014829449402"><ele>317.0</ele><time>2026-03-28T13:53:58.998Z</time></trkpt><trkpt lat="41.043870325744734" lon="14.760052996311222"><ele>320.0</ele><time>2026-03-28T13:54:00.998Z</time></trkpt><trkpt lat="41.0438121847239" lon="14.759956485279575"><ele>323.0</ele><time>2026-03-28T13:54:02.998Z</time></trkpt><trkpt lat="41.043727538674084" lon="14.75985378123355"><ele>326.0</ele><time>2026-03-28T13:54:04.998Z</time></trkpt><trkpt lat="41.04366152363218" lon="14.759719468119833"><ele>329.0</ele><time>2026-03-28T13:54:06.998Z</time></trkpt><trkpt lat="41.04363173632279" lon="14.759640721428362"><ele>332.0</ele><time>2026-03-28T13:54:07.998Z</time></trkpt><trkpt lat="41.04360916182094" lon="14.759550554683441"><ele>332.0</ele><time>2026-03-28T13:54:08.998Z</time></trkpt><trkpt lat="41.04358981988057" lon="14.759443115675243"><ele>332.0</ele><time>2026-03-28T13:54:09.998Z</time></trkpt><trkpt lat="41.043582441481966" lon="14.759318442593441"><ele>332.0</ele><time>2026-03-28T13:54:10.998Z</time></trkpt><trkpt lat="41.043588665763856" lon="14.759188911218368"><ele>332.0</ele><time>2026-03-28T13:54:11.998Z</time></trkpt><trkpt lat="41.0436044142462" lon="14.75906189161758"><ele>332.0</ele><time>2026-03-28T13:54:12.998Z</time></trkpt><trkpt lat="41.043639330814436" lon="14.758928833808849"><ele>334.33333333333337</ele><time>2026-03-28T13:54:13.998Z</time></trkpt><trkpt lat="41.04368693211977" lon="14.758796720445044"><ele>336.6666666666667</ele><time>2026-03-28T13:54:14.998Z</time></trkpt><trkpt lat="41.04372907350512" lon="14.75866844490222"><ele>339.0</ele><time>2026-03-28T13:54:15.998Z</time></trkpt><trkpt lat="41.04375490227265" lon="14.75855379549206"><ele>341.3333333333333</ele><time>2026-03-28T13:54:16.998Z</time></trkpt><trkpt lat="41.043755435403014" lon="14.758457334224696"><ele>343.66666666666663</ele><time>2026-03-28T13:54:17.998Z</time></trkpt><trkpt lat="41.04372970017473" lon="14.758374240275153"><ele>346.0</ele><time>2026-03-28T13:54:18.998Z</time></trkpt><trkpt lat="41.04366737104411" lon="14.758320740117927"><ele>347.8</ele><time>2026-03-28T13:54:19.998Z</time></trkpt><trkpt lat="41.043588010557194" lon="14.758326710676059"><ele>349.6</ele><time>2026-03-28T13:54:20.998Z</time></trkpt><trkpt lat="41.043470602142605" lon="14.758374642860305"><ele>351.4</ele><time>2026-03-28T13:54:22.998Z</time></trkpt><trkpt lat="41.04338573376504" lon="14.758432866829565"><ele>353.2</ele><time>2026-03-28T13:54:23.998Z</time></trkpt><trkpt lat="41.04327445642111" lon="14.758486947708098"><ele>355.0</ele><time>2026-03-28T13:54:24.998Z</time></trkpt><trkpt lat="41.04318454554482" lon="14.758551225312214"><ele>355.5</ele><time>2026-03-28T13:54:25.998Z</time></trkpt><trkpt lat="41.04309545080556" lon="14.758615595084484"><ele>356.0</ele><time>2026-03-28T13:54:26.998Z</time></trkpt><trkpt lat="41.042985287557" lon="14.75870751301383"><ele>356.5</ele><time>2026-03-28T13:54:27.998Z</time></trkpt><trkpt lat="41.04287764864069" lon="14.758804087252578"><ele>357.0</ele><time>2026-03-28T13:54:28.998Z</time></trkpt><trkpt lat="41.04277759020253" lon="14.758916268554621"><ele>357.0</ele><time>2026-03-28T13:54:29.998Z</time></trkpt><trkpt lat="41.04268860175191" lon="14.758933402018618"><ele>357.0</ele><time>2026-03-28T13:54:30.998Z</time></trkpt><trkpt lat="41.04253523158461" lon="14.758964809086105"><ele>357.0</ele><time>2026-03-28T13:54:31.998Z</time></trkpt><trkpt lat="41.04238900693596" lon="14.758948661174234"><ele>357.0</ele><time>2026-03-28T13:54:32.998Z</time></trkpt><trkpt lat="41.042262408631586" lon="14.75888238564577"><ele>355.3333333333333</ele><time>2026-03-28T13:54:33.998Z</time></trkpt><trkpt lat="41.04213546486372" lon="14.758780391629074"><ele>353.66666666666663</ele><time>2026-03-28T13:54:34.998Z</time></trkpt><trkpt lat="41.04199756715918" lon="14.758676124825687"><ele>352.0</ele><time>2026-03-28T13:54:35.998Z</time></trkpt><trkpt lat="41.041831973395425" lon="14.758617175637749"><ele>352.0</ele><time>2026-03-28T13:54:36.998Z</time></trkpt><trkpt lat="41.04166845503239" lon="14.758575192628232"><ele>352.0</ele><time>2026-03-28T13:54:37.997Z</time></trkpt><trkpt lat="41.04149401067616" lon="14.75853292461942"><ele>352.0</ele><time>2026-03-28T13:54:38.997Z</time></trkpt><trkpt lat="41.04133564414614" lon="14.758458477425602"><ele>360.66666666666663</ele><time>2026-03-28T13:54:39.997Z</time></trkpt><trkpt lat="41.04116271612575" lon="14.758341109568363"><ele>369.3333333333333</ele><time>2026-03-28T13:54:40.997Z</time></trkpt><trkpt lat="41.04098411135737" lon="14.758194983838276"><ele>378.0</ele><time>2026-03-28T13:54:41.997Z</time></trkpt><trkpt lat="41.04082960176073" lon="14.75806736023197"><ele>382.25</ele><time>2026-03-28T13:54:42.997Z</time></trkpt><trkpt lat="41.04069836698575" lon="14.75796613458533"><ele>386.5</ele><time>2026-03-28T13:54:43.997Z</time></trkpt><trkpt lat="41.04059657959735" lon="14.757878429220733"><ele>390.75</ele><time>2026-03-28T13:54:44.997Z</time></trkpt><trkpt lat="41.04047688405238" lon="14.75785434832782"><ele>395.0</ele><time>2026-03-28T13:54:45.997Z</time></trkpt><trkpt lat="41.040332536567846" lon="14.757904988907145"><ele>395.0</ele><time>2026-03-28T13:54:46.997Z</time></trkpt><trkpt lat="41.04020719349493" lon="14.757973814446045"><ele>395.0</ele><time>2026-03-28T13:54:47.997Z</time></trkpt><trkpt lat="41.040101200113746" lon="14.758039161505911"><ele>395.0</ele><time>2026-03-28T13:54:48.997Z</time></trkpt><trkpt lat="41.040035621459715" lon="14.758197721827438"><ele>395.0</ele><time>2026-03-28T13:54:49.997Z</time></trkpt><trkpt lat="41.04002315447186" lon="14.758394982714261"><ele>392.4</ele><time>2026-03-28T13:54:50.997Z</time></trkpt><trkpt lat="41.039965760222096" lon="14.758548157364249"><ele>389.8</ele><time>2026-03-28T13:54:51.997Z</time></trkpt><trkpt lat="41.03990590620767" lon="14.758642508255258"><ele>387.20000000000005</ele><time>2026-03-28T13:54:53Z</time></trkpt><trkpt lat="41.039813765031006" lon="14.75872448254212"><ele>384.6</ele><time>2026-03-28T13:54:54Z</time></trkpt><trkpt lat="41.039732333379625" lon="14.758751519912371"><ele>382.0</ele><time>2026-03-28T13:54:55Z</time></trkpt><trkpt lat="41.03962188538771" lon="14.758749337929487"><ele>382.0</ele><time>2026-03-28T13:54:56Z</time></trkpt><trkpt lat="41.03951505271618" lon="14.758730927774124"><ele>382.0</ele><time>2026-03-28T13:54:57Z</time></trkpt><trkpt lat="41.03940118054421" lon="14.75871088670823"><ele>382.0</ele><time>2026-03-28T13:54:58Z</time></trkpt><trkpt lat="41.03933149710784" lon="14.758613415604264"><ele>382.0</ele><time>2026-03-28T13:54:59Z</time></trkpt><trkpt lat="41.03925096122745" lon="14.758533248411771"><ele>382.0</ele><time>2026-03-28T13:55:00Z</time></trkpt><trkpt lat="41.039185144941165" lon="14.758397437736349"><ele>384.0</ele><time>2026-03-28T13:55:01Z</time></trkpt><trkpt lat="41.039103892436266" lon="14.758289721074796"><ele>386.0</ele><time>2026-03-28T13:55:02Z</time></trkpt><trkpt lat="41.03902043677023" lon="14.75820476161366"><ele>388.0</ele><time>2026-03-28T13:55:03Z</time></trkpt><trkpt lat="41.03897013308139" lon="14.758143560623639"><ele>390.0</ele><time>2026-03-28T13:55:04Z</time></trkpt><trkpt lat="41.03889591948259" lon="14.758035609555275"><ele>392.0</ele><time>2026-03-28T13:55:06Z</time></trkpt><trkpt lat="41.03878949657108" lon="14.757941767042114"><ele>392.0</ele><time>2026-03-28T13:55:08Z</time></trkpt><trkpt lat="41.038736451736504" lon="14.757893250052334"><ele>392.0</ele><time>2026-03-28T13:55:09Z</time></trkpt><trkpt lat="41.03865308959321" lon="14.757833292815624"><ele>392.0</ele><time>2026-03-28T13:55:11Z</time></trkpt><trkpt lat="41.038542817508905" lon="14.75776522445424"><ele>392.0</ele><time>2026-03-28T13:55:13Z</time></trkpt><trkpt lat="41.03843345899589" lon="14.757688645186649"><ele>392.0</ele><time>2026-03-28T13:55:15Z</time></trkpt><trkpt lat="41.038384748913806" lon="14.757610072585898"><ele>392.0</ele><time>2026-03-28T13:55:16Z</time></trkpt><trkpt lat="41.03831300887821" lon="14.75750205165764"><ele>392.0</ele><time>2026-03-28T13:55:18Z</time></trkpt><trkpt lat="41.03826781207534" lon="14.757404001086226"><ele>392.0</ele><time>2026-03-28T13:55:20Z</time></trkpt><trkpt lat="41.03833906581589" lon="14.757648052056766"><ele>392.0</ele><time>2026-03-28T13:55:25Z</time></trkpt><trkpt lat="41.0384289253062" lon="14.757726409123423"><ele>391.99999999999994</ele><time>2026-03-28T13:55:25.999Z</time></trkpt><trkpt lat="41.0385029470523" lon="14.75780373086534"><ele>392.0</ele><time>2026-03-28T13:55:26.999Z</time></trkpt><trkpt lat="41.038573738620165" lon="14.75786207127287"><ele>392.0</ele><time>2026-03-28T13:55:27.999Z</time></trkpt><trkpt lat="41.03864171174044" lon="14.757886888057834"><ele>392.0</ele><time>2026-03-28T13:55:28.999Z</time></trkpt><trkpt lat="41.03874758532543" lon="14.75792699212965"><ele>391.99999999999994</ele><time>2026-03-28T13:55:30.999Z</time></trkpt><trkpt lat="41.038818327763096" lon="14.75794974761158"><ele>392.0</ele><time>2026-03-28T13:55:31.999Z</time></trkpt><trkpt lat="41.038892301887316" lon="14.757980695479985"><ele>392.0</ele><time>2026-03-28T13:55:32.999Z</time></trkpt><trkpt lat="41.03897107939294" lon="14.758004625798936"><ele>392.0</ele><time>2026-03-28T13:55:33.999Z</time></trkpt><trkpt lat="41.03905715163894" lon="14.758042416848127"><ele>392.0</ele><time>2026-03-28T13:55:34.999Z</time></trkpt><trkpt lat="41.03914812931976" lon="14.758080780222805"><ele>392.0</ele><time>2026-03-28T13:55:35.999Z</time></trkpt><trkpt lat="41.039240786380184" lon="14.75811918798525"><ele>392.0</ele><time>2026-03-28T13:55:36.999Z</time></trkpt><trkpt lat="41.039407176151904" lon="14.75808887786785"><ele>395.5</ele><time>2026-03-28T13:55:38.999Z</time></trkpt><trkpt lat="41.039449919760955" lon="14.757996972565003"><ele>399.0</ele><time>2026-03-28T13:55:39.999Z</time></trkpt><trkpt lat="41.03947073495033" lon="14.757876634651211"><ele>402.5</ele><time>2026-03-28T13:55:40.999Z</time></trkpt><trkpt lat="41.03949345744185" lon="14.757694773844852"><ele>406.0</ele><time>2026-03-28T13:55:41.999Z</time></trkpt><trkpt lat="41.03952739356625" lon="14.75748225673758"><ele>411.25</ele><time>2026-03-28T13:55:42.999Z</time></trkpt><trkpt lat="41.039587357854046" lon="14.757301779356668"><ele>416.5</ele><time>2026-03-28T13:55:43.999Z</time></trkpt><trkpt lat="41.039647441282824" lon="14.757107542693204"><ele>421.75</ele><time>2026-03-28T13:55:44.999Z</time></trkpt><trkpt lat="41.039745185719184" lon="14.75697911309737"><ele>427.0</ele><time>2026-03-28T13:55:45.999Z</time></trkpt><trkpt lat="41.039858309202465" lon="14.756878218251078"><ele>427.75</ele><time>2026-03-28T13:55:46.999Z</time></trkpt><trkpt lat="41.03998444419918" lon="14.75681157297734"><ele>428.5</ele><time>2026-03-28T13:55:47.999Z</time></trkpt><trkpt lat="41.04007482231763" lon="14.756718525700837"><ele>429.25</ele><time>2026-03-28T13:55:48.999Z</time></trkpt><trkpt lat="41.040119047109556" lon="14.756618945611615"><ele>430.0</ele><time>2026-03-28T13:55:49.999Z</time></trkpt><trkpt lat="41.0401470991591" lon="14.756444386190116"><ele>430.0</ele><time>2026-03-28T13:55:50.999Z</time></trkpt><trkpt lat="41.040122007280864" lon="14.756261220968172"><ele>430.0</ele><time>2026-03-28T13:55:51.999Z</time></trkpt><trkpt lat="41.040060846043815" lon="14.756063436571484"><ele>430.0</ele><time>2026-03-28T13:55:52.999Z</time></trkpt><trkpt lat="41.03996361952287" lon="14.75579059195909"><ele>450.0</ele><time>2026-03-28T13:55:53.999Z</time></trkpt><trkpt lat="41.03987554171401" lon="14.755526453213015"><ele>470.0</ele><time>2026-03-28T13:55:54.999Z</time></trkpt><trkpt lat="41.039795421711226" lon="14.755237457377183"><ele>471.0</ele><time>2026-03-28T13:55:55.999Z</time></trkpt><trkpt lat="41.03970970304482" lon="14.754960774483067"><ele>472.0</ele><time>2026-03-28T13:55:56.999Z</time></trkpt><trkpt lat="41.03963188764551" lon="14.754711950374555"><ele>473.0</ele><time>2026-03-28T13:55:57.999Z</time></trkpt><trkpt lat="41.03957651285974" lon="14.75451717976024"><ele>472.0</ele><time>2026-03-28T13:55:58.999Z</time></trkpt><trkpt lat="41.039564961907686" lon="14.75433980758507"><ele>471.0</ele><time>2026-03-28T13:55:59.999Z</time></trkpt><trkpt lat="41.039619531535195" lon="14.754160649566737"><ele>470.0</ele><time>2026-03-28T13:56:00.999Z</time></trkpt><trkpt lat="41.0397202995905" lon="14.753961491892182"><ele>470.0</ele><time>2026-03-28T13:56:01.999Z</time></trkpt><trkpt lat="41.039796217110585" lon="14.753705329413659"><ele>470.0</ele><time>2026-03-28T13:56:02.999Z</time></trkpt><trkpt lat="41.03987343510812" lon="14.75341018706789"><ele>470.0</ele><time>2026-03-28T13:56:03.999Z</time></trkpt><trkpt lat="41.03993284041878" lon="14.753161653832228"><ele>464.3333333333333</ele><time>2026-03-28T13:56:04.998Z</time></trkpt><trkpt lat="41.04000232389917" lon="14.75294809904567"><ele>458.66666666666663</ele><time>2026-03-28T13:56:05.998Z</time></trkpt><trkpt lat="41.0400958405392" lon="14.752785346403176"><ele>453.0</ele><time>2026-03-28T13:56:06.998Z</time></trkpt><trkpt lat="41.04022831173115" lon="14.752605979389665"><ele>453.0</ele><time>2026-03-28T13:56:07.998Z</time></trkpt><trkpt lat="41.04036112637035" lon="14.752412252187355"><ele>453.0</ele><time>2026-03-28T13:56:08.998Z</time></trkpt><trkpt lat="41.04050146045418" lon="14.752267863705068"><ele>453.0</ele><time>2026-03-28T13:56:09.998Z</time></trkpt><trkpt lat="41.0406724395384" lon="14.752176192534323"><ele>438.0</ele><time>2026-03-28T13:56:10.998Z</time></trkpt><trkpt lat="41.04088446443805" lon="14.752027986671182"><ele>423.0</ele><time>2026-03-28T13:56:11.998Z</time></trkpt><trkpt lat="41.04107762896678" lon="14.751916369416902"><ele>431.0</ele><time>2026-03-28T13:56:12.998Z</time></trkpt><trkpt lat="41.041265406518214" lon="14.751779248815067"><ele>439.0</ele><time>2026-03-28T13:56:13.998Z</time></trkpt><trkpt lat="41.04143893003324" lon="14.751652329565873"><ele>447.0</ele><time>2026-03-28T13:56:14.998Z</time></trkpt><trkpt lat="41.04162073988025" lon="14.751590397213606"><ele>441.0</ele><time>2026-03-28T13:56:15.998Z</time></trkpt><trkpt lat="41.04180627294031" lon="14.751530333061991"><ele>435.0</ele><time>2026-03-28T13:56:16.998Z</time></trkpt><trkpt lat="41.041973647518574" lon="14.751475902745732"><ele>429.0</ele><time>2026-03-28T13:56:17.998Z</time></trkpt><trkpt lat="41.04212955487763" lon="14.75149390779737"><ele>429.0</ele><time>2026-03-28T13:56:18.998Z</time></trkpt><trkpt lat="41.04225840117094" lon="14.751511196121001"><ele>429.0</ele><time>2026-03-28T13:56:19.998Z</time></trkpt><trkpt lat="41.042372266603" lon="14.751479581511127"><ele>429.0</ele><time>2026-03-28T13:56:20.998Z</time></trkpt><trkpt lat="41.04244624427578" lon="14.751359554452511"><ele>429.0</ele><time>2026-03-28T13:56:21.998Z</time></trkpt><trkpt lat="41.04247129243291" lon="14.751228805633104"><ele>429.0</ele><time>2026-03-28T13:56:22.998Z</time></trkpt><trkpt lat="41.04244402750707" lon="14.751073987316246"><ele>429.0</ele><time>2026-03-28T13:56:23.998Z</time></trkpt><trkpt lat="41.04234773888361" lon="14.75093208643165"><ele>429.0</ele><time>2026-03-28T13:56:24.998Z</time></trkpt><trkpt lat="41.04221448019541" lon="14.750799757722625"><ele>429.0</ele><time>2026-03-28T13:56:25.998Z</time></trkpt><trkpt lat="41.042063942710335" lon="14.75066008059863"><ele>431.0</ele><time>2026-03-28T13:56:26.998Z</time></trkpt><trkpt lat="41.04192068489085" lon="14.750528274306433"><ele>433.0</ele><time>2026-03-28T13:56:27.998Z</time></trkpt><trkpt lat="41.041788083210555" lon="14.75044092693481"><ele>435.0</ele><time>2026-03-28T13:56:28.998Z</time></trkpt><trkpt lat="41.04162406573624" lon="14.750414555280827"><ele>433.33333333333337</ele><time>2026-03-28T13:56:29.998Z</time></trkpt><trkpt lat="41.04146986423172" lon="14.750391657136376"><ele>431.6666666666667</ele><time>2026-03-28T13:56:30.998Z</time></trkpt><trkpt lat="41.04131168573331" lon="14.750298635696023"><ele>430.0</ele><time>2026-03-28T13:56:31.998Z</time></trkpt><trkpt lat="41.0411787254046" lon="14.750151399885079"><ele>430.0</ele><time>2026-03-28T13:56:32.998Z</time></trkpt><trkpt lat="41.04101633066265" lon="14.749967257154797"><ele>430.0</ele><time>2026-03-28T13:56:33.998Z</time></trkpt><trkpt lat="41.04087717204823" lon="14.749800120993243"><ele>430.0</ele><time>2026-03-28T13:56:34.998Z</time></trkpt><trkpt lat="41.04077069767876" lon="14.749693522145268"><ele>430.5</ele><time>2026-03-28T13:56:35.998Z</time></trkpt><trkpt lat="41.04067239098395" lon="14.749629364067081"><ele>431.0</ele><time>2026-03-28T13:56:36.998Z</time></trkpt><trkpt lat="41.04052899485933" lon="14.749628535941918"><ele>431.5</ele><time>2026-03-28T13:56:37.998Z</time></trkpt><trkpt lat="41.04037977130104" lon="14.74967440581418"><ele>432.0</ele><time>2026-03-28T13:56:38.998Z</time></trkpt><trkpt lat="41.04023061409347" lon="14.749662008141494"><ele>432.0</ele><time>2026-03-28T13:56:39.998Z</time></trkpt><trkpt lat="41.04008893356878" lon="14.749618483293219"><ele>432.0</ele><time>2026-03-28T13:56:40.998Z</time></trkpt><trkpt lat="41.03997159567543" lon="14.749618399328813"><ele>432.0</ele><time>2026-03-28T13:56:41.998Z</time></trkpt><trkpt lat="41.03986931212947" lon="14.749660498097963"><ele>432.0</ele><time>2026-03-28T13:56:42.998Z</time></trkpt><trkpt lat="41.03975541218788" lon="14.749730583124261"><ele>428.0</ele><time>2026-03-28T13:56:43.998Z</time></trkpt><trkpt lat="41.03960966473189" lon="14.749806510488277"><ele>424.0</ele><time>2026-03-28T13:56:44.997Z</time></trkpt><trkpt lat="41.03947024145647" lon="14.74987055561526"><ele>420.0</ele><time>2026-03-28T13:56:45.997Z</time></trkpt><trkpt lat="41.03932533820131" lon="14.7499244782744"><ele>420.0</ele><time>2026-03-28T13:56:46.997Z</time></trkpt><trkpt lat="41.03919394933864" lon="14.74995545917448"><ele>420.0</ele><time>2026-03-28T13:56:47.997Z</time></trkpt><trkpt lat="41.03907141641933" lon="14.749951198881151"><ele>420.0</ele><time>2026-03-28T13:56:48.997Z</time></trkpt><trkpt lat="41.03895556652219" lon="14.749906780377852"><ele>420.0</ele><time>2026-03-28T13:56:49.997Z</time></trkpt><trkpt lat="41.03886650692047" lon="14.749791547572519"><ele>423.0</ele><time>2026-03-28T13:56:50.997Z</time></trkpt><trkpt lat="41.03877303019222" lon="14.749623081522317"><ele>426.0</ele><time>2026-03-28T13:56:51.997Z</time></trkpt><trkpt lat="41.03869528587547" lon="14.749426273478928"><ele>429.0</ele><time>2026-03-28T13:56:52.997Z</time></trkpt><trkpt lat="41.03862744603478" lon="14.749238808199896"><ele>429.0</ele><time>2026-03-28T13:56:53.997Z</time></trkpt><trkpt lat="41.03858923688198" lon="14.749042692951324"><ele>429.0</ele><time>2026-03-28T13:56:54.997Z</time></trkpt><trkpt lat="41.03859642142167" lon="14.748847377957429"><ele>429.0</ele><time>2026-03-28T13:56:55.997Z</time></trkpt><trkpt lat="41.03865406711383" lon="14.748602458460919"><ele>428.0</ele><time>2026-03-28T13:56:56.997Z</time></trkpt><trkpt lat="41.03869108663636" lon="14.748324204246332"><ele>427.0</ele><time>2026-03-28T13:56:57.997Z</time></trkpt><trkpt lat="41.03870897202217" lon="14.7481029476041"><ele>426.0</ele><time>2026-03-28T13:56:59Z</time></trkpt><trkpt lat="41.03873858714933" lon="14.747905606704638"><ele>426.0</ele><time>2026-03-28T13:57:00Z</time></trkpt><trkpt lat="41.0388130371737" lon="14.747743340205105"><ele>426.0</ele><time>2026-03-28T13:57:01Z</time></trkpt><trkpt lat="41.038903469090165" lon="14.747636176270703"><ele>426.0</ele><time>2026-03-28T13:57:02Z</time></trkpt><trkpt lat="41.038958033589054" lon="14.747514413283085"><ele>426.0</ele><time>2026-03-28T13:57:03Z</time></trkpt><trkpt lat="41.03895090667009" lon="14.747371423795979"><ele>426.0</ele><time>2026-03-28T13:57:04Z</time></trkpt><trkpt lat="41.03891802753056" lon="14.747207002154147"><ele>426.0</ele><time>2026-03-28T13:57:05Z</time></trkpt><trkpt lat="41.03892852424325" lon="14.747036723556139"><ele>426.0</ele><time>2026-03-28T13:57:06Z</time></trkpt><trkpt lat="41.038991116374625" lon="14.746852788767011"><ele>426.0</ele><time>2026-03-28T13:57:07Z</time></trkpt><trkpt lat="41.03907281755133" lon="14.746696269067668"><ele>422.0</ele><time>2026-03-28T13:57:08Z</time></trkpt><trkpt lat="41.0391499360478" lon="14.74656528010072"><ele>418.0</ele><time>2026-03-28T13:57:09Z</time></trkpt><trkpt lat="41.03924471600344" lon="14.746462441749559"><ele>414.0</ele><time>2026-03-28T13:57:10Z</time></trkpt><trkpt lat="41.0393642146774" lon="14.746425859604258"><ele>410.0</ele><time>2026-03-28T13:57:11Z</time></trkpt><trkpt lat="41.039502776818246" lon="14.74645435206743"><ele>410.0</ele><time>2026-03-28T13:57:12Z</time></trkpt><trkpt lat="41.039650187172995" lon="14.746482695523339"><ele>410.0</ele><time>2026-03-28T13:57:13Z</time></trkpt><trkpt lat="41.03980262805413" lon="14.746468889485342"><ele>410.0</ele><time>2026-03-28T13:57:14Z</time></trkpt><trkpt lat="41.03994643769558" lon="14.746408445177012"><ele>407.0</ele><time>2026-03-28T13:57:15Z</time></trkpt><trkpt lat="41.04007411710804" lon="14.746350997052922"><ele>404.0</ele><time>2026-03-28T13:57:16Z</time></trkpt><trkpt lat="41.04020433295204" lon="14.74630280272553"><ele>401.0</ele><time>2026-03-28T13:57:17Z</time></trkpt><trkpt lat="41.04031753003452" lon="14.746256205447132"><ele>398.0</ele><time>2026-03-28T13:57:18Z</time></trkpt><trkpt lat="41.04039843753562" lon="14.746188570410823"><ele>398.0</ele><time>2026-03-28T13:57:19Z</time></trkpt><trkpt lat="41.04047136145627" lon="14.746110744179488"><ele>398.0</ele><time>2026-03-28T13:57:20Z</time></trkpt><trkpt lat="41.04053183750951" lon="14.746022053640418"><ele>398.0</ele><time>2026-03-28T13:57:21Z</time></trkpt><trkpt lat="41.040550051800224" lon="14.745889675833055"><ele>398.0</ele><time>2026-03-28T13:57:22Z</time></trkpt><trkpt lat="41.040549504729746" lon="14.745740582978382"><ele>398.0</ele><time>2026-03-28T13:57:23Z</time></trkpt><trkpt lat="41.0405443652672" lon="14.745581839877962"><ele>401.25</ele><time>2026-03-28T13:57:24Z</time></trkpt><trkpt lat="41.04055080113683" lon="14.745407801830515"><ele>404.5</ele><time>2026-03-28T13:57:25Z</time></trkpt><trkpt lat="41.040559094989945" lon="14.745233422119364"><ele>407.75</ele><time>2026-03-28T13:57:26Z</time></trkpt><trkpt lat="41.04055163250468" lon="14.745048250911616"><ele>411.0</ele><time>2026-03-28T13:57:27Z</time></trkpt><trkpt lat="41.040552634083745" lon="14.744827151314961"><ele>411.0</ele><time>2026-03-28T13:57:28Z</time></trkpt><trkpt lat="41.04055220819444" lon="14.744594464610001"><ele>411.0</ele><time>2026-03-28T13:57:29Z</time></trkpt><trkpt lat="41.04056745742818" lon="14.744365857916614"><ele>411.0</ele><time>2026-03-28T13:57:30Z</time></trkpt><trkpt lat="41.04054469125427" lon="14.744159237697934"><ele>407.75</ele><time>2026-03-28T13:57:31Z</time></trkpt><trkpt lat="41.04053177103771" lon="14.743967565565297"><ele>404.5</ele><time>2026-03-28T13:57:31.999Z</time></trkpt><trkpt lat="41.04058751173419" lon="14.743837136560359"><ele>401.25</ele><time>2026-03-28T13:57:35.999Z</time></trkpt><trkpt lat="41.04066107652804" lon="14.743745733067371"><ele>398.0</ele><time>2026-03-28T13:57:36.999Z</time></trkpt><trkpt lat="41.04074592521003" lon="14.743644612631435"><ele>396.25</ele><time>2026-03-28T13:57:37.999Z</time></trkpt><trkpt lat="41.0408345718474" lon="14.743534551224254"><ele>394.5</ele><time>2026-03-28T13:57:38.999Z</time></trkpt><trkpt lat="41.04092984655315" lon="14.743398295838258"><ele>392.75</ele><time>2026-03-28T13:57:39.999Z</time></trkpt><trkpt lat="41.041029440817375" lon="14.743253344530055"><ele>391.0</ele><time>2026-03-28T13:57:40.999Z</time></trkpt><trkpt lat="41.041129946176035" lon="14.743121858590131"><ele>391.0</ele><time>2026-03-28T13:57:41.999Z</time></trkpt><trkpt lat="41.04121861635466" lon="14.743003346755817"><ele>391.0</ele><time>2026-03-28T13:57:42.999Z</time></trkpt><trkpt lat="41.04129948919105" lon="14.74289749538717"><ele>391.0</ele><time>2026-03-28T13:57:43.999Z</time></trkpt><trkpt lat="41.04138345798096" lon="14.742807779422831"><ele>391.0</ele><time>2026-03-28T13:57:44.999Z</time></trkpt><trkpt lat="41.041474885474315" lon="14.742732771849656"><ele>390.0</ele><time>2026-03-28T13:57:45.999Z</time></trkpt><trkpt lat="41.04158171083876" lon="14.742697487383653"><ele>389.0</ele><time>2026-03-28T13:57:46.999Z</time></trkpt><trkpt lat="41.041691220744084" lon="14.742676671896023"><ele>388.0</ele><time>2026-03-28T13:57:47.999Z</time></trkpt><trkpt lat="41.041784902135255" lon="14.742651997872604"><ele>387.0</ele><time>2026-03-28T13:57:48.999Z</time></trkpt><trkpt lat="41.04186838979841" lon="14.742610584222911"><ele>386.0</ele><time>2026-03-28T13:57:49.999Z</time></trkpt><trkpt lat="41.04195569299376" lon="14.742553574164091"><ele>386.0</ele><time>2026-03-28T13:57:50.999Z</time></trkpt><trkpt lat="41.041991635503436" lon="14.742394717416934"><ele>386.0</ele><time>2026-03-28T13:57:51.999Z</time></trkpt><trkpt lat="41.042043175872045" lon="14.742250084381826"><ele>386.0</ele><time>2026-03-28T13:57:52.999Z</time></trkpt><trkpt lat="41.04209931414933" lon="14.742103505223525"><ele>386.0</ele><time>2026-03-28T13:57:53.999Z</time></trkpt><trkpt lat="41.04216013288389" lon="14.741959199629356"><ele>386.5</ele><time>2026-03-28T13:57:54.999Z</time></trkpt><trkpt lat="41.04222752020304" lon="14.741811481990801"><ele>387.0</ele><time>2026-03-28T13:57:55.999Z</time></trkpt><trkpt lat="41.04230610187776" lon="14.741660178897892"><ele>387.5</ele><time>2026-03-28T13:57:56.999Z</time></trkpt><trkpt lat="41.042390082250854" lon="14.741499559776923"><ele>388.0</ele><time>2026-03-28T13:57:57.999Z</time></trkpt><trkpt lat="41.04247353902347" lon="14.74137316797728"><ele>388.0</ele><time>2026-03-28T13:57:58.999Z</time></trkpt><trkpt lat="41.04255668392521" lon="14.741291386913181"><ele>388.0</ele><time>2026-03-28T13:57:59.999Z</time></trkpt><trkpt lat="41.04264930040291" lon="14.741241715718559"><ele>388.0</ele><time>2026-03-28T13:58:00.999Z</time></trkpt><trkpt lat="41.042757090576984" lon="14.741197070713154"><ele>388.0</ele><time>2026-03-28T13:58:01.999Z</time></trkpt><trkpt lat="41.0428751483308" lon="14.741153959742242"><ele>388.0</ele><time>2026-03-28T13:58:02.999Z</time></trkpt><trkpt lat="41.042983549711245" lon="14.741122926022479"><ele>388.0</ele><time>2026-03-28T13:58:03.999Z</time></trkpt><trkpt lat="41.0430823426715" lon="14.741102941961158"><ele>388.0</ele><time>2026-03-28T13:58:04.999Z</time></trkpt><trkpt lat="41.043176655314205" lon="14.74110083825728"><ele>388.0</ele><time>2026-03-28T13:58:05.999Z</time></trkpt><trkpt lat="41.04327281800501" lon="14.74111011669483"><ele>388.0</ele><time>2026-03-28T13:58:06.999Z</time></trkpt><trkpt lat="41.04337790198997" lon="14.741152090939993"><ele>388.0</ele><time>2026-03-28T13:58:07.999Z</time></trkpt><trkpt lat="41.04347925336548" lon="14.741216761341423"><ele>388.0</ele><time>2026-03-28T13:58:08.999Z</time></trkpt><trkpt lat="41.043574928573584" lon="14.74128583455533"><ele>388.0</ele><time>2026-03-28T13:58:09.999Z</time></trkpt><trkpt lat="41.0436640092494" lon="14.741361760969774"><ele>388.0</ele><time>2026-03-28T13:58:10.998Z</time></trkpt><trkpt lat="41.0437504532251" lon="14.741426792034247"><ele>388.0</ele><time>2026-03-28T13:58:11.998Z</time></trkpt><trkpt lat="41.04383874529655" lon="14.741482177126885"><ele>388.0</ele><time>2026-03-28T13:58:12.998Z</time></trkpt><trkpt lat="41.04392727198129" lon="14.741526170439274"><ele>388.0</ele><time>2026-03-28T13:58:13.998Z</time></trkpt><trkpt lat="41.04400981108559" lon="14.741541166970583"><ele>388.0</ele><time>2026-03-28T13:58:14.998Z</time></trkpt><trkpt lat="41.04410123424685" lon="14.741499722670627"><ele>388.0</ele><time>2026-03-28T13:58:15.998Z</time></trkpt><trkpt lat="41.04420193049009" lon="14.741418998008841"><ele>388.0</ele><time>2026-03-28T13:58:16.998Z</time></trkpt><trkpt lat="41.04434086479855" lon="14.741337827143308"><ele>388.0</ele><time>2026-03-28T13:58:17.998Z</time></trkpt><trkpt lat="41.04447630193164" lon="14.741229199252857"><ele>387.25</ele><time>2026-03-28T13:58:18.998Z</time></trkpt><trkpt lat="41.04458406134949" lon="14.741131925927432"><ele>386.5</ele><time>2026-03-28T13:58:19.998Z</time></trkpt><trkpt lat="41.044668475536675" lon="14.74099469217316"><ele>385.75</ele><time>2026-03-28T13:58:20.998Z</time></trkpt><trkpt lat="41.04474001754501" lon="14.740814338320883"><ele>385.0</ele><time>2026-03-28T13:58:21.998Z</time></trkpt><trkpt lat="41.04481801973138" lon="14.740600975588215"><ele>381.33333333333337</ele><time>2026-03-28T13:58:22.998Z</time></trkpt><trkpt lat="41.0449014283868" lon="14.740391020807913"><ele>377.6666666666667</ele><time>2026-03-28T13:58:23.998Z</time></trkpt><trkpt lat="41.04498535271606" lon="14.740187413832256"><ele>374.0</ele><time>2026-03-28T13:58:24.998Z</time></trkpt><trkpt lat="41.045059110428234" lon="14.739998397896398"><ele>373.25</ele><time>2026-03-28T13:58:25.998Z</time></trkpt><trkpt lat="41.045127405435785" lon="14.739820090744852"><ele>372.5</ele><time>2026-03-28T13:58:26.998Z</time></trkpt><trkpt lat="41.04519576957404" lon="14.739667767975126"><ele>371.75</ele><time>2026-03-28T13:58:27.998Z</time></trkpt><trkpt lat="41.04529403033362" lon="14.739543815967638"><ele>371.0</ele><time>2026-03-28T13:58:28.998Z</time></trkpt><trkpt lat="41.04542605495901" lon="14.739452466188595"><ele>371.0</ele><time>2026-03-28T13:58:29.998Z</time></trkpt><trkpt lat="41.04557385668777" lon="14.739349830911022"><ele>371.0</ele><time>2026-03-28T13:58:30.998Z</time></trkpt><trkpt lat="41.04570628158285" lon="14.739187293767067"><ele>371.0</ele><time>2026-03-28T13:58:31.998Z</time></trkpt><trkpt lat="41.045832864811764" lon="14.73899365040273"><ele>371.0</ele><time>2026-03-28T13:58:32.998Z</time></trkpt><trkpt lat="41.04594383378665" lon="14.73880780785355"><ele>371.0</ele><time>2026-03-28T13:58:33.998Z</time></trkpt><trkpt lat="41.046036826356065" lon="14.738626442587659"><ele>371.0</ele><time>2026-03-28T13:58:34.998Z</time></trkpt><trkpt lat="41.04611858396002" lon="14.738447159538497"><ele>366.6666666666667</ele><time>2026-03-28T13:58:35.998Z</time></trkpt><trkpt lat="41.046179176952975" lon="14.738243139461593"><ele>362.3333333333333</ele><time>2026-03-28T13:58:36.998Z</time></trkpt><trkpt lat="41.046219170958295" lon="14.738002178136771"><ele>358.0</ele><time>2026-03-28T13:58:37.998Z</time></trkpt><trkpt lat="41.046245535599574" lon="14.737754246359435"><ele>356.0</ele><time>2026-03-28T13:58:38.998Z</time></trkpt><trkpt lat="41.04627885084768" lon="14.737529133468497"><ele>354.0</ele><time>2026-03-28T13:58:39.998Z</time></trkpt><trkpt lat="41.04630357360477" lon="14.737340094554789"><ele>352.0</ele><time>2026-03-28T13:58:40.998Z</time></trkpt><trkpt lat="41.0463484965277" lon="14.737198731513393"><ele>350.0</ele><time>2026-03-28T13:58:41.998Z</time></trkpt><trkpt lat="41.04640543759285" lon="14.737095134769733"><ele>350.0</ele><time>2026-03-28T13:58:42.998Z</time></trkpt><trkpt lat="41.046518027053104" lon="14.737057963349104"><ele>350.0</ele><time>2026-03-28T13:58:43.998Z</time></trkpt><trkpt lat="41.046666662354255" lon="14.737090190981665"><ele>350.0</ele><time>2026-03-28T13:58:44.998Z</time></trkpt><trkpt lat="41.04682937235336" lon="14.737130365000887"><ele>350.0</ele><time>2026-03-28T13:58:45.998Z</time></trkpt><trkpt lat="41.04698623083547" lon="14.73720529266144"><ele>352.6666666666667</ele><time>2026-03-28T13:58:46.998Z</time></trkpt><trkpt lat="41.047172410654184" lon="14.737343416714577"><ele>355.3333333333333</ele><time>2026-03-28T13:58:47.998Z</time></trkpt><trkpt lat="41.047313662031016" lon="14.737484379610414"><ele>358.0</ele><time>2026-03-28T13:58:48.998Z</time></trkpt><trkpt lat="41.047451867365076" lon="14.737608144092063"><ele>357.2</ele><time>2026-03-28T13:58:49.998Z</time></trkpt><trkpt lat="41.04755503232659" lon="14.737732823312193"><ele>356.4</ele><time>2026-03-28T13:58:50.997Z</time></trkpt><trkpt lat="41.04762782292451" lon="14.737809529390308"><ele>355.59999999999997</ele><time>2026-03-28T13:58:51.997Z</time></trkpt><trkpt lat="41.04774703118321" lon="14.737792016943779"><ele>354.79999999999995</ele><time>2026-03-28T13:58:53.997Z</time></trkpt><trkpt lat="41.04780041004183" lon="14.737736275757147"><ele>354.0</ele><time>2026-03-28T13:58:54.997Z</time></trkpt><trkpt lat="41.04776568721728" lon="14.737558294409462"><ele>355.3333333333333</ele><time>2026-03-28T13:58:55.997Z</time></trkpt><trkpt lat="41.047692935196544" lon="14.737421054687498"><ele>356.66666666666663</ele><time>2026-03-28T13:58:56.997Z</time></trkpt><trkpt lat="41.047567171165824" lon="14.737260283505982"><ele>358.0</ele><time>2026-03-28T13:58:57.997Z</time></trkpt><trkpt lat="41.04745664066737" lon="14.737104354729205"><ele>358.0</ele><time>2026-03-28T13:58:58.997Z</time></trkpt><trkpt lat="41.04737047790821" lon="14.736961335150907"><ele>358.0</ele><time>2026-03-28T13:58:59.997Z</time></trkpt><trkpt lat="41.04727433090966" lon="14.73679310008323"><ele>358.0</ele><time>2026-03-28T13:59:00.997Z</time></trkpt><trkpt lat="41.04715080810237" lon="14.736653987065903"><ele>353.66666666666663</ele><time>2026-03-28T13:59:01.997Z</time></trkpt><trkpt lat="41.047004838899" lon="14.736541154162193"><ele>349.3333333333333</ele><time>2026-03-28T13:59:02.997Z</time></trkpt><trkpt lat="41.046867822341476" lon="14.736444766918769"><ele>345.0</ele><time>2026-03-28T13:59:03.997Z</time></trkpt><trkpt lat="41.0467414254969" lon="14.736377784290628"><ele>345.0</ele><time>2026-03-28T13:59:05Z</time></trkpt><trkpt lat="41.04663115303686" lon="14.736298885975597"><ele>345.0</ele><time>2026-03-28T13:59:06Z</time></trkpt><trkpt lat="41.04651444746119" lon="14.73620008025233"><ele>345.0</ele><time>2026-03-28T13:59:07Z</time></trkpt><trkpt lat="41.046448444930334" lon="14.736028534245872"><ele>345.0</ele><time>2026-03-28T13:59:08Z</time></trkpt><trkpt lat="41.046373097464226" lon="14.735882953605993"><ele>342.5</ele><time>2026-03-28T13:59:09Z</time></trkpt><trkpt lat="41.0463146577414" lon="14.735746321770675"><ele>340.0</ele><time>2026-03-28T13:59:10Z</time></trkpt><trkpt lat="41.04620507745997" lon="14.735617926739552"><ele>337.5</ele><time>2026-03-28T13:59:11Z</time></trkpt><trkpt lat="41.04605487275406" lon="14.735557715302143"><ele>335.0</ele><time>2026-03-28T13:59:12Z</time></trkpt><trkpt lat="41.045901605405476" lon="14.735561939676739"><ele>332.6666666666667</ele><time>2026-03-28T13:59:13Z</time></trkpt><trkpt lat="41.04574135092866" lon="14.735515831021164"><ele>330.3333333333333</ele><time>2026-03-28T13:59:14Z</time></trkpt><trkpt lat="41.04555807469517" lon="14.735485846826707"><ele>328.0</ele><time>2026-03-28T13:59:15Z</time></trkpt><trkpt lat="41.04541213209251" lon="14.735448250257486"><ele>328.0</ele><time>2026-03-28T13:59:16Z</time></trkpt><trkpt lat="41.045274844729086" lon="14.735466856841594"><ele>328.0</ele><time>2026-03-28T13:59:17Z</time></trkpt><trkpt lat="41.04513158736121" lon="14.735560727173324"><ele>328.0</ele><time>2026-03-28T13:59:18Z</time></trkpt><trkpt lat="41.0449942948155" lon="14.735720382595124"><ele>328.3333333333333</ele><time>2026-03-28T13:59:19Z</time></trkpt><trkpt lat="41.04484844190938" lon="14.73588780821544"><ele>328.6666666666667</ele><time>2026-03-28T13:59:20Z</time></trkpt><trkpt lat="41.04472777524701" lon="14.73602852307926"><ele>329.0</ele><time>2026-03-28T13:59:21Z</time></trkpt><trkpt lat="41.044607863797445" lon="14.736135962545584"><ele>329.0</ele><time>2026-03-28T13:59:22Z</time></trkpt><trkpt lat="41.0445173438536" lon="14.736174450136557"><ele>329.0</ele><time>2026-03-28T13:59:23Z</time></trkpt><trkpt lat="41.04442699001883" lon="14.736185821073779"><ele>329.0</ele><time>2026-03-28T13:59:24Z</time></trkpt><trkpt lat="41.044347577152315" lon="14.736126381999236"><ele>329.0</ele><time>2026-03-28T13:59:25Z</time></trkpt><trkpt lat="41.04430578380943" lon="14.736016865132166"><ele>329.0</ele><time>2026-03-28T13:59:26Z</time></trkpt><trkpt lat="41.044293575563955" lon="14.735882459254714"><ele>327.33333333333337</ele><time>2026-03-28T13:59:27Z</time></trkpt><trkpt lat="41.044312536212864" lon="14.73569530289961"><ele>325.6666666666667</ele><time>2026-03-28T13:59:28Z</time></trkpt><trkpt lat="41.04435193858023" lon="14.735482790302765"><ele>324.0</ele><time>2026-03-28T13:59:29Z</time></trkpt><trkpt lat="41.04437857129333" lon="14.735254252009863"><ele>323.0</ele><time>2026-03-28T13:59:30Z</time></trkpt><trkpt lat="41.04442347675192" lon="14.735018905493234"><ele>322.0</ele><time>2026-03-28T13:59:31Z</time></trkpt><trkpt lat="41.044484859318814" lon="14.7347622125421"><ele>321.0</ele><time>2026-03-28T13:59:32Z</time></trkpt><trkpt lat="41.044556874120715" lon="14.734482558141076"><ele>319.0</ele><time>2026-03-28T13:59:33Z</time></trkpt><trkpt lat="41.04463553649653" lon="14.734189419400423"><ele>317.0</ele><time>2026-03-28T13:59:34Z</time></trkpt><trkpt lat="41.044716339764626" lon="14.733885224900042"><ele>317.0</ele><time>2026-03-28T13:59:35Z</time></trkpt><trkpt lat="41.04480849153655" lon="14.733557706667508"><ele>317.0</ele><time>2026-03-28T13:59:36Z</time></trkpt><trkpt lat="41.044911252285765" lon="14.733227046117237"><ele>313.0</ele><time>2026-03-28T13:59:37Z</time></trkpt><trkpt lat="41.0450134302206" lon="14.73291071103556"><ele>309.0</ele><time>2026-03-28T13:59:38Z</time></trkpt><trkpt lat="41.045090027142656" lon="14.732627526695339"><ele>308.0</ele><time>2026-03-28T13:59:39Z</time></trkpt><trkpt lat="41.04515576300463" lon="14.732357114229236"><ele>307.0</ele><time>2026-03-28T13:59:39.999Z</time></trkpt><trkpt lat="41.04522114295659" lon="14.73210677002485"><ele>306.0</ele><time>2026-03-28T13:59:40.999Z</time></trkpt><trkpt lat="41.0452794765445" lon="14.731884727616801"><ele>304.5</ele><time>2026-03-28T13:59:41.999Z</time></trkpt><trkpt lat="41.04534231053424" lon="14.731704934052376"><ele>303.0</ele><time>2026-03-28T13:59:42.999Z</time></trkpt><trkpt lat="41.04535613731496" lon="14.73156651822755"><ele>301.5</ele><time>2026-03-28T13:59:43.999Z</time></trkpt><trkpt lat="41.04537465326812" lon="14.73141540407828"><ele>300.0</ele><time>2026-03-28T13:59:44.999Z</time></trkpt><trkpt lat="41.04534570864655" lon="14.731271303299224"><ele>300.0</ele><time>2026-03-28T13:59:45.999Z</time></trkpt><trkpt lat="41.04526632518369" lon="14.731165067649943"><ele>300.0</ele><time>2026-03-28T13:59:46.999Z</time></trkpt><trkpt lat="41.04515659129453" lon="14.731091036055195"><ele>300.0</ele><time>2026-03-28T13:59:47.999Z</time></trkpt><trkpt lat="41.04502225397126" lon="14.731063383328292"><ele>300.0</ele><time>2026-03-28T13:59:48.999Z</time></trkpt><trkpt lat="41.04488451171113" lon="14.731083017837665"><ele>299.6666666666667</ele><time>2026-03-28T13:59:49.999Z</time></trkpt><trkpt lat="41.044732298673104" lon="14.731113948562745"><ele>299.33333333333337</ele><time>2026-03-28T13:59:50.999Z</time></trkpt><trkpt lat="41.0445760023005" lon="14.731139131670027"><ele>299.0</ele><time>2026-03-28T13:59:51.999Z</time></trkpt><trkpt lat="41.044417191813714" lon="14.731161557382435"><ele>299.0</ele><time>2026-03-28T13:59:52.999Z</time></trkpt><trkpt lat="41.044264440626165" lon="14.731189072131812"><ele>299.0</ele><time>2026-03-28T13:59:53.999Z</time></trkpt><trkpt lat="41.04412345097408" lon="14.731204608428882"><ele>299.0</ele><time>2026-03-28T13:59:54.999Z</time></trkpt><trkpt lat="41.04400610656712" lon="14.73123807930292"><ele>299.0</ele><time>2026-03-28T13:59:55.999Z</time></trkpt><trkpt lat="41.04389620395024" lon="14.73127052179205"><ele>297.0</ele><time>2026-03-28T13:59:56.999Z</time></trkpt><trkpt lat="41.043791612847556" lon="14.731301396354613"><ele>295.0</ele><time>2026-03-28T13:59:57.999Z</time></trkpt><trkpt lat="41.04369420690347" lon="14.731326132825453"><ele>293.0</ele><time>2026-03-28T13:59:58.999Z</time></trkpt><trkpt lat="41.04360515028136" lon="14.731344535484954"><ele>291.0</ele><time>2026-03-28T13:59:59.999Z</time></trkpt><trkpt lat="41.0435263013165" lon="14.73136428402995"><ele>289.0</ele><time>2026-03-28T14:00:00.999Z</time></trkpt><trkpt lat="41.04348038409996" lon="14.731249415773677"><ele>289.0</ele><time>2026-03-28T14:00:02.999Z</time></trkpt><trkpt lat="41.043552090974835" lon="14.7311409338291"><ele>289.0</ele><time>2026-03-28T14:00:03.999Z</time></trkpt><trkpt lat="41.04368275238109" lon="14.731069749458786"><ele>289.0</ele><time>2026-03-28T14:00:04.999Z</time></trkpt><trkpt lat="41.04383172153845" lon="14.730996503154435"><ele>289.0</ele><time>2026-03-28T14:00:05.999Z</time></trkpt><trkpt lat="41.04394797497879" lon="14.730890864838441"><ele>286.75</ele><time>2026-03-28T14:00:06.999Z</time></trkpt><trkpt lat="41.04402706535206" lon="14.730760745022646"><ele>284.5</ele><time>2026-03-28T14:00:07.999Z</time></trkpt><trkpt lat="41.044075981421514" lon="14.730592904909805"><ele>282.25</ele><time>2026-03-28T14:00:08.999Z</time></trkpt><trkpt lat="41.04412064965936" lon="14.730390921341547"><ele>280.0</ele><time>2026-03-28T14:00:09.999Z</time></trkpt><trkpt lat="41.04416221262115" lon="14.730219199815094"><ele>279.25</ele><time>2026-03-28T14:00:10.999Z</time></trkpt><trkpt lat="41.04422675353331" lon="14.730076878031674"><ele>278.5</ele><time>2026-03-28T14:00:11.999Z</time></trkpt><trkpt lat="41.0443260548526" lon="14.729983741585269"><ele>277.75</ele><time>2026-03-28T14:00:12.999Z</time></trkpt><trkpt lat="41.04448367564294" lon="14.729973237351151"><ele>277.0</ele><time>2026-03-28T14:00:13.999Z</time></trkpt><trkpt lat="41.044645776143135" lon="14.72993778310673"><ele>277.0</ele><time>2026-03-28T14:00:14.999Z</time></trkpt><trkpt lat="41.04481411472994" lon="14.729897516665096"><ele>277.0</ele><time>2026-03-28T14:00:15.999Z</time></trkpt><trkpt lat="41.04498350175911" lon="14.729793880605097"><ele>277.0</ele><time>2026-03-28T14:00:16.999Z</time></trkpt><trkpt lat="41.04516906162062" lon="14.729663401512743"><ele>278.0</ele><time>2026-03-28T14:00:17.999Z</time></trkpt><trkpt lat="41.045351541352765" lon="14.72953261098673"><ele>279.0</ele><time>2026-03-28T14:00:18.999Z</time></trkpt><trkpt lat="41.04552736585569" lon="14.729414886257043"><ele>280.0</ele><time>2026-03-28T14:00:19.998Z</time></trkpt><trkpt lat="41.04568835311092" lon="14.72930382577498"><ele>277.0</ele><time>2026-03-28T14:00:20.998Z</time></trkpt><trkpt lat="41.04582625790021" lon="14.729164948604879"><ele>274.0</ele><time>2026-03-28T14:00:21.998Z</time></trkpt><trkpt lat="41.045937638769374" lon="14.729024141115726"><ele>271.0</ele><time>2026-03-28T14:00:22.998Z</time></trkpt><trkpt lat="41.04602072737868" lon="14.728828506405431"><ele>271.0</ele><time>2026-03-28T14:00:23.998Z</time></trkpt><trkpt lat="41.04609038603488" lon="14.728622689315031"><ele>271.0</ele><time>2026-03-28T14:00:24.998Z</time></trkpt><trkpt lat="41.0461559850112" lon="14.728434604215416"><ele>271.0</ele><time>2026-03-28T14:00:25.998Z</time></trkpt><trkpt lat="41.046232001288764" lon="14.728290030505256"><ele>269.75</ele><time>2026-03-28T14:00:26.998Z</time></trkpt><trkpt lat="41.04632962472011" lon="14.728186244216076"><ele>268.5</ele><time>2026-03-28T14:00:27.998Z</time></trkpt><trkpt lat="41.04646308293335" lon="14.7281711300242"><ele>267.25</ele><time>2026-03-28T14:00:28.998Z</time></trkpt><trkpt lat="41.04663295877835" lon="14.728132125158098"><ele>266.0</ele><time>2026-03-28T14:00:29.998Z</time></trkpt><trkpt lat="41.04679824357427" lon="14.728087912902946"><ele>266.0</ele><time>2026-03-28T14:00:30.998Z</time></trkpt><trkpt lat="41.046945032775646" lon="14.728035436930917"><ele>266.0</ele><time>2026-03-28T14:00:31.998Z</time></trkpt><trkpt lat="41.04709369261747" lon="14.727922505523727"><ele>266.0</ele><time>2026-03-28T14:00:32.998Z</time></trkpt><trkpt lat="41.0472513933231" lon="14.72774983532825"><ele>262.6666666666667</ele><time>2026-03-28T14:00:33.998Z</time></trkpt><trkpt lat="41.04742782842621" lon="14.727582050748138"><ele>259.3333333333333</ele><time>2026-03-28T14:00:34.998Z</time></trkpt><trkpt lat="41.04762617951936" lon="14.727462915702686"><ele>256.0</ele><time>2026-03-28T14:00:35.998Z</time></trkpt><trkpt lat="41.0478157151878" lon="14.727369795790407"><ele>256.0</ele><time>2026-03-28T14:00:36.998Z</time></trkpt><trkpt lat="41.04797985067351" lon="14.727275918957487"><ele>256.0</ele><time>2026-03-28T14:00:37.998Z</time></trkpt><trkpt lat="41.04811365182236" lon="14.727209536669466"><ele>256.0</ele><time>2026-03-28T14:00:38.998Z</time></trkpt><trkpt lat="41.04820907351906" lon="14.727127924653962"><ele>256.0</ele><time>2026-03-28T14:00:39.998Z</time></trkpt><trkpt lat="41.0482687976752" lon="14.727009287357332"><ele>254.0</ele><time>2026-03-28T14:00:40.998Z</time></trkpt><trkpt lat="41.04832306727419" lon="14.726840370745363"><ele>252.0</ele><time>2026-03-28T14:00:41.998Z</time></trkpt><trkpt lat="41.04838172872914" lon="14.726639813612326"><ele>250.0</ele><time>2026-03-28T14:00:42.998Z</time></trkpt><trkpt lat="41.048475538223805" lon="14.726445691262604"><ele>250.0</ele><time>2026-03-28T14:00:43.998Z</time></trkpt><trkpt lat="41.04860608079057" lon="14.72626097323987"><ele>250.0</ele><time>2026-03-28T14:00:44.998Z</time></trkpt><trkpt lat="41.048778041368834" lon="14.726080831603305"><ele>250.0</ele><time>2026-03-28T14:00:45.998Z</time></trkpt><trkpt lat="41.04894756311454" lon="14.725884523125256"><ele>251.0</ele><time>2026-03-28T14:00:46.998Z</time></trkpt><trkpt lat="41.049119757780794" lon="14.725701232420281"><ele>252.0</ele><time>2026-03-28T14:00:47.998Z</time></trkpt><trkpt lat="41.04927357911926" lon="14.725513910042576"><ele>253.0</ele><time>2026-03-28T14:00:48.998Z</time></trkpt><trkpt lat="41.049434088961526" lon="14.72533659532767"><ele>249.0</ele><time>2026-03-28T14:00:49.998Z</time></trkpt><trkpt lat="41.04959060740542" lon="14.725154299345183"><ele>245.0</ele><time>2026-03-28T14:00:50.998Z</time></trkpt><trkpt lat="41.04968204922503" lon="14.724843903012614"><ele>245.0</ele><time>2026-03-28T14:00:51.998Z</time></trkpt><trkpt lat="41.04979566850997" lon="14.724605603158784"><ele>245.0</ele><time>2026-03-28T14:00:52.998Z</time></trkpt><trkpt lat="41.04989208907082" lon="14.724399704466734"><ele>245.0</ele><time>2026-03-28T14:00:53.998Z</time></trkpt><trkpt lat="41.04996540274944" lon="14.724202278892642"><ele>245.75</ele><time>2026-03-28T14:00:54.998Z</time></trkpt><trkpt lat="41.05000857250422" lon="14.724026694137333"><ele>246.5</ele><time>2026-03-28T14:00:55.998Z</time></trkpt><trkpt lat="41.05006953772491" lon="14.723894880094308"><ele>247.25</ele><time>2026-03-28T14:00:56.998Z</time></trkpt><trkpt lat="41.05018236275933" lon="14.723760297039378"><ele>248.0</ele><time>2026-03-28T14:00:57.998Z</time></trkpt><trkpt lat="41.050356973236035" lon="14.723666165654771"><ele>246.66666666666669</ele><time>2026-03-28T14:00:58.998Z</time></trkpt><trkpt lat="41.050539581511636" lon="14.7235297408296"><ele>245.33333333333331</ele><time>2026-03-28T14:00:59.997Z</time></trkpt><trkpt lat="41.05072319670113" lon="14.723377568145988"><ele>244.0</ele><time>2026-03-28T14:01:00.997Z</time></trkpt><trkpt lat="41.05092837869346" lon="14.723243949787765"><ele>244.0</ele><time>2026-03-28T14:01:01.997Z</time></trkpt><trkpt lat="41.05111694831981" lon="14.723148212374362"><ele>244.0</ele><time>2026-03-28T14:01:02.997Z</time></trkpt><trkpt lat="41.05127005212353" lon="14.723052664331192"><ele>244.0</ele><time>2026-03-28T14:01:03.997Z</time></trkpt><trkpt lat="41.05141478961592" lon="14.722917362854966"><ele>242.33333333333331</ele><time>2026-03-28T14:01:04.997Z</time></trkpt><trkpt lat="41.05154043205308" lon="14.722729447276567"><ele>240.66666666666669</ele><time>2026-03-28T14:01:05.997Z</time></trkpt><trkpt lat="41.05162846730589" lon="14.72248731712256"><ele>239.0</ele><time>2026-03-28T14:01:06.997Z</time></trkpt><trkpt lat="41.05167114221039" lon="14.722253887242054"><ele>239.0</ele><time>2026-03-28T14:01:07.997Z</time></trkpt><trkpt lat="41.05171844761959" lon="14.722047463368078"><ele>239.0</ele><time>2026-03-28T14:01:08.997Z</time></trkpt><trkpt lat="41.051817596266446" lon="14.721856098413934"><ele>239.0</ele><time>2026-03-28T14:01:09.997Z</time></trkpt><trkpt lat="41.051972110694415" lon="14.721670195679543"><ele>236.33333333333334</ele><time>2026-03-28T14:01:11Z</time></trkpt><trkpt lat="41.05213624887733" lon="14.721510530052234"><ele>233.66666666666669</ele><time>2026-03-28T14:01:12Z</time></trkpt><trkpt lat="41.05226742007453" lon="14.721298164058652"><ele>231.0</ele><time>2026-03-28T14:01:13Z</time></trkpt><trkpt lat="41.052379956909185" lon="14.72103149192589"><ele>233.0</ele><time>2026-03-28T14:01:14Z</time></trkpt><trkpt lat="41.0524899853512" lon="14.720745980979897"><ele>235.0</ele><time>2026-03-28T14:01:15Z</time></trkpt><trkpt lat="41.052612089631424" lon="14.720476879067023"><ele>231.0</ele><time>2026-03-28T14:01:16Z</time></trkpt><trkpt lat="41.05272361508515" lon="14.720196117254348"><ele>227.0</ele><time>2026-03-28T14:01:17Z</time></trkpt><trkpt lat="41.0528147285327" lon="14.719900763958844"><ele>227.0</ele><time>2026-03-28T14:01:18Z</time></trkpt><trkpt lat="41.05288535272045" lon="14.719613259586037"><ele>227.0</ele><time>2026-03-28T14:01:19Z</time></trkpt><trkpt lat="41.05295017422269" lon="14.719349134665324"><ele>227.0</ele><time>2026-03-28T14:01:20Z</time></trkpt><trkpt lat="41.05302553018117" lon="14.719104771902856"><ele>225.0</ele><time>2026-03-28T14:01:21Z</time></trkpt><trkpt lat="41.05309775885482" lon="14.718874377891543"><ele>223.0</ele><time>2026-03-28T14:01:22Z</time></trkpt><trkpt lat="41.0531448857123" lon="14.718649491721834"><ele>221.0</ele><time>2026-03-28T14:01:23Z</time></trkpt><trkpt lat="41.05318606735107" lon="14.718418057401985"><ele>220.33333333333334</ele><time>2026-03-28T14:01:24Z</time></trkpt><trkpt lat="41.053260580910624" lon="14.71817688975187"><ele>219.66666666666669</ele><time>2026-03-28T14:01:25Z</time></trkpt><trkpt lat="41.053361571363375" lon="14.717929592129563"><ele>219.0</ele><time>2026-03-28T14:01:26Z</time></trkpt><trkpt lat="41.053479030148225" lon="14.717672452609651"><ele>218.5</ele><time>2026-03-28T14:01:27Z</time></trkpt><trkpt lat="41.05361188858236" lon="14.717415878226486"><ele>218.0</ele><time>2026-03-28T14:01:28Z</time></trkpt><trkpt lat="41.05374527685498" lon="14.717161516309554"><ele>218.0</ele><time>2026-03-28T14:01:29Z</time></trkpt><trkpt lat="41.05386558607358" lon="14.716922633846501"><ele>218.0</ele><time>2026-03-28T14:01:30Z</time></trkpt><trkpt lat="41.05398219334916" lon="14.716710874938848"><ele>218.0</ele><time>2026-03-28T14:01:31Z</time></trkpt><trkpt lat="41.05410017794902" lon="14.716502446456701"><ele>218.0</ele><time>2026-03-28T14:01:32Z</time></trkpt><trkpt lat="41.05422513636361" lon="14.716319086101151"><ele>218.0</ele><time>2026-03-28T14:01:33Z</time></trkpt><trkpt lat="41.05436815758224" lon="14.716162438935294"><ele>218.0</ele><time>2026-03-28T14:01:34Z</time></trkpt><trkpt lat="41.054532182845726" lon="14.716022916192813"><ele>216.66666666666669</ele><time>2026-03-28T14:01:35Z</time></trkpt><trkpt lat="41.054710520365276" lon="14.715895731943364"><ele>215.33333333333331</ele><time>2026-03-28T14:01:36Z</time></trkpt><trkpt lat="41.05488878516564" lon="14.715778683985054"><ele>214.0</ele><time>2026-03-28T14:01:37Z</time></trkpt><trkpt lat="41.055088218312406" lon="14.715680769508388"><ele>214.0</ele><time>2026-03-28T14:01:38Z</time></trkpt><trkpt lat="41.05531090148289" lon="14.715614249111091"><ele>214.0</ele><time>2026-03-28T14:01:39Z</time></trkpt><trkpt lat="41.05555353111335" lon="14.71554224656534"><ele>214.5</ele><time>2026-03-28T14:01:40Z</time></trkpt><trkpt lat="41.05579883124188" lon="14.715456321225947"><ele>215.0</ele><time>2026-03-28T14:01:41Z</time></trkpt><trkpt lat="41.056032812490265" lon="14.715368526224426"><ele>215.0</ele><time>2026-03-28T14:01:42Z</time></trkpt><trkpt lat="41.05625510795971" lon="14.715288202804585"><ele>215.0</ele><time>2026-03-28T14:01:43Z</time></trkpt><trkpt lat="41.05648008328657" lon="14.71520551687351"><ele>212.0</ele><time>2026-03-28T14:01:44Z</time></trkpt><trkpt lat="41.056711484824525" lon="14.71512373228128"><ele>209.0</ele><time>2026-03-28T14:01:45Z</time></trkpt><trkpt lat="41.05695815187864" lon="14.715034586837563"><ele>209.0</ele><time>2026-03-28T14:01:45.999Z</time></trkpt><trkpt lat="41.05720148784909" lon="14.714947095676735"><ele>209.0</ele><time>2026-03-28T14:01:46.999Z</time></trkpt><trkpt lat="41.05743214806182" lon="14.714862067465607"><ele>211.0</ele><time>2026-03-28T14:01:47.999Z</time></trkpt><trkpt lat="41.05764352114747" lon="14.714780337891906"><ele>213.0</ele><time>2026-03-28T14:01:48.999Z</time></trkpt><trkpt lat="41.057843121576376" lon="14.714717212870678"><ele>215.0</ele><time>2026-03-28T14:01:49.999Z</time></trkpt><trkpt lat="41.05803215161769" lon="14.714682897688403"><ele>215.0</ele><time>2026-03-28T14:01:50.999Z</time></trkpt><trkpt lat="41.05820744186589" lon="14.714662926123056"><ele>215.0</ele><time>2026-03-28T14:01:51.999Z</time></trkpt><trkpt lat="41.058371768152114" lon="14.714638936349317"><ele>215.0</ele><time>2026-03-28T14:01:52.999Z</time></trkpt><trkpt lat="41.05852098692697" lon="14.7145928945456"><ele>216.33333333333334</ele><time>2026-03-28T14:01:53.999Z</time></trkpt><trkpt lat="41.05866710396875" lon="14.714532893844467"><ele>217.66666666666669</ele><time>2026-03-28T14:01:54.999Z</time></trkpt><trkpt lat="41.0588201533713" lon="14.714466910227207"><ele>219.0</ele><time>2026-03-28T14:01:55.999Z</time></trkpt><trkpt lat="41.05897414133772" lon="14.71438153499693"><ele>214.66666666666669</ele><time>2026-03-28T14:01:56.999Z</time></trkpt><trkpt lat="41.05913424762676" lon="14.714293392103622"><ele>210.33333333333334</ele><time>2026-03-28T14:01:57.999Z</time></trkpt><trkpt lat="41.05928425172351" lon="14.714213107223701"><ele>206.0</ele><time>2026-03-28T14:01:58.999Z</time></trkpt><trkpt lat="41.059423805744444" lon="14.714149175733983"><ele>206.0</ele><time>2026-03-28T14:01:59.999Z</time></trkpt><trkpt lat="41.059548033243665" lon="14.714101182446917"><ele>206.0</ele><time>2026-03-28T14:02:00.999Z</time></trkpt><trkpt lat="41.05966768919081" lon="14.71405041399808"><ele>206.0</ele><time>2026-03-28T14:02:01.999Z</time></trkpt><trkpt lat="41.05977551100622" lon="14.71398761413378"><ele>206.0</ele><time>2026-03-28T14:02:02.999Z</time></trkpt><trkpt lat="41.05988761498386" lon="14.7139025692933"><ele>207.5</ele><time>2026-03-28T14:02:03.999Z</time></trkpt><trkpt lat="41.06000581040826" lon="14.713803813982567"><ele>209.0</ele><time>2026-03-28T14:02:04.999Z</time></trkpt><trkpt lat="41.06012810361987" lon="14.713704732880899"><ele>210.5</ele><time>2026-03-28T14:02:05.999Z</time></trkpt><trkpt lat="41.06025160447243" lon="14.713602760017219"><ele>212.0</ele><time>2026-03-28T14:02:06.999Z</time></trkpt><trkpt lat="41.06037214812124" lon="14.713501011169102"><ele>209.75</ele><time>2026-03-28T14:02:07.999Z</time></trkpt><trkpt lat="41.06049310186452" lon="14.713391120659278"><ele>207.5</ele><time>2026-03-28T14:02:08.999Z</time></trkpt><trkpt lat="41.06061319399232" lon="14.713284332844761"><ele>205.25</ele><time>2026-03-28T14:02:09.999Z</time></trkpt><trkpt lat="41.06073197595819" lon="14.713169694854694"><ele>203.0</ele><time>2026-03-28T14:02:10.999Z</time></trkpt><trkpt lat="41.06086464527201" lon="14.713058580311705"><ele>203.0</ele><time>2026-03-28T14:02:11.999Z</time></trkpt><trkpt lat="41.06099031597229" lon="14.712945508673968"><ele>203.0</ele><time>2026-03-28T14:02:12.999Z</time></trkpt><trkpt lat="41.06111198992514" lon="14.712831109205641"><ele>203.0</ele><time>2026-03-28T14:02:13.999Z</time></trkpt><trkpt lat="41.0612267232816" lon="14.712732432478132"><ele>203.0</ele><time>2026-03-28T14:02:14.999Z</time></trkpt><trkpt lat="41.06133787535351" lon="14.712641379421457"><ele>202.0</ele><time>2026-03-28T14:02:15.999Z</time></trkpt><trkpt lat="41.06146041592575" lon="14.712584443146326"><ele>201.0</ele><time>2026-03-28T14:02:16.999Z</time></trkpt><trkpt lat="41.061573335023354" lon="14.71248309134531"><ele>200.0</ele><time>2026-03-28T14:02:17.999Z</time></trkpt><trkpt lat="41.061688755279945" lon="14.712403133070113"><ele>199.0</ele><time>2026-03-28T14:02:18.999Z</time></trkpt><trkpt lat="41.061805939303554" lon="14.71232916610116"><ele>199.0</ele><time>2026-03-28T14:02:19.999Z</time></trkpt><trkpt lat="41.06191035644923" lon="14.712264689875987"><ele>199.0</ele><time>2026-03-28T14:02:20.999Z</time></trkpt><trkpt lat="41.06200706590281" lon="14.712195131178804"><ele>199.0</ele><time>2026-03-28T14:02:21.999Z</time></trkpt><trkpt lat="41.06210513634771" lon="14.712125564489241"><ele>199.0</ele><time>2026-03-28T14:02:22.999Z</time></trkpt><trkpt lat="41.0621936584588" lon="14.712062331777089"><ele>199.0</ele><time>2026-03-28T14:02:23.999Z</time></trkpt><trkpt lat="41.062270255541755" lon="14.711996193109984"><ele>199.0</ele><time>2026-03-28T14:02:24.999Z</time></trkpt><trkpt lat="41.06233945720562" lon="14.711941108776491"><ele>199.0</ele><time>2026-03-28T14:02:25.999Z</time></trkpt><trkpt lat="41.062411660122244" lon="14.711880981588626"><ele>199.0</ele><time>2026-03-28T14:02:26.998Z</time></trkpt><trkpt lat="41.062476141337086" lon="14.711820022286474"><ele>199.0</ele><time>2026-03-28T14:02:27.998Z</time></trkpt><trkpt lat="41.06256155016124" lon="14.71172366539055"><ele>199.0</ele><time>2026-03-28T14:02:29.998Z</time></trkpt><trkpt lat="41.06253831632957" lon="14.711594159577166"><ele>198.39999999999998</ele><time>2026-03-28T14:02:33.998Z</time></trkpt><trkpt lat="41.06245866164878" lon="14.711547476005984"><ele>197.8</ele><time>2026-03-28T14:02:34.998Z</time></trkpt><trkpt lat="41.06233944987349" lon="14.711535525388355"><ele>197.2</ele><time>2026-03-28T14:02:35.998Z</time></trkpt><trkpt lat="41.062239691727896" lon="14.711516314297935"><ele>196.60000000000002</ele><time>2026-03-28T14:02:36.998Z</time></trkpt><trkpt lat="41.06212198500639" lon="14.711497208948943"><ele>196.0</ele><time>2026-03-28T14:02:37.998Z</time></trkpt><trkpt lat="41.06198199321052" lon="14.711463069341718"><ele>195.66666666666666</ele><time>2026-03-28T14:02:38.998Z</time></trkpt><trkpt lat="41.06183972177622" lon="14.711427871904364"><ele>195.33333333333331</ele><time>2026-03-28T14:02:39.998Z</time></trkpt><trkpt lat="41.06166594633726" lon="14.711389515218665"><ele>195.0</ele><time>2026-03-28T14:02:40.998Z</time></trkpt><trkpt lat="41.06145814907902" lon="14.711347827924229"><ele>194.5</ele><time>2026-03-28T14:02:41.998Z</time></trkpt><trkpt lat="41.061250372137074" lon="14.711302980422735"><ele>194.0</ele><time>2026-03-28T14:02:42.998Z</time></trkpt><trkpt lat="41.061012403147444" lon="14.711226286365264"><ele>194.0</ele><time>2026-03-28T14:02:43.998Z</time></trkpt><trkpt lat="41.06079465996907" lon="14.711157094652474"><ele>194.0</ele><time>2026-03-28T14:02:44.998Z</time></trkpt><trkpt lat="41.06060260028713" lon="14.711038476024935"><ele>194.0</ele><time>2026-03-28T14:02:45.998Z</time></trkpt><trkpt lat="41.06042414290366" lon="14.710888467556616"><ele>195.66666666666669</ele><time>2026-03-28T14:02:46.998Z</time></trkpt><trkpt lat="41.060312370743105" lon="14.710727861083326"><ele>197.33333333333331</ele><time>2026-03-28T14:02:47.998Z</time></trkpt><trkpt lat="41.060167632685605" lon="14.710524343679198"><ele>199.0</ele><time>2026-03-28T14:02:48.998Z</time></trkpt><trkpt lat="41.059996199884495" lon="14.710285244913994"><ele>201.5</ele><time>2026-03-28T14:02:49.998Z</time></trkpt><trkpt lat="41.059826051696135" lon="14.710047937877775"><ele>204.0</ele><time>2026-03-28T14:02:50.998Z</time></trkpt><trkpt lat="41.05967950549589" lon="14.709843548602663"><ele>204.0</ele><time>2026-03-28T14:02:51.998Z</time></trkpt><trkpt lat="41.05953851658105" lon="14.709645746183135"><ele>204.0</ele><time>2026-03-28T14:02:52.998Z</time></trkpt><trkpt lat="41.05940867313185" lon="14.709463030899572"><ele>204.0</ele><time>2026-03-28T14:02:53.998Z</time></trkpt><trkpt lat="41.059301993757764" lon="14.709307978245043"><ele>204.25</ele><time>2026-03-28T14:02:54.998Z</time></trkpt><trkpt lat="41.05920646542541" lon="14.709165372599678"><ele>204.5</ele><time>2026-03-28T14:02:55.998Z</time></trkpt><trkpt lat="41.05914743259865" lon="14.709075542266769"><ele>204.75</ele><time>2026-03-28T14:02:56.998Z</time></trkpt><trkpt lat="41.05906877644697" lon="14.708955682239447"><ele>205.0</ele><time>2026-03-28T14:02:58.998Z</time></trkpt><trkpt lat="41.05896373573124" lon="14.708795616371594"><ele>205.0</ele><time>2026-03-28T14:03:00.998Z</time></trkpt><trkpt lat="41.05891904928974" lon="14.70872676092291"><ele>205.0</ele><time>2026-03-28T14:03:01.998Z</time></trkpt><trkpt lat="41.05886333882003" lon="14.708640205239256"><ele>205.0</ele><time>2026-03-28T14:03:02.998Z</time></trkpt><trkpt lat="41.05871992634788" lon="14.70838648323498"><ele>205.0</ele><time>2026-03-28T14:03:04.998Z</time></trkpt><trkpt lat="41.058637527012046" lon="14.708252316500245"><ele>204.0</ele><time>2026-03-28T14:03:05.997Z</time></trkpt><trkpt lat="41.05854359519311" lon="14.708130694415619"><ele>203.0</ele><time>2026-03-28T14:03:06.997Z</time></trkpt><trkpt lat="41.058459734941394" lon="14.708003776220508"><ele>202.0</ele><time>2026-03-28T14:03:07.997Z</time></trkpt><trkpt lat="41.058369247711816" lon="14.707875330335998"><ele>201.0</ele><time>2026-03-28T14:03:08.997Z</time></trkpt><trkpt lat="41.05828594771855" lon="14.70774203898608"><ele>202.0</ele><time>2026-03-28T14:03:09.997Z</time></trkpt><trkpt lat="41.05819641627439" lon="14.707594888679049"><ele>203.0</ele><time>2026-03-28T14:03:10.997Z</time></trkpt><trkpt lat="41.058102398394155" lon="14.707441609460824"><ele>204.0</ele><time>2026-03-28T14:03:11.997Z</time></trkpt><trkpt lat="41.058009784201694" lon="14.707279329464917"><ele>205.0</ele><time>2026-03-28T14:03:12.997Z</time></trkpt><trkpt lat="41.0578996826002" lon="14.707087559414452"><ele>203.33333333333331</ele><time>2026-03-28T14:03:13.997Z</time></trkpt><trkpt lat="41.05778041113638" lon="14.706893062309588"><ele>201.66666666666669</ele><time>2026-03-28T14:03:14.997Z</time></trkpt><trkpt lat="41.057598844574485" lon="14.706686348421755"><ele>200.0</ele><time>2026-03-28T14:03:15.997Z</time></trkpt><trkpt lat="41.05747314437245" lon="14.706480715805466"><ele>200.66666666666669</ele><time>2026-03-28T14:03:17Z</time></trkpt><trkpt lat="41.05733921521396" lon="14.706268114120139"><ele>201.33333333333331</ele><time>2026-03-28T14:03:18Z</time></trkpt><trkpt lat="41.05720077667764" lon="14.706041771209861"><ele>202.0</ele><time>2026-03-28T14:03:19Z</time></trkpt><trkpt lat="41.05705190881534" lon="14.705796606051482"><ele>202.0</ele><time>2026-03-28T14:03:20Z</time></trkpt><trkpt lat="41.05690335605313" lon="14.705558748944139"><ele>202.0</ele><time>2026-03-28T14:03:21Z</time></trkpt><trkpt lat="41.05675663323147" lon="14.70532214953256"><ele>202.5</ele><time>2026-03-28T14:03:22Z</time></trkpt><trkpt lat="41.056602689122876" lon="14.705084695291802"><ele>203.0</ele><time>2026-03-28T14:03:23Z</time></trkpt><trkpt lat="41.05645255499599" lon="14.704845710944861"><ele>203.0</ele><time>2026-03-28T14:03:24Z</time></trkpt><trkpt lat="41.056299452127426" lon="14.70460040390569"><ele>203.0</ele><time>2026-03-28T14:03:25Z</time></trkpt><trkpt lat="41.05614876696662" lon="14.704361089038082"><ele>202.66666666666669</ele><time>2026-03-28T14:03:26Z</time></trkpt><trkpt lat="41.056010782452994" lon="14.704137836252865"><ele>202.33333333333331</ele><time>2026-03-28T14:03:27Z</time></trkpt><trkpt lat="41.05586639103114" lon="14.7039113462005"><ele>202.0</ele><time>2026-03-28T14:03:28Z</time></trkpt><trkpt lat="41.0557447077794" lon="14.703679271695217"><ele>201.0</ele><time>2026-03-28T14:03:29Z</time></trkpt><trkpt lat="41.0556237352129" lon="14.703436981947759"><ele>200.0</ele><time>2026-03-28T14:03:30Z</time></trkpt><trkpt lat="41.05553840466415" lon="14.703171697494053"><ele>199.0</ele><time>2026-03-28T14:03:31Z</time></trkpt><trkpt lat="41.05546308381976" lon="14.702900803364733"><ele>199.0</ele><time>2026-03-28T14:03:32Z</time></trkpt><trkpt lat="41.05541387319341" lon="14.702609726140459"><ele>199.0</ele><time>2026-03-28T14:03:33Z</time></trkpt><trkpt lat="41.05537944198048" lon="14.702291258730195"><ele>199.0</ele><time>2026-03-28T14:03:34Z</time></trkpt><trkpt lat="41.055350809124015" lon="14.701949398397845"><ele>199.0</ele><time>2026-03-28T14:03:35Z</time></trkpt><trkpt lat="41.05532242837096" lon="14.70160224235743"><ele>197.5</ele><time>2026-03-28T14:03:36Z</time></trkpt><trkpt lat="41.05529519167793" lon="14.701260764918482"><ele>196.0</ele><time>2026-03-28T14:03:37Z</time></trkpt><trkpt lat="41.05526592926282" lon="14.700907796417123"><ele>196.0</ele><time>2026-03-28T14:03:38Z</time></trkpt><trkpt lat="41.055231415088734" lon="14.70058298624265"><ele>196.0</ele><time>2026-03-28T14:03:39Z</time></trkpt><trkpt lat="41.05520649538802" lon="14.700290193729156"><ele>196.66666666666666</ele><time>2026-03-28T14:03:40Z</time></trkpt><trkpt lat="41.05518326979676" lon="14.70001119354789"><ele>197.33333333333331</ele><time>2026-03-28T14:03:41Z</time></trkpt><trkpt lat="41.05517191168011" lon="14.699748852203518"><ele>198.0</ele><time>2026-03-28T14:03:42Z</time></trkpt><trkpt lat="41.05519130610383" lon="14.699478139587091"><ele>199.0</ele><time>2026-03-28T14:03:43Z</time></trkpt><trkpt lat="41.05526095413413" lon="14.69919641624406"><ele>200.0</ele><time>2026-03-28T14:03:44Z</time></trkpt><trkpt lat="41.05533931989937" lon="14.6989043866306"><ele>200.0</ele><time>2026-03-28T14:03:45Z</time></trkpt><trkpt lat="41.055401177504564" lon="14.69864876998233"><ele>200.0</ele><time>2026-03-28T14:03:46Z</time></trkpt><trkpt lat="41.055454423969" lon="14.698424332502858"><ele>200.0</ele><time>2026-03-28T14:03:47Z</time></trkpt><trkpt lat="41.055501244293694" lon="14.698221676756576"><ele>200.0</ele><time>2026-03-28T14:03:48Z</time></trkpt><trkpt lat="41.05553966550721" lon="14.69802878702171"><ele>200.0</ele><time>2026-03-28T14:03:49Z</time></trkpt><trkpt lat="41.055576629692524" lon="14.69785847558692"><ele>200.0</ele><time>2026-03-28T14:03:50Z</time></trkpt><trkpt lat="41.05560983346564" lon="14.697701201335722"><ele>200.0</ele><time>2026-03-28T14:03:50.999Z</time></trkpt><trkpt lat="41.05563449367359" lon="14.697569670038783"><ele>200.4</ele><time>2026-03-28T14:03:51.999Z</time></trkpt><trkpt lat="41.05567442681874" lon="14.697452445877335"><ele>200.8</ele><time>2026-03-28T14:03:52.999Z</time></trkpt><trkpt lat="41.05570505426212" lon="14.697336357444513"><ele>201.2</ele><time>2026-03-28T14:03:53.999Z</time></trkpt><trkpt lat="41.055738401849815" lon="14.697201787562884"><ele>201.6</ele><time>2026-03-28T14:03:54.999Z</time></trkpt><trkpt lat="41.05576157353788" lon="14.697050002135748"><ele>202.0</ele><time>2026-03-28T14:03:55.999Z</time></trkpt><trkpt lat="41.05576742649453" lon="14.696885046018581"><ele>202.5</ele><time>2026-03-28T14:03:56.999Z</time></trkpt><trkpt lat="41.05575258025862" lon="14.696712179548141"><ele>203.0</ele><time>2026-03-28T14:03:57.999Z</time></trkpt><trkpt lat="41.05572158371536" lon="14.696540847221609"><ele>203.5</ele><time>2026-03-28T14:03:58.999Z</time></trkpt><trkpt lat="41.0556957731658" lon="14.69638429080489"><ele>204.0</ele><time>2026-03-28T14:03:59.999Z</time></trkpt><trkpt lat="41.05567838590543" lon="14.696221318311387"><ele>203.75</ele><time>2026-03-28T14:04:00.999Z</time></trkpt><trkpt lat="41.05565341951353" lon="14.69604912014112"><ele>203.5</ele><time>2026-03-28T14:04:01.999Z</time></trkpt><trkpt lat="41.055637394894674" lon="14.695873643443965"><ele>203.25</ele><time>2026-03-28T14:04:02.999Z</time></trkpt><trkpt lat="41.05561888948909" lon="14.695701171189581"><ele>203.0</ele><time>2026-03-28T14:04:03.999Z</time></trkpt><trkpt lat="41.05559902322873" lon="14.695536441625046"><ele>203.0</ele><time>2026-03-28T14:04:04.999Z</time></trkpt><trkpt lat="41.055572906784214" lon="14.69538011409059"><ele>203.0</ele><time>2026-03-28T14:04:05.999Z</time></trkpt><trkpt lat="41.05554687696884" lon="14.695224219945645"><ele>203.0</ele><time>2026-03-28T14:04:06.999Z</time></trkpt><trkpt lat="41.05551526643881" lon="14.695055553833443"><ele>203.0</ele><time>2026-03-28T14:04:07.999Z</time></trkpt><trkpt lat="41.05548282538759" lon="14.694882380341737"><ele>203.0</ele><time>2026-03-28T14:04:08.999Z</time></trkpt><trkpt lat="41.05544755864872" lon="14.694698769979682"><ele>203.0</ele><time>2026-03-28T14:04:09.999Z</time></trkpt><trkpt lat="41.055410092588886" lon="14.694498533262578"><ele>203.0</ele><time>2026-03-28T14:04:10.999Z</time></trkpt><trkpt lat="41.055368389362386" lon="14.694283895846144"><ele>203.0</ele><time>2026-03-28T14:04:11.999Z</time></trkpt><trkpt lat="41.05533066388847" lon="14.694067399837245"><ele>203.0</ele><time>2026-03-28T14:04:12.999Z</time></trkpt><trkpt lat="41.055294313834374" lon="14.693842433079057"><ele>203.0</ele><time>2026-03-28T14:04:13.999Z</time></trkpt><trkpt lat="41.05525704926535" lon="14.693621365502029"><ele>204.0</ele><time>2026-03-28T14:04:14.999Z</time></trkpt><trkpt lat="41.055223217817826" lon="14.693390702680611"><ele>205.0</ele><time>2026-03-28T14:04:15.999Z</time></trkpt><trkpt lat="41.05519402815092" lon="14.693154354253096"><ele>206.0</ele><time>2026-03-28T14:04:16.999Z</time></trkpt><trkpt lat="41.055168482874635" lon="14.692917171712969"><ele>206.5</ele><time>2026-03-28T14:04:17.999Z</time></trkpt><trkpt lat="41.05513743892104" lon="14.692643098893516"><ele>207.0</ele><time>2026-03-28T14:04:18.999Z</time></trkpt><trkpt lat="41.05508138781774" lon="14.691962189439492"><ele>208.0</ele><time>2026-03-28T14:04:20.999Z</time></trkpt><trkpt lat="41.05503191666857" lon="14.691603871432257"><ele>209.0</ele><time>2026-03-28T14:04:21.999Z</time></trkpt><trkpt lat="41.05500341206016" lon="14.691230677571928"><ele>209.0</ele><time>2026-03-28T14:04:22.999Z</time></trkpt><trkpt lat="41.054973229486215" lon="14.69082286023406"><ele>209.0</ele><time>2026-03-28T14:04:23.999Z</time></trkpt><trkpt lat="41.054934113342945" lon="14.690413121496356"><ele>208.0</ele><time>2026-03-28T14:04:24.999Z</time></trkpt><trkpt lat="41.054890622623134" lon="14.68999882676676"><ele>207.0</ele><time>2026-03-28T14:04:25.999Z</time></trkpt><trkpt lat="41.054847336338725" lon="14.689578380115373"><ele>207.5</ele><time>2026-03-28T14:04:26.999Z</time></trkpt><trkpt lat="41.05480497162761" lon="14.68917477725912"><ele>208.0</ele><time>2026-03-28T14:04:27.999Z</time></trkpt><trkpt lat="41.05476553483503" lon="14.688813735054532"><ele>209.5</ele><time>2026-03-28T14:04:28.999Z</time></trkpt><trkpt lat="41.054724650668064" lon="14.688459268947458"><ele>211.0</ele><time>2026-03-28T14:04:29.998Z</time></trkpt><trkpt lat="41.05467977217459" lon="14.688110851999427"><ele>212.0</ele><time>2026-03-28T14:04:30.998Z</time></trkpt><trkpt lat="41.054633098120945" lon="14.687749482860687"><ele>213.0</ele><time>2026-03-28T14:04:31.998Z</time></trkpt><trkpt lat="41.05458687611198" lon="14.687385605043449"><ele>213.0</ele><time>2026-03-28T14:04:32.998Z</time></trkpt><trkpt lat="41.05453785234564" lon="14.687022184765631"><ele>213.0</ele><time>2026-03-28T14:04:33.998Z</time></trkpt><trkpt lat="41.054485410856394" lon="14.686655741963023"><ele>213.5</ele><time>2026-03-28T14:04:34.998Z</time></trkpt><trkpt lat="41.054418062965155" lon="14.686303724982741"><ele>214.0</ele><time>2026-03-28T14:04:35.998Z</time></trkpt><trkpt lat="41.054324027757815" lon="14.685962008892995"><ele>214.0</ele><time>2026-03-28T14:04:36.998Z</time></trkpt><trkpt lat="41.05421384285559" lon="14.685624730059336"><ele>214.0</ele><time>2026-03-28T14:04:37.998Z</time></trkpt><trkpt lat="41.05409711172548" lon="14.68529413576632"><ele>216.0</ele><time>2026-03-28T14:04:38.998Z</time></trkpt><trkpt lat="41.053988085050335" lon="14.684962078785206"><ele>218.0</ele><time>2026-03-28T14:04:39.998Z</time></trkpt><trkpt lat="41.0538925217891" lon="14.684627232700672"><ele>218.0</ele><time>2026-03-28T14:04:40.998Z</time></trkpt><trkpt lat="41.053810032056795" lon="14.684284493137989"><ele>218.0</ele><time>2026-03-28T14:04:41.998Z</time></trkpt><trkpt lat="41.053735215121456" lon="14.683919660332858"><ele>218.0</ele><time>2026-03-28T14:04:42.998Z</time></trkpt><trkpt lat="41.05366265819698" lon="14.683546239267509"><ele>218.0</ele><time>2026-03-28T14:04:43.998Z</time></trkpt><trkpt lat="41.05361756649782" lon="14.683197098322792"><ele>218.0</ele><time>2026-03-28T14:04:44.998Z</time></trkpt><trkpt lat="41.053573874128844" lon="14.68285721130023"><ele>218.0</ele><time>2026-03-28T14:04:45.998Z</time></trkpt><trkpt lat="41.053528480332865" lon="14.682523049786715"><ele>218.0</ele><time>2026-03-28T14:04:46.998Z</time></trkpt><trkpt lat="41.053491006572905" lon="14.68217951997282"><ele>218.0</ele><time>2026-03-28T14:04:47.998Z</time></trkpt><trkpt lat="41.05348199690579" lon="14.681821617430765"><ele>218.5</ele><time>2026-03-28T14:04:48.998Z</time></trkpt><trkpt lat="41.05350080629043" lon="14.681443513270917"><ele>219.0</ele><time>2026-03-28T14:04:49.998Z</time></trkpt><trkpt lat="41.05354820600021" lon="14.681060378946302"><ele>220.0</ele><time>2026-03-28T14:04:50.998Z</time></trkpt><trkpt lat="41.05360152698553" lon="14.680701226874923"><ele>221.0</ele><time>2026-03-28T14:04:51.998Z</time></trkpt><trkpt lat="41.053643574256036" lon="14.68036664398714"><ele>222.0</ele><time>2026-03-28T14:04:52.998Z</time></trkpt><trkpt lat="41.05365828768242" lon="14.680018293871905"><ele>223.0</ele><time>2026-03-28T14:04:53.998Z</time></trkpt><trkpt lat="41.053625696967416" lon="14.67968964253063"><ele>224.5</ele><time>2026-03-28T14:04:54.998Z</time></trkpt><trkpt lat="41.053545363374894" lon="14.679344241723836"><ele>226.0</ele><time>2026-03-28T14:04:55.998Z</time></trkpt><trkpt lat="41.05343034171558" lon="14.678997721361949"><ele>229.5</ele><time>2026-03-28T14:04:56.998Z</time></trkpt><trkpt lat="41.05327988755615" lon="14.678659907591063"><ele>233.0</ele><time>2026-03-28T14:04:57.998Z</time></trkpt><trkpt lat="41.053101317980385" lon="14.678348655324754"><ele>233.0</ele><time>2026-03-28T14:04:58.998Z</time></trkpt><trkpt lat="41.05288402010113" lon="14.678071005630141"><ele>233.0</ele><time>2026-03-28T14:04:59.998Z</time></trkpt><trkpt lat="41.05264661946308" lon="14.677804387649108"><ele>239.0</ele><time>2026-03-28T14:05:00.998Z</time></trkpt><trkpt lat="41.052381950516036" lon="14.677558628355287"><ele>245.0</ele><time>2026-03-28T14:05:01.998Z</time></trkpt><trkpt lat="41.05215663356694" lon="14.677292743188636"><ele>245.0</ele><time>2026-03-28T14:05:02.998Z</time></trkpt><trkpt lat="41.05195452967294" lon="14.67699947912745"><ele>245.0</ele><time>2026-03-28T14:05:03.998Z</time></trkpt><trkpt lat="41.051766219234615" lon="14.676655571264702"><ele>248.5</ele><time>2026-03-28T14:05:04.998Z</time></trkpt><trkpt lat="41.05158968036538" lon="14.676291187007477"><ele>252.0</ele><time>2026-03-28T14:05:05.998Z</time></trkpt><trkpt lat="41.05141603735644" lon="14.675943973460972"><ele>252.0</ele><time>2026-03-28T14:05:06.998Z</time></trkpt><trkpt lat="41.05124142395754" lon="14.675601582630778"><ele>252.0</ele><time>2026-03-28T14:05:07.998Z</time></trkpt><trkpt lat="41.0510635336089" lon="14.675263049304055"><ele>251.5</ele><time>2026-03-28T14:05:08.998Z</time></trkpt><trkpt lat="41.050860256326224" lon="14.674938793106007"><ele>251.0</ele><time>2026-03-28T14:05:09.997Z</time></trkpt><trkpt lat="41.05064429684339" lon="14.674667653946791"><ele>254.5</ele><time>2026-03-28T14:05:10.997Z</time></trkpt><trkpt lat="41.050440964447354" lon="14.674439531962555"><ele>258.0</ele><time>2026-03-28T14:05:11.997Z</time></trkpt><trkpt lat="41.05026468197911" lon="14.674232922583112"><ele>258.0</ele><time>2026-03-28T14:05:12.997Z</time></trkpt><trkpt lat="41.050066028090924" lon="14.6740809200829"><ele>258.0</ele><time>2026-03-28T14:05:13.997Z</time></trkpt><trkpt lat="41.049887973171735" lon="14.673925732304985"><ele>258.0</ele><time>2026-03-28T14:05:14.997Z</time></trkpt><trkpt lat="41.0497160407473" lon="14.673760468371098"><ele>261.0</ele><time>2026-03-28T14:05:15.997Z</time></trkpt><trkpt lat="41.04954553504798" lon="14.67358751364191"><ele>264.0</ele><time>2026-03-28T14:05:16.997Z</time></trkpt><trkpt lat="41.04937927849737" lon="14.673414409349668"><ele>267.0</ele><time>2026-03-28T14:05:17.997Z</time></trkpt><trkpt lat="41.04923199663507" lon="14.673236010223473"><ele>269.3333333333333</ele><time>2026-03-28T14:05:18.997Z</time></trkpt><trkpt lat="41.04911216282837" lon="14.673061861528721"><ele>271.66666666666663</ele><time>2026-03-28T14:05:19.997Z</time></trkpt><trkpt lat="41.04902484091984" lon="14.672898913660363"><ele>274.0</ele><time>2026-03-28T14:05:20.997Z</time></trkpt><trkpt lat="41.04895410474702" lon="14.672748295786851"><ele>274.25</ele><time>2026-03-28T14:05:21.997Z</time></trkpt><trkpt lat="41.048871505128766" lon="14.67259257507262"><ele>274.5</ele><time>2026-03-28T14:05:23Z</time></trkpt><trkpt lat="41.048801224289114" lon="14.672432608479882"><ele>274.75</ele><time>2026-03-28T14:05:24Z</time></trkpt><trkpt lat="41.04874705651816" lon="14.672270746762088"><ele>275.0</ele><time>2026-03-28T14:05:25Z</time></trkpt><trkpt lat="41.04870093709202" lon="14.672108754720504"><ele>275.0</ele><time>2026-03-28T14:05:26Z</time></trkpt><trkpt lat="41.04865491715024" lon="14.671954879698438"><ele>275.0</ele><time>2026-03-28T14:05:27Z</time></trkpt><trkpt lat="41.048616394004846" lon="14.671790668622148"><ele>275.0</ele><time>2026-03-28T14:05:28Z</time></trkpt><trkpt lat="41.0485834779582" lon="14.671627482889635"><ele>275.0</ele><time>2026-03-28T14:05:29Z</time></trkpt><trkpt lat="41.04856193512804" lon="14.671451025856452"><ele>275.5</ele><time>2026-03-28T14:05:30Z</time></trkpt><trkpt lat="41.04853743033986" lon="14.671280120227276"><ele>276.0</ele><time>2026-03-28T14:05:31Z</time></trkpt><trkpt lat="41.04851724464822" lon="14.671114056977732"><ele>276.5</ele><time>2026-03-28T14:05:32Z</time></trkpt><trkpt lat="41.0485046476029" lon="14.670936224425857"><ele>277.0</ele><time>2026-03-28T14:05:33Z</time></trkpt><trkpt lat="41.04850546637428" lon="14.670754109265228"><ele>277.25</ele><time>2026-03-28T14:05:34Z</time></trkpt><trkpt lat="41.048503552141156" lon="14.67058638719777"><ele>277.5</ele><time>2026-03-28T14:05:35Z</time></trkpt><trkpt lat="41.0485010799757" lon="14.670418778880393"><ele>277.75</ele><time>2026-03-28T14:05:36Z</time></trkpt><trkpt lat="41.04849629854842" lon="14.670254167658726"><ele>278.0</ele><time>2026-03-28T14:05:37Z</time></trkpt><trkpt lat="41.04849125134795" lon="14.670094699412946"><ele>278.5</ele><time>2026-03-28T14:05:38Z</time></trkpt><trkpt lat="41.04848991068099" lon="14.669931731714374"><ele>279.0</ele><time>2026-03-28T14:05:39Z</time></trkpt><trkpt lat="41.04848384752243" lon="14.669769432570607"><ele>279.5</ele><time>2026-03-28T14:05:40Z</time></trkpt><trkpt lat="41.04847934070263" lon="14.66960747711679"><ele>280.0</ele><time>2026-03-28T14:05:41Z</time></trkpt><trkpt lat="41.04847026105958" lon="14.669450742203253"><ele>281.0</ele><time>2026-03-28T14:05:42Z</time></trkpt><trkpt lat="41.04846254918366" lon="14.66930333583366"><ele>282.0</ele><time>2026-03-28T14:05:43Z</time></trkpt><trkpt lat="41.04845918452391" lon="14.669151636901907"><ele>283.0</ele><time>2026-03-28T14:05:44Z</time></trkpt><trkpt lat="41.04845733689376" lon="14.669000209914952"><ele>284.0</ele><time>2026-03-28T14:05:45Z</time></trkpt><trkpt lat="41.048458974282525" lon="14.668849365301641"><ele>284.0</ele><time>2026-03-28T14:05:46Z</time></trkpt><trkpt lat="41.048462808983" lon="14.668694583627492"><ele>284.0</ele><time>2026-03-28T14:05:47Z</time></trkpt><trkpt lat="41.04847341887111" lon="14.668546034009905"><ele>284.0</ele><time>2026-03-28T14:05:48Z</time></trkpt><trkpt lat="41.048487265397675" lon="14.668400017352413"><ele>284.0</ele><time>2026-03-28T14:05:49Z</time></trkpt><trkpt lat="41.0485065204079" lon="14.668272440307021"><ele>284.0</ele><time>2026-03-28T14:05:50Z</time></trkpt><trkpt lat="41.048528361118805" lon="14.668131828624023"><ele>285.0</ele><time>2026-03-28T14:05:51Z</time></trkpt><trkpt lat="41.04855768505888" lon="14.66799465955506"><ele>286.0</ele><time>2026-03-28T14:05:52Z</time></trkpt><trkpt lat="41.048584924138794" lon="14.66785269989883"><ele>287.0</ele><time>2026-03-28T14:05:53Z</time></trkpt><trkpt lat="41.04862025141722" lon="14.667713411316434"><ele>288.0</ele><time>2026-03-28T14:05:53.999Z</time></trkpt><trkpt lat="41.048660286308724" lon="14.667572468852047"><ele>289.0</ele><time>2026-03-28T14:05:54.999Z</time></trkpt><trkpt lat="41.04870798524724" lon="14.667428600556605"><ele>289.0</ele><time>2026-03-28T14:05:55.999Z</time></trkpt><trkpt lat="41.04876245325698" lon="14.667286168675757"><ele>289.0</ele><time>2026-03-28T14:05:56.999Z</time></trkpt><trkpt lat="41.04882820988167" lon="14.667137167746146"><ele>289.0</ele><time>2026-03-28T14:05:57.999Z</time></trkpt><trkpt lat="41.048910303647126" lon="14.666974024954913"><ele>289.0</ele><time>2026-03-28T14:05:58.999Z</time></trkpt><trkpt lat="41.04900644550524" lon="14.66681499450977"><ele>289.0</ele><time>2026-03-28T14:05:59.999Z</time></trkpt><trkpt lat="41.04910954145175" lon="14.666650525414196"><ele>289.0</ele><time>2026-03-28T14:06:00.999Z</time></trkpt><trkpt lat="41.049217702382556" lon="14.666482617403675"><ele>289.0</ele><time>2026-03-28T14:06:01.999Z</time></trkpt><trkpt lat="41.04933894146547" lon="14.666317372827033"><ele>289.0</ele><time>2026-03-28T14:06:02.999Z</time></trkpt><trkpt lat="41.04948883787665" lon="14.666139176242877"><ele>289.0</ele><time>2026-03-28T14:06:03.999Z</time></trkpt><trkpt lat="41.04966462484295" lon="14.665967522352696"><ele>289.0</ele><time>2026-03-28T14:06:04.999Z</time></trkpt><trkpt lat="41.04987978913769" lon="14.6658291440597"><ele>291.5</ele><time>2026-03-28T14:06:05.999Z</time></trkpt><trkpt lat="41.05011089566047" lon="14.66570183581228"><ele>294.0</ele><time>2026-03-28T14:06:06.999Z</time></trkpt><trkpt lat="41.05034454980395" lon="14.665572285060332"><ele>294.0</ele><time>2026-03-28T14:06:07.999Z</time></trkpt><trkpt lat="41.050557383466256" lon="14.665442291800243"><ele>294.0</ele><time>2026-03-28T14:06:08.999Z</time></trkpt><trkpt lat="41.050766686083364" lon="14.665321010830686"><ele>294.6666666666667</ele><time>2026-03-28T14:06:09.999Z</time></trkpt><trkpt lat="41.050974126240156" lon="14.665195088031407"><ele>295.33333333333337</ele><time>2026-03-28T14:06:10.999Z</time></trkpt><trkpt lat="41.05116544382976" lon="14.665077568131997"><ele>296.0</ele><time>2026-03-28T14:06:11.999Z</time></trkpt><trkpt lat="41.05134382270608" lon="14.664937954590515"><ele>296.0</ele><time>2026-03-28T14:06:12.999Z</time></trkpt><trkpt lat="41.0515182689028" lon="14.664763142477216"><ele>296.0</ele><time>2026-03-28T14:06:13.999Z</time></trkpt><trkpt lat="41.05168301987457" lon="14.664564782384364"><ele>296.0</ele><time>2026-03-28T14:06:14.999Z</time></trkpt><trkpt lat="41.0518296566395" lon="14.66435064057558"><ele>296.33333333333337</ele><time>2026-03-28T14:06:15.999Z</time></trkpt><trkpt lat="41.051960169155436" lon="14.66412185347822"><ele>296.6666666666667</ele><time>2026-03-28T14:06:16.999Z</time></trkpt><trkpt lat="41.052072911215724" lon="14.663893265026122"><ele>297.0</ele><time>2026-03-28T14:06:17.999Z</time></trkpt><trkpt lat="41.052164671387494" lon="14.663669719502474"><ele>296.0</ele><time>2026-03-28T14:06:18.999Z</time></trkpt><trkpt lat="41.05225413188772" lon="14.663454020428084"><ele>295.0</ele><time>2026-03-28T14:06:19.999Z</time></trkpt><trkpt lat="41.0523456759858" lon="14.663244587930288"><ele>294.0</ele><time>2026-03-28T14:06:20.999Z</time></trkpt><trkpt lat="41.052441347738274" lon="14.66303072247131"><ele>294.3333333333333</ele><time>2026-03-28T14:06:21.999Z</time></trkpt><trkpt lat="41.052533715711746" lon="14.662831659735174"><ele>294.66666666666663</ele><time>2026-03-28T14:06:22.999Z</time></trkpt><trkpt lat="41.05262146940811" lon="14.662635909614178"><ele>295.0</ele><time>2026-03-28T14:06:23.999Z</time></trkpt><trkpt lat="41.05270159842263" lon="14.662455562740671"><ele>295.0</ele><time>2026-03-28T14:06:24.999Z</time></trkpt><trkpt lat="41.052775511580414" lon="14.662288740991135"><ele>295.0</ele><time>2026-03-28T14:06:25.999Z</time></trkpt><trkpt lat="41.05284719224213" lon="14.662126146683471"><ele>295.0</ele><time>2026-03-28T14:06:26.999Z</time></trkpt><trkpt lat="41.052913253916024" lon="14.66196646303015"><ele>295.0</ele><time>2026-03-28T14:06:27.999Z</time></trkpt><trkpt lat="41.05299054382851" lon="14.661802339523186"><ele>294.0</ele><time>2026-03-28T14:06:28.999Z</time></trkpt><trkpt lat="41.05306567333197" lon="14.661634768826188"><ele>293.0</ele><time>2026-03-28T14:06:29.999Z</time></trkpt><trkpt lat="41.053147200087345" lon="14.661456883977172"><ele>292.0</ele><time>2026-03-28T14:06:30.999Z</time></trkpt><trkpt lat="41.05322857386422" lon="14.661274152116789"><ele>292.3333333333333</ele><time>2026-03-28T14:06:31.999Z</time></trkpt><trkpt lat="41.053308350241814" lon="14.661095491890576"><ele>292.6666666666667</ele><time>2026-03-28T14:06:32.998Z</time></trkpt><trkpt lat="41.05338505565959" lon="14.660929332002732"><ele>293.0</ele><time>2026-03-28T14:06:33.998Z</time></trkpt><trkpt lat="41.05346059793282" lon="14.660759736526837"><ele>293.0</ele><time>2026-03-28T14:06:34.998Z</time></trkpt><trkpt lat="41.05353424321313" lon="14.660588508357254"><ele>293.0</ele><time>2026-03-28T14:06:35.998Z</time></trkpt><trkpt lat="41.053612945058774" lon="14.660418988358169"><ele>293.0</ele><time>2026-03-28T14:06:36.998Z</time></trkpt><trkpt lat="41.053688600434484" lon="14.660250720387465"><ele>293.0</ele><time>2026-03-28T14:06:37.998Z</time></trkpt><trkpt lat="41.053764322283186" lon="14.660078717036557"><ele>292.75</ele><time>2026-03-28T14:06:38.998Z</time></trkpt><trkpt lat="41.05383891451956" lon="14.659911509095602"><ele>292.5</ele><time>2026-03-28T14:06:39.998Z</time></trkpt><trkpt lat="41.0539083062163" lon="14.659755996501364"><ele>292.25</ele><time>2026-03-28T14:06:40.998Z</time></trkpt><trkpt lat="41.05397335040603" lon="14.659611454887662"><ele>292.0</ele><time>2026-03-28T14:06:41.998Z</time></trkpt><trkpt lat="41.05404161128289" lon="14.659465708367655"><ele>291.5</ele><time>2026-03-28T14:06:42.998Z</time></trkpt><trkpt lat="41.05410774308388" lon="14.659317538037731"><ele>291.0</ele><time>2026-03-28T14:06:43.998Z</time></trkpt><trkpt lat="41.05416977049273" lon="14.659173743170141"><ele>290.5</ele><time>2026-03-28T14:06:44.998Z</time></trkpt><trkpt lat="41.05422942759197" lon="14.659041637619632"><ele>290.0</ele><time>2026-03-28T14:06:45.998Z</time></trkpt><trkpt lat="41.05428947758633" lon="14.658908441936225"><ele>290.6</ele><time>2026-03-28T14:06:46.998Z</time></trkpt><trkpt lat="41.05435179617861" lon="14.658773362853688"><ele>291.2</ele><time>2026-03-28T14:06:47.998Z</time></trkpt><trkpt lat="41.054409392505214" lon="14.658644617920793"><ele>291.8</ele><time>2026-03-28T14:06:48.998Z</time></trkpt><trkpt lat="41.054458051459164" lon="14.658530486950323"><ele>292.4</ele><time>2026-03-28T14:06:49.998Z</time></trkpt><trkpt lat="41.054511139508264" lon="14.658416882003483"><ele>293.0</ele><time>2026-03-28T14:06:50.998Z</time></trkpt><trkpt lat="41.0545637008494" lon="14.658301348501949"><ele>293.0</ele><time>2026-03-28T14:06:51.998Z</time></trkpt><trkpt lat="41.05461245116554" lon="14.658190061130872"><ele>293.0</ele><time>2026-03-28T14:06:52.998Z</time></trkpt><trkpt lat="41.054658813239506" lon="14.658095297361122"><ele>293.0</ele><time>2026-03-28T14:06:53.998Z</time></trkpt><trkpt lat="41.054705557782" lon="14.658008836074911"><ele>293.0</ele><time>2026-03-28T14:06:54.998Z</time></trkpt><trkpt lat="41.05474558209414" lon="14.657924006509417"><ele>293.0</ele><time>2026-03-28T14:06:55.998Z</time></trkpt><trkpt lat="41.05477672660366" lon="14.65783678571983"><ele>293.0</ele><time>2026-03-28T14:06:56.998Z</time></trkpt><trkpt lat="41.05480355046781" lon="14.657748432014332"><ele>292.83333333333337</ele><time>2026-03-28T14:06:57.998Z</time></trkpt><trkpt lat="41.05482847654368" lon="14.657659493464488"><ele>292.6666666666667</ele><time>2026-03-28T14:06:58.998Z</time></trkpt><trkpt lat="41.05485901911816" lon="14.657579541981999"><ele>292.5</ele><time>2026-03-28T14:06:59.998Z</time></trkpt><trkpt lat="41.05489956871478" lon="14.65750464311209"><ele>292.3333333333333</ele><time>2026-03-28T14:07:00.998Z</time></trkpt><trkpt lat="41.054951193554" lon="14.657412661452563"><ele>292.16666666666663</ele><time>2026-03-28T14:07:01.998Z</time></trkpt><trkpt lat="41.054991067654" lon="14.657309467616768"><ele>292.0</ele><time>2026-03-28T14:07:02.998Z</time></trkpt><trkpt lat="41.05505930846276" lon="14.657181407045625"><ele>292.0</ele><time>2026-03-28T14:07:03.998Z</time></trkpt><trkpt lat="41.05512167195294" lon="14.65703753414517"><ele>292.0</ele><time>2026-03-28T14:07:04.998Z</time></trkpt><trkpt lat="41.055192046460846" lon="14.656873084235954"><ele>292.0</ele><time>2026-03-28T14:07:05.998Z</time></trkpt><trkpt lat="41.05526950564181" lon="14.656699482616506"><ele>292.0</ele><time>2026-03-28T14:07:06.998Z</time></trkpt><trkpt lat="41.05534976684917" lon="14.656516339863813"><ele>291.3333333333333</ele><time>2026-03-28T14:07:07.998Z</time></trkpt><trkpt lat="41.05543503705556" lon="14.656326400574644"><ele>290.6666666666667</ele><time>2026-03-28T14:07:08.998Z</time></trkpt><trkpt lat="41.05552800987512" lon="14.656120640119742"><ele>290.0</ele><time>2026-03-28T14:07:09.998Z</time></trkpt><trkpt lat="41.055621963249955" lon="14.65590849873938"><ele>290.0</ele><time>2026-03-28T14:07:10.998Z</time></trkpt><trkpt lat="41.05571786714938" lon="14.65568813740823"><ele>290.0</ele><time>2026-03-28T14:07:11.998Z</time></trkpt><trkpt lat="41.05581683501067" lon="14.65546434924969"><ele>290.0</ele><time>2026-03-28T14:07:12.997Z</time></trkpt><trkpt lat="41.05592396411268" lon="14.65522964479534"><ele>290.0</ele><time>2026-03-28T14:07:13.997Z</time></trkpt><trkpt lat="41.05602986623283" lon="14.654987812504325"><ele>290.0</ele><time>2026-03-28T14:07:14.997Z</time></trkpt><trkpt lat="41.05613529608511" lon="14.654742933736095"><ele>290.0</ele><time>2026-03-28T14:07:15.997Z</time></trkpt><trkpt lat="41.05623702480658" lon="14.654499865598455"><ele>289.6666666666667</ele><time>2026-03-28T14:07:16.997Z</time></trkpt><trkpt lat="41.05633686104067" lon="14.6542675283868"><ele>289.3333333333333</ele><time>2026-03-28T14:07:17.997Z</time></trkpt><trkpt lat="41.056445028328895" lon="14.654028229616042"><ele>289.0</ele><time>2026-03-28T14:07:18.997Z</time></trkpt><trkpt lat="41.056550370989534" lon="14.653791605698713"><ele>289.3333333333333</ele><time>2026-03-28T14:07:19.997Z</time></trkpt><trkpt lat="41.05665668702652" lon="14.653553866827016"><ele>289.6666666666667</ele><time>2026-03-28T14:07:20.997Z</time></trkpt><trkpt lat="41.05676441919239" lon="14.653316388650955"><ele>290.0</ele><time>2026-03-28T14:07:21.997Z</time></trkpt><trkpt lat="41.05686927041625" lon="14.653078786542054"><ele>290.0</ele><time>2026-03-28T14:07:22.997Z</time></trkpt><trkpt lat="41.05697268177188" lon="14.652843173660534"><ele>290.0</ele><time>2026-03-28T14:07:23.997Z</time></trkpt><trkpt lat="41.05707642291426" lon="14.652609327922725"><ele>290.0</ele><time>2026-03-28T14:07:24.997Z</time></trkpt><trkpt lat="41.057183926189985" lon="14.652366965187115"><ele>290.33333333333337</ele><time>2026-03-28T14:07:25.997Z</time></trkpt><trkpt lat="41.05728661006241" lon="14.652138347271928"><ele>290.6666666666667</ele><time>2026-03-28T14:07:26.997Z</time></trkpt><trkpt lat="41.057386518290336" lon="14.651920092655029"><ele>291.0</ele><time>2026-03-28T14:07:27.997Z</time></trkpt><trkpt lat="41.057483817868196" lon="14.651699799478536"><ele>291.6666666666667</ele><time>2026-03-28T14:07:29Z</time></trkpt><trkpt lat="41.05757685654513" lon="14.651485342041696"><ele>292.33333333333337</ele><time>2026-03-28T14:07:30Z</time></trkpt><trkpt lat="41.05766658551963" lon="14.65128240688594"><ele>293.0</ele><time>2026-03-28T14:07:31Z</time></trkpt><trkpt lat="41.05774861399008" lon="14.651085930619987"><ele>293.33333333333337</ele><time>2026-03-28T14:07:32Z</time></trkpt><trkpt lat="41.057831843001615" lon="14.650890318532348"><ele>293.6666666666667</ele><time>2026-03-28T14:07:33Z</time></trkpt><trkpt lat="41.05791412684686" lon="14.650703156773082"><ele>294.0</ele><time>2026-03-28T14:07:34Z</time></trkpt><trkpt lat="41.058003621509606" lon="14.650496272526194"><ele>294.0</ele><time>2026-03-28T14:07:35Z</time></trkpt><trkpt lat="41.05809935110946" lon="14.65028558117726"><ele>294.0</ele><time>2026-03-28T14:07:36Z</time></trkpt><trkpt lat="41.058180789275035" lon="14.650100395986591"><ele>294.0</ele><time>2026-03-28T14:07:37Z</time></trkpt><trkpt lat="41.058266977977176" lon="14.6499166951111"><ele>294.0</ele><time>2026-03-28T14:07:38Z</time></trkpt><trkpt lat="41.058349867526715" lon="14.64973142627332"><ele>294.0</ele><time>2026-03-28T14:07:39Z</time></trkpt><trkpt lat="41.05842647469445" lon="14.649555041964792"><ele>294.0</ele><time>2026-03-28T14:07:40Z</time></trkpt><trkpt lat="41.05850394165512" lon="14.649376765128208"><ele>294.0</ele><time>2026-03-28T14:07:41Z</time></trkpt><trkpt lat="41.05857789404329" lon="14.649193394337354"><ele>294.0</ele><time>2026-03-28T14:07:42Z</time></trkpt><trkpt lat="41.05865075413" lon="14.649017714030151"><ele>294.0</ele><time>2026-03-28T14:07:43Z</time></trkpt><trkpt lat="41.058727909059016" lon="14.648838333996286"><ele>294.0</ele><time>2026-03-28T14:07:44Z</time></trkpt><trkpt lat="41.05881032872318" lon="14.648651607033573"><ele>294.0</ele><time>2026-03-28T14:07:45Z</time></trkpt><trkpt lat="41.058889240041196" lon="14.64847016157308"><ele>294.0</ele><time>2026-03-28T14:07:46Z</time></trkpt><trkpt lat="41.05897170634699" lon="14.648271558453075"><ele>293.3333333333333</ele><time>2026-03-28T14:07:47Z</time></trkpt><trkpt lat="41.05905625511365" lon="14.648066547425733"><ele>292.66666666666663</ele><time>2026-03-28T14:07:48Z</time></trkpt><trkpt lat="41.05915181256369" lon="14.647842611764464"><ele>292.0</ele><time>2026-03-28T14:07:49Z</time></trkpt><trkpt lat="41.05927710699376" lon="14.64757985750885"><ele>292.0</ele><time>2026-03-28T14:07:50Z</time></trkpt><trkpt lat="41.059395558104576" lon="14.647304566638573"><ele>292.0</ele><time>2026-03-28T14:07:51Z</time></trkpt><trkpt lat="41.0594970545672" lon="14.647067646372799"><ele>292.0</ele><time>2026-03-28T14:07:52Z</time></trkpt><trkpt lat="41.05958903936159" lon="14.646857181446018"><ele>292.0</ele><time>2026-03-28T14:07:53Z</time></trkpt><trkpt lat="41.059672575182546" lon="14.646667971407425"><ele>292.0</ele><time>2026-03-28T14:07:54Z</time></trkpt><trkpt lat="41.05974412116018" lon="14.646513638702114"><ele>292.0</ele><time>2026-03-28T14:07:55Z</time></trkpt><trkpt lat="41.059823102472095" lon="14.646382349883462"><ele>292.0</ele><time>2026-03-28T14:07:56Z</time></trkpt><trkpt lat="41.05990414128376" lon="14.646280295723257"><ele>292.75</ele><time>2026-03-28T14:07:57Z</time></trkpt><trkpt lat="41.059950840686916" lon="14.646152240473526"><ele>293.5</ele><time>2026-03-28T14:07:58Z</time></trkpt><trkpt lat="41.05999861300792" lon="14.64595929885833"><ele>294.25</ele><time>2026-03-28T14:07:59Z</time></trkpt><trkpt lat="41.060058011855006" lon="14.645794375060717"><ele>295.0</ele><time>2026-03-28T14:08:00Z</time></trkpt><trkpt lat="41.060127188212846" lon="14.645622105690624"><ele>295.5</ele><time>2026-03-28T14:08:00.999Z</time></trkpt><trkpt lat="41.060197108728225" lon="14.645452392125131"><ele>296.0</ele><time>2026-03-28T14:08:01.999Z</time></trkpt><trkpt lat="41.06026200413299" lon="14.645293018280094"><ele>296.5</ele><time>2026-03-28T14:08:02.999Z</time></trkpt><trkpt lat="41.06032674189147" lon="14.645146279479409"><ele>297.0</ele><time>2026-03-28T14:08:03.999Z</time></trkpt><trkpt lat="41.06039365899824" lon="14.644996778349968"><ele>297.0</ele><time>2026-03-28T14:08:04.999Z</time></trkpt><trkpt lat="41.06045638314996" lon="14.644855942495585"><ele>297.0</ele><time>2026-03-28T14:08:05.999Z</time></trkpt><trkpt lat="41.06052083710908" lon="14.644713597992117"><ele>297.0</ele><time>2026-03-28T14:08:06.999Z</time></trkpt><trkpt lat="41.060603139456354" lon="14.644521451093016"><ele>297.0</ele><time>2026-03-28T14:08:07.999Z</time></trkpt><trkpt lat="41.060679295374214" lon="14.644345926976506"><ele>297.0</ele><time>2026-03-28T14:08:08.999Z</time></trkpt><trkpt lat="41.060754121301095" lon="14.6441744374489"><ele>297.0</ele><time>2026-03-28T14:08:09.999Z</time></trkpt><trkpt lat="41.060838784992015" lon="14.643972863279206"><ele>297.0</ele><time>2026-03-28T14:08:10.999Z</time></trkpt><trkpt lat="41.06093908157213" lon="14.64372898903473"><ele>295.5</ele><time>2026-03-28T14:08:11.999Z</time></trkpt><trkpt lat="41.0610580866249" lon="14.643466604916812"><ele>294.0</ele><time>2026-03-28T14:08:12.999Z</time></trkpt><trkpt lat="41.061178834562455" lon="14.643212058693278"><ele>294.0</ele><time>2026-03-28T14:08:13.999Z</time></trkpt><trkpt lat="41.06128365571949" lon="14.642989927881304"><ele>294.0</ele><time>2026-03-28T14:08:14.999Z</time></trkpt><trkpt lat="41.0613744370735" lon="14.642766395665351"><ele>294.0</ele><time>2026-03-28T14:08:15.999Z</time></trkpt><trkpt lat="41.0614594663039" lon="14.642566026824507"><ele>293.6666666666667</ele><time>2026-03-28T14:08:16.999Z</time></trkpt><trkpt lat="41.06154487937853" lon="14.642371986457178"><ele>293.33333333333337</ele><time>2026-03-28T14:08:17.999Z</time></trkpt><trkpt lat="41.06162590757076" lon="14.642193549718233"><ele>293.0</ele><time>2026-03-28T14:08:18.999Z</time></trkpt><trkpt lat="41.06169800328057" lon="14.642031715496108"><ele>294.0</ele><time>2026-03-28T14:08:19.999Z</time></trkpt><trkpt lat="41.06177348499198" lon="14.641876994982619"><ele>295.0</ele><time>2026-03-28T14:08:20.999Z</time></trkpt><trkpt lat="41.06182713241712" lon="14.641759607250282"><ele>296.0</ele><time>2026-03-28T14:08:21.999Z</time></trkpt><trkpt lat="41.06190641875997" lon="14.64168007424997"><ele>297.0</ele><time>2026-03-28T14:08:22.999Z</time></trkpt><trkpt lat="41.062009963243305" lon="14.641621572704647"><ele>297.0</ele><time>2026-03-28T14:08:23.999Z</time></trkpt><trkpt lat="41.062095657239404" lon="14.641521286349073"><ele>297.0</ele><time>2026-03-28T14:08:24.999Z</time></trkpt><trkpt lat="41.062148704743166" lon="14.641411037242516"><ele>297.0</ele><time>2026-03-28T14:08:25.999Z</time></trkpt><trkpt lat="41.06223224935414" lon="14.64133219581824"><ele>297.0</ele><time>2026-03-28T14:08:26.999Z</time></trkpt><trkpt lat="41.06236281111317" lon="14.64127968117597"><ele>297.3333333333333</ele><time>2026-03-28T14:08:27.999Z</time></trkpt><trkpt lat="41.062515293808794" lon="14.641225672328261"><ele>297.66666666666663</ele><time>2026-03-28T14:08:28.999Z</time></trkpt><trkpt lat="41.062668639944455" lon="14.641147210957245"><ele>298.0</ele><time>2026-03-28T14:08:29.999Z</time></trkpt><trkpt lat="41.06281040296432" lon="14.641073133323761"><ele>298.0</ele><time>2026-03-28T14:08:30.999Z</time></trkpt><trkpt lat="41.0629449182863" lon="14.64100544672163"><ele>298.0</ele><time>2026-03-28T14:08:31.999Z</time></trkpt><trkpt lat="41.06307912125478" lon="14.64093839760828"><ele>298.0</ele><time>2026-03-28T14:08:32.999Z</time></trkpt><trkpt lat="41.063230536677786" lon="14.64085593634891"><ele>298.66666666666663</ele><time>2026-03-28T14:08:33.999Z</time></trkpt><trkpt lat="41.0633705771803" lon="14.640786412169403"><ele>299.3333333333333</ele><time>2026-03-28T14:08:34.999Z</time></trkpt><trkpt lat="41.063538428051515" lon="14.640705031949318"><ele>300.0</ele><time>2026-03-28T14:08:35.999Z</time></trkpt><trkpt lat="41.06369034163202" lon="14.640619510053618"><ele>300.0</ele><time>2026-03-28T14:08:36.999Z</time></trkpt><trkpt lat="41.063835711129826" lon="14.64057860329744"><ele>300.0</ele><time>2026-03-28T14:08:37.999Z</time></trkpt><trkpt lat="41.06398081938576" lon="14.640518554240028"><ele>300.0</ele><time>2026-03-28T14:08:38.999Z</time></trkpt><trkpt lat="41.06411590299426" lon="14.640450787787605"><ele>300.0</ele><time>2026-03-28T14:08:39.999Z</time></trkpt><trkpt lat="41.06424992327233" lon="14.640390417317194"><ele>300.4</ele><time>2026-03-28T14:08:40.999Z</time></trkpt><trkpt lat="41.06438447109316" lon="14.640356949694615"><ele>300.8</ele><time>2026-03-28T14:08:41.998Z</time></trkpt><trkpt lat="41.06446715071552" lon="14.640316645097274"><ele>301.2</ele><time>2026-03-28T14:08:42.998Z</time></trkpt><trkpt lat="41.064566038288156" lon="14.640314606520809"><ele>301.6</ele><time>2026-03-28T14:08:43.998Z</time></trkpt><trkpt lat="41.064661942408485" lon="14.640228443617474"><ele>302.0</ele><time>2026-03-28T14:08:44.998Z</time></trkpt><trkpt lat="41.06473739689665" lon="14.6402261430056"><ele>302.0</ele><time>2026-03-28T14:08:45.998Z</time></trkpt><trkpt lat="41.06480362983599" lon="14.640177874636152"><ele>302.0</ele><time>2026-03-28T14:08:46.998Z</time></trkpt><trkpt lat="41.06482145937868" lon="14.640058545748628"><ele>302.0</ele><time>2026-03-28T14:08:47.998Z</time></trkpt><trkpt lat="41.06487803294378" lon="14.639936603267262"><ele>302.0</ele><time>2026-03-28T14:08:48.998Z</time></trkpt><trkpt lat="41.064918356700105" lon="14.63984324627612"><ele>302.0</ele><time>2026-03-28T14:08:49.998Z</time></trkpt><trkpt lat="41.064946787079954" lon="14.639733785643662"><ele>302.0</ele><time>2026-03-28T14:08:51.998Z</time></trkpt><trkpt lat="41.064949933345886" lon="14.639636971606262"><ele>302.0</ele><time>2026-03-28T14:08:54.998Z</time></trkpt><trkpt lat="41.06480649331497" lon="14.639511249334818"><ele>302.0</ele><time>2026-03-28T14:08:56.998Z</time></trkpt><trkpt lat="41.064670510454754" lon="14.639415799454758"><ele>302.0</ele><time>2026-03-28T14:08:57.998Z</time></trkpt><trkpt lat="41.064548043828495" lon="14.639343034445492"><ele>301.0</ele><time>2026-03-28T14:08:58.998Z</time></trkpt><trkpt lat="41.06443847166517" lon="14.639259052421137"><ele>300.0</ele><time>2026-03-28T14:08:59.998Z</time></trkpt><trkpt lat="41.06435368038265" lon="14.63916742398779"><ele>299.0</ele><time>2026-03-28T14:09:00.998Z</time></trkpt><trkpt lat="41.064274912017666" lon="14.639070736102488"><ele>298.0</ele><time>2026-03-28T14:09:01.998Z</time></trkpt><trkpt lat="41.06421682526901" lon="14.638955247195955"><ele>297.0</ele><time>2026-03-28T14:09:02.998Z</time></trkpt><trkpt lat="41.06415112885936" lon="14.63885103716352"><ele>296.8</ele><time>2026-03-28T14:09:03.998Z</time></trkpt><trkpt lat="41.064088220167385" lon="14.638750768948688"><ele>296.6</ele><time>2026-03-28T14:09:04.998Z</time></trkpt><trkpt lat="41.064013630174216" lon="14.638643567013363"><ele>296.40000000000003</ele><time>2026-03-28T14:09:05.998Z</time></trkpt><trkpt lat="41.06394686892307" lon="14.63853779390865"><ele>296.2</ele><time>2026-03-28T14:09:06.998Z</time></trkpt><trkpt lat="41.06386456149943" lon="14.638442699286653"><ele>296.0</ele><time>2026-03-28T14:09:07.998Z</time></trkpt><trkpt lat="41.06379573960386" lon="14.638353380243943"><ele>295.83333333333337</ele><time>2026-03-28T14:09:08.998Z</time></trkpt><trkpt lat="41.06373864845725" lon="14.63827989832102"><ele>295.6666666666667</ele><time>2026-03-28T14:09:09.998Z</time></trkpt><trkpt lat="41.063689050487255" lon="14.638205262492317"><ele>295.5</ele><time>2026-03-28T14:09:10.998Z</time></trkpt><trkpt lat="41.06364154903748" lon="14.638139343132408"><ele>295.3333333333333</ele><time>2026-03-28T14:09:11.998Z</time></trkpt><trkpt lat="41.06356175249398" lon="14.638008253749678"><ele>295.16666666666663</ele><time>2026-03-28T14:09:13.998Z</time></trkpt><trkpt lat="41.06351208853518" lon="14.637942456124353"><ele>295.0</ele><time>2026-03-28T14:09:14.998Z</time></trkpt><trkpt lat="41.063469626104016" lon="14.637876066536927"><ele>295.0</ele><time>2026-03-28T14:09:15.998Z</time></trkpt><trkpt lat="41.06341719122136" lon="14.637736597739739"><ele>296.0</ele><time>2026-03-28T14:09:17.998Z</time></trkpt></trkseg></trk></gpx>